<?xml version="1.0" encoding="UTF-8" standalone="no" ?>
<gpx xmlns="http://www.topografix.com/GPX/1/1" xmlns:xsi="http://www.w3.org/2001/XMLSchema-instance" xsi:schemaLocation="http://www.topografix.com/GPX/1/1 http://www.topografix.com/GPX/1/1/gpx.xsd" version="1.1" creator="VisuGPX - https://www.visugpx.com">
  <metadata>
    <name>La VLO 2023</name>
  </metadata>
  <trk>
    <name><![CDATA[La VLO | Vélo | Strava]]></name>
    <trkseg>
      <trkpt lat="45.6912" lon="4.67477">
        <ele>329.6</ele>
        <time>2023-06-04T06:42:00.000Z</time>
      </trkpt>
      <trkpt lat="45.69122" lon="4.67479">
        <ele>328.8</ele>
        <time>2023-06-04T06:42:01.000Z</time>
      </trkpt>
      <trkpt lat="45.69134" lon="4.6749">
        <ele>329</ele>
        <time>2023-06-04T06:42:07.000Z</time>
      </trkpt>
      <trkpt lat="45.69137" lon="4.67493">
        <ele>329</ele>
        <time>2023-06-04T06:42:09.000Z</time>
      </trkpt>
      <trkpt lat="45.69141" lon="4.67492">
        <ele>329</ele>
        <time>2023-06-04T06:42:11.000Z</time>
      </trkpt>
      <trkpt lat="45.69143" lon="4.67492">
        <ele>329</ele>
        <time>2023-06-04T06:42:12.000Z</time>
      </trkpt>
      <trkpt lat="45.69146" lon="4.67492">
        <ele>329</ele>
        <time>2023-06-04T06:42:13.000Z</time>
      </trkpt>
      <trkpt lat="45.69153" lon="4.67495">
        <ele>329.2</ele>
        <time>2023-06-04T06:42:16.000Z</time>
      </trkpt>
      <trkpt lat="45.69157" lon="4.67493">
        <ele>329.2</ele>
        <time>2023-06-04T06:42:18.000Z</time>
      </trkpt>
      <trkpt lat="45.6916" lon="4.67488">
        <ele>329.2</ele>
        <time>2023-06-04T06:42:20.000Z</time>
      </trkpt>
      <trkpt lat="45.6917" lon="4.67469">
        <ele>329.4</ele>
        <time>2023-06-04T06:42:28.000Z</time>
      </trkpt>
      <trkpt lat="45.69179" lon="4.67463">
        <ele>329.6</ele>
        <time>2023-06-04T06:42:32.000Z</time>
      </trkpt>
      <trkpt lat="45.69192" lon="4.67457">
        <ele>329.8</ele>
        <time>2023-06-04T06:42:36.000Z</time>
      </trkpt>
      <trkpt lat="45.69206" lon="4.67442">
        <ele>330</ele>
        <time>2023-06-04T06:42:41.000Z</time>
      </trkpt>
      <trkpt lat="45.6921" lon="4.67442">
        <ele>330</ele>
        <time>2023-06-04T06:42:42.000Z</time>
      </trkpt>
      <trkpt lat="45.69214" lon="4.67442">
        <ele>330.2</ele>
        <time>2023-06-04T06:42:43.000Z</time>
      </trkpt>
      <trkpt lat="45.69222" lon="4.67447">
        <ele>330.4</ele>
        <time>2023-06-04T06:42:46.000Z</time>
      </trkpt>
      <trkpt lat="45.69225" lon="4.67451">
        <ele>330.6</ele>
        <time>2023-06-04T06:42:47.000Z</time>
      </trkpt>
      <trkpt lat="45.69241" lon="4.67464">
        <ele>331.2</ele>
        <time>2023-06-04T06:42:51.000Z</time>
      </trkpt>
      <trkpt lat="45.69249" lon="4.67469">
        <ele>331.4</ele>
        <time>2023-06-04T06:42:53.000Z</time>
      </trkpt>
      <trkpt lat="45.69257" lon="4.67475">
        <ele>331.6</ele>
        <time>2023-06-04T06:42:55.000Z</time>
      </trkpt>
      <trkpt lat="45.69277" lon="4.67485">
        <ele>332.2</ele>
        <time>2023-06-04T06:43:00.000Z</time>
      </trkpt>
      <trkpt lat="45.69288" lon="4.67491">
        <ele>332.6</ele>
        <time>2023-06-04T06:43:03.000Z</time>
      </trkpt>
      <trkpt lat="45.69303" lon="4.67497">
        <ele>333.4</ele>
        <time>2023-06-04T06:43:07.000Z</time>
      </trkpt>
      <trkpt lat="45.69322" lon="4.67501">
        <ele>334</ele>
        <time>2023-06-04T06:43:12.000Z</time>
      </trkpt>
      <trkpt lat="45.69334" lon="4.67502">
        <ele>334.4</ele>
        <time>2023-06-04T06:43:15.000Z</time>
      </trkpt>
      <trkpt lat="45.69341" lon="4.67501">
        <ele>334.8</ele>
        <time>2023-06-04T06:43:17.000Z</time>
      </trkpt>
      <trkpt lat="45.69358" lon="4.67499">
        <ele>335.4</ele>
        <time>2023-06-04T06:43:22.000Z</time>
      </trkpt>
      <trkpt lat="45.69361" lon="4.67498">
        <ele>335.6</ele>
        <time>2023-06-04T06:43:23.000Z</time>
      </trkpt>
      <trkpt lat="45.69374" lon="4.67496">
        <ele>336.4</ele>
        <time>2023-06-04T06:43:27.000Z</time>
      </trkpt>
      <trkpt lat="45.6938" lon="4.67495">
        <ele>336.6</ele>
        <time>2023-06-04T06:43:29.000Z</time>
      </trkpt>
      <trkpt lat="45.69386" lon="4.67494">
        <ele>337.2</ele>
        <time>2023-06-04T06:43:31.000Z</time>
      </trkpt>
      <trkpt lat="45.69392" lon="4.67493">
        <ele>337.8</ele>
        <time>2023-06-04T06:43:33.000Z</time>
      </trkpt>
      <trkpt lat="45.69404" lon="4.67491">
        <ele>339</ele>
        <time>2023-06-04T06:43:37.000Z</time>
      </trkpt>
      <trkpt lat="45.69409" lon="4.6749">
        <ele>339.8</ele>
        <time>2023-06-04T06:43:39.000Z</time>
      </trkpt>
      <trkpt lat="45.69412" lon="4.6749">
        <ele>340</ele>
        <time>2023-06-04T06:43:40.000Z</time>
      </trkpt>
      <trkpt lat="45.69414" lon="4.67489">
        <ele>340</ele>
        <time>2023-06-04T06:43:41.000Z</time>
      </trkpt>
      <trkpt lat="45.69425" lon="4.67487">
        <ele>341.2</ele>
        <time>2023-06-04T06:43:45.000Z</time>
      </trkpt>
      <trkpt lat="45.69435" lon="4.67484">
        <ele>342.4</ele>
        <time>2023-06-04T06:43:49.000Z</time>
      </trkpt>
      <trkpt lat="45.69441" lon="4.67482">
        <ele>343.2</ele>
        <time>2023-06-04T06:43:52.000Z</time>
      </trkpt>
      <trkpt lat="45.69444" lon="4.67481">
        <ele>343.4</ele>
        <time>2023-06-04T06:43:53.000Z</time>
      </trkpt>
      <trkpt lat="45.69452" lon="4.67479">
        <ele>344.4</ele>
        <time>2023-06-04T06:43:57.000Z</time>
      </trkpt>
      <trkpt lat="45.69464" lon="4.67475">
        <ele>345.4</ele>
        <time>2023-06-04T06:44:02.000Z</time>
      </trkpt>
      <trkpt lat="45.69467" lon="4.67474">
        <ele>345.6</ele>
        <time>2023-06-04T06:44:03.000Z</time>
      </trkpt>
      <trkpt lat="45.69474" lon="4.67472">
        <ele>346.4</ele>
        <time>2023-06-04T06:44:06.000Z</time>
      </trkpt>
      <trkpt lat="45.69479" lon="4.6747">
        <ele>346.8</ele>
        <time>2023-06-04T06:44:08.000Z</time>
      </trkpt>
      <trkpt lat="45.6949" lon="4.67464">
        <ele>348</ele>
        <time>2023-06-04T06:44:13.000Z</time>
      </trkpt>
      <trkpt lat="45.69501" lon="4.67459">
        <ele>349.2</ele>
        <time>2023-06-04T06:44:18.000Z</time>
      </trkpt>
      <trkpt lat="45.69508" lon="4.67456">
        <ele>349.8</ele>
        <time>2023-06-04T06:44:21.000Z</time>
      </trkpt>
      <trkpt lat="45.69515" lon="4.67453">
        <ele>350.4</ele>
        <time>2023-06-04T06:44:24.000Z</time>
      </trkpt>
      <trkpt lat="45.69529" lon="4.67447">
        <ele>351.4</ele>
        <time>2023-06-04T06:44:30.000Z</time>
      </trkpt>
      <trkpt lat="45.69539" lon="4.67443">
        <ele>352.4</ele>
        <time>2023-06-04T06:44:34.000Z</time>
      </trkpt>
      <trkpt lat="45.69543" lon="4.6744">
        <ele>352.8</ele>
        <time>2023-06-04T06:44:36.000Z</time>
      </trkpt>
      <trkpt lat="45.6955" lon="4.67436">
        <ele>353.4</ele>
        <time>2023-06-04T06:44:39.000Z</time>
      </trkpt>
      <trkpt lat="45.69562" lon="4.67434">
        <ele>354.2</ele>
        <time>2023-06-04T06:44:43.000Z</time>
      </trkpt>
      <trkpt lat="45.69565" lon="4.67433">
        <ele>354.4</ele>
        <time>2023-06-04T06:44:44.000Z</time>
      </trkpt>
      <trkpt lat="45.6957" lon="4.67432">
        <ele>355</ele>
        <time>2023-06-04T06:44:47.000Z</time>
      </trkpt>
      <trkpt lat="45.6958" lon="4.67429">
        <ele>355.4</ele>
        <time>2023-06-04T06:44:51.000Z</time>
      </trkpt>
      <trkpt lat="45.69583" lon="4.67429">
        <ele>355.6</ele>
        <time>2023-06-04T06:44:52.000Z</time>
      </trkpt>
      <trkpt lat="45.696" lon="4.6743">
        <ele>356.8</ele>
        <time>2023-06-04T06:44:59.000Z</time>
      </trkpt>
      <trkpt lat="45.69605" lon="4.67429">
        <ele>357</ele>
        <time>2023-06-04T06:45:01.000Z</time>
      </trkpt>
      <trkpt lat="45.69622" lon="4.67432">
        <ele>357.8</ele>
        <time>2023-06-04T06:45:07.000Z</time>
      </trkpt>
      <trkpt lat="45.69628" lon="4.67433">
        <ele>358</ele>
        <time>2023-06-04T06:45:09.000Z</time>
      </trkpt>
      <trkpt lat="45.69642" lon="4.67435">
        <ele>358.6</ele>
        <time>2023-06-04T06:45:14.000Z</time>
      </trkpt>
      <trkpt lat="45.6965" lon="4.67431">
        <ele>358.8</ele>
        <time>2023-06-04T06:45:17.000Z</time>
      </trkpt>
      <trkpt lat="45.69669" lon="4.6742">
        <ele>359.6</ele>
        <time>2023-06-04T06:45:23.000Z</time>
      </trkpt>
      <trkpt lat="45.69674" lon="4.67417">
        <ele>359.8</ele>
        <time>2023-06-04T06:45:25.000Z</time>
      </trkpt>
      <trkpt lat="45.69698" lon="4.67402">
        <ele>360.4</ele>
        <time>2023-06-04T06:45:32.000Z</time>
      </trkpt>
      <trkpt lat="45.69713" lon="4.67389">
        <ele>361</ele>
        <time>2023-06-04T06:45:38.000Z</time>
      </trkpt>
      <trkpt lat="45.69715" lon="4.67387">
        <ele>361</ele>
        <time>2023-06-04T06:45:39.000Z</time>
      </trkpt>
      <trkpt lat="45.69717" lon="4.67373">
        <ele>361.6</ele>
        <time>2023-06-04T06:45:43.000Z</time>
      </trkpt>
      <trkpt lat="45.69714" lon="4.6735">
        <ele>362.2</ele>
        <time>2023-06-04T06:45:48.000Z</time>
      </trkpt>
      <trkpt lat="45.69713" lon="4.6734">
        <ele>362.4</ele>
        <time>2023-06-04T06:45:50.000Z</time>
      </trkpt>
      <trkpt lat="45.69706" lon="4.67314">
        <ele>363.4</ele>
        <time>2023-06-04T06:45:56.000Z</time>
      </trkpt>
      <trkpt lat="45.69698" lon="4.67295">
        <ele>364</ele>
        <time>2023-06-04T06:46:00.000Z</time>
      </trkpt>
      <trkpt lat="45.6969" lon="4.67281">
        <ele>364.4</ele>
        <time>2023-06-04T06:46:03.000Z</time>
      </trkpt>
      <trkpt lat="45.69685" lon="4.67271">
        <ele>364.6</ele>
        <time>2023-06-04T06:46:05.000Z</time>
      </trkpt>
      <trkpt lat="45.69683" lon="4.67266">
        <ele>364.8</ele>
        <time>2023-06-04T06:46:07.000Z</time>
      </trkpt>
      <trkpt lat="45.69678" lon="4.67257">
        <ele>364.8</ele>
        <time>2023-06-04T06:46:08.000Z</time>
      </trkpt>
      <trkpt lat="45.69672" lon="4.67247">
        <ele>364.8</ele>
        <time>2023-06-04T06:46:10.000Z</time>
      </trkpt>
      <trkpt lat="45.69645" lon="4.67212">
        <ele>365.2</ele>
        <time>2023-06-04T06:46:19.000Z</time>
      </trkpt>
      <trkpt lat="45.69642" lon="4.67208">
        <ele>365.4</ele>
        <time>2023-06-04T06:46:20.000Z</time>
      </trkpt>
      <trkpt lat="45.69613" lon="4.6718">
        <ele>365.6</ele>
        <time>2023-06-04T06:46:27.000Z</time>
      </trkpt>
      <trkpt lat="45.69597" lon="4.67169">
        <ele>365.6</ele>
        <time>2023-06-04T06:46:30.000Z</time>
      </trkpt>
      <trkpt lat="45.69578" lon="4.67158">
        <ele>365.2</ele>
        <time>2023-06-04T06:46:33.000Z</time>
      </trkpt>
      <trkpt lat="45.69543" lon="4.67145">
        <ele>364.4</ele>
        <time>2023-06-04T06:46:38.000Z</time>
      </trkpt>
      <trkpt lat="45.69535" lon="4.67143">
        <ele>364.4</ele>
        <time>2023-06-04T06:46:39.000Z</time>
      </trkpt>
      <trkpt lat="45.69528" lon="4.67141">
        <ele>364</ele>
        <time>2023-06-04T06:46:40.000Z</time>
      </trkpt>
      <trkpt lat="45.69492" lon="4.67125">
        <ele>362.8</ele>
        <time>2023-06-04T06:46:45.000Z</time>
      </trkpt>
      <trkpt lat="45.69485" lon="4.67121">
        <ele>362.6</ele>
        <time>2023-06-04T06:46:46.000Z</time>
      </trkpt>
      <trkpt lat="45.69459" lon="4.67099">
        <ele>361.8</ele>
        <time>2023-06-04T06:46:50.000Z</time>
      </trkpt>
      <trkpt lat="45.69447" lon="4.67087">
        <ele>361.4</ele>
        <time>2023-06-04T06:46:52.000Z</time>
      </trkpt>
      <trkpt lat="45.69437" lon="4.67071">
        <ele>360.8</ele>
        <time>2023-06-04T06:46:54.000Z</time>
      </trkpt>
      <trkpt lat="45.69424" lon="4.67054">
        <ele>360.2</ele>
        <time>2023-06-04T06:46:56.000Z</time>
      </trkpt>
      <trkpt lat="45.69413" lon="4.67038">
        <ele>359.8</ele>
        <time>2023-06-04T06:46:58.000Z</time>
      </trkpt>
      <trkpt lat="45.69406" lon="4.67028">
        <ele>359.6</ele>
        <time>2023-06-04T06:46:59.000Z</time>
      </trkpt>
      <trkpt lat="45.69376" lon="4.66984">
        <ele>358.2</ele>
        <time>2023-06-04T06:47:04.000Z</time>
      </trkpt>
      <trkpt lat="45.69359" lon="4.66957">
        <ele>357</ele>
        <time>2023-06-04T06:47:07.000Z</time>
      </trkpt>
      <trkpt lat="45.69344" lon="4.66932">
        <ele>355.8</ele>
        <time>2023-06-04T06:47:10.000Z</time>
      </trkpt>
      <trkpt lat="45.69335" lon="4.66917">
        <ele>355</ele>
        <time>2023-06-04T06:47:12.000Z</time>
      </trkpt>
      <trkpt lat="45.69332" lon="4.66912">
        <ele>354.8</ele>
        <time>2023-06-04T06:47:13.000Z</time>
      </trkpt>
      <trkpt lat="45.69308" lon="4.66871">
        <ele>354.4</ele>
        <time>2023-06-04T06:47:19.000Z</time>
      </trkpt>
      <trkpt lat="45.69293" lon="4.66849">
        <ele>354.6</ele>
        <time>2023-06-04T06:47:23.000Z</time>
      </trkpt>
      <trkpt lat="45.69289" lon="4.66845">
        <ele>354.6</ele>
        <time>2023-06-04T06:47:24.000Z</time>
      </trkpt>
      <trkpt lat="45.69285" lon="4.66841">
        <ele>354.8</ele>
        <time>2023-06-04T06:47:25.000Z</time>
      </trkpt>
      <trkpt lat="45.69263" lon="4.66823">
        <ele>356.2</ele>
        <time>2023-06-04T06:47:30.000Z</time>
      </trkpt>
      <trkpt lat="45.69249" lon="4.66813">
        <ele>357.2</ele>
        <time>2023-06-04T06:47:33.000Z</time>
      </trkpt>
      <trkpt lat="45.6924" lon="4.66805">
        <ele>357.6</ele>
        <time>2023-06-04T06:47:35.000Z</time>
      </trkpt>
      <trkpt lat="45.69231" lon="4.66798">
        <ele>358.2</ele>
        <time>2023-06-04T06:47:37.000Z</time>
      </trkpt>
      <trkpt lat="45.69209" lon="4.66779">
        <ele>358.8</ele>
        <time>2023-06-04T06:47:42.000Z</time>
      </trkpt>
      <trkpt lat="45.69205" lon="4.66776">
        <ele>358.8</ele>
        <time>2023-06-04T06:47:43.000Z</time>
      </trkpt>
      <trkpt lat="45.69178" lon="4.66755">
        <ele>359.2</ele>
        <time>2023-06-04T06:47:49.000Z</time>
      </trkpt>
      <trkpt lat="45.69169" lon="4.66749">
        <ele>359.4</ele>
        <time>2023-06-04T06:47:51.000Z</time>
      </trkpt>
      <trkpt lat="45.69164" lon="4.66746">
        <ele>359.4</ele>
        <time>2023-06-04T06:47:52.000Z</time>
      </trkpt>
      <trkpt lat="45.6916" lon="4.66745">
        <ele>359.4</ele>
        <time>2023-06-04T06:47:53.000Z</time>
      </trkpt>
      <trkpt lat="45.69137" lon="4.66736">
        <ele>360</ele>
        <time>2023-06-04T06:47:58.000Z</time>
      </trkpt>
      <trkpt lat="45.691" lon="4.66722">
        <ele>360</ele>
        <time>2023-06-04T06:48:05.000Z</time>
      </trkpt>
      <trkpt lat="45.69095" lon="4.66719">
        <ele>360</ele>
        <time>2023-06-04T06:48:06.000Z</time>
      </trkpt>
      <trkpt lat="45.69084" lon="4.66712">
        <ele>360</ele>
        <time>2023-06-04T06:48:08.000Z</time>
      </trkpt>
      <trkpt lat="45.69069" lon="4.66701">
        <ele>360</ele>
        <time>2023-06-04T06:48:11.000Z</time>
      </trkpt>
      <trkpt lat="45.69032" lon="4.66676">
        <ele>360</ele>
        <time>2023-06-04T06:48:18.000Z</time>
      </trkpt>
      <trkpt lat="45.69022" lon="4.66668">
        <ele>360</ele>
        <time>2023-06-04T06:48:20.000Z</time>
      </trkpt>
      <trkpt lat="45.69012" lon="4.66662">
        <ele>360</ele>
        <time>2023-06-04T06:48:22.000Z</time>
      </trkpt>
      <trkpt lat="45.68992" lon="4.66651">
        <ele>360</ele>
        <time>2023-06-04T06:48:26.000Z</time>
      </trkpt>
      <trkpt lat="45.68988" lon="4.66649">
        <ele>360</ele>
        <time>2023-06-04T06:48:27.000Z</time>
      </trkpt>
      <trkpt lat="45.68979" lon="4.66645">
        <ele>360</ele>
        <time>2023-06-04T06:48:29.000Z</time>
      </trkpt>
      <trkpt lat="45.68975" lon="4.66643">
        <ele>360.2</ele>
        <time>2023-06-04T06:48:30.000Z</time>
      </trkpt>
      <trkpt lat="45.68951" lon="4.66633">
        <ele>360.6</ele>
        <time>2023-06-04T06:48:35.000Z</time>
      </trkpt>
      <trkpt lat="45.68941" lon="4.6663">
        <ele>360.6</ele>
        <time>2023-06-04T06:48:37.000Z</time>
      </trkpt>
      <trkpt lat="45.68908" lon="4.66616">
        <ele>360.8</ele>
        <time>2023-06-04T06:48:43.000Z</time>
      </trkpt>
      <trkpt lat="45.68876" lon="4.66596">
        <ele>360.4</ele>
        <time>2023-06-04T06:48:48.000Z</time>
      </trkpt>
      <trkpt lat="45.68871" lon="4.66591">
        <ele>360.2</ele>
        <time>2023-06-04T06:48:49.000Z</time>
      </trkpt>
      <trkpt lat="45.68859" lon="4.66578">
        <ele>359.8</ele>
        <time>2023-06-04T06:48:51.000Z</time>
      </trkpt>
      <trkpt lat="45.68841" lon="4.66557">
        <ele>359</ele>
        <time>2023-06-04T06:48:54.000Z</time>
      </trkpt>
      <trkpt lat="45.68835" lon="4.66551">
        <ele>358.6</ele>
        <time>2023-06-04T06:48:55.000Z</time>
      </trkpt>
      <trkpt lat="45.68816" lon="4.66532">
        <ele>357.8</ele>
        <time>2023-06-04T06:48:58.000Z</time>
      </trkpt>
      <trkpt lat="45.68798" lon="4.66514">
        <ele>356.6</ele>
        <time>2023-06-04T06:49:01.000Z</time>
      </trkpt>
      <trkpt lat="45.68792" lon="4.66509">
        <ele>356.2</ele>
        <time>2023-06-04T06:49:02.000Z</time>
      </trkpt>
      <trkpt lat="45.68787" lon="4.66503">
        <ele>355.6</ele>
        <time>2023-06-04T06:49:03.000Z</time>
      </trkpt>
      <trkpt lat="45.68768" lon="4.66488">
        <ele>354.4</ele>
        <time>2023-06-04T06:49:06.000Z</time>
      </trkpt>
      <trkpt lat="45.68754" lon="4.66476">
        <ele>354</ele>
        <time>2023-06-04T06:49:08.000Z</time>
      </trkpt>
      <trkpt lat="45.68742" lon="4.66462">
        <ele>353.4</ele>
        <time>2023-06-04T06:49:10.000Z</time>
      </trkpt>
      <trkpt lat="45.68736" lon="4.66454">
        <ele>353.2</ele>
        <time>2023-06-04T06:49:11.000Z</time>
      </trkpt>
      <trkpt lat="45.68731" lon="4.66447">
        <ele>352.6</ele>
        <time>2023-06-04T06:49:12.000Z</time>
      </trkpt>
      <trkpt lat="45.68724" lon="4.66443">
        <ele>352</ele>
        <time>2023-06-04T06:49:13.000Z</time>
      </trkpt>
      <trkpt lat="45.68711" lon="4.66437">
        <ele>350.6</ele>
        <time>2023-06-04T06:49:15.000Z</time>
      </trkpt>
      <trkpt lat="45.68693" lon="4.66434">
        <ele>349.6</ele>
        <time>2023-06-04T06:49:18.000Z</time>
      </trkpt>
      <trkpt lat="45.68682" lon="4.66431">
        <ele>349.4</ele>
        <time>2023-06-04T06:49:20.000Z</time>
      </trkpt>
      <trkpt lat="45.68676" lon="4.66429">
        <ele>349.4</ele>
        <time>2023-06-04T06:49:21.000Z</time>
      </trkpt>
      <trkpt lat="45.68666" lon="4.66424">
        <ele>349.4</ele>
        <time>2023-06-04T06:49:23.000Z</time>
      </trkpt>
      <trkpt lat="45.68661" lon="4.6642">
        <ele>349.4</ele>
        <time>2023-06-04T06:49:24.000Z</time>
      </trkpt>
      <trkpt lat="45.68651" lon="4.66414">
        <ele>349.4</ele>
        <time>2023-06-04T06:49:26.000Z</time>
      </trkpt>
      <trkpt lat="45.68632" lon="4.66401">
        <ele>349.6</ele>
        <time>2023-06-04T06:49:30.000Z</time>
      </trkpt>
      <trkpt lat="45.68609" lon="4.66388">
        <ele>350.4</ele>
        <time>2023-06-04T06:49:35.000Z</time>
      </trkpt>
      <trkpt lat="45.68599" lon="4.66384">
        <ele>350.6</ele>
        <time>2023-06-04T06:49:37.000Z</time>
      </trkpt>
      <trkpt lat="45.68568" lon="4.6637">
        <ele>351.2</ele>
        <time>2023-06-04T06:49:44.000Z</time>
      </trkpt>
      <trkpt lat="45.68559" lon="4.66365">
        <ele>351.6</ele>
        <time>2023-06-04T06:49:46.000Z</time>
      </trkpt>
      <trkpt lat="45.68532" lon="4.66352">
        <ele>352.8</ele>
        <time>2023-06-04T06:49:52.000Z</time>
      </trkpt>
      <trkpt lat="45.68523" lon="4.66347">
        <ele>353.2</ele>
        <time>2023-06-04T06:49:54.000Z</time>
      </trkpt>
      <trkpt lat="45.68518" lon="4.66345">
        <ele>353.6</ele>
        <time>2023-06-04T06:49:55.000Z</time>
      </trkpt>
      <trkpt lat="45.68501" lon="4.66336">
        <ele>354</ele>
        <time>2023-06-04T06:49:59.000Z</time>
      </trkpt>
      <trkpt lat="45.68475" lon="4.66322">
        <ele>354.4</ele>
        <time>2023-06-04T06:50:05.000Z</time>
      </trkpt>
      <trkpt lat="45.68457" lon="4.66311">
        <ele>355.2</ele>
        <time>2023-06-04T06:50:09.000Z</time>
      </trkpt>
      <trkpt lat="45.6845" lon="4.66305">
        <ele>355.6</ele>
        <time>2023-06-04T06:50:11.000Z</time>
      </trkpt>
      <trkpt lat="45.68441" lon="4.66299">
        <ele>356</ele>
        <time>2023-06-04T06:50:13.000Z</time>
      </trkpt>
      <trkpt lat="45.68432" lon="4.66294">
        <ele>356.2</ele>
        <time>2023-06-04T06:50:15.000Z</time>
      </trkpt>
      <trkpt lat="45.68423" lon="4.66289">
        <ele>356.4</ele>
        <time>2023-06-04T06:50:17.000Z</time>
      </trkpt>
      <trkpt lat="45.68419" lon="4.66287">
        <ele>356.6</ele>
        <time>2023-06-04T06:50:18.000Z</time>
      </trkpt>
      <trkpt lat="45.68409" lon="4.66282">
        <ele>356.8</ele>
        <time>2023-06-04T06:50:20.000Z</time>
      </trkpt>
      <trkpt lat="45.68391" lon="4.66273">
        <ele>357</ele>
        <time>2023-06-04T06:50:24.000Z</time>
      </trkpt>
      <trkpt lat="45.68387" lon="4.66271">
        <ele>357.2</ele>
        <time>2023-06-04T06:50:25.000Z</time>
      </trkpt>
      <trkpt lat="45.68378" lon="4.66266">
        <ele>357.2</ele>
        <time>2023-06-04T06:50:27.000Z</time>
      </trkpt>
      <trkpt lat="45.68374" lon="4.66265">
        <ele>357.2</ele>
        <time>2023-06-04T06:50:28.000Z</time>
      </trkpt>
      <trkpt lat="45.68356" lon="4.66257">
        <ele>357.6</ele>
        <time>2023-06-04T06:50:32.000Z</time>
      </trkpt>
      <trkpt lat="45.68339" lon="4.66251">
        <ele>358</ele>
        <time>2023-06-04T06:50:36.000Z</time>
      </trkpt>
      <trkpt lat="45.68324" lon="4.66246">
        <ele>358.2</ele>
        <time>2023-06-04T06:50:40.000Z</time>
      </trkpt>
      <trkpt lat="45.68318" lon="4.66244">
        <ele>358.2</ele>
        <time>2023-06-04T06:50:42.000Z</time>
      </trkpt>
      <trkpt lat="45.68312" lon="4.66241">
        <ele>358.2</ele>
        <time>2023-06-04T06:50:44.000Z</time>
      </trkpt>
      <trkpt lat="45.683" lon="4.66235">
        <ele>358</ele>
        <time>2023-06-04T06:50:48.000Z</time>
      </trkpt>
      <trkpt lat="45.68282" lon="4.66226">
        <ele>357.8</ele>
        <time>2023-06-04T06:50:53.000Z</time>
      </trkpt>
      <trkpt lat="45.68275" lon="4.66221">
        <ele>357.8</ele>
        <time>2023-06-04T06:50:55.000Z</time>
      </trkpt>
      <trkpt lat="45.68242" lon="4.66196">
        <ele>358</ele>
        <time>2023-06-04T06:51:04.000Z</time>
      </trkpt>
      <trkpt lat="45.68213" lon="4.66169">
        <ele>358.6</ele>
        <time>2023-06-04T06:51:12.000Z</time>
      </trkpt>
      <trkpt lat="45.68208" lon="4.66164">
        <ele>358.6</ele>
        <time>2023-06-04T06:51:13.000Z</time>
      </trkpt>
      <trkpt lat="45.68193" lon="4.66149">
        <ele>358.6</ele>
        <time>2023-06-04T06:51:16.000Z</time>
      </trkpt>
      <trkpt lat="45.68189" lon="4.66144">
        <ele>358.6</ele>
        <time>2023-06-04T06:51:17.000Z</time>
      </trkpt>
      <trkpt lat="45.68174" lon="4.66128">
        <ele>358.4</ele>
        <time>2023-06-04T06:51:20.000Z</time>
      </trkpt>
      <trkpt lat="45.68169" lon="4.66122">
        <ele>358.2</ele>
        <time>2023-06-04T06:51:21.000Z</time>
      </trkpt>
      <trkpt lat="45.68158" lon="4.66112">
        <ele>357.4</ele>
        <time>2023-06-04T06:51:23.000Z</time>
      </trkpt>
      <trkpt lat="45.68145" lon="4.66102">
        <ele>356.8</ele>
        <time>2023-06-04T06:51:25.000Z</time>
      </trkpt>
      <trkpt lat="45.68124" lon="4.66085">
        <ele>356.2</ele>
        <time>2023-06-04T06:51:28.000Z</time>
      </trkpt>
      <trkpt lat="45.6811" lon="4.66075">
        <ele>355</ele>
        <time>2023-06-04T06:51:30.000Z</time>
      </trkpt>
      <trkpt lat="45.68101" lon="4.6607">
        <ele>355</ele>
        <time>2023-06-04T06:51:31.000Z</time>
      </trkpt>
      <trkpt lat="45.68088" lon="4.6606">
        <ele>354</ele>
        <time>2023-06-04T06:51:33.000Z</time>
      </trkpt>
      <trkpt lat="45.68073" lon="4.66047">
        <ele>352.4</ele>
        <time>2023-06-04T06:51:35.000Z</time>
      </trkpt>
      <trkpt lat="45.68066" lon="4.6604">
        <ele>351.6</ele>
        <time>2023-06-04T06:51:36.000Z</time>
      </trkpt>
      <trkpt lat="45.68058" lon="4.66031">
        <ele>350.8</ele>
        <time>2023-06-04T06:51:37.000Z</time>
      </trkpt>
      <trkpt lat="45.68051" lon="4.66023">
        <ele>349.6</ele>
        <time>2023-06-04T06:51:38.000Z</time>
      </trkpt>
      <trkpt lat="45.68038" lon="4.66008">
        <ele>348</ele>
        <time>2023-06-04T06:51:40.000Z</time>
      </trkpt>
      <trkpt lat="45.68029" lon="4.65998">
        <ele>347</ele>
        <time>2023-06-04T06:51:41.000Z</time>
      </trkpt>
      <trkpt lat="45.68019" lon="4.65984">
        <ele>345.8</ele>
        <time>2023-06-04T06:51:43.000Z</time>
      </trkpt>
      <trkpt lat="45.68012" lon="4.65971">
        <ele>344.8</ele>
        <time>2023-06-04T06:51:45.000Z</time>
      </trkpt>
      <trkpt lat="45.68007" lon="4.65963">
        <ele>344.2</ele>
        <time>2023-06-04T06:51:46.000Z</time>
      </trkpt>
      <trkpt lat="45.68004" lon="4.65957">
        <ele>343.2</ele>
        <time>2023-06-04T06:51:47.000Z</time>
      </trkpt>
      <trkpt lat="45.68001" lon="4.65953">
        <ele>341.8</ele>
        <time>2023-06-04T06:51:48.000Z</time>
      </trkpt>
      <trkpt lat="45.67997" lon="4.6595">
        <ele>341.2</ele>
        <time>2023-06-04T06:51:49.000Z</time>
      </trkpt>
      <trkpt lat="45.67992" lon="4.65949">
        <ele>340.6</ele>
        <time>2023-06-04T06:51:50.000Z</time>
      </trkpt>
      <trkpt lat="45.67986" lon="4.65951">
        <ele>340.2</ele>
        <time>2023-06-04T06:51:51.000Z</time>
      </trkpt>
      <trkpt lat="45.67981" lon="4.65955">
        <ele>339.4</ele>
        <time>2023-06-04T06:51:52.000Z</time>
      </trkpt>
      <trkpt lat="45.67965" lon="4.65972">
        <ele>338.2</ele>
        <time>2023-06-04T06:51:55.000Z</time>
      </trkpt>
      <trkpt lat="45.67961" lon="4.65976">
        <ele>337</ele>
        <time>2023-06-04T06:51:56.000Z</time>
      </trkpt>
      <trkpt lat="45.67957" lon="4.65979">
        <ele>336</ele>
        <time>2023-06-04T06:51:57.000Z</time>
      </trkpt>
      <trkpt lat="45.67953" lon="4.6598">
        <ele>335.2</ele>
        <time>2023-06-04T06:51:58.000Z</time>
      </trkpt>
      <trkpt lat="45.67949" lon="4.65976">
        <ele>334</ele>
        <time>2023-06-04T06:51:59.000Z</time>
      </trkpt>
      <trkpt lat="45.67945" lon="4.65968">
        <ele>333.2</ele>
        <time>2023-06-04T06:52:00.000Z</time>
      </trkpt>
      <trkpt lat="45.67943" lon="4.65959">
        <ele>332</ele>
        <time>2023-06-04T06:52:01.000Z</time>
      </trkpt>
      <trkpt lat="45.6794" lon="4.65952">
        <ele>330.6</ele>
        <time>2023-06-04T06:52:02.000Z</time>
      </trkpt>
      <trkpt lat="45.67937" lon="4.65945">
        <ele>329.6</ele>
        <time>2023-06-04T06:52:03.000Z</time>
      </trkpt>
      <trkpt lat="45.67933" lon="4.65937">
        <ele>329</ele>
        <time>2023-06-04T06:52:04.000Z</time>
      </trkpt>
      <trkpt lat="45.67934" lon="4.65926">
        <ele>328</ele>
        <time>2023-06-04T06:52:05.000Z</time>
      </trkpt>
      <trkpt lat="45.67936" lon="4.65919">
        <ele>327</ele>
        <time>2023-06-04T06:52:06.000Z</time>
      </trkpt>
      <trkpt lat="45.67938" lon="4.65911">
        <ele>326</ele>
        <time>2023-06-04T06:52:07.000Z</time>
      </trkpt>
      <trkpt lat="45.67938" lon="4.65905">
        <ele>325</ele>
        <time>2023-06-04T06:52:08.000Z</time>
      </trkpt>
      <trkpt lat="45.67939" lon="4.65897">
        <ele>324</ele>
        <time>2023-06-04T06:52:09.000Z</time>
      </trkpt>
      <trkpt lat="45.67938" lon="4.65879">
        <ele>322.4</ele>
        <time>2023-06-04T06:52:11.000Z</time>
      </trkpt>
      <trkpt lat="45.67937" lon="4.65867">
        <ele>321.4</ele>
        <time>2023-06-04T06:52:13.000Z</time>
      </trkpt>
      <trkpt lat="45.67935" lon="4.65865">
        <ele>321.2</ele>
        <time>2023-06-04T06:52:14.000Z</time>
      </trkpt>
      <trkpt lat="45.67932" lon="4.65865">
        <ele>321</ele>
        <time>2023-06-04T06:52:15.000Z</time>
      </trkpt>
      <trkpt lat="45.67926" lon="4.65868">
        <ele>320.8</ele>
        <time>2023-06-04T06:52:17.000Z</time>
      </trkpt>
      <trkpt lat="45.67921" lon="4.65868">
        <ele>320</ele>
        <time>2023-06-04T06:52:19.000Z</time>
      </trkpt>
      <trkpt lat="45.67919" lon="4.65867">
        <ele>319</ele>
        <time>2023-06-04T06:52:20.000Z</time>
      </trkpt>
      <trkpt lat="45.67917" lon="4.6586">
        <ele>317.2</ele>
        <time>2023-06-04T06:52:22.000Z</time>
      </trkpt>
      <trkpt lat="45.67917" lon="4.65854">
        <ele>316.8</ele>
        <time>2023-06-04T06:52:23.000Z</time>
      </trkpt>
      <trkpt lat="45.67915" lon="4.65821">
        <ele>316.4</ele>
        <time>2023-06-04T06:52:28.000Z</time>
      </trkpt>
      <trkpt lat="45.67914" lon="4.65813">
        <ele>316.4</ele>
        <time>2023-06-04T06:52:29.000Z</time>
      </trkpt>
      <trkpt lat="45.67911" lon="4.65792">
        <ele>316.4</ele>
        <time>2023-06-04T06:52:32.000Z</time>
      </trkpt>
      <trkpt lat="45.67911" lon="4.65785">
        <ele>316.4</ele>
        <time>2023-06-04T06:52:33.000Z</time>
      </trkpt>
      <trkpt lat="45.6791" lon="4.65771">
        <ele>316.4</ele>
        <time>2023-06-04T06:52:35.000Z</time>
      </trkpt>
      <trkpt lat="45.67909" lon="4.65759">
        <ele>316.4</ele>
        <time>2023-06-04T06:52:37.000Z</time>
      </trkpt>
      <trkpt lat="45.6791" lon="4.65737">
        <ele>316.4</ele>
        <time>2023-06-04T06:52:40.000Z</time>
      </trkpt>
      <trkpt lat="45.67916" lon="4.657">
        <ele>316.8</ele>
        <time>2023-06-04T06:52:46.000Z</time>
      </trkpt>
      <trkpt lat="45.67918" lon="4.65693">
        <ele>316.8</ele>
        <time>2023-06-04T06:52:47.000Z</time>
      </trkpt>
      <trkpt lat="45.67921" lon="4.65683">
        <ele>317.2</ele>
        <time>2023-06-04T06:52:49.000Z</time>
      </trkpt>
      <trkpt lat="45.67929" lon="4.65653">
        <ele>318.2</ele>
        <time>2023-06-04T06:52:54.000Z</time>
      </trkpt>
      <trkpt lat="45.67935" lon="4.65619">
        <ele>319.2</ele>
        <time>2023-06-04T06:52:59.000Z</time>
      </trkpt>
      <trkpt lat="45.67936" lon="4.65613">
        <ele>319.6</ele>
        <time>2023-06-04T06:53:00.000Z</time>
      </trkpt>
      <trkpt lat="45.67936" lon="4.65607">
        <ele>319.6</ele>
        <time>2023-06-04T06:53:01.000Z</time>
      </trkpt>
      <trkpt lat="45.67939" lon="4.65594">
        <ele>319.8</ele>
        <time>2023-06-04T06:53:03.000Z</time>
      </trkpt>
      <trkpt lat="45.67944" lon="4.65576">
        <ele>320.4</ele>
        <time>2023-06-04T06:53:06.000Z</time>
      </trkpt>
      <trkpt lat="45.67945" lon="4.6557">
        <ele>320.4</ele>
        <time>2023-06-04T06:53:07.000Z</time>
      </trkpt>
      <trkpt lat="45.67946" lon="4.65564">
        <ele>320.6</ele>
        <time>2023-06-04T06:53:08.000Z</time>
      </trkpt>
      <trkpt lat="45.67948" lon="4.6556">
        <ele>320.8</ele>
        <time>2023-06-04T06:53:09.000Z</time>
      </trkpt>
      <trkpt lat="45.67951" lon="4.65542">
        <ele>321.4</ele>
        <time>2023-06-04T06:53:12.000Z</time>
      </trkpt>
      <trkpt lat="45.67954" lon="4.65523">
        <ele>321.8</ele>
        <time>2023-06-04T06:53:15.000Z</time>
      </trkpt>
      <trkpt lat="45.67954" lon="4.65516">
        <ele>322</ele>
        <time>2023-06-04T06:53:16.000Z</time>
      </trkpt>
      <trkpt lat="45.67953" lon="4.65504">
        <ele>322.2</ele>
        <time>2023-06-04T06:53:18.000Z</time>
      </trkpt>
      <trkpt lat="45.67955" lon="4.6549">
        <ele>322.4</ele>
        <time>2023-06-04T06:53:20.000Z</time>
      </trkpt>
      <trkpt lat="45.67956" lon="4.6547">
        <ele>322.6</ele>
        <time>2023-06-04T06:53:23.000Z</time>
      </trkpt>
      <trkpt lat="45.67955" lon="4.65451">
        <ele>323</ele>
        <time>2023-06-04T06:53:26.000Z</time>
      </trkpt>
      <trkpt lat="45.67953" lon="4.65416">
        <ele>323.6</ele>
        <time>2023-06-04T06:53:31.000Z</time>
      </trkpt>
      <trkpt lat="45.67952" lon="4.65394">
        <ele>323.8</ele>
        <time>2023-06-04T06:53:34.000Z</time>
      </trkpt>
      <trkpt lat="45.67951" lon="4.65333">
        <ele>324.6</ele>
        <time>2023-06-04T06:53:42.000Z</time>
      </trkpt>
      <trkpt lat="45.67952" lon="4.6531">
        <ele>324.8</ele>
        <time>2023-06-04T06:53:45.000Z</time>
      </trkpt>
      <trkpt lat="45.67954" lon="4.65272">
        <ele>325</ele>
        <time>2023-06-04T06:53:50.000Z</time>
      </trkpt>
      <trkpt lat="45.67962" lon="4.65214">
        <ele>325.2</ele>
        <time>2023-06-04T06:53:57.000Z</time>
      </trkpt>
      <trkpt lat="45.6797" lon="4.65179">
        <ele>325.2</ele>
        <time>2023-06-04T06:54:01.000Z</time>
      </trkpt>
      <trkpt lat="45.67974" lon="4.65163">
        <ele>325.2</ele>
        <time>2023-06-04T06:54:03.000Z</time>
      </trkpt>
      <trkpt lat="45.6798" lon="4.65139">
        <ele>324.8</ele>
        <time>2023-06-04T06:54:06.000Z</time>
      </trkpt>
      <trkpt lat="45.6798" lon="4.65132">
        <ele>324.8</ele>
        <time>2023-06-04T06:54:07.000Z</time>
      </trkpt>
      <trkpt lat="45.67978" lon="4.65115">
        <ele>324.4</ele>
        <time>2023-06-04T06:54:09.000Z</time>
      </trkpt>
      <trkpt lat="45.67971" lon="4.651">
        <ele>324.2</ele>
        <time>2023-06-04T06:54:11.000Z</time>
      </trkpt>
      <trkpt lat="45.67968" lon="4.65094">
        <ele>324.2</ele>
        <time>2023-06-04T06:54:12.000Z</time>
      </trkpt>
      <trkpt lat="45.6796" lon="4.65078">
        <ele>324.2</ele>
        <time>2023-06-04T06:54:14.000Z</time>
      </trkpt>
      <trkpt lat="45.67957" lon="4.65071">
        <ele>324.2</ele>
        <time>2023-06-04T06:54:15.000Z</time>
      </trkpt>
      <trkpt lat="45.67945" lon="4.65044">
        <ele>324.2</ele>
        <time>2023-06-04T06:54:19.000Z</time>
      </trkpt>
      <trkpt lat="45.67937" lon="4.65034">
        <ele>324.2</ele>
        <time>2023-06-04T06:54:21.000Z</time>
      </trkpt>
      <trkpt lat="45.67917" lon="4.65003">
        <ele>324.4</ele>
        <time>2023-06-04T06:54:26.000Z</time>
      </trkpt>
      <trkpt lat="45.67892" lon="4.64949">
        <ele>324.2</ele>
        <time>2023-06-04T06:54:33.000Z</time>
      </trkpt>
      <trkpt lat="45.67864" lon="4.64891">
        <ele>323.8</ele>
        <time>2023-06-04T06:54:41.000Z</time>
      </trkpt>
      <trkpt lat="45.6786" lon="4.64886">
        <ele>323.8</ele>
        <time>2023-06-04T06:54:42.000Z</time>
      </trkpt>
      <trkpt lat="45.67845" lon="4.64874">
        <ele>323.8</ele>
        <time>2023-06-04T06:54:45.000Z</time>
      </trkpt>
      <trkpt lat="45.67813" lon="4.64853">
        <ele>324.4</ele>
        <time>2023-06-04T06:54:52.000Z</time>
      </trkpt>
      <trkpt lat="45.67807" lon="4.64845">
        <ele>324.6</ele>
        <time>2023-06-04T06:54:54.000Z</time>
      </trkpt>
      <trkpt lat="45.67808" lon="4.6484">
        <ele>324.6</ele>
        <time>2023-06-04T06:54:55.000Z</time>
      </trkpt>
      <trkpt lat="45.67805" lon="4.64824">
        <ele>325.2</ele>
        <time>2023-06-04T06:55:00.000Z</time>
      </trkpt>
      <trkpt lat="45.67804" lon="4.64822">
        <ele>325.4</ele>
        <time>2023-06-04T06:55:01.000Z</time>
      </trkpt>
      <trkpt lat="45.678" lon="4.64812">
        <ele>326.6</ele>
        <time>2023-06-04T06:55:05.000Z</time>
      </trkpt>
      <trkpt lat="45.67798" lon="4.64807">
        <ele>327.6</ele>
        <time>2023-06-04T06:55:07.000Z</time>
      </trkpt>
      <trkpt lat="45.67797" lon="4.64804">
        <ele>328</ele>
        <time>2023-06-04T06:55:08.000Z</time>
      </trkpt>
      <trkpt lat="45.67794" lon="4.64797">
        <ele>329</ele>
        <time>2023-06-04T06:55:11.000Z</time>
      </trkpt>
      <trkpt lat="45.67792" lon="4.64792">
        <ele>329.4</ele>
        <time>2023-06-04T06:55:13.000Z</time>
      </trkpt>
      <trkpt lat="45.67791" lon="4.64788">
        <ele>330</ele>
        <time>2023-06-04T06:55:15.000Z</time>
      </trkpt>
      <trkpt lat="45.6779" lon="4.64786">
        <ele>330.4</ele>
        <time>2023-06-04T06:55:16.000Z</time>
      </trkpt>
      <trkpt lat="45.67789" lon="4.64782">
        <ele>331</ele>
        <time>2023-06-04T06:55:18.000Z</time>
      </trkpt>
      <trkpt lat="45.67789" lon="4.64777">
        <ele>331.6</ele>
        <time>2023-06-04T06:55:20.000Z</time>
      </trkpt>
      <trkpt lat="45.67789" lon="4.64774">
        <ele>332</ele>
        <time>2023-06-04T06:55:21.000Z</time>
      </trkpt>
      <trkpt lat="45.67789" lon="4.64769">
        <ele>332.6</ele>
        <time>2023-06-04T06:55:23.000Z</time>
      </trkpt>
      <trkpt lat="45.67788" lon="4.64758">
        <ele>333.8</ele>
        <time>2023-06-04T06:55:27.000Z</time>
      </trkpt>
      <trkpt lat="45.67787" lon="4.64753">
        <ele>334.4</ele>
        <time>2023-06-04T06:55:29.000Z</time>
      </trkpt>
      <trkpt lat="45.67787" lon="4.64749">
        <ele>334.6</ele>
        <time>2023-06-04T06:55:30.000Z</time>
      </trkpt>
      <trkpt lat="45.67786" lon="4.64746">
        <ele>335</ele>
        <time>2023-06-04T06:55:31.000Z</time>
      </trkpt>
      <trkpt lat="45.67781" lon="4.64726">
        <ele>336</ele>
        <time>2023-06-04T06:55:38.000Z</time>
      </trkpt>
      <trkpt lat="45.67781" lon="4.64723">
        <ele>336</ele>
        <time>2023-06-04T06:55:39.000Z</time>
      </trkpt>
      <trkpt lat="45.67783" lon="4.6471">
        <ele>336.6</ele>
        <time>2023-06-04T06:55:44.000Z</time>
      </trkpt>
      <trkpt lat="45.6778" lon="4.64699">
        <ele>337.2</ele>
        <time>2023-06-04T06:55:48.000Z</time>
      </trkpt>
      <trkpt lat="45.67775" lon="4.64683">
        <ele>338.4</ele>
        <time>2023-06-04T06:55:54.000Z</time>
      </trkpt>
      <trkpt lat="45.67773" lon="4.64675">
        <ele>338.8</ele>
        <time>2023-06-04T06:55:57.000Z</time>
      </trkpt>
      <trkpt lat="45.67771" lon="4.6467">
        <ele>339.2</ele>
        <time>2023-06-04T06:55:59.000Z</time>
      </trkpt>
      <trkpt lat="45.6777" lon="4.64664">
        <ele>339.6</ele>
        <time>2023-06-04T06:56:01.000Z</time>
      </trkpt>
      <trkpt lat="45.67762" lon="4.64641">
        <ele>340.8</ele>
        <time>2023-06-04T06:56:10.000Z</time>
      </trkpt>
      <trkpt lat="45.67757" lon="4.64623">
        <ele>342</ele>
        <time>2023-06-04T06:56:17.000Z</time>
      </trkpt>
      <trkpt lat="45.67754" lon="4.64614">
        <ele>342.4</ele>
        <time>2023-06-04T06:56:21.000Z</time>
      </trkpt>
      <trkpt lat="45.67752" lon="4.64609">
        <ele>343</ele>
        <time>2023-06-04T06:56:23.000Z</time>
      </trkpt>
      <trkpt lat="45.67749" lon="4.64598">
        <ele>344</ele>
        <time>2023-06-04T06:56:28.000Z</time>
      </trkpt>
      <trkpt lat="45.67747" lon="4.64591">
        <ele>344.6</ele>
        <time>2023-06-04T06:56:31.000Z</time>
      </trkpt>
      <trkpt lat="45.67745" lon="4.64586">
        <ele>345</ele>
        <time>2023-06-04T06:56:33.000Z</time>
      </trkpt>
      <trkpt lat="45.67741" lon="4.64574">
        <ele>346.2</ele>
        <time>2023-06-04T06:56:38.000Z</time>
      </trkpt>
      <trkpt lat="45.67738" lon="4.64564">
        <ele>346.8</ele>
        <time>2023-06-04T06:56:42.000Z</time>
      </trkpt>
      <trkpt lat="45.67736" lon="4.64556">
        <ele>347.4</ele>
        <time>2023-06-04T06:56:45.000Z</time>
      </trkpt>
      <trkpt lat="45.67733" lon="4.64544">
        <ele>348.4</ele>
        <time>2023-06-04T06:56:50.000Z</time>
      </trkpt>
      <trkpt lat="45.67731" lon="4.64539">
        <ele>348.8</ele>
        <time>2023-06-04T06:56:52.000Z</time>
      </trkpt>
      <trkpt lat="45.6773" lon="4.64537">
        <ele>349</ele>
        <time>2023-06-04T06:56:53.000Z</time>
      </trkpt>
      <trkpt lat="45.67727" lon="4.6453">
        <ele>349.6</ele>
        <time>2023-06-04T06:56:56.000Z</time>
      </trkpt>
      <trkpt lat="45.67721" lon="4.64515">
        <ele>350.4</ele>
        <time>2023-06-04T06:57:02.000Z</time>
      </trkpt>
      <trkpt lat="45.6772" lon="4.64513">
        <ele>350.8</ele>
        <time>2023-06-04T06:57:03.000Z</time>
      </trkpt>
      <trkpt lat="45.67716" lon="4.64498">
        <ele>351.8</ele>
        <time>2023-06-04T06:57:09.000Z</time>
      </trkpt>
      <trkpt lat="45.67713" lon="4.64488">
        <ele>352.6</ele>
        <time>2023-06-04T06:57:13.000Z</time>
      </trkpt>
      <trkpt lat="45.67712" lon="4.64482">
        <ele>352.8</ele>
        <time>2023-06-04T06:57:15.000Z</time>
      </trkpt>
      <trkpt lat="45.6771" lon="4.64471">
        <ele>354</ele>
        <time>2023-06-04T06:57:19.000Z</time>
      </trkpt>
      <trkpt lat="45.67708" lon="4.64463">
        <ele>354.8</ele>
        <time>2023-06-04T06:57:22.000Z</time>
      </trkpt>
      <trkpt lat="45.67702" lon="4.64453">
        <ele>355.2</ele>
        <time>2023-06-04T06:57:26.000Z</time>
      </trkpt>
      <trkpt lat="45.67697" lon="4.64445">
        <ele>355.6</ele>
        <time>2023-06-04T06:57:30.000Z</time>
      </trkpt>
      <trkpt lat="45.67689" lon="4.64429">
        <ele>356.2</ele>
        <time>2023-06-04T06:57:36.000Z</time>
      </trkpt>
      <trkpt lat="45.67687" lon="4.64422">
        <ele>356.4</ele>
        <time>2023-06-04T06:57:38.000Z</time>
      </trkpt>
      <trkpt lat="45.67681" lon="4.64399">
        <ele>357.4</ele>
        <time>2023-06-04T06:57:45.000Z</time>
      </trkpt>
      <trkpt lat="45.6768" lon="4.64396">
        <ele>357.4</ele>
        <time>2023-06-04T06:57:46.000Z</time>
      </trkpt>
      <trkpt lat="45.67674" lon="4.64371">
        <ele>358</ele>
        <time>2023-06-04T06:57:53.000Z</time>
      </trkpt>
      <trkpt lat="45.6767" lon="4.64357">
        <ele>358.4</ele>
        <time>2023-06-04T06:57:57.000Z</time>
      </trkpt>
      <trkpt lat="45.67666" lon="4.64347">
        <ele>358.6</ele>
        <time>2023-06-04T06:58:00.000Z</time>
      </trkpt>
      <trkpt lat="45.67657" lon="4.64331">
        <ele>359.4</ele>
        <time>2023-06-04T06:58:05.000Z</time>
      </trkpt>
      <trkpt lat="45.67653" lon="4.64325">
        <ele>359.6</ele>
        <time>2023-06-04T06:58:07.000Z</time>
      </trkpt>
      <trkpt lat="45.67637" lon="4.64301">
        <ele>360.6</ele>
        <time>2023-06-04T06:58:15.000Z</time>
      </trkpt>
      <trkpt lat="45.67633" lon="4.64295">
        <ele>360.6</ele>
        <time>2023-06-04T06:58:17.000Z</time>
      </trkpt>
      <trkpt lat="45.67617" lon="4.64279">
        <ele>361.4</ele>
        <time>2023-06-04T06:58:23.000Z</time>
      </trkpt>
      <trkpt lat="45.67608" lon="4.64276">
        <ele>361.6</ele>
        <time>2023-06-04T06:58:25.000Z</time>
      </trkpt>
      <trkpt lat="45.67594" lon="4.64271">
        <ele>361.6</ele>
        <time>2023-06-04T06:58:28.000Z</time>
      </trkpt>
      <trkpt lat="45.67591" lon="4.64269">
        <ele>361.6</ele>
        <time>2023-06-04T06:58:29.000Z</time>
      </trkpt>
      <trkpt lat="45.67588" lon="4.64266">
        <ele>361.6</ele>
        <time>2023-06-04T06:58:30.000Z</time>
      </trkpt>
      <trkpt lat="45.67586" lon="4.64255">
        <ele>361.6</ele>
        <time>2023-06-04T06:58:32.000Z</time>
      </trkpt>
      <trkpt lat="45.67587" lon="4.64235">
        <ele>361.4</ele>
        <time>2023-06-04T06:58:35.000Z</time>
      </trkpt>
      <trkpt lat="45.67588" lon="4.64222">
        <ele>361.4</ele>
        <time>2023-06-04T06:58:37.000Z</time>
      </trkpt>
      <trkpt lat="45.67592" lon="4.64211">
        <ele>361.2</ele>
        <time>2023-06-04T06:58:39.000Z</time>
      </trkpt>
      <trkpt lat="45.67593" lon="4.64205">
        <ele>361.2</ele>
        <time>2023-06-04T06:58:41.000Z</time>
      </trkpt>
      <trkpt lat="45.67591" lon="4.64204">
        <ele>361.2</ele>
        <time>2023-06-04T06:58:43.000Z</time>
      </trkpt>
      <trkpt lat="45.67591" lon="4.64205">
        <ele>361.2</ele>
        <time>2023-06-04T06:58:44.000Z</time>
      </trkpt>
      <trkpt lat="45.6759" lon="4.64222">
        <ele>361.2</ele>
        <time>2023-06-04T06:58:49.000Z</time>
      </trkpt>
      <trkpt lat="45.67588" lon="4.64241">
        <ele>361.2</ele>
        <time>2023-06-04T06:58:53.000Z</time>
      </trkpt>
      <trkpt lat="45.67587" lon="4.64253">
        <ele>361.2</ele>
        <time>2023-06-04T06:58:56.000Z</time>
      </trkpt>
      <trkpt lat="45.67583" lon="4.64256">
        <ele>361.2</ele>
        <time>2023-06-04T06:58:58.000Z</time>
      </trkpt>
      <trkpt lat="45.6758" lon="4.64255">
        <ele>361.2</ele>
        <time>2023-06-04T06:58:59.000Z</time>
      </trkpt>
      <trkpt lat="45.67577" lon="4.64255">
        <ele>361.4</ele>
        <time>2023-06-04T06:59:01.000Z</time>
      </trkpt>
      <trkpt lat="45.67578" lon="4.64256">
        <ele>361.4</ele>
        <time>2023-06-04T06:59:02.000Z</time>
      </trkpt>
      <trkpt lat="45.67589" lon="4.64251">
        <ele>361.4</ele>
        <time>2023-06-04T06:59:06.000Z</time>
      </trkpt>
      <trkpt lat="45.67591" lon="4.64247">
        <ele>361.4</ele>
        <time>2023-06-04T06:59:07.000Z</time>
      </trkpt>
      <trkpt lat="45.67592" lon="4.64234">
        <ele>361.4</ele>
        <time>2023-06-04T06:59:09.000Z</time>
      </trkpt>
      <trkpt lat="45.67594" lon="4.6422">
        <ele>361.4</ele>
        <time>2023-06-04T06:59:11.000Z</time>
      </trkpt>
      <trkpt lat="45.67595" lon="4.64206">
        <ele>361.4</ele>
        <time>2023-06-04T06:59:13.000Z</time>
      </trkpt>
      <trkpt lat="45.67597" lon="4.64199">
        <ele>361.4</ele>
        <time>2023-06-04T06:59:14.000Z</time>
      </trkpt>
      <trkpt lat="45.67604" lon="4.64179">
        <ele>361.4</ele>
        <time>2023-06-04T06:59:17.000Z</time>
      </trkpt>
      <trkpt lat="45.67606" lon="4.64169">
        <ele>361.4</ele>
        <time>2023-06-04T06:59:19.000Z</time>
      </trkpt>
      <trkpt lat="45.67604" lon="4.64148">
        <ele>361</ele>
        <time>2023-06-04T06:59:24.000Z</time>
      </trkpt>
      <trkpt lat="45.676" lon="4.64135">
        <ele>361</ele>
        <time>2023-06-04T06:59:27.000Z</time>
      </trkpt>
      <trkpt lat="45.67595" lon="4.64119">
        <ele>361</ele>
        <time>2023-06-04T06:59:31.000Z</time>
      </trkpt>
      <trkpt lat="45.67588" lon="4.64095">
        <ele>361.6</ele>
        <time>2023-06-04T06:59:37.000Z</time>
      </trkpt>
      <trkpt lat="45.67582" lon="4.64079">
        <ele>362.8</ele>
        <time>2023-06-04T06:59:42.000Z</time>
      </trkpt>
      <trkpt lat="45.67579" lon="4.64073">
        <ele>363.4</ele>
        <time>2023-06-04T06:59:44.000Z</time>
      </trkpt>
      <trkpt lat="45.67578" lon="4.6407">
        <ele>363.6</ele>
        <time>2023-06-04T06:59:45.000Z</time>
      </trkpt>
      <trkpt lat="45.67577" lon="4.64067">
        <ele>363.8</ele>
        <time>2023-06-04T06:59:46.000Z</time>
      </trkpt>
      <trkpt lat="45.67576" lon="4.64063">
        <ele>364.2</ele>
        <time>2023-06-04T06:59:47.000Z</time>
      </trkpt>
      <trkpt lat="45.67576" lon="4.64058">
        <ele>365</ele>
        <time>2023-06-04T06:59:49.000Z</time>
      </trkpt>
      <trkpt lat="45.67574" lon="4.6405">
        <ele>366</ele>
        <time>2023-06-04T06:59:52.000Z</time>
      </trkpt>
      <trkpt lat="45.67571" lon="4.64042">
        <ele>367.4</ele>
        <time>2023-06-04T06:59:55.000Z</time>
      </trkpt>
      <trkpt lat="45.6757" lon="4.64039">
        <ele>367.8</ele>
        <time>2023-06-04T06:59:56.000Z</time>
      </trkpt>
      <trkpt lat="45.67568" lon="4.64037">
        <ele>368.2</ele>
        <time>2023-06-04T06:59:57.000Z</time>
      </trkpt>
      <trkpt lat="45.67566" lon="4.64031">
        <ele>368.8</ele>
        <time>2023-06-04T06:59:59.000Z</time>
      </trkpt>
      <trkpt lat="45.67563" lon="4.64022">
        <ele>369.8</ele>
        <time>2023-06-04T07:00:02.000Z</time>
      </trkpt>
      <trkpt lat="45.67561" lon="4.64016">
        <ele>370.6</ele>
        <time>2023-06-04T07:00:04.000Z</time>
      </trkpt>
      <trkpt lat="45.6756" lon="4.64013">
        <ele>370.8</ele>
        <time>2023-06-04T07:00:05.000Z</time>
      </trkpt>
      <trkpt lat="45.6756" lon="4.6401">
        <ele>371</ele>
        <time>2023-06-04T07:00:06.000Z</time>
      </trkpt>
      <trkpt lat="45.67556" lon="4.63993">
        <ele>372.2</ele>
        <time>2023-06-04T07:00:12.000Z</time>
      </trkpt>
      <trkpt lat="45.67555" lon="4.63988">
        <ele>372.4</ele>
        <time>2023-06-04T07:00:14.000Z</time>
      </trkpt>
      <trkpt lat="45.67551" lon="4.63982">
        <ele>373.2</ele>
        <time>2023-06-04T07:00:17.000Z</time>
      </trkpt>
      <trkpt lat="45.67548" lon="4.63978">
        <ele>373.6</ele>
        <time>2023-06-04T07:00:19.000Z</time>
      </trkpt>
      <trkpt lat="45.67542" lon="4.63969">
        <ele>374.2</ele>
        <time>2023-06-04T07:00:23.000Z</time>
      </trkpt>
      <trkpt lat="45.67536" lon="4.63962">
        <ele>375.2</ele>
        <time>2023-06-04T07:00:27.000Z</time>
      </trkpt>
      <trkpt lat="45.67534" lon="4.6396">
        <ele>375.4</ele>
        <time>2023-06-04T07:00:28.000Z</time>
      </trkpt>
      <trkpt lat="45.67523" lon="4.63947">
        <ele>376.6</ele>
        <time>2023-06-04T07:00:35.000Z</time>
      </trkpt>
      <trkpt lat="45.67516" lon="4.63938">
        <ele>377</ele>
        <time>2023-06-04T07:00:39.000Z</time>
      </trkpt>
      <trkpt lat="45.67507" lon="4.63928">
        <ele>377.6</ele>
        <time>2023-06-04T07:00:44.000Z</time>
      </trkpt>
      <trkpt lat="45.67498" lon="4.63917">
        <ele>378.2</ele>
        <time>2023-06-04T07:00:49.000Z</time>
      </trkpt>
      <trkpt lat="45.67494" lon="4.63911">
        <ele>378.6</ele>
        <time>2023-06-04T07:00:52.000Z</time>
      </trkpt>
      <trkpt lat="45.67485" lon="4.63903">
        <ele>379.4</ele>
        <time>2023-06-04T07:00:57.000Z</time>
      </trkpt>
      <trkpt lat="45.67484" lon="4.63902">
        <ele>379.6</ele>
        <time>2023-06-04T07:00:58.000Z</time>
      </trkpt>
      <trkpt lat="45.67477" lon="4.63893">
        <ele>380.6</ele>
        <time>2023-06-04T07:01:03.000Z</time>
      </trkpt>
      <trkpt lat="45.67476" lon="4.63892">
        <ele>381</ele>
        <time>2023-06-04T07:01:04.000Z</time>
      </trkpt>
      <trkpt lat="45.67473" lon="4.63888">
        <ele>381.6</ele>
        <time>2023-06-04T07:01:06.000Z</time>
      </trkpt>
      <trkpt lat="45.67469" lon="4.63885">
        <ele>382</ele>
        <time>2023-06-04T07:01:08.000Z</time>
      </trkpt>
      <trkpt lat="45.67459" lon="4.63873">
        <ele>383</ele>
        <time>2023-06-04T07:01:14.000Z</time>
      </trkpt>
      <trkpt lat="45.67456" lon="4.63869">
        <ele>383.2</ele>
        <time>2023-06-04T07:01:16.000Z</time>
      </trkpt>
      <trkpt lat="45.67438" lon="4.63852">
        <ele>384.2</ele>
        <time>2023-06-04T07:01:25.000Z</time>
      </trkpt>
      <trkpt lat="45.67436" lon="4.6385">
        <ele>384.2</ele>
        <time>2023-06-04T07:01:26.000Z</time>
      </trkpt>
      <trkpt lat="45.67417" lon="4.63835">
        <ele>385</ele>
        <time>2023-06-04T07:01:36.000Z</time>
      </trkpt>
      <trkpt lat="45.67416" lon="4.63834">
        <ele>385.2</ele>
        <time>2023-06-04T07:01:37.000Z</time>
      </trkpt>
      <trkpt lat="45.67406" lon="4.63828">
        <ele>386.2</ele>
        <time>2023-06-04T07:01:42.000Z</time>
      </trkpt>
      <trkpt lat="45.67399" lon="4.63822">
        <ele>387</ele>
        <time>2023-06-04T07:01:46.000Z</time>
      </trkpt>
      <trkpt lat="45.67396" lon="4.63819">
        <ele>387.4</ele>
        <time>2023-06-04T07:01:48.000Z</time>
      </trkpt>
      <trkpt lat="45.67389" lon="4.63812">
        <ele>388</ele>
        <time>2023-06-04T07:01:53.000Z</time>
      </trkpt>
      <trkpt lat="45.67386" lon="4.63809">
        <ele>388.4</ele>
        <time>2023-06-04T07:01:55.000Z</time>
      </trkpt>
      <trkpt lat="45.67375" lon="4.63803">
        <ele>389.6</ele>
        <time>2023-06-04T07:02:01.000Z</time>
      </trkpt>
      <trkpt lat="45.67373" lon="4.63802">
        <ele>390</ele>
        <time>2023-06-04T07:02:02.000Z</time>
      </trkpt>
      <trkpt lat="45.67368" lon="4.63796">
        <ele>390.8</ele>
        <time>2023-06-04T07:02:06.000Z</time>
      </trkpt>
      <trkpt lat="45.67361" lon="4.63788">
        <ele>391.4</ele>
        <time>2023-06-04T07:02:11.000Z</time>
      </trkpt>
      <trkpt lat="45.67358" lon="4.63785">
        <ele>391.8</ele>
        <time>2023-06-04T07:02:13.000Z</time>
      </trkpt>
      <trkpt lat="45.67357" lon="4.63784">
        <ele>392</ele>
        <time>2023-06-04T07:02:14.000Z</time>
      </trkpt>
      <trkpt lat="45.67351" lon="4.63776">
        <ele>393</ele>
        <time>2023-06-04T07:02:20.000Z</time>
      </trkpt>
      <trkpt lat="45.6735" lon="4.63775">
        <ele>393.2</ele>
        <time>2023-06-04T07:02:21.000Z</time>
      </trkpt>
      <trkpt lat="45.67349" lon="4.63774">
        <ele>393.4</ele>
        <time>2023-06-04T07:02:22.000Z</time>
      </trkpt>
      <trkpt lat="45.67348" lon="4.63773">
        <ele>393.8</ele>
        <time>2023-06-04T07:02:23.000Z</time>
      </trkpt>
      <trkpt lat="45.67345" lon="4.63769">
        <ele>394.4</ele>
        <time>2023-06-04T07:02:26.000Z</time>
      </trkpt>
      <trkpt lat="45.6734" lon="4.63763">
        <ele>395.6</ele>
        <time>2023-06-04T07:02:31.000Z</time>
      </trkpt>
      <trkpt lat="45.67337" lon="4.63759">
        <ele>396</ele>
        <time>2023-06-04T07:02:34.000Z</time>
      </trkpt>
      <trkpt lat="45.67336" lon="4.63758">
        <ele>396.4</ele>
        <time>2023-06-04T07:02:35.000Z</time>
      </trkpt>
      <trkpt lat="45.67334" lon="4.63755">
        <ele>396.8</ele>
        <time>2023-06-04T07:02:37.000Z</time>
      </trkpt>
      <trkpt lat="45.67331" lon="4.63751">
        <ele>397.6</ele>
        <time>2023-06-04T07:02:40.000Z</time>
      </trkpt>
      <trkpt lat="45.67328" lon="4.63749">
        <ele>398</ele>
        <time>2023-06-04T07:02:42.000Z</time>
      </trkpt>
      <trkpt lat="45.67324" lon="4.63744">
        <ele>399</ele>
        <time>2023-06-04T07:02:47.000Z</time>
      </trkpt>
      <trkpt lat="45.67318" lon="4.63738">
        <ele>400.2</ele>
        <time>2023-06-04T07:02:52.000Z</time>
      </trkpt>
      <trkpt lat="45.67313" lon="4.63733">
        <ele>401.4</ele>
        <time>2023-06-04T07:02:57.000Z</time>
      </trkpt>
      <trkpt lat="45.67312" lon="4.63732">
        <ele>401.6</ele>
        <time>2023-06-04T07:02:58.000Z</time>
      </trkpt>
      <trkpt lat="45.67311" lon="4.6373">
        <ele>402</ele>
        <time>2023-06-04T07:03:00.000Z</time>
      </trkpt>
      <trkpt lat="45.67308" lon="4.63727">
        <ele>402.4</ele>
        <time>2023-06-04T07:03:02.000Z</time>
      </trkpt>
      <trkpt lat="45.67306" lon="4.63725">
        <ele>403</ele>
        <time>2023-06-04T07:03:04.000Z</time>
      </trkpt>
      <trkpt lat="45.67303" lon="4.63722">
        <ele>403.6</ele>
        <time>2023-06-04T07:03:07.000Z</time>
      </trkpt>
      <trkpt lat="45.67301" lon="4.6372">
        <ele>404.2</ele>
        <time>2023-06-04T07:03:09.000Z</time>
      </trkpt>
      <trkpt lat="45.67299" lon="4.63718">
        <ele>404.6</ele>
        <time>2023-06-04T07:03:11.000Z</time>
      </trkpt>
      <trkpt lat="45.67297" lon="4.63716">
        <ele>405.2</ele>
        <time>2023-06-04T07:03:13.000Z</time>
      </trkpt>
      <trkpt lat="45.67295" lon="4.63714">
        <ele>405.6</ele>
        <time>2023-06-04T07:03:15.000Z</time>
      </trkpt>
      <trkpt lat="45.67294" lon="4.63713">
        <ele>405.8</ele>
        <time>2023-06-04T07:03:16.000Z</time>
      </trkpt>
      <trkpt lat="45.67289" lon="4.63707">
        <ele>407</ele>
        <time>2023-06-04T07:03:22.000Z</time>
      </trkpt>
      <trkpt lat="45.67287" lon="4.63705">
        <ele>407.4</ele>
        <time>2023-06-04T07:03:24.000Z</time>
      </trkpt>
      <trkpt lat="45.67285" lon="4.63703">
        <ele>407.8</ele>
        <time>2023-06-04T07:03:26.000Z</time>
      </trkpt>
      <trkpt lat="45.67282" lon="4.637">
        <ele>408.4</ele>
        <time>2023-06-04T07:03:29.000Z</time>
      </trkpt>
      <trkpt lat="45.67277" lon="4.63694">
        <ele>409.4</ele>
        <time>2023-06-04T07:03:34.000Z</time>
      </trkpt>
      <trkpt lat="45.67275" lon="4.6369">
        <ele>410</ele>
        <time>2023-06-04T07:03:37.000Z</time>
      </trkpt>
      <trkpt lat="45.67273" lon="4.63687">
        <ele>410.6</ele>
        <time>2023-06-04T07:03:39.000Z</time>
      </trkpt>
      <trkpt lat="45.6727" lon="4.63679">
        <ele>411.8</ele>
        <time>2023-06-04T07:03:44.000Z</time>
      </trkpt>
      <trkpt lat="45.6727" lon="4.63675">
        <ele>412.4</ele>
        <time>2023-06-04T07:03:46.000Z</time>
      </trkpt>
      <trkpt lat="45.67273" lon="4.63669">
        <ele>413</ele>
        <time>2023-06-04T07:03:49.000Z</time>
      </trkpt>
      <trkpt lat="45.67277" lon="4.63665">
        <ele>413.6</ele>
        <time>2023-06-04T07:03:52.000Z</time>
      </trkpt>
      <trkpt lat="45.67281" lon="4.63659">
        <ele>414</ele>
        <time>2023-06-04T07:03:55.000Z</time>
      </trkpt>
      <trkpt lat="45.67288" lon="4.6365">
        <ele>414.8</ele>
        <time>2023-06-04T07:04:00.000Z</time>
      </trkpt>
      <trkpt lat="45.67293" lon="4.63642">
        <ele>415</ele>
        <time>2023-06-04T07:04:04.000Z</time>
      </trkpt>
      <trkpt lat="45.67294" lon="4.63641">
        <ele>415.2</ele>
        <time>2023-06-04T07:04:05.000Z</time>
      </trkpt>
      <trkpt lat="45.67298" lon="4.63634">
        <ele>415.4</ele>
        <time>2023-06-04T07:04:08.000Z</time>
      </trkpt>
      <trkpt lat="45.67303" lon="4.63626">
        <ele>415.6</ele>
        <time>2023-06-04T07:04:12.000Z</time>
      </trkpt>
      <trkpt lat="45.67313" lon="4.63607">
        <ele>416.2</ele>
        <time>2023-06-04T07:04:20.000Z</time>
      </trkpt>
      <trkpt lat="45.67316" lon="4.63602">
        <ele>416.2</ele>
        <time>2023-06-04T07:04:22.000Z</time>
      </trkpt>
      <trkpt lat="45.67319" lon="4.63591">
        <ele>416.4</ele>
        <time>2023-06-04T07:04:26.000Z</time>
      </trkpt>
      <trkpt lat="45.67319" lon="4.63584">
        <ele>416.6</ele>
        <time>2023-06-04T07:04:28.000Z</time>
      </trkpt>
      <trkpt lat="45.67319" lon="4.63581">
        <ele>416.6</ele>
        <time>2023-06-04T07:04:29.000Z</time>
      </trkpt>
      <trkpt lat="45.67319" lon="4.63576">
        <ele>416.6</ele>
        <time>2023-06-04T07:04:31.000Z</time>
      </trkpt>
      <trkpt lat="45.67319" lon="4.63563">
        <ele>417.2</ele>
        <time>2023-06-04T07:04:36.000Z</time>
      </trkpt>
      <trkpt lat="45.67318" lon="4.6356">
        <ele>417.4</ele>
        <time>2023-06-04T07:04:37.000Z</time>
      </trkpt>
      <trkpt lat="45.67317" lon="4.63553">
        <ele>418</ele>
        <time>2023-06-04T07:04:40.000Z</time>
      </trkpt>
      <trkpt lat="45.67317" lon="4.63548">
        <ele>418.2</ele>
        <time>2023-06-04T07:04:42.000Z</time>
      </trkpt>
      <trkpt lat="45.67316" lon="4.63541">
        <ele>418.6</ele>
        <time>2023-06-04T07:04:45.000Z</time>
      </trkpt>
      <trkpt lat="45.67314" lon="4.6353">
        <ele>419.2</ele>
        <time>2023-06-04T07:04:50.000Z</time>
      </trkpt>
      <trkpt lat="45.67313" lon="4.63523">
        <ele>419.8</ele>
        <time>2023-06-04T07:04:53.000Z</time>
      </trkpt>
      <trkpt lat="45.67312" lon="4.63517">
        <ele>420.4</ele>
        <time>2023-06-04T07:04:56.000Z</time>
      </trkpt>
      <trkpt lat="45.6731" lon="4.63506">
        <ele>421.4</ele>
        <time>2023-06-04T07:05:01.000Z</time>
      </trkpt>
      <trkpt lat="45.67307" lon="4.63497">
        <ele>422.6</ele>
        <time>2023-06-04T07:05:06.000Z</time>
      </trkpt>
      <trkpt lat="45.67306" lon="4.63493">
        <ele>422.8</ele>
        <time>2023-06-04T07:05:08.000Z</time>
      </trkpt>
      <trkpt lat="45.67305" lon="4.63491">
        <ele>422.8</ele>
        <time>2023-06-04T07:05:09.000Z</time>
      </trkpt>
      <trkpt lat="45.67304" lon="4.63485">
        <ele>423.6</ele>
        <time>2023-06-04T07:05:12.000Z</time>
      </trkpt>
      <trkpt lat="45.67303" lon="4.63483">
        <ele>423.8</ele>
        <time>2023-06-04T07:05:13.000Z</time>
      </trkpt>
      <trkpt lat="45.67302" lon="4.63475">
        <ele>424.4</ele>
        <time>2023-06-04T07:05:17.000Z</time>
      </trkpt>
      <trkpt lat="45.67301" lon="4.63471">
        <ele>424.8</ele>
        <time>2023-06-04T07:05:19.000Z</time>
      </trkpt>
      <trkpt lat="45.67298" lon="4.63462">
        <ele>425.8</ele>
        <time>2023-06-04T07:05:24.000Z</time>
      </trkpt>
      <trkpt lat="45.67298" lon="4.63458">
        <ele>426.2</ele>
        <time>2023-06-04T07:05:26.000Z</time>
      </trkpt>
      <trkpt lat="45.67296" lon="4.63454">
        <ele>426.8</ele>
        <time>2023-06-04T07:05:28.000Z</time>
      </trkpt>
      <trkpt lat="45.67294" lon="4.63451">
        <ele>427.2</ele>
        <time>2023-06-04T07:05:30.000Z</time>
      </trkpt>
      <trkpt lat="45.67291" lon="4.63446">
        <ele>427.8</ele>
        <time>2023-06-04T07:05:33.000Z</time>
      </trkpt>
      <trkpt lat="45.67291" lon="4.63445">
        <ele>428.2</ele>
        <time>2023-06-04T07:05:34.000Z</time>
      </trkpt>
      <trkpt lat="45.67291" lon="4.63441">
        <ele>428.6</ele>
        <time>2023-06-04T07:05:36.000Z</time>
      </trkpt>
      <trkpt lat="45.6729" lon="4.63439">
        <ele>428.8</ele>
        <time>2023-06-04T07:05:37.000Z</time>
      </trkpt>
      <trkpt lat="45.67289" lon="4.6343">
        <ele>430.2</ele>
        <time>2023-06-04T07:05:41.000Z</time>
      </trkpt>
      <trkpt lat="45.67289" lon="4.63425">
        <ele>430.8</ele>
        <time>2023-06-04T07:05:43.000Z</time>
      </trkpt>
      <trkpt lat="45.67289" lon="4.63422">
        <ele>431.2</ele>
        <time>2023-06-04T07:05:44.000Z</time>
      </trkpt>
      <trkpt lat="45.67289" lon="4.6342">
        <ele>431.4</ele>
        <time>2023-06-04T07:05:45.000Z</time>
      </trkpt>
      <trkpt lat="45.67289" lon="4.63403">
        <ele>432</ele>
        <time>2023-06-04T07:05:51.000Z</time>
      </trkpt>
      <trkpt lat="45.67288" lon="4.634">
        <ele>432</ele>
        <time>2023-06-04T07:05:52.000Z</time>
      </trkpt>
      <trkpt lat="45.67288" lon="4.63385">
        <ele>432.4</ele>
        <time>2023-06-04T07:05:57.000Z</time>
      </trkpt>
      <trkpt lat="45.67289" lon="4.63382">
        <ele>432.6</ele>
        <time>2023-06-04T07:05:58.000Z</time>
      </trkpt>
      <trkpt lat="45.67286" lon="4.63353">
        <ele>433.2</ele>
        <time>2023-06-04T07:06:07.000Z</time>
      </trkpt>
      <trkpt lat="45.67286" lon="4.63347">
        <ele>433.4</ele>
        <time>2023-06-04T07:06:09.000Z</time>
      </trkpt>
      <trkpt lat="45.67285" lon="4.63341">
        <ele>433.8</ele>
        <time>2023-06-04T07:06:11.000Z</time>
      </trkpt>
      <trkpt lat="45.67284" lon="4.6333">
        <ele>434.2</ele>
        <time>2023-06-04T07:06:15.000Z</time>
      </trkpt>
      <trkpt lat="45.67284" lon="4.63327">
        <ele>434.6</ele>
        <time>2023-06-04T07:06:16.000Z</time>
      </trkpt>
      <trkpt lat="45.67281" lon="4.63315">
        <ele>435.4</ele>
        <time>2023-06-04T07:06:20.000Z</time>
      </trkpt>
      <trkpt lat="45.67281" lon="4.63312">
        <ele>435.6</ele>
        <time>2023-06-04T07:06:21.000Z</time>
      </trkpt>
      <trkpt lat="45.67279" lon="4.63307">
        <ele>436</ele>
        <time>2023-06-04T07:06:23.000Z</time>
      </trkpt>
      <trkpt lat="45.67275" lon="4.63297">
        <ele>436.8</ele>
        <time>2023-06-04T07:06:27.000Z</time>
      </trkpt>
      <trkpt lat="45.67271" lon="4.63289">
        <ele>437.2</ele>
        <time>2023-06-04T07:06:30.000Z</time>
      </trkpt>
      <trkpt lat="45.6727" lon="4.63286">
        <ele>437.4</ele>
        <time>2023-06-04T07:06:31.000Z</time>
      </trkpt>
      <trkpt lat="45.67266" lon="4.63278">
        <ele>437.8</ele>
        <time>2023-06-04T07:06:34.000Z</time>
      </trkpt>
      <trkpt lat="45.67258" lon="4.63268">
        <ele>438</ele>
        <time>2023-06-04T07:06:39.000Z</time>
      </trkpt>
      <trkpt lat="45.67247" lon="4.63257">
        <ele>438</ele>
        <time>2023-06-04T07:06:45.000Z</time>
      </trkpt>
      <trkpt lat="45.67244" lon="4.63254">
        <ele>438</ele>
        <time>2023-06-04T07:06:46.000Z</time>
      </trkpt>
      <trkpt lat="45.67231" lon="4.63245">
        <ele>437.8</ele>
        <time>2023-06-04T07:06:50.000Z</time>
      </trkpt>
      <trkpt lat="45.67228" lon="4.63243">
        <ele>437.6</ele>
        <time>2023-06-04T07:06:51.000Z</time>
      </trkpt>
      <trkpt lat="45.67209" lon="4.63228">
        <ele>436.8</ele>
        <time>2023-06-04T07:06:56.000Z</time>
      </trkpt>
      <trkpt lat="45.67198" lon="4.6322">
        <ele>436.6</ele>
        <time>2023-06-04T07:06:59.000Z</time>
      </trkpt>
      <trkpt lat="45.67174" lon="4.63198">
        <ele>436.4</ele>
        <time>2023-06-04T07:07:05.000Z</time>
      </trkpt>
      <trkpt lat="45.6717" lon="4.63194">
        <ele>436.2</ele>
        <time>2023-06-04T07:07:06.000Z</time>
      </trkpt>
      <trkpt lat="45.67153" lon="4.6318">
        <ele>436</ele>
        <time>2023-06-04T07:07:11.000Z</time>
      </trkpt>
      <trkpt lat="45.67139" lon="4.63167">
        <ele>436</ele>
        <time>2023-06-04T07:07:17.000Z</time>
      </trkpt>
      <trkpt lat="45.67127" lon="4.63157">
        <ele>436.2</ele>
        <time>2023-06-04T07:07:23.000Z</time>
      </trkpt>
      <trkpt lat="45.67123" lon="4.63153">
        <ele>436.6</ele>
        <time>2023-06-04T07:07:25.000Z</time>
      </trkpt>
      <trkpt lat="45.67103" lon="4.63135">
        <ele>437.2</ele>
        <time>2023-06-04T07:07:32.000Z</time>
      </trkpt>
      <trkpt lat="45.67095" lon="4.63127">
        <ele>437.2</ele>
        <time>2023-06-04T07:07:35.000Z</time>
      </trkpt>
      <trkpt lat="45.67083" lon="4.63118">
        <ele>437.8</ele>
        <time>2023-06-04T07:07:40.000Z</time>
      </trkpt>
      <trkpt lat="45.67081" lon="4.63117">
        <ele>438</ele>
        <time>2023-06-04T07:07:41.000Z</time>
      </trkpt>
      <trkpt lat="45.67076" lon="4.63114">
        <ele>438.2</ele>
        <time>2023-06-04T07:07:43.000Z</time>
      </trkpt>
      <trkpt lat="45.67072" lon="4.6311">
        <ele>438.4</ele>
        <time>2023-06-04T07:07:45.000Z</time>
      </trkpt>
      <trkpt lat="45.67068" lon="4.63102">
        <ele>438.8</ele>
        <time>2023-06-04T07:07:48.000Z</time>
      </trkpt>
      <trkpt lat="45.67066" lon="4.63083">
        <ele>439.8</ele>
        <time>2023-06-04T07:07:54.000Z</time>
      </trkpt>
      <trkpt lat="45.67066" lon="4.6308">
        <ele>440.2</ele>
        <time>2023-06-04T07:07:55.000Z</time>
      </trkpt>
      <trkpt lat="45.67067" lon="4.63071">
        <ele>441</ele>
        <time>2023-06-04T07:07:58.000Z</time>
      </trkpt>
      <trkpt lat="45.67067" lon="4.63068">
        <ele>441.2</ele>
        <time>2023-06-04T07:07:59.000Z</time>
      </trkpt>
      <trkpt lat="45.67068" lon="4.63062">
        <ele>441.6</ele>
        <time>2023-06-04T07:08:01.000Z</time>
      </trkpt>
      <trkpt lat="45.67068" lon="4.63059">
        <ele>441.8</ele>
        <time>2023-06-04T07:08:02.000Z</time>
      </trkpt>
      <trkpt lat="45.67068" lon="4.63054">
        <ele>442.4</ele>
        <time>2023-06-04T07:08:04.000Z</time>
      </trkpt>
      <trkpt lat="45.67068" lon="4.63036">
        <ele>443.2</ele>
        <time>2023-06-04T07:08:10.000Z</time>
      </trkpt>
      <trkpt lat="45.67068" lon="4.63033">
        <ele>443.4</ele>
        <time>2023-06-04T07:08:11.000Z</time>
      </trkpt>
      <trkpt lat="45.67068" lon="4.63016">
        <ele>444.2</ele>
        <time>2023-06-04T07:08:16.000Z</time>
      </trkpt>
      <trkpt lat="45.67068" lon="4.63005">
        <ele>444.4</ele>
        <time>2023-06-04T07:08:19.000Z</time>
      </trkpt>
      <trkpt lat="45.67067" lon="4.62994">
        <ele>444.8</ele>
        <time>2023-06-04T07:08:22.000Z</time>
      </trkpt>
      <trkpt lat="45.67066" lon="4.62966">
        <ele>444.8</ele>
        <time>2023-06-04T07:08:29.000Z</time>
      </trkpt>
      <trkpt lat="45.67075" lon="4.62949">
        <ele>444.8</ele>
        <time>2023-06-04T07:08:34.000Z</time>
      </trkpt>
      <trkpt lat="45.67089" lon="4.62932">
        <ele>444.6</ele>
        <time>2023-06-04T07:08:39.000Z</time>
      </trkpt>
      <trkpt lat="45.67081" lon="4.62921">
        <ele>444.2</ele>
        <time>2023-06-04T07:08:42.000Z</time>
      </trkpt>
      <trkpt lat="45.67075" lon="4.6292">
        <ele>444</ele>
        <time>2023-06-04T07:08:43.000Z</time>
      </trkpt>
      <trkpt lat="45.67061" lon="4.62918">
        <ele>443.4</ele>
        <time>2023-06-04T07:08:45.000Z</time>
      </trkpt>
      <trkpt lat="45.67052" lon="4.62917">
        <ele>443.2</ele>
        <time>2023-06-04T07:08:46.000Z</time>
      </trkpt>
      <trkpt lat="45.67036" lon="4.62913">
        <ele>442.2</ele>
        <time>2023-06-04T07:08:48.000Z</time>
      </trkpt>
      <trkpt lat="45.67028" lon="4.6291">
        <ele>442.2</ele>
        <time>2023-06-04T07:08:49.000Z</time>
      </trkpt>
      <trkpt lat="45.67015" lon="4.62901">
        <ele>441</ele>
        <time>2023-06-04T07:08:51.000Z</time>
      </trkpt>
      <trkpt lat="45.67004" lon="4.6289">
        <ele>439.6</ele>
        <time>2023-06-04T07:08:53.000Z</time>
      </trkpt>
      <trkpt lat="45.66992" lon="4.62881">
        <ele>437.4</ele>
        <time>2023-06-04T07:08:55.000Z</time>
      </trkpt>
      <trkpt lat="45.66974" lon="4.62872">
        <ele>436.4</ele>
        <time>2023-06-04T07:08:58.000Z</time>
      </trkpt>
      <trkpt lat="45.66971" lon="4.62867">
        <ele>436.2</ele>
        <time>2023-06-04T07:08:59.000Z</time>
      </trkpt>
      <trkpt lat="45.66965" lon="4.62857">
        <ele>435.8</ele>
        <time>2023-06-04T07:09:01.000Z</time>
      </trkpt>
      <trkpt lat="45.66963" lon="4.62853">
        <ele>435.6</ele>
        <time>2023-06-04T07:09:02.000Z</time>
      </trkpt>
      <trkpt lat="45.66963" lon="4.62849">
        <ele>435.4</ele>
        <time>2023-06-04T07:09:03.000Z</time>
      </trkpt>
      <trkpt lat="45.66967" lon="4.62843">
        <ele>435</ele>
        <time>2023-06-04T07:09:05.000Z</time>
      </trkpt>
      <trkpt lat="45.66969" lon="4.62841">
        <ele>434.8</ele>
        <time>2023-06-04T07:09:06.000Z</time>
      </trkpt>
      <trkpt lat="45.66975" lon="4.62833">
        <ele>434.4</ele>
        <time>2023-06-04T07:09:09.000Z</time>
      </trkpt>
      <trkpt lat="45.66986" lon="4.62822">
        <ele>434.4</ele>
        <time>2023-06-04T07:09:13.000Z</time>
      </trkpt>
      <trkpt lat="45.66998" lon="4.62804">
        <ele>434.6</ele>
        <time>2023-06-04T07:09:19.000Z</time>
      </trkpt>
      <trkpt lat="45.67" lon="4.628">
        <ele>434.8</ele>
        <time>2023-06-04T07:09:20.000Z</time>
      </trkpt>
      <trkpt lat="45.67003" lon="4.62793">
        <ele>435.2</ele>
        <time>2023-06-04T07:09:22.000Z</time>
      </trkpt>
      <trkpt lat="45.67006" lon="4.62787">
        <ele>435.4</ele>
        <time>2023-06-04T07:09:24.000Z</time>
      </trkpt>
      <trkpt lat="45.67006" lon="4.62784">
        <ele>435.6</ele>
        <time>2023-06-04T07:09:25.000Z</time>
      </trkpt>
      <trkpt lat="45.67005" lon="4.62776">
        <ele>435.6</ele>
        <time>2023-06-04T07:09:27.000Z</time>
      </trkpt>
      <trkpt lat="45.67007" lon="4.6277">
        <ele>435.8</ele>
        <time>2023-06-04T07:09:29.000Z</time>
      </trkpt>
      <trkpt lat="45.67011" lon="4.62766">
        <ele>435.8</ele>
        <time>2023-06-04T07:09:30.000Z</time>
      </trkpt>
      <trkpt lat="45.67012" lon="4.62761">
        <ele>436</ele>
        <time>2023-06-04T07:09:31.000Z</time>
      </trkpt>
      <trkpt lat="45.67013" lon="4.62752">
        <ele>436.2</ele>
        <time>2023-06-04T07:09:33.000Z</time>
      </trkpt>
      <trkpt lat="45.67015" lon="4.62749">
        <ele>436.2</ele>
        <time>2023-06-04T07:09:34.000Z</time>
      </trkpt>
      <trkpt lat="45.67019" lon="4.62723">
        <ele>436.6</ele>
        <time>2023-06-04T07:09:40.000Z</time>
      </trkpt>
      <trkpt lat="45.67018" lon="4.62704">
        <ele>436.8</ele>
        <time>2023-06-04T07:09:44.000Z</time>
      </trkpt>
      <trkpt lat="45.6702" lon="4.62688">
        <ele>436.8</ele>
        <time>2023-06-04T07:09:47.000Z</time>
      </trkpt>
      <trkpt lat="45.67021" lon="4.62676">
        <ele>437.2</ele>
        <time>2023-06-04T07:09:50.000Z</time>
      </trkpt>
      <trkpt lat="45.67021" lon="4.62663">
        <ele>437.2</ele>
        <time>2023-06-04T07:09:53.000Z</time>
      </trkpt>
      <trkpt lat="45.67021" lon="4.62654">
        <ele>437.2</ele>
        <time>2023-06-04T07:09:55.000Z</time>
      </trkpt>
      <trkpt lat="45.67012" lon="4.62628">
        <ele>437.8</ele>
        <time>2023-06-04T07:10:01.000Z</time>
      </trkpt>
      <trkpt lat="45.67012" lon="4.62624">
        <ele>438</ele>
        <time>2023-06-04T07:10:02.000Z</time>
      </trkpt>
      <trkpt lat="45.6701" lon="4.62616">
        <ele>438</ele>
        <time>2023-06-04T07:10:04.000Z</time>
      </trkpt>
      <trkpt lat="45.67002" lon="4.62595">
        <ele>438.6</ele>
        <time>2023-06-04T07:10:09.000Z</time>
      </trkpt>
      <trkpt lat="45.66998" lon="4.62584">
        <ele>439</ele>
        <time>2023-06-04T07:10:13.000Z</time>
      </trkpt>
      <trkpt lat="45.66996" lon="4.62582">
        <ele>439.2</ele>
        <time>2023-06-04T07:10:14.000Z</time>
      </trkpt>
      <trkpt lat="45.66996" lon="4.62581">
        <ele>439.4</ele>
        <time>2023-06-04T07:10:15.000Z</time>
      </trkpt>
      <trkpt lat="45.66984" lon="4.62565">
        <ele>440.2</ele>
        <time>2023-06-04T07:10:21.000Z</time>
      </trkpt>
      <trkpt lat="45.66981" lon="4.62561">
        <ele>440.6</ele>
        <time>2023-06-04T07:10:22.000Z</time>
      </trkpt>
      <trkpt lat="45.66982" lon="4.62556">
        <ele>441.2</ele>
        <time>2023-06-04T07:10:24.000Z</time>
      </trkpt>
      <trkpt lat="45.66981" lon="4.62553">
        <ele>441.4</ele>
        <time>2023-06-04T07:10:25.000Z</time>
      </trkpt>
      <trkpt lat="45.66982" lon="4.6255">
        <ele>441.8</ele>
        <time>2023-06-04T07:10:26.000Z</time>
      </trkpt>
      <trkpt lat="45.66982" lon="4.62538">
        <ele>442.2</ele>
        <time>2023-06-04T07:10:29.000Z</time>
      </trkpt>
      <trkpt lat="45.66979" lon="4.6252">
        <ele>442.2</ele>
        <time>2023-06-04T07:10:32.000Z</time>
      </trkpt>
      <trkpt lat="45.66977" lon="4.62513">
        <ele>442.2</ele>
        <time>2023-06-04T07:10:33.000Z</time>
      </trkpt>
      <trkpt lat="45.66975" lon="4.62502">
        <ele>442.2</ele>
        <time>2023-06-04T07:10:35.000Z</time>
      </trkpt>
      <trkpt lat="45.66974" lon="4.62498">
        <ele>442.2</ele>
        <time>2023-06-04T07:10:36.000Z</time>
      </trkpt>
      <trkpt lat="45.66973" lon="4.62493">
        <ele>441.8</ele>
        <time>2023-06-04T07:10:37.000Z</time>
      </trkpt>
      <trkpt lat="45.66969" lon="4.62489">
        <ele>441.6</ele>
        <time>2023-06-04T07:10:38.000Z</time>
      </trkpt>
      <trkpt lat="45.66957" lon="4.62472">
        <ele>440</ele>
        <time>2023-06-04T07:10:42.000Z</time>
      </trkpt>
      <trkpt lat="45.66953" lon="4.62462">
        <ele>439</ele>
        <time>2023-06-04T07:10:44.000Z</time>
      </trkpt>
      <trkpt lat="45.66951" lon="4.62457">
        <ele>438.6</ele>
        <time>2023-06-04T07:10:45.000Z</time>
      </trkpt>
      <trkpt lat="45.66931" lon="4.62442">
        <ele>438</ele>
        <time>2023-06-04T07:10:50.000Z</time>
      </trkpt>
      <trkpt lat="45.66921" lon="4.62439">
        <ele>438</ele>
        <time>2023-06-04T07:10:53.000Z</time>
      </trkpt>
      <trkpt lat="45.66917" lon="4.62434">
        <ele>438</ele>
        <time>2023-06-04T07:10:55.000Z</time>
      </trkpt>
      <trkpt lat="45.66914" lon="4.62427">
        <ele>438.4</ele>
        <time>2023-06-04T07:10:58.000Z</time>
      </trkpt>
      <trkpt lat="45.66916" lon="4.62424">
        <ele>438.8</ele>
        <time>2023-06-04T07:10:59.000Z</time>
      </trkpt>
      <trkpt lat="45.66927" lon="4.62415">
        <ele>439.2</ele>
        <time>2023-06-04T07:11:03.000Z</time>
      </trkpt>
      <trkpt lat="45.66938" lon="4.62409">
        <ele>439.4</ele>
        <time>2023-06-04T07:11:06.000Z</time>
      </trkpt>
      <trkpt lat="45.66947" lon="4.62404">
        <ele>439.4</ele>
        <time>2023-06-04T07:11:08.000Z</time>
      </trkpt>
      <trkpt lat="45.66961" lon="4.624">
        <ele>438.4</ele>
        <time>2023-06-04T07:11:13.000Z</time>
      </trkpt>
      <trkpt lat="45.66968" lon="4.62396">
        <ele>437</ele>
        <time>2023-06-04T07:11:15.000Z</time>
      </trkpt>
      <trkpt lat="45.66974" lon="4.62392">
        <ele>436</ele>
        <time>2023-06-04T07:11:17.000Z</time>
      </trkpt>
      <trkpt lat="45.66977" lon="4.62391">
        <ele>435.4</ele>
        <time>2023-06-04T07:11:18.000Z</time>
      </trkpt>
      <trkpt lat="45.66985" lon="4.62388">
        <ele>435</ele>
        <time>2023-06-04T07:11:21.000Z</time>
      </trkpt>
      <trkpt lat="45.66988" lon="4.62387">
        <ele>434.8</ele>
        <time>2023-06-04T07:11:22.000Z</time>
      </trkpt>
      <trkpt lat="45.66988" lon="4.62387">
        <ele>434.8</ele>
        <time>2023-06-04T07:11:23.000Z</time>
      </trkpt>
      <trkpt lat="45.6699" lon="4.62386">
        <ele>434.8</ele>
        <time>2023-06-04T07:11:24.000Z</time>
      </trkpt>
      <trkpt lat="45.66993" lon="4.62386">
        <ele>434.8</ele>
        <time>2023-06-04T07:11:25.000Z</time>
      </trkpt>
      <trkpt lat="45.67002" lon="4.62385">
        <ele>434.8</ele>
        <time>2023-06-04T07:11:28.000Z</time>
      </trkpt>
      <trkpt lat="45.67007" lon="4.62387">
        <ele>434.8</ele>
        <time>2023-06-04T07:11:30.000Z</time>
      </trkpt>
      <trkpt lat="45.67018" lon="4.62387">
        <ele>435.2</ele>
        <time>2023-06-04T07:11:34.000Z</time>
      </trkpt>
      <trkpt lat="45.67022" lon="4.62385">
        <ele>435.4</ele>
        <time>2023-06-04T07:11:35.000Z</time>
      </trkpt>
      <trkpt lat="45.67031" lon="4.62384">
        <ele>435.6</ele>
        <time>2023-06-04T07:11:38.000Z</time>
      </trkpt>
      <trkpt lat="45.67036" lon="4.62381">
        <ele>435.6</ele>
        <time>2023-06-04T07:11:40.000Z</time>
      </trkpt>
      <trkpt lat="45.67037" lon="4.62379">
        <ele>435.8</ele>
        <time>2023-06-04T07:11:41.000Z</time>
      </trkpt>
      <trkpt lat="45.67045" lon="4.6237">
        <ele>436</ele>
        <time>2023-06-04T07:11:45.000Z</time>
      </trkpt>
      <trkpt lat="45.67047" lon="4.62362">
        <ele>436.4</ele>
        <time>2023-06-04T07:11:48.000Z</time>
      </trkpt>
      <trkpt lat="45.6705" lon="4.62354">
        <ele>436.8</ele>
        <time>2023-06-04T07:11:51.000Z</time>
      </trkpt>
      <trkpt lat="45.67052" lon="4.62343">
        <ele>437.4</ele>
        <time>2023-06-04T07:11:55.000Z</time>
      </trkpt>
      <trkpt lat="45.67053" lon="4.62337">
        <ele>438</ele>
        <time>2023-06-04T07:11:57.000Z</time>
      </trkpt>
      <trkpt lat="45.67055" lon="4.62326">
        <ele>439.8</ele>
        <time>2023-06-04T07:12:01.000Z</time>
      </trkpt>
      <trkpt lat="45.67057" lon="4.623">
        <ele>440</ele>
        <time>2023-06-04T07:12:08.000Z</time>
      </trkpt>
      <trkpt lat="45.67057" lon="4.62297">
        <ele>440.2</ele>
        <time>2023-06-04T07:12:09.000Z</time>
      </trkpt>
      <trkpt lat="45.67056" lon="4.62278">
        <ele>440.2</ele>
        <time>2023-06-04T07:12:14.000Z</time>
      </trkpt>
      <trkpt lat="45.67052" lon="4.62252">
        <ele>440.2</ele>
        <time>2023-06-04T07:12:19.000Z</time>
      </trkpt>
      <trkpt lat="45.67049" lon="4.62243">
        <ele>439.8</ele>
        <time>2023-06-04T07:12:21.000Z</time>
      </trkpt>
      <trkpt lat="45.67037" lon="4.62223">
        <ele>439</ele>
        <time>2023-06-04T07:12:25.000Z</time>
      </trkpt>
      <trkpt lat="45.67036" lon="4.62217">
        <ele>438.8</ele>
        <time>2023-06-04T07:12:26.000Z</time>
      </trkpt>
      <trkpt lat="45.67038" lon="4.62212">
        <ele>438.8</ele>
        <time>2023-06-04T07:12:27.000Z</time>
      </trkpt>
      <trkpt lat="45.67037" lon="4.62202">
        <ele>438.6</ele>
        <time>2023-06-04T07:12:29.000Z</time>
      </trkpt>
      <trkpt lat="45.67037" lon="4.62194">
        <ele>438.6</ele>
        <time>2023-06-04T07:12:31.000Z</time>
      </trkpt>
      <trkpt lat="45.67041" lon="4.62186">
        <ele>438.6</ele>
        <time>2023-06-04T07:12:33.000Z</time>
      </trkpt>
      <trkpt lat="45.67043" lon="4.62182">
        <ele>438.6</ele>
        <time>2023-06-04T07:12:34.000Z</time>
      </trkpt>
      <trkpt lat="45.67044" lon="4.62179">
        <ele>438.6</ele>
        <time>2023-06-04T07:12:35.000Z</time>
      </trkpt>
      <trkpt lat="45.67045" lon="4.62172">
        <ele>438.6</ele>
        <time>2023-06-04T07:12:37.000Z</time>
      </trkpt>
      <trkpt lat="45.67045" lon="4.62164">
        <ele>438.8</ele>
        <time>2023-06-04T07:12:39.000Z</time>
      </trkpt>
      <trkpt lat="45.67051" lon="4.62155">
        <ele>439.2</ele>
        <time>2023-06-04T07:12:41.000Z</time>
      </trkpt>
      <trkpt lat="45.67053" lon="4.62152">
        <ele>439.6</ele>
        <time>2023-06-04T07:12:42.000Z</time>
      </trkpt>
      <trkpt lat="45.67055" lon="4.62145">
        <ele>440</ele>
        <time>2023-06-04T07:12:44.000Z</time>
      </trkpt>
      <trkpt lat="45.67064" lon="4.62133">
        <ele>441.2</ele>
        <time>2023-06-04T07:12:49.000Z</time>
      </trkpt>
      <trkpt lat="45.6707" lon="4.62122">
        <ele>442.4</ele>
        <time>2023-06-04T07:12:55.000Z</time>
      </trkpt>
      <trkpt lat="45.67074" lon="4.62113">
        <ele>443.6</ele>
        <time>2023-06-04T07:12:59.000Z</time>
      </trkpt>
      <trkpt lat="45.67073" lon="4.62111">
        <ele>444.2</ele>
        <time>2023-06-04T07:13:01.000Z</time>
      </trkpt>
      <trkpt lat="45.67073" lon="4.6211">
        <ele>444.4</ele>
        <time>2023-06-04T07:13:02.000Z</time>
      </trkpt>
      <trkpt lat="45.67074" lon="4.62107">
        <ele>445</ele>
        <time>2023-06-04T07:13:03.000Z</time>
      </trkpt>
      <trkpt lat="45.67073" lon="4.62102">
        <ele>445.6</ele>
        <time>2023-06-04T07:13:05.000Z</time>
      </trkpt>
      <trkpt lat="45.67075" lon="4.62094">
        <ele>446.4</ele>
        <time>2023-06-04T07:13:09.000Z</time>
      </trkpt>
      <trkpt lat="45.67075" lon="4.62091">
        <ele>446.6</ele>
        <time>2023-06-04T07:13:11.000Z</time>
      </trkpt>
      <trkpt lat="45.67074" lon="4.62092">
        <ele>446.6</ele>
        <time>2023-06-04T07:13:12.000Z</time>
      </trkpt>
      <trkpt lat="45.6707" lon="4.62094">
        <ele>447</ele>
        <time>2023-06-04T07:13:14.000Z</time>
      </trkpt>
      <trkpt lat="45.67065" lon="4.62098">
        <ele>447.8</ele>
        <time>2023-06-04T07:13:18.000Z</time>
      </trkpt>
      <trkpt lat="45.67061" lon="4.62101">
        <ele>448.2</ele>
        <time>2023-06-04T07:13:20.000Z</time>
      </trkpt>
      <trkpt lat="45.6706" lon="4.62102">
        <ele>448.4</ele>
        <time>2023-06-04T07:13:21.000Z</time>
      </trkpt>
      <trkpt lat="45.67059" lon="4.62103">
        <ele>448.6</ele>
        <time>2023-06-04T07:13:22.000Z</time>
      </trkpt>
      <trkpt lat="45.67056" lon="4.62105">
        <ele>448.8</ele>
        <time>2023-06-04T07:13:24.000Z</time>
      </trkpt>
      <trkpt lat="45.67053" lon="4.62107">
        <ele>449</ele>
        <time>2023-06-04T07:13:25.000Z</time>
      </trkpt>
      <trkpt lat="45.6705" lon="4.62111">
        <ele>449.2</ele>
        <time>2023-06-04T07:13:27.000Z</time>
      </trkpt>
      <trkpt lat="45.67035" lon="4.62129">
        <ele>449.8</ele>
        <time>2023-06-04T07:13:36.000Z</time>
      </trkpt>
      <trkpt lat="45.67028" lon="4.62136">
        <ele>450</ele>
        <time>2023-06-04T07:13:39.000Z</time>
      </trkpt>
      <trkpt lat="45.67024" lon="4.62142">
        <ele>450.2</ele>
        <time>2023-06-04T07:13:42.000Z</time>
      </trkpt>
      <trkpt lat="45.6702" lon="4.62164">
        <ele>451.2</ele>
        <time>2023-06-04T07:13:48.000Z</time>
      </trkpt>
      <trkpt lat="45.67019" lon="4.62167">
        <ele>451.2</ele>
        <time>2023-06-04T07:13:49.000Z</time>
      </trkpt>
      <trkpt lat="45.6701" lon="4.62197">
        <ele>452</ele>
        <time>2023-06-04T07:13:56.000Z</time>
      </trkpt>
      <trkpt lat="45.67009" lon="4.62202">
        <ele>452.2</ele>
        <time>2023-06-04T07:13:57.000Z</time>
      </trkpt>
      <trkpt lat="45.67009" lon="4.62215">
        <ele>452.4</ele>
        <time>2023-06-04T07:14:00.000Z</time>
      </trkpt>
      <trkpt lat="45.67009" lon="4.62223">
        <ele>452.6</ele>
        <time>2023-06-04T07:14:02.000Z</time>
      </trkpt>
      <trkpt lat="45.67007" lon="4.62226">
        <ele>452.6</ele>
        <time>2023-06-04T07:14:03.000Z</time>
      </trkpt>
      <trkpt lat="45.67001" lon="4.62244">
        <ele>453</ele>
        <time>2023-06-04T07:14:08.000Z</time>
      </trkpt>
      <trkpt lat="45.67001" lon="4.62248">
        <ele>453</ele>
        <time>2023-06-04T07:14:09.000Z</time>
      </trkpt>
      <trkpt lat="45.66998" lon="4.62255">
        <ele>453.2</ele>
        <time>2023-06-04T07:14:11.000Z</time>
      </trkpt>
      <trkpt lat="45.66988" lon="4.62272">
        <ele>454</ele>
        <time>2023-06-04T07:14:16.000Z</time>
      </trkpt>
      <trkpt lat="45.66987" lon="4.62279">
        <ele>454.4</ele>
        <time>2023-06-04T07:14:18.000Z</time>
      </trkpt>
      <trkpt lat="45.66984" lon="4.62288">
        <ele>454.6</ele>
        <time>2023-06-04T07:14:21.000Z</time>
      </trkpt>
      <trkpt lat="45.66976" lon="4.62303">
        <ele>454.8</ele>
        <time>2023-06-04T07:14:26.000Z</time>
      </trkpt>
      <trkpt lat="45.66973" lon="4.62305">
        <ele>455</ele>
        <time>2023-06-04T07:14:27.000Z</time>
      </trkpt>
      <trkpt lat="45.66968" lon="4.6231">
        <ele>455.2</ele>
        <time>2023-06-04T07:14:29.000Z</time>
      </trkpt>
      <trkpt lat="45.66959" lon="4.62315">
        <ele>455.6</ele>
        <time>2023-06-04T07:14:32.000Z</time>
      </trkpt>
      <trkpt lat="45.66956" lon="4.62317">
        <ele>455.6</ele>
        <time>2023-06-04T07:14:33.000Z</time>
      </trkpt>
      <trkpt lat="45.66942" lon="4.62325">
        <ele>456.2</ele>
        <time>2023-06-04T07:14:39.000Z</time>
      </trkpt>
      <trkpt lat="45.66941" lon="4.62326">
        <ele>456.4</ele>
        <time>2023-06-04T07:14:40.000Z</time>
      </trkpt>
      <trkpt lat="45.66928" lon="4.62337">
        <ele>457</ele>
        <time>2023-06-04T07:14:45.000Z</time>
      </trkpt>
      <trkpt lat="45.66917" lon="4.62351">
        <ele>457.4</ele>
        <time>2023-06-04T07:14:51.000Z</time>
      </trkpt>
      <trkpt lat="45.66912" lon="4.62354">
        <ele>457.2</ele>
        <time>2023-06-04T07:14:52.000Z</time>
      </trkpt>
      <trkpt lat="45.66897" lon="4.62378">
        <ele>457.4</ele>
        <time>2023-06-04T07:14:59.000Z</time>
      </trkpt>
      <trkpt lat="45.66898" lon="4.62383">
        <ele>457.6</ele>
        <time>2023-06-04T07:15:00.000Z</time>
      </trkpt>
      <trkpt lat="45.669" lon="4.62391">
        <ele>457.6</ele>
        <time>2023-06-04T07:15:02.000Z</time>
      </trkpt>
      <trkpt lat="45.66897" lon="4.62405">
        <ele>457.6</ele>
        <time>2023-06-04T07:15:06.000Z</time>
      </trkpt>
      <trkpt lat="45.66896" lon="4.62412">
        <ele>457.8</ele>
        <time>2023-06-04T07:15:08.000Z</time>
      </trkpt>
      <trkpt lat="45.66897" lon="4.62417">
        <ele>457.8</ele>
        <time>2023-06-04T07:15:10.000Z</time>
      </trkpt>
      <trkpt lat="45.66904" lon="4.62436">
        <ele>457.8</ele>
        <time>2023-06-04T07:15:14.000Z</time>
      </trkpt>
      <trkpt lat="45.66907" lon="4.6244">
        <ele>457.8</ele>
        <time>2023-06-04T07:15:15.000Z</time>
      </trkpt>
      <trkpt lat="45.66909" lon="4.62456">
        <ele>458</ele>
        <time>2023-06-04T07:15:19.000Z</time>
      </trkpt>
      <trkpt lat="45.6691" lon="4.62469">
        <ele>458</ele>
        <time>2023-06-04T07:15:22.000Z</time>
      </trkpt>
      <trkpt lat="45.66915" lon="4.62477">
        <ele>458</ele>
        <time>2023-06-04T07:15:24.000Z</time>
      </trkpt>
      <trkpt lat="45.66926" lon="4.62496">
        <ele>458.2</ele>
        <time>2023-06-04T07:15:29.000Z</time>
      </trkpt>
      <trkpt lat="45.66941" lon="4.62515">
        <ele>458.6</ele>
        <time>2023-06-04T07:15:34.000Z</time>
      </trkpt>
      <trkpt lat="45.66941" lon="4.62518">
        <ele>458.6</ele>
        <time>2023-06-04T07:15:35.000Z</time>
      </trkpt>
      <trkpt lat="45.66945" lon="4.62541">
        <ele>459</ele>
        <time>2023-06-04T07:15:41.000Z</time>
      </trkpt>
      <trkpt lat="45.6695" lon="4.62558">
        <ele>459</ele>
        <time>2023-06-04T07:15:45.000Z</time>
      </trkpt>
      <trkpt lat="45.6695" lon="4.62561">
        <ele>459.2</ele>
        <time>2023-06-04T07:15:46.000Z</time>
      </trkpt>
      <trkpt lat="45.6695" lon="4.62565">
        <ele>459.2</ele>
        <time>2023-06-04T07:15:47.000Z</time>
      </trkpt>
      <trkpt lat="45.66952" lon="4.62572">
        <ele>459.2</ele>
        <time>2023-06-04T07:15:49.000Z</time>
      </trkpt>
      <trkpt lat="45.66952" lon="4.62576">
        <ele>459.4</ele>
        <time>2023-06-04T07:15:50.000Z</time>
      </trkpt>
      <trkpt lat="45.66953" lon="4.6258">
        <ele>459.6</ele>
        <time>2023-06-04T07:15:51.000Z</time>
      </trkpt>
      <trkpt lat="45.66954" lon="4.62587">
        <ele>460</ele>
        <time>2023-06-04T07:15:53.000Z</time>
      </trkpt>
      <trkpt lat="45.66954" lon="4.62595">
        <ele>460.2</ele>
        <time>2023-06-04T07:15:55.000Z</time>
      </trkpt>
      <trkpt lat="45.66963" lon="4.62613">
        <ele>460.6</ele>
        <time>2023-06-04T07:15:58.000Z</time>
      </trkpt>
      <trkpt lat="45.66961" lon="4.62628">
        <ele>461.2</ele>
        <time>2023-06-04T07:16:01.000Z</time>
      </trkpt>
      <trkpt lat="45.6696" lon="4.62633">
        <ele>461.4</ele>
        <time>2023-06-04T07:16:02.000Z</time>
      </trkpt>
      <trkpt lat="45.66955" lon="4.6264">
        <ele>461.4</ele>
        <time>2023-06-04T07:16:04.000Z</time>
      </trkpt>
      <trkpt lat="45.66954" lon="4.62648">
        <ele>461.8</ele>
        <time>2023-06-04T07:16:06.000Z</time>
      </trkpt>
      <trkpt lat="45.66956" lon="4.62658">
        <ele>462.2</ele>
        <time>2023-06-04T07:16:08.000Z</time>
      </trkpt>
      <trkpt lat="45.66949" lon="4.62687">
        <ele>462.8</ele>
        <time>2023-06-04T07:16:14.000Z</time>
      </trkpt>
      <trkpt lat="45.66944" lon="4.62711">
        <ele>463.2</ele>
        <time>2023-06-04T07:16:19.000Z</time>
      </trkpt>
      <trkpt lat="45.66941" lon="4.62722">
        <ele>463.6</ele>
        <time>2023-06-04T07:16:22.000Z</time>
      </trkpt>
      <trkpt lat="45.66931" lon="4.62745">
        <ele>464</ele>
        <time>2023-06-04T07:16:28.000Z</time>
      </trkpt>
      <trkpt lat="45.66929" lon="4.62748">
        <ele>464.2</ele>
        <time>2023-06-04T07:16:29.000Z</time>
      </trkpt>
      <trkpt lat="45.66923" lon="4.62755">
        <ele>464.6</ele>
        <time>2023-06-04T07:16:31.000Z</time>
      </trkpt>
      <trkpt lat="45.66921" lon="4.62757">
        <ele>464.8</ele>
        <time>2023-06-04T07:16:32.000Z</time>
      </trkpt>
      <trkpt lat="45.66916" lon="4.62765">
        <ele>465.2</ele>
        <time>2023-06-04T07:16:34.000Z</time>
      </trkpt>
      <trkpt lat="45.66912" lon="4.62768">
        <ele>465.4</ele>
        <time>2023-06-04T07:16:35.000Z</time>
      </trkpt>
      <trkpt lat="45.66904" lon="4.6278">
        <ele>465.8</ele>
        <time>2023-06-04T07:16:39.000Z</time>
      </trkpt>
      <trkpt lat="45.66902" lon="4.62783">
        <ele>465.8</ele>
        <time>2023-06-04T07:16:40.000Z</time>
      </trkpt>
      <trkpt lat="45.66887" lon="4.62798">
        <ele>466.4</ele>
        <time>2023-06-04T07:16:45.000Z</time>
      </trkpt>
      <trkpt lat="45.66883" lon="4.62807">
        <ele>466.6</ele>
        <time>2023-06-04T07:16:48.000Z</time>
      </trkpt>
      <trkpt lat="45.66882" lon="4.6281">
        <ele>466.6</ele>
        <time>2023-06-04T07:16:49.000Z</time>
      </trkpt>
      <trkpt lat="45.66882" lon="4.62814">
        <ele>466.8</ele>
        <time>2023-06-04T07:16:50.000Z</time>
      </trkpt>
      <trkpt lat="45.66883" lon="4.62822">
        <ele>467</ele>
        <time>2023-06-04T07:16:52.000Z</time>
      </trkpt>
      <trkpt lat="45.66882" lon="4.62835">
        <ele>467.2</ele>
        <time>2023-06-04T07:16:55.000Z</time>
      </trkpt>
      <trkpt lat="45.66884" lon="4.62845">
        <ele>467.4</ele>
        <time>2023-06-04T07:16:57.000Z</time>
      </trkpt>
      <trkpt lat="45.66882" lon="4.62848">
        <ele>467.6</ele>
        <time>2023-06-04T07:16:58.000Z</time>
      </trkpt>
      <trkpt lat="45.66879" lon="4.62856">
        <ele>467.8</ele>
        <time>2023-06-04T07:17:01.000Z</time>
      </trkpt>
      <trkpt lat="45.66882" lon="4.6287">
        <ele>468.2</ele>
        <time>2023-06-04T07:17:04.000Z</time>
      </trkpt>
      <trkpt lat="45.66884" lon="4.62885">
        <ele>468.8</ele>
        <time>2023-06-04T07:17:08.000Z</time>
      </trkpt>
      <trkpt lat="45.66882" lon="4.62909">
        <ele>469.4</ele>
        <time>2023-06-04T07:17:14.000Z</time>
      </trkpt>
      <trkpt lat="45.66881" lon="4.62932">
        <ele>470</ele>
        <time>2023-06-04T07:17:19.000Z</time>
      </trkpt>
      <trkpt lat="45.66883" lon="4.62936">
        <ele>470.2</ele>
        <time>2023-06-04T07:17:20.000Z</time>
      </trkpt>
      <trkpt lat="45.66883" lon="4.62949">
        <ele>470.6</ele>
        <time>2023-06-04T07:17:23.000Z</time>
      </trkpt>
      <trkpt lat="45.66882" lon="4.62957">
        <ele>470.8</ele>
        <time>2023-06-04T07:17:25.000Z</time>
      </trkpt>
      <trkpt lat="45.6688" lon="4.62985">
        <ele>471.2</ele>
        <time>2023-06-04T07:17:31.000Z</time>
      </trkpt>
      <trkpt lat="45.66878" lon="4.62995">
        <ele>471.6</ele>
        <time>2023-06-04T07:17:34.000Z</time>
      </trkpt>
      <trkpt lat="45.66877" lon="4.63002">
        <ele>472</ele>
        <time>2023-06-04T07:17:37.000Z</time>
      </trkpt>
      <trkpt lat="45.66876" lon="4.63003">
        <ele>472.2</ele>
        <time>2023-06-04T07:17:38.000Z</time>
      </trkpt>
      <trkpt lat="45.66875" lon="4.63003">
        <ele>472.2</ele>
        <time>2023-06-04T07:17:39.000Z</time>
      </trkpt>
      <trkpt lat="45.66875" lon="4.63002">
        <ele>472.4</ele>
        <time>2023-06-04T07:17:41.000Z</time>
      </trkpt>
      <trkpt lat="45.66873" lon="4.62999">
        <ele>472.6</ele>
        <time>2023-06-04T07:17:43.000Z</time>
      </trkpt>
      <trkpt lat="45.66873" lon="4.62997">
        <ele>472.8</ele>
        <time>2023-06-04T07:17:44.000Z</time>
      </trkpt>
      <trkpt lat="45.66873" lon="4.62988">
        <ele>473.4</ele>
        <time>2023-06-04T07:17:49.000Z</time>
      </trkpt>
      <trkpt lat="45.66874" lon="4.62983">
        <ele>473.8</ele>
        <time>2023-06-04T07:17:52.000Z</time>
      </trkpt>
      <trkpt lat="45.66872" lon="4.62977">
        <ele>474.2</ele>
        <time>2023-06-04T07:17:56.000Z</time>
      </trkpt>
      <trkpt lat="45.66871" lon="4.62973">
        <ele>474.6</ele>
        <time>2023-06-04T07:17:58.000Z</time>
      </trkpt>
      <trkpt lat="45.6687" lon="4.62972">
        <ele>474.8</ele>
        <time>2023-06-04T07:17:59.000Z</time>
      </trkpt>
      <trkpt lat="45.66869" lon="4.62967">
        <ele>475.8</ele>
        <time>2023-06-04T07:18:03.000Z</time>
      </trkpt>
      <trkpt lat="45.66869" lon="4.62965">
        <ele>476</ele>
        <time>2023-06-04T07:18:04.000Z</time>
      </trkpt>
      <trkpt lat="45.66869" lon="4.62964">
        <ele>476.2</ele>
        <time>2023-06-04T07:18:05.000Z</time>
      </trkpt>
      <trkpt lat="45.66869" lon="4.62961">
        <ele>476.6</ele>
        <time>2023-06-04T07:18:07.000Z</time>
      </trkpt>
      <trkpt lat="45.66869" lon="4.6296">
        <ele>476.8</ele>
        <time>2023-06-04T07:18:08.000Z</time>
      </trkpt>
      <trkpt lat="45.66869" lon="4.62959">
        <ele>477</ele>
        <time>2023-06-04T07:18:09.000Z</time>
      </trkpt>
      <trkpt lat="45.66868" lon="4.62953">
        <ele>478.2</ele>
        <time>2023-06-04T07:18:15.000Z</time>
      </trkpt>
      <trkpt lat="45.66867" lon="4.62952">
        <ele>478.6</ele>
        <time>2023-06-04T07:18:17.000Z</time>
      </trkpt>
      <trkpt lat="45.66865" lon="4.62953">
        <ele>479.2</ele>
        <time>2023-06-04T07:18:20.000Z</time>
      </trkpt>
      <trkpt lat="45.66864" lon="4.62951">
        <ele>479.6</ele>
        <time>2023-06-04T07:18:24.000Z</time>
      </trkpt>
      <trkpt lat="45.6686" lon="4.62948">
        <ele>480.2</ele>
        <time>2023-06-04T07:18:31.000Z</time>
      </trkpt>
      <trkpt lat="45.6686" lon="4.62948">
        <ele>480.4</ele>
        <time>2023-06-04T07:18:33.000Z</time>
      </trkpt>
      <trkpt lat="45.66857" lon="4.62945">
        <ele>481.2</ele>
        <time>2023-06-04T07:18:39.000Z</time>
      </trkpt>
      <trkpt lat="45.66857" lon="4.62945">
        <ele>481.4</ele>
        <time>2023-06-04T07:18:40.000Z</time>
      </trkpt>
      <trkpt lat="45.66852" lon="4.62942">
        <ele>482.6</ele>
        <time>2023-06-04T07:18:51.000Z</time>
      </trkpt>
      <trkpt lat="45.66852" lon="4.62941">
        <ele>482.8</ele>
        <time>2023-06-04T07:18:53.000Z</time>
      </trkpt>
      <trkpt lat="45.6685" lon="4.6294">
        <ele>483.6</ele>
        <time>2023-06-04T07:19:00.000Z</time>
      </trkpt>
      <trkpt lat="45.6685" lon="4.6294">
        <ele>483.6</ele>
        <time>2023-06-04T07:19:01.000Z</time>
      </trkpt>
      <trkpt lat="45.6685" lon="4.6294">
        <ele>484.6</ele>
        <time>2023-06-04T07:19:10.000Z</time>
      </trkpt>
      <trkpt lat="45.66849" lon="4.6294">
        <ele>485.8</ele>
        <time>2023-06-04T07:19:18.000Z</time>
      </trkpt>
      <trkpt lat="45.66846" lon="4.62937">
        <ele>486.4</ele>
        <time>2023-06-04T07:19:24.000Z</time>
      </trkpt>
      <trkpt lat="45.66842" lon="4.62933">
        <ele>486.8</ele>
        <time>2023-06-04T07:19:27.000Z</time>
      </trkpt>
      <trkpt lat="45.66841" lon="4.62933">
        <ele>487</ele>
        <time>2023-06-04T07:19:28.000Z</time>
      </trkpt>
      <trkpt lat="45.66834" lon="4.62928">
        <ele>487.8</ele>
        <time>2023-06-04T07:19:33.000Z</time>
      </trkpt>
      <trkpt lat="45.66833" lon="4.62928">
        <ele>488</ele>
        <time>2023-06-04T07:19:35.000Z</time>
      </trkpt>
      <trkpt lat="45.66829" lon="4.62924">
        <ele>488.8</ele>
        <time>2023-06-04T07:19:41.000Z</time>
      </trkpt>
      <trkpt lat="45.66827" lon="4.62924">
        <ele>489</ele>
        <time>2023-06-04T07:19:42.000Z</time>
      </trkpt>
      <trkpt lat="45.66819" lon="4.62918">
        <ele>490.2</ele>
        <time>2023-06-04T07:19:50.000Z</time>
      </trkpt>
      <trkpt lat="45.66819" lon="4.62917">
        <ele>490.4</ele>
        <time>2023-06-04T07:19:52.000Z</time>
      </trkpt>
      <trkpt lat="45.66816" lon="4.62914">
        <ele>491.4</ele>
        <time>2023-06-04T07:19:58.000Z</time>
      </trkpt>
      <trkpt lat="45.66814" lon="4.62912">
        <ele>491.6</ele>
        <time>2023-06-04T07:20:00.000Z</time>
      </trkpt>
      <trkpt lat="45.6681" lon="4.62909">
        <ele>492</ele>
        <time>2023-06-04T07:20:06.000Z</time>
      </trkpt>
      <trkpt lat="45.66808" lon="4.62907">
        <ele>492.4</ele>
        <time>2023-06-04T07:20:09.000Z</time>
      </trkpt>
      <trkpt lat="45.66807" lon="4.62905">
        <ele>493</ele>
        <time>2023-06-04T07:20:13.000Z</time>
      </trkpt>
      <trkpt lat="45.66803" lon="4.62903">
        <ele>493.4</ele>
        <time>2023-06-04T07:20:18.000Z</time>
      </trkpt>
      <trkpt lat="45.66801" lon="4.62899">
        <ele>493.6</ele>
        <time>2023-06-04T07:20:20.000Z</time>
      </trkpt>
      <trkpt lat="45.66794" lon="4.62893">
        <ele>494</ele>
        <time>2023-06-04T07:20:26.000Z</time>
      </trkpt>
      <trkpt lat="45.66793" lon="4.62891">
        <ele>494.6</ele>
        <time>2023-06-04T07:20:28.000Z</time>
      </trkpt>
      <trkpt lat="45.6679" lon="4.62888">
        <ele>495.6</ele>
        <time>2023-06-04T07:20:32.000Z</time>
      </trkpt>
      <trkpt lat="45.66786" lon="4.62886">
        <ele>496.4</ele>
        <time>2023-06-04T07:20:35.000Z</time>
      </trkpt>
      <trkpt lat="45.66781" lon="4.62882">
        <ele>497</ele>
        <time>2023-06-04T07:20:38.000Z</time>
      </trkpt>
      <trkpt lat="45.66778" lon="4.62879">
        <ele>497.4</ele>
        <time>2023-06-04T07:20:41.000Z</time>
      </trkpt>
      <trkpt lat="45.66775" lon="4.62878">
        <ele>497.6</ele>
        <time>2023-06-04T07:20:43.000Z</time>
      </trkpt>
      <trkpt lat="45.66773" lon="4.62875">
        <ele>498</ele>
        <time>2023-06-04T07:20:45.000Z</time>
      </trkpt>
      <trkpt lat="45.66767" lon="4.62865">
        <ele>499.2</ele>
        <time>2023-06-04T07:20:51.000Z</time>
      </trkpt>
      <trkpt lat="45.66764" lon="4.62855">
        <ele>500.2</ele>
        <time>2023-06-04T07:20:56.000Z</time>
      </trkpt>
      <trkpt lat="45.66762" lon="4.62853">
        <ele>500.4</ele>
        <time>2023-06-04T07:20:57.000Z</time>
      </trkpt>
      <trkpt lat="45.6676" lon="4.62847">
        <ele>500.8</ele>
        <time>2023-06-04T07:21:01.000Z</time>
      </trkpt>
      <trkpt lat="45.66755" lon="4.62841">
        <ele>501</ele>
        <time>2023-06-04T07:21:05.000Z</time>
      </trkpt>
      <trkpt lat="45.66755" lon="4.62839">
        <ele>501.2</ele>
        <time>2023-06-04T07:21:06.000Z</time>
      </trkpt>
      <trkpt lat="45.66754" lon="4.62838">
        <ele>502.2</ele>
        <time>2023-06-04T07:21:11.000Z</time>
      </trkpt>
      <trkpt lat="45.66753" lon="4.62837">
        <ele>503.4</ele>
        <time>2023-06-04T07:21:15.000Z</time>
      </trkpt>
      <trkpt lat="45.66752" lon="4.62833">
        <ele>504.4</ele>
        <time>2023-06-04T07:21:18.000Z</time>
      </trkpt>
      <trkpt lat="45.66751" lon="4.62829">
        <ele>504.8</ele>
        <time>2023-06-04T07:21:21.000Z</time>
      </trkpt>
      <trkpt lat="45.66751" lon="4.62821">
        <ele>505.2</ele>
        <time>2023-06-04T07:21:26.000Z</time>
      </trkpt>
      <trkpt lat="45.66751" lon="4.62819">
        <ele>505.4</ele>
        <time>2023-06-04T07:21:27.000Z</time>
      </trkpt>
      <trkpt lat="45.66751" lon="4.62817">
        <ele>505.6</ele>
        <time>2023-06-04T07:21:28.000Z</time>
      </trkpt>
      <trkpt lat="45.6675" lon="4.62807">
        <ele>506.4</ele>
        <time>2023-06-04T07:21:34.000Z</time>
      </trkpt>
      <trkpt lat="45.6675" lon="4.62802">
        <ele>506.8</ele>
        <time>2023-06-04T07:21:36.000Z</time>
      </trkpt>
      <trkpt lat="45.66754" lon="4.62789">
        <ele>507.6</ele>
        <time>2023-06-04T07:21:42.000Z</time>
      </trkpt>
      <trkpt lat="45.66755" lon="4.62786">
        <ele>507.8</ele>
        <time>2023-06-04T07:21:43.000Z</time>
      </trkpt>
      <trkpt lat="45.66754" lon="4.62779">
        <ele>508.6</ele>
        <time>2023-06-04T07:21:46.000Z</time>
      </trkpt>
      <trkpt lat="45.66755" lon="4.62776">
        <ele>508.8</ele>
        <time>2023-06-04T07:21:47.000Z</time>
      </trkpt>
      <trkpt lat="45.66757" lon="4.6277">
        <ele>509</ele>
        <time>2023-06-04T07:21:49.000Z</time>
      </trkpt>
      <trkpt lat="45.66758" lon="4.62764">
        <ele>509.2</ele>
        <time>2023-06-04T07:21:52.000Z</time>
      </trkpt>
      <trkpt lat="45.66756" lon="4.62754">
        <ele>509.4</ele>
        <time>2023-06-04T07:21:56.000Z</time>
      </trkpt>
      <trkpt lat="45.66755" lon="4.62748">
        <ele>509.6</ele>
        <time>2023-06-04T07:21:59.000Z</time>
      </trkpt>
      <trkpt lat="45.66755" lon="4.62746">
        <ele>509.8</ele>
        <time>2023-06-04T07:22:00.000Z</time>
      </trkpt>
      <trkpt lat="45.66755" lon="4.62739">
        <ele>510</ele>
        <time>2023-06-04T07:22:03.000Z</time>
      </trkpt>
      <trkpt lat="45.66753" lon="4.62729">
        <ele>510.8</ele>
        <time>2023-06-04T07:22:09.000Z</time>
      </trkpt>
      <trkpt lat="45.66754" lon="4.62727">
        <ele>510.8</ele>
        <time>2023-06-04T07:22:10.000Z</time>
      </trkpt>
      <trkpt lat="45.66754" lon="4.62715">
        <ele>511.8</ele>
        <time>2023-06-04T07:22:16.000Z</time>
      </trkpt>
      <trkpt lat="45.66754" lon="4.62714">
        <ele>512.2</ele>
        <time>2023-06-04T07:22:18.000Z</time>
      </trkpt>
      <trkpt lat="45.66753" lon="4.62706">
        <ele>512.8</ele>
        <time>2023-06-04T07:22:23.000Z</time>
      </trkpt>
      <trkpt lat="45.66754" lon="4.62704">
        <ele>513</ele>
        <time>2023-06-04T07:22:24.000Z</time>
      </trkpt>
      <trkpt lat="45.66756" lon="4.62695">
        <ele>514</ele>
        <time>2023-06-04T07:22:28.000Z</time>
      </trkpt>
      <trkpt lat="45.66757" lon="4.62687">
        <ele>514.8</ele>
        <time>2023-06-04T07:22:32.000Z</time>
      </trkpt>
      <trkpt lat="45.66757" lon="4.62685">
        <ele>515</ele>
        <time>2023-06-04T07:22:33.000Z</time>
      </trkpt>
      <trkpt lat="45.66758" lon="4.62684">
        <ele>515.2</ele>
        <time>2023-06-04T07:22:34.000Z</time>
      </trkpt>
      <trkpt lat="45.66758" lon="4.62676">
        <ele>516</ele>
        <time>2023-06-04T07:22:38.000Z</time>
      </trkpt>
      <trkpt lat="45.6676" lon="4.62674">
        <ele>516.2</ele>
        <time>2023-06-04T07:22:39.000Z</time>
      </trkpt>
      <trkpt lat="45.66762" lon="4.6267">
        <ele>516.6</ele>
        <time>2023-06-04T07:22:42.000Z</time>
      </trkpt>
      <trkpt lat="45.66762" lon="4.62665">
        <ele>517</ele>
        <time>2023-06-04T07:22:44.000Z</time>
      </trkpt>
      <trkpt lat="45.66763" lon="4.62663">
        <ele>517.2</ele>
        <time>2023-06-04T07:22:45.000Z</time>
      </trkpt>
      <trkpt lat="45.66764" lon="4.62662">
        <ele>517.4</ele>
        <time>2023-06-04T07:22:46.000Z</time>
      </trkpt>
      <trkpt lat="45.66764" lon="4.62659">
        <ele>517.4</ele>
        <time>2023-06-04T07:22:47.000Z</time>
      </trkpt>
      <trkpt lat="45.66766" lon="4.6265">
        <ele>518</ele>
        <time>2023-06-04T07:22:52.000Z</time>
      </trkpt>
      <trkpt lat="45.66764" lon="4.62649">
        <ele>518.2</ele>
        <time>2023-06-04T07:22:53.000Z</time>
      </trkpt>
      <trkpt lat="45.66762" lon="4.62643">
        <ele>518.6</ele>
        <time>2023-06-04T07:22:58.000Z</time>
      </trkpt>
      <trkpt lat="45.66759" lon="4.62641">
        <ele>519</ele>
        <time>2023-06-04T07:23:00.000Z</time>
      </trkpt>
      <trkpt lat="45.66757" lon="4.6264">
        <ele>519.2</ele>
        <time>2023-06-04T07:23:01.000Z</time>
      </trkpt>
      <trkpt lat="45.66751" lon="4.62629">
        <ele>520.2</ele>
        <time>2023-06-04T07:23:07.000Z</time>
      </trkpt>
      <trkpt lat="45.6675" lon="4.62628">
        <ele>520.4</ele>
        <time>2023-06-04T07:23:08.000Z</time>
      </trkpt>
      <trkpt lat="45.66749" lon="4.62623">
        <ele>520.8</ele>
        <time>2023-06-04T07:23:10.000Z</time>
      </trkpt>
      <trkpt lat="45.66748" lon="4.62619">
        <ele>521.4</ele>
        <time>2023-06-04T07:23:12.000Z</time>
      </trkpt>
      <trkpt lat="45.66746" lon="4.6261">
        <ele>522.2</ele>
        <time>2023-06-04T07:23:16.000Z</time>
      </trkpt>
      <trkpt lat="45.66747" lon="4.62605">
        <ele>522.4</ele>
        <time>2023-06-04T07:23:18.000Z</time>
      </trkpt>
      <trkpt lat="45.66748" lon="4.62604">
        <ele>522.6</ele>
        <time>2023-06-04T07:23:19.000Z</time>
      </trkpt>
      <trkpt lat="45.6675" lon="4.62599">
        <ele>523.4</ele>
        <time>2023-06-04T07:23:23.000Z</time>
      </trkpt>
      <trkpt lat="45.66752" lon="4.62594">
        <ele>523.6</ele>
        <time>2023-06-04T07:23:25.000Z</time>
      </trkpt>
      <trkpt lat="45.66753" lon="4.62589">
        <ele>524</ele>
        <time>2023-06-04T07:23:28.000Z</time>
      </trkpt>
      <trkpt lat="45.66754" lon="4.62579">
        <ele>524.6</ele>
        <time>2023-06-04T07:23:32.000Z</time>
      </trkpt>
      <trkpt lat="45.66755" lon="4.62576">
        <ele>524.8</ele>
        <time>2023-06-04T07:23:33.000Z</time>
      </trkpt>
      <trkpt lat="45.66754" lon="4.62569">
        <ele>525.2</ele>
        <time>2023-06-04T07:23:35.000Z</time>
      </trkpt>
      <trkpt lat="45.66752" lon="4.62557">
        <ele>525.6</ele>
        <time>2023-06-04T07:23:40.000Z</time>
      </trkpt>
      <trkpt lat="45.6675" lon="4.62546">
        <ele>525.8</ele>
        <time>2023-06-04T07:23:43.000Z</time>
      </trkpt>
      <trkpt lat="45.66745" lon="4.62536">
        <ele>525.8</ele>
        <time>2023-06-04T07:23:46.000Z</time>
      </trkpt>
      <trkpt lat="45.66743" lon="4.62523">
        <ele>525.8</ele>
        <time>2023-06-04T07:23:49.000Z</time>
      </trkpt>
      <trkpt lat="45.66742" lon="4.62519">
        <ele>525.8</ele>
        <time>2023-06-04T07:23:50.000Z</time>
      </trkpt>
      <trkpt lat="45.66741" lon="4.6251">
        <ele>525.8</ele>
        <time>2023-06-04T07:23:52.000Z</time>
      </trkpt>
      <trkpt lat="45.66739" lon="4.62505">
        <ele>525.8</ele>
        <time>2023-06-04T07:23:53.000Z</time>
      </trkpt>
      <trkpt lat="45.66733" lon="4.62485">
        <ele>525.8</ele>
        <time>2023-06-04T07:23:57.000Z</time>
      </trkpt>
      <trkpt lat="45.66731" lon="4.62476">
        <ele>525.6</ele>
        <time>2023-06-04T07:23:59.000Z</time>
      </trkpt>
      <trkpt lat="45.66726" lon="4.62455">
        <ele>525.6</ele>
        <time>2023-06-04T07:24:04.000Z</time>
      </trkpt>
      <trkpt lat="45.66717" lon="4.62423">
        <ele>525.6</ele>
        <time>2023-06-04T07:24:11.000Z</time>
      </trkpt>
      <trkpt lat="45.66713" lon="4.62406">
        <ele>525.8</ele>
        <time>2023-06-04T07:24:15.000Z</time>
      </trkpt>
      <trkpt lat="45.66707" lon="4.62394">
        <ele>526</ele>
        <time>2023-06-04T07:24:18.000Z</time>
      </trkpt>
      <trkpt lat="45.66697" lon="4.62376">
        <ele>526.2</ele>
        <time>2023-06-04T07:24:24.000Z</time>
      </trkpt>
      <trkpt lat="45.6669" lon="4.62369">
        <ele>526.6</ele>
        <time>2023-06-04T07:24:28.000Z</time>
      </trkpt>
      <trkpt lat="45.66685" lon="4.62366">
        <ele>526.8</ele>
        <time>2023-06-04T07:24:30.000Z</time>
      </trkpt>
      <trkpt lat="45.66683" lon="4.62364">
        <ele>527.4</ele>
        <time>2023-06-04T07:24:32.000Z</time>
      </trkpt>
      <trkpt lat="45.66682" lon="4.62363">
        <ele>527.8</ele>
        <time>2023-06-04T07:24:33.000Z</time>
      </trkpt>
      <trkpt lat="45.66679" lon="4.62358">
        <ele>528.4</ele>
        <time>2023-06-04T07:24:35.000Z</time>
      </trkpt>
      <trkpt lat="45.66676" lon="4.62356">
        <ele>528.8</ele>
        <time>2023-06-04T07:24:37.000Z</time>
      </trkpt>
      <trkpt lat="45.66671" lon="4.62349">
        <ele>529.4</ele>
        <time>2023-06-04T07:24:40.000Z</time>
      </trkpt>
      <trkpt lat="45.66669" lon="4.62346">
        <ele>529.8</ele>
        <time>2023-06-04T07:24:42.000Z</time>
      </trkpt>
      <trkpt lat="45.66666" lon="4.62345">
        <ele>530</ele>
        <time>2023-06-04T07:24:44.000Z</time>
      </trkpt>
      <trkpt lat="45.66658" lon="4.62342">
        <ele>531</ele>
        <time>2023-06-04T07:24:49.000Z</time>
      </trkpt>
      <trkpt lat="45.66656" lon="4.62342">
        <ele>531.4</ele>
        <time>2023-06-04T07:24:50.000Z</time>
      </trkpt>
      <trkpt lat="45.66655" lon="4.62341">
        <ele>531.8</ele>
        <time>2023-06-04T07:24:51.000Z</time>
      </trkpt>
      <trkpt lat="45.66654" lon="4.6234">
        <ele>532</ele>
        <time>2023-06-04T07:24:52.000Z</time>
      </trkpt>
      <trkpt lat="45.66646" lon="4.62331">
        <ele>533</ele>
        <time>2023-06-04T07:24:58.000Z</time>
      </trkpt>
      <trkpt lat="45.66644" lon="4.62329">
        <ele>533.2</ele>
        <time>2023-06-04T07:24:59.000Z</time>
      </trkpt>
      <trkpt lat="45.66641" lon="4.62324">
        <ele>533.4</ele>
        <time>2023-06-04T07:25:01.000Z</time>
      </trkpt>
      <trkpt lat="45.66635" lon="4.62314">
        <ele>534</ele>
        <time>2023-06-04T07:25:06.000Z</time>
      </trkpt>
      <trkpt lat="45.66633" lon="4.62309">
        <ele>534.2</ele>
        <time>2023-06-04T07:25:08.000Z</time>
      </trkpt>
      <trkpt lat="45.66633" lon="4.62307">
        <ele>534.2</ele>
        <time>2023-06-04T07:25:09.000Z</time>
      </trkpt>
      <trkpt lat="45.66623" lon="4.62281">
        <ele>535.2</ele>
        <time>2023-06-04T07:25:19.000Z</time>
      </trkpt>
      <trkpt lat="45.66614" lon="4.62269">
        <ele>536</ele>
        <time>2023-06-04T07:25:25.000Z</time>
      </trkpt>
      <trkpt lat="45.66611" lon="4.62263">
        <ele>536.2</ele>
        <time>2023-06-04T07:25:27.000Z</time>
      </trkpt>
      <trkpt lat="45.66608" lon="4.62258">
        <ele>536.4</ele>
        <time>2023-06-04T07:25:29.000Z</time>
      </trkpt>
      <trkpt lat="45.666" lon="4.62238">
        <ele>537</ele>
        <time>2023-06-04T07:25:35.000Z</time>
      </trkpt>
      <trkpt lat="45.66588" lon="4.62203">
        <ele>537.2</ele>
        <time>2023-06-04T07:25:45.000Z</time>
      </trkpt>
      <trkpt lat="45.6658" lon="4.62182">
        <ele>537.4</ele>
        <time>2023-06-04T07:25:51.000Z</time>
      </trkpt>
      <trkpt lat="45.66579" lon="4.62178">
        <ele>537.6</ele>
        <time>2023-06-04T07:25:52.000Z</time>
      </trkpt>
      <trkpt lat="45.66576" lon="4.62167">
        <ele>537.8</ele>
        <time>2023-06-04T07:25:55.000Z</time>
      </trkpt>
      <trkpt lat="45.66568" lon="4.62139">
        <ele>538.4</ele>
        <time>2023-06-04T07:26:03.000Z</time>
      </trkpt>
      <trkpt lat="45.66566" lon="4.62131">
        <ele>538.6</ele>
        <time>2023-06-04T07:26:05.000Z</time>
      </trkpt>
      <trkpt lat="45.66565" lon="4.62127">
        <ele>538.8</ele>
        <time>2023-06-04T07:26:06.000Z</time>
      </trkpt>
      <trkpt lat="45.66563" lon="4.62119">
        <ele>539</ele>
        <time>2023-06-04T07:26:08.000Z</time>
      </trkpt>
      <trkpt lat="45.66562" lon="4.62115">
        <ele>539</ele>
        <time>2023-06-04T07:26:09.000Z</time>
      </trkpt>
      <trkpt lat="45.6656" lon="4.62107">
        <ele>539</ele>
        <time>2023-06-04T07:26:11.000Z</time>
      </trkpt>
      <trkpt lat="45.66559" lon="4.62099">
        <ele>539</ele>
        <time>2023-06-04T07:26:13.000Z</time>
      </trkpt>
      <trkpt lat="45.66555" lon="4.62078">
        <ele>539.4</ele>
        <time>2023-06-04T07:26:19.000Z</time>
      </trkpt>
      <trkpt lat="45.66553" lon="4.6207">
        <ele>539.8</ele>
        <time>2023-06-04T07:26:21.000Z</time>
      </trkpt>
      <trkpt lat="45.66549" lon="4.62059">
        <ele>540</ele>
        <time>2023-06-04T07:26:24.000Z</time>
      </trkpt>
      <trkpt lat="45.66545" lon="4.62044">
        <ele>540</ele>
        <time>2023-06-04T07:26:28.000Z</time>
      </trkpt>
      <trkpt lat="45.66532" lon="4.62005">
        <ele>540.2</ele>
        <time>2023-06-04T07:26:38.000Z</time>
      </trkpt>
      <trkpt lat="45.66526" lon="4.61981">
        <ele>541</ele>
        <time>2023-06-04T07:26:44.000Z</time>
      </trkpt>
      <trkpt lat="45.66522" lon="4.6197">
        <ele>541.2</ele>
        <time>2023-06-04T07:26:47.000Z</time>
      </trkpt>
      <trkpt lat="45.66517" lon="4.61953">
        <ele>542</ele>
        <time>2023-06-04T07:26:52.000Z</time>
      </trkpt>
      <trkpt lat="45.66514" lon="4.61942">
        <ele>542.6</ele>
        <time>2023-06-04T07:26:55.000Z</time>
      </trkpt>
      <trkpt lat="45.66511" lon="4.61932">
        <ele>543.2</ele>
        <time>2023-06-04T07:26:58.000Z</time>
      </trkpt>
      <trkpt lat="45.66508" lon="4.61923">
        <ele>543.8</ele>
        <time>2023-06-04T07:27:01.000Z</time>
      </trkpt>
      <trkpt lat="45.66508" lon="4.6192">
        <ele>544</ele>
        <time>2023-06-04T07:27:02.000Z</time>
      </trkpt>
      <trkpt lat="45.66507" lon="4.61915">
        <ele>544.2</ele>
        <time>2023-06-04T07:27:04.000Z</time>
      </trkpt>
      <trkpt lat="45.66505" lon="4.61907">
        <ele>545.4</ele>
        <time>2023-06-04T07:27:07.000Z</time>
      </trkpt>
      <trkpt lat="45.66502" lon="4.61896">
        <ele>546.4</ele>
        <time>2023-06-04T07:27:11.000Z</time>
      </trkpt>
      <trkpt lat="45.66501" lon="4.61883">
        <ele>547.2</ele>
        <time>2023-06-04T07:27:15.000Z</time>
      </trkpt>
      <trkpt lat="45.66499" lon="4.61869">
        <ele>547.4</ele>
        <time>2023-06-04T07:27:19.000Z</time>
      </trkpt>
      <trkpt lat="45.66498" lon="4.61844">
        <ele>548.6</ele>
        <time>2023-06-04T07:27:27.000Z</time>
      </trkpt>
      <trkpt lat="45.66497" lon="4.61841">
        <ele>548.6</ele>
        <time>2023-06-04T07:27:28.000Z</time>
      </trkpt>
      <trkpt lat="45.66494" lon="4.61829">
        <ele>549.6</ele>
        <time>2023-06-04T07:27:33.000Z</time>
      </trkpt>
      <trkpt lat="45.66492" lon="4.6182">
        <ele>550.6</ele>
        <time>2023-06-04T07:27:37.000Z</time>
      </trkpt>
      <trkpt lat="45.66492" lon="4.61814">
        <ele>551</ele>
        <time>2023-06-04T07:27:39.000Z</time>
      </trkpt>
      <trkpt lat="45.66493" lon="4.61802">
        <ele>551.8</ele>
        <time>2023-06-04T07:27:43.000Z</time>
      </trkpt>
      <trkpt lat="45.66493" lon="4.61794">
        <ele>552.4</ele>
        <time>2023-06-04T07:27:46.000Z</time>
      </trkpt>
      <trkpt lat="45.66493" lon="4.6179">
        <ele>552.6</ele>
        <time>2023-06-04T07:27:48.000Z</time>
      </trkpt>
      <trkpt lat="45.66494" lon="4.61778">
        <ele>553</ele>
        <time>2023-06-04T07:27:52.000Z</time>
      </trkpt>
      <trkpt lat="45.66494" lon="4.61764">
        <ele>553.4</ele>
        <time>2023-06-04T07:27:57.000Z</time>
      </trkpt>
      <trkpt lat="45.66495" lon="4.61761">
        <ele>553.4</ele>
        <time>2023-06-04T07:27:58.000Z</time>
      </trkpt>
      <trkpt lat="45.66498" lon="4.61743">
        <ele>554</ele>
        <time>2023-06-04T07:28:05.000Z</time>
      </trkpt>
      <trkpt lat="45.665" lon="4.61737">
        <ele>554.2</ele>
        <time>2023-06-04T07:28:07.000Z</time>
      </trkpt>
      <trkpt lat="45.66503" lon="4.61721">
        <ele>554.8</ele>
        <time>2023-06-04T07:28:15.000Z</time>
      </trkpt>
      <trkpt lat="45.66503" lon="4.61713">
        <ele>555</ele>
        <time>2023-06-04T07:28:18.000Z</time>
      </trkpt>
      <trkpt lat="45.66501" lon="4.61703">
        <ele>555.4</ele>
        <time>2023-06-04T07:28:22.000Z</time>
      </trkpt>
      <trkpt lat="45.665" lon="4.61701">
        <ele>555.6</ele>
        <time>2023-06-04T07:28:23.000Z</time>
      </trkpt>
      <trkpt lat="45.665" lon="4.61698">
        <ele>555.8</ele>
        <time>2023-06-04T07:28:24.000Z</time>
      </trkpt>
      <trkpt lat="45.66499" lon="4.61693">
        <ele>556</ele>
        <time>2023-06-04T07:28:26.000Z</time>
      </trkpt>
      <trkpt lat="45.66497" lon="4.61683">
        <ele>556.6</ele>
        <time>2023-06-04T07:28:31.000Z</time>
      </trkpt>
      <trkpt lat="45.66494" lon="4.61676">
        <ele>557.4</ele>
        <time>2023-06-04T07:28:35.000Z</time>
      </trkpt>
      <trkpt lat="45.66493" lon="4.6167">
        <ele>558</ele>
        <time>2023-06-04T07:28:38.000Z</time>
      </trkpt>
      <trkpt lat="45.66492" lon="4.61667">
        <ele>558.6</ele>
        <time>2023-06-04T07:28:40.000Z</time>
      </trkpt>
      <trkpt lat="45.66489" lon="4.61661">
        <ele>559.2</ele>
        <time>2023-06-04T07:28:44.000Z</time>
      </trkpt>
      <trkpt lat="45.66488" lon="4.61658">
        <ele>559.6</ele>
        <time>2023-06-04T07:28:46.000Z</time>
      </trkpt>
      <trkpt lat="45.66487" lon="4.61657">
        <ele>559.8</ele>
        <time>2023-06-04T07:28:47.000Z</time>
      </trkpt>
      <trkpt lat="45.66488" lon="4.61657">
        <ele>560</ele>
        <time>2023-06-04T07:28:48.000Z</time>
      </trkpt>
      <trkpt lat="45.66488" lon="4.61657">
        <ele>560.6</ele>
        <time>2023-06-04T07:28:51.000Z</time>
      </trkpt>
      <trkpt lat="45.66487" lon="4.61656">
        <ele>561.4</ele>
        <time>2023-06-04T07:28:54.000Z</time>
      </trkpt>
      <trkpt lat="45.66487" lon="4.61655">
        <ele>561.8</ele>
        <time>2023-06-04T07:28:55.000Z</time>
      </trkpt>
      <trkpt lat="45.66483" lon="4.61651">
        <ele>563</ele>
        <time>2023-06-04T07:29:02.000Z</time>
      </trkpt>
      <trkpt lat="45.66482" lon="4.6165">
        <ele>563.2</ele>
        <time>2023-06-04T07:29:04.000Z</time>
      </trkpt>
      <trkpt lat="45.66479" lon="4.61647">
        <ele>563.4</ele>
        <time>2023-06-04T07:29:08.000Z</time>
      </trkpt>
      <trkpt lat="45.66479" lon="4.61646">
        <ele>563.8</ele>
        <time>2023-06-04T07:29:11.000Z</time>
      </trkpt>
      <trkpt lat="45.66479" lon="4.61646">
        <ele>564</ele>
        <time>2023-06-04T07:29:13.000Z</time>
      </trkpt>
      <trkpt lat="45.66479" lon="4.61646">
        <ele>564.2</ele>
        <time>2023-06-04T07:29:17.000Z</time>
      </trkpt>
      <trkpt lat="45.66479" lon="4.61646">
        <ele>564.8</ele>
        <time>2023-06-04T07:29:27.000Z</time>
      </trkpt>
      <trkpt lat="45.66479" lon="4.61645">
        <ele>564.8</ele>
        <time>2023-06-04T07:29:28.000Z</time>
      </trkpt>
      <trkpt lat="45.66477" lon="4.61642">
        <ele>564.8</ele>
        <time>2023-06-04T07:29:30.000Z</time>
      </trkpt>
      <trkpt lat="45.66474" lon="4.61632">
        <ele>565</ele>
        <time>2023-06-04T07:29:34.000Z</time>
      </trkpt>
      <trkpt lat="45.66473" lon="4.6163">
        <ele>565.2</ele>
        <time>2023-06-04T07:29:35.000Z</time>
      </trkpt>
      <trkpt lat="45.66472" lon="4.61617">
        <ele>566</ele>
        <time>2023-06-04T07:29:42.000Z</time>
      </trkpt>
      <trkpt lat="45.66471" lon="4.61611">
        <ele>566.6</ele>
        <time>2023-06-04T07:29:45.000Z</time>
      </trkpt>
      <trkpt lat="45.6647" lon="4.61607">
        <ele>567.2</ele>
        <time>2023-06-04T07:29:47.000Z</time>
      </trkpt>
      <trkpt lat="45.66468" lon="4.61602">
        <ele>567.6</ele>
        <time>2023-06-04T07:29:50.000Z</time>
      </trkpt>
      <trkpt lat="45.66467" lon="4.61598">
        <ele>568.2</ele>
        <time>2023-06-04T07:29:52.000Z</time>
      </trkpt>
      <trkpt lat="45.66466" lon="4.61597">
        <ele>568.4</ele>
        <time>2023-06-04T07:29:53.000Z</time>
      </trkpt>
      <trkpt lat="45.66464" lon="4.61591">
        <ele>569.2</ele>
        <time>2023-06-04T07:29:57.000Z</time>
      </trkpt>
      <trkpt lat="45.66463" lon="4.61586">
        <ele>569.8</ele>
        <time>2023-06-04T07:30:00.000Z</time>
      </trkpt>
      <trkpt lat="45.66462" lon="4.61582">
        <ele>570.4</ele>
        <time>2023-06-04T07:30:02.000Z</time>
      </trkpt>
      <trkpt lat="45.66461" lon="4.61575">
        <ele>571.2</ele>
        <time>2023-06-04T07:30:06.000Z</time>
      </trkpt>
      <trkpt lat="45.6646" lon="4.61571">
        <ele>571.6</ele>
        <time>2023-06-04T07:30:08.000Z</time>
      </trkpt>
      <trkpt lat="45.6646" lon="4.61569">
        <ele>571.6</ele>
        <time>2023-06-04T07:30:09.000Z</time>
      </trkpt>
      <trkpt lat="45.6646" lon="4.61565">
        <ele>572</ele>
        <time>2023-06-04T07:30:12.000Z</time>
      </trkpt>
      <trkpt lat="45.6646" lon="4.61563">
        <ele>572</ele>
        <time>2023-06-04T07:30:13.000Z</time>
      </trkpt>
      <trkpt lat="45.66458" lon="4.61558">
        <ele>572.4</ele>
        <time>2023-06-04T07:30:16.000Z</time>
      </trkpt>
      <trkpt lat="45.66457" lon="4.61555">
        <ele>573</ele>
        <time>2023-06-04T07:30:18.000Z</time>
      </trkpt>
      <trkpt lat="45.66455" lon="4.61551">
        <ele>573.6</ele>
        <time>2023-06-04T07:30:21.000Z</time>
      </trkpt>
      <trkpt lat="45.66454" lon="4.61549">
        <ele>574.2</ele>
        <time>2023-06-04T07:30:23.000Z</time>
      </trkpt>
      <trkpt lat="45.66453" lon="4.61546">
        <ele>574.6</ele>
        <time>2023-06-04T07:30:25.000Z</time>
      </trkpt>
      <trkpt lat="45.66451" lon="4.61539">
        <ele>575.6</ele>
        <time>2023-06-04T07:30:29.000Z</time>
      </trkpt>
      <trkpt lat="45.6645" lon="4.61538">
        <ele>575.8</ele>
        <time>2023-06-04T07:30:30.000Z</time>
      </trkpt>
      <trkpt lat="45.66448" lon="4.61532">
        <ele>576.6</ele>
        <time>2023-06-04T07:30:34.000Z</time>
      </trkpt>
      <trkpt lat="45.66446" lon="4.61528">
        <ele>577</ele>
        <time>2023-06-04T07:30:37.000Z</time>
      </trkpt>
      <trkpt lat="45.66445" lon="4.61523">
        <ele>577.8</ele>
        <time>2023-06-04T07:30:40.000Z</time>
      </trkpt>
      <trkpt lat="45.66445" lon="4.61521">
        <ele>578.2</ele>
        <time>2023-06-04T07:30:41.000Z</time>
      </trkpt>
      <trkpt lat="45.66442" lon="4.61511">
        <ele>578.8</ele>
        <time>2023-06-04T07:30:47.000Z</time>
      </trkpt>
      <trkpt lat="45.66441" lon="4.61506">
        <ele>579.2</ele>
        <time>2023-06-04T07:30:50.000Z</time>
      </trkpt>
      <trkpt lat="45.66438" lon="4.61493">
        <ele>580</ele>
        <time>2023-06-04T07:30:58.000Z</time>
      </trkpt>
      <trkpt lat="45.66437" lon="4.6149">
        <ele>580.4</ele>
        <time>2023-06-04T07:31:00.000Z</time>
      </trkpt>
      <trkpt lat="45.66434" lon="4.61482">
        <ele>581.6</ele>
        <time>2023-06-04T07:31:05.000Z</time>
      </trkpt>
      <trkpt lat="45.66429" lon="4.61475">
        <ele>582.4</ele>
        <time>2023-06-04T07:31:09.000Z</time>
      </trkpt>
      <trkpt lat="45.66428" lon="4.61474">
        <ele>582.6</ele>
        <time>2023-06-04T07:31:10.000Z</time>
      </trkpt>
      <trkpt lat="45.66424" lon="4.61469">
        <ele>583.2</ele>
        <time>2023-06-04T07:31:13.000Z</time>
      </trkpt>
      <trkpt lat="45.66422" lon="4.61464">
        <ele>583.8</ele>
        <time>2023-06-04T07:31:17.000Z</time>
      </trkpt>
      <trkpt lat="45.66421" lon="4.61461">
        <ele>584.2</ele>
        <time>2023-06-04T07:31:19.000Z</time>
      </trkpt>
      <trkpt lat="45.66418" lon="4.61453">
        <ele>585</ele>
        <time>2023-06-04T07:31:25.000Z</time>
      </trkpt>
      <trkpt lat="45.66417" lon="4.6145">
        <ele>585.6</ele>
        <time>2023-06-04T07:31:27.000Z</time>
      </trkpt>
      <trkpt lat="45.66416" lon="4.61447">
        <ele>586</ele>
        <time>2023-06-04T07:31:29.000Z</time>
      </trkpt>
      <trkpt lat="45.66413" lon="4.61438">
        <ele>587</ele>
        <time>2023-06-04T07:31:35.000Z</time>
      </trkpt>
      <trkpt lat="45.6641" lon="4.61433">
        <ele>587.8</ele>
        <time>2023-06-04T07:31:39.000Z</time>
      </trkpt>
      <trkpt lat="45.6641" lon="4.61431">
        <ele>588</ele>
        <time>2023-06-04T07:31:41.000Z</time>
      </trkpt>
      <trkpt lat="45.66405" lon="4.61419">
        <ele>589.2</ele>
        <time>2023-06-04T07:31:49.000Z</time>
      </trkpt>
      <trkpt lat="45.66404" lon="4.61418">
        <ele>589.4</ele>
        <time>2023-06-04T07:31:50.000Z</time>
      </trkpt>
      <trkpt lat="45.66403" lon="4.61413">
        <ele>590.2</ele>
        <time>2023-06-04T07:31:53.000Z</time>
      </trkpt>
      <trkpt lat="45.66401" lon="4.61406">
        <ele>591.4</ele>
        <time>2023-06-04T07:31:57.000Z</time>
      </trkpt>
      <trkpt lat="45.664" lon="4.61405">
        <ele>591.6</ele>
        <time>2023-06-04T07:31:58.000Z</time>
      </trkpt>
      <trkpt lat="45.66399" lon="4.614">
        <ele>592.4</ele>
        <time>2023-06-04T07:32:01.000Z</time>
      </trkpt>
      <trkpt lat="45.66397" lon="4.61396">
        <ele>592.8</ele>
        <time>2023-06-04T07:32:03.000Z</time>
      </trkpt>
      <trkpt lat="45.66395" lon="4.6139">
        <ele>593.2</ele>
        <time>2023-06-04T07:32:06.000Z</time>
      </trkpt>
      <trkpt lat="45.66393" lon="4.61387">
        <ele>593.4</ele>
        <time>2023-06-04T07:32:08.000Z</time>
      </trkpt>
      <trkpt lat="45.6639" lon="4.6138">
        <ele>594.4</ele>
        <time>2023-06-04T07:32:13.000Z</time>
      </trkpt>
      <trkpt lat="45.66389" lon="4.61376">
        <ele>594.6</ele>
        <time>2023-06-04T07:32:14.000Z</time>
      </trkpt>
      <trkpt lat="45.66386" lon="4.61367">
        <ele>595.4</ele>
        <time>2023-06-04T07:32:20.000Z</time>
      </trkpt>
      <trkpt lat="45.66386" lon="4.61367">
        <ele>595.6</ele>
        <time>2023-06-04T07:32:21.000Z</time>
      </trkpt>
      <trkpt lat="45.66375" lon="4.61355">
        <ele>596.6</ele>
        <time>2023-06-04T07:32:31.000Z</time>
      </trkpt>
      <trkpt lat="45.66375" lon="4.61354">
        <ele>596.8</ele>
        <time>2023-06-04T07:32:32.000Z</time>
      </trkpt>
      <trkpt lat="45.66373" lon="4.61352">
        <ele>597.2</ele>
        <time>2023-06-04T07:32:34.000Z</time>
      </trkpt>
      <trkpt lat="45.66367" lon="4.61348">
        <ele>597.8</ele>
        <time>2023-06-04T07:32:38.000Z</time>
      </trkpt>
      <trkpt lat="45.66364" lon="4.61346">
        <ele>598.6</ele>
        <time>2023-06-04T07:32:41.000Z</time>
      </trkpt>
      <trkpt lat="45.66363" lon="4.61345">
        <ele>598.8</ele>
        <time>2023-06-04T07:32:42.000Z</time>
      </trkpt>
      <trkpt lat="45.66357" lon="4.6134">
        <ele>600.2</ele>
        <time>2023-06-04T07:32:48.000Z</time>
      </trkpt>
      <trkpt lat="45.66356" lon="4.61339">
        <ele>600.4</ele>
        <time>2023-06-04T07:32:49.000Z</time>
      </trkpt>
      <trkpt lat="45.66349" lon="4.61334">
        <ele>601.2</ele>
        <time>2023-06-04T07:32:54.000Z</time>
      </trkpt>
      <trkpt lat="45.66344" lon="4.61331">
        <ele>602</ele>
        <time>2023-06-04T07:32:58.000Z</time>
      </trkpt>
      <trkpt lat="45.66341" lon="4.61331">
        <ele>602.4</ele>
        <time>2023-06-04T07:33:00.000Z</time>
      </trkpt>
      <trkpt lat="45.6633" lon="4.61328">
        <ele>603</ele>
        <time>2023-06-04T07:33:08.000Z</time>
      </trkpt>
      <trkpt lat="45.66324" lon="4.61326">
        <ele>603.4</ele>
        <time>2023-06-04T07:33:13.000Z</time>
      </trkpt>
      <trkpt lat="45.66314" lon="4.61323">
        <ele>604.2</ele>
        <time>2023-06-04T07:33:20.000Z</time>
      </trkpt>
      <trkpt lat="45.66312" lon="4.61322">
        <ele>604.4</ele>
        <time>2023-06-04T07:33:22.000Z</time>
      </trkpt>
      <trkpt lat="45.66302" lon="4.61319">
        <ele>605.4</ele>
        <time>2023-06-04T07:33:29.000Z</time>
      </trkpt>
      <trkpt lat="45.66301" lon="4.61319">
        <ele>605.6</ele>
        <time>2023-06-04T07:33:30.000Z</time>
      </trkpt>
      <trkpt lat="45.66297" lon="4.61318">
        <ele>606</ele>
        <time>2023-06-04T07:33:33.000Z</time>
      </trkpt>
      <trkpt lat="45.66289" lon="4.61317">
        <ele>606.8</ele>
        <time>2023-06-04T07:33:39.000Z</time>
      </trkpt>
      <trkpt lat="45.6628" lon="4.61313">
        <ele>608</ele>
        <time>2023-06-04T07:33:45.000Z</time>
      </trkpt>
      <trkpt lat="45.66276" lon="4.61311">
        <ele>608.6</ele>
        <time>2023-06-04T07:33:48.000Z</time>
      </trkpt>
      <trkpt lat="45.66272" lon="4.61308">
        <ele>609</ele>
        <time>2023-06-04T07:33:51.000Z</time>
      </trkpt>
      <trkpt lat="45.66262" lon="4.61301">
        <ele>610.2</ele>
        <time>2023-06-04T07:33:58.000Z</time>
      </trkpt>
      <trkpt lat="45.66261" lon="4.613">
        <ele>610.2</ele>
        <time>2023-06-04T07:33:59.000Z</time>
      </trkpt>
      <trkpt lat="45.66257" lon="4.61297">
        <ele>610.4</ele>
        <time>2023-06-04T07:34:02.000Z</time>
      </trkpt>
      <trkpt lat="45.66251" lon="4.61292">
        <ele>611.2</ele>
        <time>2023-06-04T07:34:07.000Z</time>
      </trkpt>
      <trkpt lat="45.66245" lon="4.61287">
        <ele>611.8</ele>
        <time>2023-06-04T07:34:12.000Z</time>
      </trkpt>
      <trkpt lat="45.66242" lon="4.61283">
        <ele>612.2</ele>
        <time>2023-06-04T07:34:15.000Z</time>
      </trkpt>
      <trkpt lat="45.6624" lon="4.6128">
        <ele>612.6</ele>
        <time>2023-06-04T07:34:17.000Z</time>
      </trkpt>
      <trkpt lat="45.66237" lon="4.61274">
        <ele>613</ele>
        <time>2023-06-04T07:34:20.000Z</time>
      </trkpt>
      <trkpt lat="45.66236" lon="4.6127">
        <ele>613.2</ele>
        <time>2023-06-04T07:34:22.000Z</time>
      </trkpt>
      <trkpt lat="45.66227" lon="4.61255">
        <ele>614.2</ele>
        <time>2023-06-04T07:34:31.000Z</time>
      </trkpt>
      <trkpt lat="45.66227" lon="4.61253">
        <ele>614.4</ele>
        <time>2023-06-04T07:34:32.000Z</time>
      </trkpt>
      <trkpt lat="45.66218" lon="4.61241">
        <ele>615.4</ele>
        <time>2023-06-04T07:34:39.000Z</time>
      </trkpt>
      <trkpt lat="45.66217" lon="4.6124">
        <ele>615.6</ele>
        <time>2023-06-04T07:34:40.000Z</time>
      </trkpt>
      <trkpt lat="45.66213" lon="4.61235">
        <ele>616</ele>
        <time>2023-06-04T07:34:44.000Z</time>
      </trkpt>
      <trkpt lat="45.66207" lon="4.6123">
        <ele>616.6</ele>
        <time>2023-06-04T07:34:48.000Z</time>
      </trkpt>
      <trkpt lat="45.66202" lon="4.61222">
        <ele>617.8</ele>
        <time>2023-06-04T07:34:53.000Z</time>
      </trkpt>
      <trkpt lat="45.66196" lon="4.61215">
        <ele>618.8</ele>
        <time>2023-06-04T07:34:58.000Z</time>
      </trkpt>
      <trkpt lat="45.66193" lon="4.61212">
        <ele>619</ele>
        <time>2023-06-04T07:35:00.000Z</time>
      </trkpt>
      <trkpt lat="45.66188" lon="4.61206">
        <ele>619.8</ele>
        <time>2023-06-04T07:35:04.000Z</time>
      </trkpt>
      <trkpt lat="45.6618" lon="4.61197">
        <ele>620.2</ele>
        <time>2023-06-04T07:35:09.000Z</time>
      </trkpt>
      <trkpt lat="45.66177" lon="4.61194">
        <ele>620.4</ele>
        <time>2023-06-04T07:35:11.000Z</time>
      </trkpt>
      <trkpt lat="45.66172" lon="4.6119">
        <ele>620.8</ele>
        <time>2023-06-04T07:35:14.000Z</time>
      </trkpt>
      <trkpt lat="45.66171" lon="4.61188">
        <ele>620.8</ele>
        <time>2023-06-04T07:35:15.000Z</time>
      </trkpt>
      <trkpt lat="45.66166" lon="4.61183">
        <ele>621.2</ele>
        <time>2023-06-04T07:35:18.000Z</time>
      </trkpt>
      <trkpt lat="45.6616" lon="4.61175">
        <ele>621.8</ele>
        <time>2023-06-04T07:35:23.000Z</time>
      </trkpt>
      <trkpt lat="45.66156" lon="4.61171">
        <ele>622.4</ele>
        <time>2023-06-04T07:35:26.000Z</time>
      </trkpt>
      <trkpt lat="45.66153" lon="4.61165">
        <ele>623</ele>
        <time>2023-06-04T07:35:29.000Z</time>
      </trkpt>
      <trkpt lat="45.66148" lon="4.61154">
        <ele>624</ele>
        <time>2023-06-04T07:35:35.000Z</time>
      </trkpt>
      <trkpt lat="45.66147" lon="4.61147">
        <ele>625.2</ele>
        <time>2023-06-04T07:35:40.000Z</time>
      </trkpt>
      <trkpt lat="45.66146" lon="4.61143">
        <ele>625.8</ele>
        <time>2023-06-04T07:35:42.000Z</time>
      </trkpt>
      <trkpt lat="45.66144" lon="4.61127">
        <ele>626</ele>
        <time>2023-06-04T07:35:47.000Z</time>
      </trkpt>
      <trkpt lat="45.66144" lon="4.61123">
        <ele>626.2</ele>
        <time>2023-06-04T07:35:48.000Z</time>
      </trkpt>
      <trkpt lat="45.66141" lon="4.61105">
        <ele>626.2</ele>
        <time>2023-06-04T07:35:54.000Z</time>
      </trkpt>
      <trkpt lat="45.66141" lon="4.61101">
        <ele>626.4</ele>
        <time>2023-06-04T07:35:55.000Z</time>
      </trkpt>
      <trkpt lat="45.66135" lon="4.61072">
        <ele>626.6</ele>
        <time>2023-06-04T07:36:02.000Z</time>
      </trkpt>
      <trkpt lat="45.66129" lon="4.61045">
        <ele>626.8</ele>
        <time>2023-06-04T07:36:09.000Z</time>
      </trkpt>
      <trkpt lat="45.66117" lon="4.61003">
        <ele>627.2</ele>
        <time>2023-06-04T07:36:19.000Z</time>
      </trkpt>
      <trkpt lat="45.66111" lon="4.60982">
        <ele>627.4</ele>
        <time>2023-06-04T07:36:24.000Z</time>
      </trkpt>
      <trkpt lat="45.66104" lon="4.60968">
        <ele>627.8</ele>
        <time>2023-06-04T07:36:28.000Z</time>
      </trkpt>
      <trkpt lat="45.66095" lon="4.60951">
        <ele>628.6</ele>
        <time>2023-06-04T07:36:34.000Z</time>
      </trkpt>
      <trkpt lat="45.66093" lon="4.60948">
        <ele>628.6</ele>
        <time>2023-06-04T07:36:35.000Z</time>
      </trkpt>
      <trkpt lat="45.66085" lon="4.60935">
        <ele>629.6</ele>
        <time>2023-06-04T07:36:40.000Z</time>
      </trkpt>
      <trkpt lat="45.66079" lon="4.60926">
        <ele>630.4</ele>
        <time>2023-06-04T07:36:43.000Z</time>
      </trkpt>
      <trkpt lat="45.66076" lon="4.60923">
        <ele>630.6</ele>
        <time>2023-06-04T07:36:44.000Z</time>
      </trkpt>
      <trkpt lat="45.66066" lon="4.60911">
        <ele>631.6</ele>
        <time>2023-06-04T07:36:48.000Z</time>
      </trkpt>
      <trkpt lat="45.66064" lon="4.60909">
        <ele>631.6</ele>
        <time>2023-06-04T07:36:49.000Z</time>
      </trkpt>
      <trkpt lat="45.6606" lon="4.60906">
        <ele>631.8</ele>
        <time>2023-06-04T07:36:51.000Z</time>
      </trkpt>
      <trkpt lat="45.6605" lon="4.60891">
        <ele>632</ele>
        <time>2023-06-04T07:36:56.000Z</time>
      </trkpt>
      <trkpt lat="45.66042" lon="4.6087">
        <ele>632.2</ele>
        <time>2023-06-04T07:37:02.000Z</time>
      </trkpt>
      <trkpt lat="45.66034" lon="4.6085">
        <ele>632.2</ele>
        <time>2023-06-04T07:37:07.000Z</time>
      </trkpt>
      <trkpt lat="45.66018" lon="4.60823">
        <ele>632</ele>
        <time>2023-06-04T07:37:13.000Z</time>
      </trkpt>
      <trkpt lat="45.65996" lon="4.60789">
        <ele>631.6</ele>
        <time>2023-06-04T07:37:21.000Z</time>
      </trkpt>
      <trkpt lat="45.65981" lon="4.6076">
        <ele>631.6</ele>
        <time>2023-06-04T07:37:27.000Z</time>
      </trkpt>
      <trkpt lat="45.65969" lon="4.60718">
        <ele>631.6</ele>
        <time>2023-06-04T07:37:33.000Z</time>
      </trkpt>
      <trkpt lat="45.65958" lon="4.60667">
        <ele>630</ele>
        <time>2023-06-04T07:37:39.000Z</time>
      </trkpt>
      <trkpt lat="45.65953" lon="4.60649">
        <ele>629.2</ele>
        <time>2023-06-04T07:37:42.000Z</time>
      </trkpt>
      <trkpt lat="45.6595" lon="4.60642">
        <ele>628.8</ele>
        <time>2023-06-04T07:37:43.000Z</time>
      </trkpt>
      <trkpt lat="45.65947" lon="4.60633">
        <ele>628.4</ele>
        <time>2023-06-04T07:37:44.000Z</time>
      </trkpt>
      <trkpt lat="45.65937" lon="4.60612">
        <ele>628</ele>
        <time>2023-06-04T07:37:47.000Z</time>
      </trkpt>
      <trkpt lat="45.6593" lon="4.60596">
        <ele>627.8</ele>
        <time>2023-06-04T07:37:49.000Z</time>
      </trkpt>
      <trkpt lat="45.65924" lon="4.60581">
        <ele>627.6</ele>
        <time>2023-06-04T07:37:51.000Z</time>
      </trkpt>
      <trkpt lat="45.65909" lon="4.60537">
        <ele>626.4</ele>
        <time>2023-06-04T07:37:57.000Z</time>
      </trkpt>
      <trkpt lat="45.65906" lon="4.60529">
        <ele>626.4</ele>
        <time>2023-06-04T07:37:58.000Z</time>
      </trkpt>
      <trkpt lat="45.65887" lon="4.60477">
        <ele>625.6</ele>
        <time>2023-06-04T07:38:04.000Z</time>
      </trkpt>
      <trkpt lat="45.65884" lon="4.60468">
        <ele>625.6</ele>
        <time>2023-06-04T07:38:05.000Z</time>
      </trkpt>
      <trkpt lat="45.65882" lon="4.6046">
        <ele>625.2</ele>
        <time>2023-06-04T07:38:06.000Z</time>
      </trkpt>
      <trkpt lat="45.65862" lon="4.60403">
        <ele>624.2</ele>
        <time>2023-06-04T07:38:13.000Z</time>
      </trkpt>
      <trkpt lat="45.65856" lon="4.60379">
        <ele>624</ele>
        <time>2023-06-04T07:38:16.000Z</time>
      </trkpt>
      <trkpt lat="45.65856" lon="4.60373">
        <ele>624</ele>
        <time>2023-06-04T07:38:17.000Z</time>
      </trkpt>
      <trkpt lat="45.65854" lon="4.60367">
        <ele>624</ele>
        <time>2023-06-04T07:38:18.000Z</time>
      </trkpt>
      <trkpt lat="45.65853" lon="4.60361">
        <ele>624</ele>
        <time>2023-06-04T07:38:19.000Z</time>
      </trkpt>
      <trkpt lat="45.6585" lon="4.6035">
        <ele>624</ele>
        <time>2023-06-04T07:38:20.000Z</time>
      </trkpt>
      <trkpt lat="45.65847" lon="4.60333">
        <ele>624</ele>
        <time>2023-06-04T07:38:23.000Z</time>
      </trkpt>
      <trkpt lat="45.65845" lon="4.60314">
        <ele>624.4</ele>
        <time>2023-06-04T07:38:26.000Z</time>
      </trkpt>
      <trkpt lat="45.65841" lon="4.60286">
        <ele>624.6</ele>
        <time>2023-06-04T07:38:31.000Z</time>
      </trkpt>
      <trkpt lat="45.65838" lon="4.60268">
        <ele>625.2</ele>
        <time>2023-06-04T07:38:34.000Z</time>
      </trkpt>
      <trkpt lat="45.65837" lon="4.60263">
        <ele>625.4</ele>
        <time>2023-06-04T07:38:35.000Z</time>
      </trkpt>
      <trkpt lat="45.65834" lon="4.60239">
        <ele>626</ele>
        <time>2023-06-04T07:38:40.000Z</time>
      </trkpt>
      <trkpt lat="45.65833" lon="4.60226">
        <ele>626.4</ele>
        <time>2023-06-04T07:38:43.000Z</time>
      </trkpt>
      <trkpt lat="45.6583" lon="4.60203">
        <ele>627</ele>
        <time>2023-06-04T07:38:47.000Z</time>
      </trkpt>
      <trkpt lat="45.65828" lon="4.60186">
        <ele>627.2</ele>
        <time>2023-06-04T07:38:50.000Z</time>
      </trkpt>
      <trkpt lat="45.65823" lon="4.60151">
        <ele>627.4</ele>
        <time>2023-06-04T07:38:58.000Z</time>
      </trkpt>
      <trkpt lat="45.65821" lon="4.60142">
        <ele>627.6</ele>
        <time>2023-06-04T07:39:00.000Z</time>
      </trkpt>
      <trkpt lat="45.65815" lon="4.60124">
        <ele>627.8</ele>
        <time>2023-06-04T07:39:05.000Z</time>
      </trkpt>
      <trkpt lat="45.65805" lon="4.60098">
        <ele>627.8</ele>
        <time>2023-06-04T07:39:10.000Z</time>
      </trkpt>
      <trkpt lat="45.65793" lon="4.60059">
        <ele>627.8</ele>
        <time>2023-06-04T07:39:16.000Z</time>
      </trkpt>
      <trkpt lat="45.65783" lon="4.60027">
        <ele>626.4</ele>
        <time>2023-06-04T07:39:22.000Z</time>
      </trkpt>
      <trkpt lat="45.65776" lon="4.60006">
        <ele>626.2</ele>
        <time>2023-06-04T07:39:28.000Z</time>
      </trkpt>
      <trkpt lat="45.65765" lon="4.59976">
        <ele>626.6</ele>
        <time>2023-06-04T07:39:36.000Z</time>
      </trkpt>
      <trkpt lat="45.65755" lon="4.59948">
        <ele>627.6</ele>
        <time>2023-06-04T07:39:44.000Z</time>
      </trkpt>
      <trkpt lat="45.65755" lon="4.59934">
        <ele>628.2</ele>
        <time>2023-06-04T07:39:49.000Z</time>
      </trkpt>
      <trkpt lat="45.65756" lon="4.59928">
        <ele>628.6</ele>
        <time>2023-06-04T07:39:52.000Z</time>
      </trkpt>
      <trkpt lat="45.65757" lon="4.59924">
        <ele>629.2</ele>
        <time>2023-06-04T07:39:54.000Z</time>
      </trkpt>
      <trkpt lat="45.65758" lon="4.59918">
        <ele>629.6</ele>
        <time>2023-06-04T07:39:57.000Z</time>
      </trkpt>
      <trkpt lat="45.65758" lon="4.59912">
        <ele>630.2</ele>
        <time>2023-06-04T07:40:00.000Z</time>
      </trkpt>
      <trkpt lat="45.65759" lon="4.59908">
        <ele>630.8</ele>
        <time>2023-06-04T07:40:02.000Z</time>
      </trkpt>
      <trkpt lat="45.65758" lon="4.59899">
        <ele>632</ele>
        <time>2023-06-04T07:40:07.000Z</time>
      </trkpt>
      <trkpt lat="45.65757" lon="4.59895">
        <ele>632.4</ele>
        <time>2023-06-04T07:40:09.000Z</time>
      </trkpt>
      <trkpt lat="45.65757" lon="4.59894">
        <ele>632.8</ele>
        <time>2023-06-04T07:40:10.000Z</time>
      </trkpt>
      <trkpt lat="45.65756" lon="4.59891">
        <ele>633</ele>
        <time>2023-06-04T07:40:11.000Z</time>
      </trkpt>
      <trkpt lat="45.65756" lon="4.59889">
        <ele>633.2</ele>
        <time>2023-06-04T07:40:12.000Z</time>
      </trkpt>
      <trkpt lat="45.65755" lon="4.59882">
        <ele>634</ele>
        <time>2023-06-04T07:40:15.000Z</time>
      </trkpt>
      <trkpt lat="45.65755" lon="4.5988">
        <ele>634.2</ele>
        <time>2023-06-04T07:40:16.000Z</time>
      </trkpt>
      <trkpt lat="45.65754" lon="4.59876">
        <ele>634.6</ele>
        <time>2023-06-04T07:40:18.000Z</time>
      </trkpt>
      <trkpt lat="45.65753" lon="4.59873">
        <ele>635</ele>
        <time>2023-06-04T07:40:20.000Z</time>
      </trkpt>
      <trkpt lat="45.65753" lon="4.59871">
        <ele>635</ele>
        <time>2023-06-04T07:40:21.000Z</time>
      </trkpt>
      <trkpt lat="45.65752" lon="4.59865">
        <ele>635.4</ele>
        <time>2023-06-04T07:40:24.000Z</time>
      </trkpt>
      <trkpt lat="45.65751" lon="4.5986">
        <ele>635.6</ele>
        <time>2023-06-04T07:40:26.000Z</time>
      </trkpt>
      <trkpt lat="45.65746" lon="4.59851">
        <ele>636</ele>
        <time>2023-06-04T07:40:30.000Z</time>
      </trkpt>
      <trkpt lat="45.65743" lon="4.5984">
        <ele>636.4</ele>
        <time>2023-06-04T07:40:34.000Z</time>
      </trkpt>
      <trkpt lat="45.65733" lon="4.59814">
        <ele>637</ele>
        <time>2023-06-04T07:40:43.000Z</time>
      </trkpt>
      <trkpt lat="45.65728" lon="4.59791">
        <ele>637.4</ele>
        <time>2023-06-04T07:40:50.000Z</time>
      </trkpt>
      <trkpt lat="45.65727" lon="4.59789">
        <ele>637.4</ele>
        <time>2023-06-04T07:40:51.000Z</time>
      </trkpt>
      <trkpt lat="45.65723" lon="4.59772">
        <ele>638</ele>
        <time>2023-06-04T07:40:58.000Z</time>
      </trkpt>
      <trkpt lat="45.65721" lon="4.59765">
        <ele>638.4</ele>
        <time>2023-06-04T07:41:01.000Z</time>
      </trkpt>
      <trkpt lat="45.6572" lon="4.5976">
        <ele>639.2</ele>
        <time>2023-06-04T07:41:04.000Z</time>
      </trkpt>
      <trkpt lat="45.65719" lon="4.59757">
        <ele>639.6</ele>
        <time>2023-06-04T07:41:06.000Z</time>
      </trkpt>
      <trkpt lat="45.65719" lon="4.59755">
        <ele>639.8</ele>
        <time>2023-06-04T07:41:07.000Z</time>
      </trkpt>
      <trkpt lat="45.65718" lon="4.59748">
        <ele>640.6</ele>
        <time>2023-06-04T07:41:11.000Z</time>
      </trkpt>
      <trkpt lat="45.65717" lon="4.59744">
        <ele>641</ele>
        <time>2023-06-04T07:41:13.000Z</time>
      </trkpt>
      <trkpt lat="45.65716" lon="4.5974">
        <ele>641.6</ele>
        <time>2023-06-04T07:41:15.000Z</time>
      </trkpt>
      <trkpt lat="45.65716" lon="4.59738">
        <ele>641.8</ele>
        <time>2023-06-04T07:41:16.000Z</time>
      </trkpt>
      <trkpt lat="45.65714" lon="4.59727">
        <ele>642.8</ele>
        <time>2023-06-04T07:41:21.000Z</time>
      </trkpt>
      <trkpt lat="45.65714" lon="4.59723">
        <ele>643.2</ele>
        <time>2023-06-04T07:41:23.000Z</time>
      </trkpt>
      <trkpt lat="45.65713" lon="4.59719">
        <ele>643.6</ele>
        <time>2023-06-04T07:41:25.000Z</time>
      </trkpt>
      <trkpt lat="45.65713" lon="4.59716">
        <ele>644</ele>
        <time>2023-06-04T07:41:27.000Z</time>
      </trkpt>
      <trkpt lat="45.65711" lon="4.59704">
        <ele>644.4</ele>
        <time>2023-06-04T07:41:32.000Z</time>
      </trkpt>
      <trkpt lat="45.65709" lon="4.59699">
        <ele>644.8</ele>
        <time>2023-06-04T07:41:34.000Z</time>
      </trkpt>
      <trkpt lat="45.65706" lon="4.5969">
        <ele>645.4</ele>
        <time>2023-06-04T07:41:38.000Z</time>
      </trkpt>
      <trkpt lat="45.65704" lon="4.59683">
        <ele>645.8</ele>
        <time>2023-06-04T07:41:41.000Z</time>
      </trkpt>
      <trkpt lat="45.65703" lon="4.59675">
        <ele>646.6</ele>
        <time>2023-06-04T07:41:45.000Z</time>
      </trkpt>
      <trkpt lat="45.65702" lon="4.59671">
        <ele>646.8</ele>
        <time>2023-06-04T07:41:47.000Z</time>
      </trkpt>
      <trkpt lat="45.65702" lon="4.59668">
        <ele>646.8</ele>
        <time>2023-06-04T07:41:48.000Z</time>
      </trkpt>
      <trkpt lat="45.65701" lon="4.59666">
        <ele>647</ele>
        <time>2023-06-04T07:41:49.000Z</time>
      </trkpt>
      <trkpt lat="45.657" lon="4.59659">
        <ele>647.8</ele>
        <time>2023-06-04T07:41:53.000Z</time>
      </trkpt>
      <trkpt lat="45.657" lon="4.59657">
        <ele>648</ele>
        <time>2023-06-04T07:41:55.000Z</time>
      </trkpt>
      <trkpt lat="45.657" lon="4.59656">
        <ele>648.2</ele>
        <time>2023-06-04T07:41:56.000Z</time>
      </trkpt>
      <trkpt lat="45.657" lon="4.5965">
        <ele>649.6</ele>
        <time>2023-06-04T07:42:00.000Z</time>
      </trkpt>
      <trkpt lat="45.657" lon="4.59647">
        <ele>650.2</ele>
        <time>2023-06-04T07:42:02.000Z</time>
      </trkpt>
      <trkpt lat="45.65701" lon="4.59645">
        <ele>650.6</ele>
        <time>2023-06-04T07:42:03.000Z</time>
      </trkpt>
      <trkpt lat="45.65702" lon="4.5964">
        <ele>651.4</ele>
        <time>2023-06-04T07:42:06.000Z</time>
      </trkpt>
      <trkpt lat="45.65702" lon="4.59636">
        <ele>651.6</ele>
        <time>2023-06-04T07:42:08.000Z</time>
      </trkpt>
      <trkpt lat="45.65701" lon="4.59632">
        <ele>651.6</ele>
        <time>2023-06-04T07:42:10.000Z</time>
      </trkpt>
      <trkpt lat="45.65694" lon="4.59624">
        <ele>652</ele>
        <time>2023-06-04T07:42:15.000Z</time>
      </trkpt>
      <trkpt lat="45.65686" lon="4.59619">
        <ele>652</ele>
        <time>2023-06-04T07:42:21.000Z</time>
      </trkpt>
      <trkpt lat="45.65685" lon="4.59619">
        <ele>652.4</ele>
        <time>2023-06-04T07:42:22.000Z</time>
      </trkpt>
      <trkpt lat="45.65682" lon="4.59618">
        <ele>652.2</ele>
        <time>2023-06-04T07:42:24.000Z</time>
      </trkpt>
      <trkpt lat="45.65678" lon="4.59616">
        <ele>652.6</ele>
        <time>2023-06-04T07:42:27.000Z</time>
      </trkpt>
      <trkpt lat="45.65674" lon="4.59616">
        <ele>653</ele>
        <time>2023-06-04T07:42:30.000Z</time>
      </trkpt>
      <trkpt lat="45.65671" lon="4.59616">
        <ele>653.8</ele>
        <time>2023-06-04T07:42:33.000Z</time>
      </trkpt>
      <trkpt lat="45.65665" lon="4.59619">
        <ele>654.8</ele>
        <time>2023-06-04T07:42:37.000Z</time>
      </trkpt>
      <trkpt lat="45.65661" lon="4.59622">
        <ele>655.2</ele>
        <time>2023-06-04T07:42:40.000Z</time>
      </trkpt>
      <trkpt lat="45.65656" lon="4.59624">
        <ele>655.8</ele>
        <time>2023-06-04T07:42:44.000Z</time>
      </trkpt>
      <trkpt lat="45.65653" lon="4.59625">
        <ele>656.4</ele>
        <time>2023-06-04T07:42:47.000Z</time>
      </trkpt>
      <trkpt lat="45.65649" lon="4.59628">
        <ele>657</ele>
        <time>2023-06-04T07:42:50.000Z</time>
      </trkpt>
      <trkpt lat="45.65646" lon="4.59631">
        <ele>658</ele>
        <time>2023-06-04T07:42:54.000Z</time>
      </trkpt>
      <trkpt lat="45.65645" lon="4.59632">
        <ele>658.2</ele>
        <time>2023-06-04T07:42:55.000Z</time>
      </trkpt>
      <trkpt lat="45.6564" lon="4.59637">
        <ele>659.4</ele>
        <time>2023-06-04T07:43:00.000Z</time>
      </trkpt>
      <trkpt lat="45.65637" lon="4.59639">
        <ele>659.8</ele>
        <time>2023-06-04T07:43:03.000Z</time>
      </trkpt>
      <trkpt lat="45.65631" lon="4.59642">
        <ele>660.4</ele>
        <time>2023-06-04T07:43:07.000Z</time>
      </trkpt>
      <trkpt lat="45.65626" lon="4.59645">
        <ele>661.4</ele>
        <time>2023-06-04T07:43:12.000Z</time>
      </trkpt>
      <trkpt lat="45.65625" lon="4.59645">
        <ele>661.6</ele>
        <time>2023-06-04T07:43:13.000Z</time>
      </trkpt>
      <trkpt lat="45.6562" lon="4.59647">
        <ele>662.8</ele>
        <time>2023-06-04T07:43:18.000Z</time>
      </trkpt>
      <trkpt lat="45.65618" lon="4.59648">
        <ele>663.2</ele>
        <time>2023-06-04T07:43:20.000Z</time>
      </trkpt>
      <trkpt lat="45.65616" lon="4.59647">
        <ele>663.8</ele>
        <time>2023-06-04T07:43:22.000Z</time>
      </trkpt>
      <trkpt lat="45.65614" lon="4.59645">
        <ele>664</ele>
        <time>2023-06-04T07:43:24.000Z</time>
      </trkpt>
      <trkpt lat="45.65611" lon="4.5964">
        <ele>664.6</ele>
        <time>2023-06-04T07:43:27.000Z</time>
      </trkpt>
      <trkpt lat="45.6561" lon="4.59638">
        <ele>665.2</ele>
        <time>2023-06-04T07:43:29.000Z</time>
      </trkpt>
      <trkpt lat="45.6561" lon="4.59636">
        <ele>665.4</ele>
        <time>2023-06-04T07:43:30.000Z</time>
      </trkpt>
      <trkpt lat="45.65607" lon="4.59632">
        <ele>666.4</ele>
        <time>2023-06-04T07:43:34.000Z</time>
      </trkpt>
      <trkpt lat="45.65604" lon="4.59629">
        <ele>667</ele>
        <time>2023-06-04T07:43:37.000Z</time>
      </trkpt>
      <trkpt lat="45.65602" lon="4.59627">
        <ele>667.4</ele>
        <time>2023-06-04T07:43:39.000Z</time>
      </trkpt>
      <trkpt lat="45.65601" lon="4.59626">
        <ele>667.6</ele>
        <time>2023-06-04T07:43:40.000Z</time>
      </trkpt>
      <trkpt lat="45.65599" lon="4.59619">
        <ele>668.6</ele>
        <time>2023-06-04T07:43:44.000Z</time>
      </trkpt>
      <trkpt lat="45.65595" lon="4.59611">
        <ele>669.6</ele>
        <time>2023-06-04T07:43:49.000Z</time>
      </trkpt>
      <trkpt lat="45.65594" lon="4.5961">
        <ele>669.8</ele>
        <time>2023-06-04T07:43:50.000Z</time>
      </trkpt>
      <trkpt lat="45.65593" lon="4.59607">
        <ele>670.2</ele>
        <time>2023-06-04T07:43:52.000Z</time>
      </trkpt>
      <trkpt lat="45.65592" lon="4.59604">
        <ele>670.8</ele>
        <time>2023-06-04T07:43:54.000Z</time>
      </trkpt>
      <trkpt lat="45.65589" lon="4.59601">
        <ele>671</ele>
        <time>2023-06-04T07:43:56.000Z</time>
      </trkpt>
      <trkpt lat="45.65587" lon="4.59598">
        <ele>671.4</ele>
        <time>2023-06-04T07:43:58.000Z</time>
      </trkpt>
      <trkpt lat="45.65586" lon="4.59596">
        <ele>671.8</ele>
        <time>2023-06-04T07:44:01.000Z</time>
      </trkpt>
      <trkpt lat="45.65582" lon="4.59595">
        <ele>672.2</ele>
        <time>2023-06-04T07:44:03.000Z</time>
      </trkpt>
      <trkpt lat="45.6558" lon="4.59594">
        <ele>672.6</ele>
        <time>2023-06-04T07:44:05.000Z</time>
      </trkpt>
      <trkpt lat="45.65577" lon="4.59591">
        <ele>672.8</ele>
        <time>2023-06-04T07:44:08.000Z</time>
      </trkpt>
      <trkpt lat="45.65576" lon="4.5959">
        <ele>673</ele>
        <time>2023-06-04T07:44:09.000Z</time>
      </trkpt>
      <trkpt lat="45.65575" lon="4.5959">
        <ele>673</ele>
        <time>2023-06-04T07:44:10.000Z</time>
      </trkpt>
      <trkpt lat="45.65569" lon="4.59585">
        <ele>674</ele>
        <time>2023-06-04T07:44:16.000Z</time>
      </trkpt>
      <trkpt lat="45.65567" lon="4.59583">
        <ele>674.2</ele>
        <time>2023-06-04T07:44:18.000Z</time>
      </trkpt>
      <trkpt lat="45.65559" lon="4.5958">
        <ele>675.2</ele>
        <time>2023-06-04T07:44:25.000Z</time>
      </trkpt>
      <trkpt lat="45.65555" lon="4.59578">
        <ele>675.8</ele>
        <time>2023-06-04T07:44:28.000Z</time>
      </trkpt>
      <trkpt lat="45.65551" lon="4.59576">
        <ele>676</ele>
        <time>2023-06-04T07:44:31.000Z</time>
      </trkpt>
      <trkpt lat="45.65549" lon="4.59575">
        <ele>676.4</ele>
        <time>2023-06-04T07:44:33.000Z</time>
      </trkpt>
      <trkpt lat="45.65545" lon="4.59573">
        <ele>677</ele>
        <time>2023-06-04T07:44:37.000Z</time>
      </trkpt>
      <trkpt lat="45.65542" lon="4.5957">
        <ele>677.4</ele>
        <time>2023-06-04T07:44:40.000Z</time>
      </trkpt>
      <trkpt lat="45.65535" lon="4.59566">
        <ele>678.2</ele>
        <time>2023-06-04T07:44:45.000Z</time>
      </trkpt>
      <trkpt lat="45.65535" lon="4.59566">
        <ele>678.6</ele>
        <time>2023-06-04T07:44:46.000Z</time>
      </trkpt>
      <trkpt lat="45.65532" lon="4.59563">
        <ele>679.2</ele>
        <time>2023-06-04T07:44:48.000Z</time>
      </trkpt>
      <trkpt lat="45.65531" lon="4.59562">
        <ele>679.6</ele>
        <time>2023-06-04T07:44:50.000Z</time>
      </trkpt>
      <trkpt lat="45.6553" lon="4.59561">
        <ele>679.6</ele>
        <time>2023-06-04T07:44:51.000Z</time>
      </trkpt>
      <trkpt lat="45.65529" lon="4.59559">
        <ele>679.8</ele>
        <time>2023-06-04T07:44:52.000Z</time>
      </trkpt>
      <trkpt lat="45.65526" lon="4.59554">
        <ele>680.4</ele>
        <time>2023-06-04T07:44:55.000Z</time>
      </trkpt>
      <trkpt lat="45.65525" lon="4.59553">
        <ele>680.8</ele>
        <time>2023-06-04T07:44:56.000Z</time>
      </trkpt>
      <trkpt lat="45.65521" lon="4.59551">
        <ele>681.4</ele>
        <time>2023-06-04T07:44:59.000Z</time>
      </trkpt>
      <trkpt lat="45.65517" lon="4.59548">
        <ele>682</ele>
        <time>2023-06-04T07:45:03.000Z</time>
      </trkpt>
      <trkpt lat="45.65516" lon="4.59543">
        <ele>682.8</ele>
        <time>2023-06-04T07:45:06.000Z</time>
      </trkpt>
      <trkpt lat="45.65515" lon="4.59541">
        <ele>683</ele>
        <time>2023-06-04T07:45:08.000Z</time>
      </trkpt>
      <trkpt lat="45.65514" lon="4.5954">
        <ele>683.2</ele>
        <time>2023-06-04T07:45:09.000Z</time>
      </trkpt>
      <trkpt lat="45.65511" lon="4.59537">
        <ele>683.6</ele>
        <time>2023-06-04T07:45:12.000Z</time>
      </trkpt>
      <trkpt lat="45.65507" lon="4.59532">
        <ele>684.4</ele>
        <time>2023-06-04T07:45:17.000Z</time>
      </trkpt>
      <trkpt lat="45.65504" lon="4.59528">
        <ele>684.8</ele>
        <time>2023-06-04T07:45:20.000Z</time>
      </trkpt>
      <trkpt lat="45.65502" lon="4.59525">
        <ele>685.4</ele>
        <time>2023-06-04T07:45:23.000Z</time>
      </trkpt>
      <trkpt lat="45.65498" lon="4.5952">
        <ele>686.2</ele>
        <time>2023-06-04T07:45:26.000Z</time>
      </trkpt>
      <trkpt lat="45.65494" lon="4.59517">
        <ele>686.6</ele>
        <time>2023-06-04T07:45:29.000Z</time>
      </trkpt>
      <trkpt lat="45.65491" lon="4.59512">
        <ele>687.4</ele>
        <time>2023-06-04T07:45:35.000Z</time>
      </trkpt>
      <trkpt lat="45.65488" lon="4.59508">
        <ele>687.8</ele>
        <time>2023-06-04T07:45:37.000Z</time>
      </trkpt>
      <trkpt lat="45.65484" lon="4.59501">
        <ele>688.2</ele>
        <time>2023-06-04T07:45:41.000Z</time>
      </trkpt>
      <trkpt lat="45.65484" lon="4.59499">
        <ele>688.4</ele>
        <time>2023-06-04T07:45:42.000Z</time>
      </trkpt>
      <trkpt lat="45.65484" lon="4.59495">
        <ele>688.8</ele>
        <time>2023-06-04T07:45:45.000Z</time>
      </trkpt>
      <trkpt lat="45.65482" lon="4.59485">
        <ele>689.6</ele>
        <time>2023-06-04T07:45:50.000Z</time>
      </trkpt>
      <trkpt lat="45.6548" lon="4.59482">
        <ele>689.8</ele>
        <time>2023-06-04T07:45:52.000Z</time>
      </trkpt>
      <trkpt lat="45.65478" lon="4.59472">
        <ele>690.6</ele>
        <time>2023-06-04T07:45:57.000Z</time>
      </trkpt>
      <trkpt lat="45.65476" lon="4.5947">
        <ele>690.8</ele>
        <time>2023-06-04T07:45:58.000Z</time>
      </trkpt>
      <trkpt lat="45.65472" lon="4.59464">
        <ele>691</ele>
        <time>2023-06-04T07:46:01.000Z</time>
      </trkpt>
      <trkpt lat="45.65471" lon="4.59462">
        <ele>691.2</ele>
        <time>2023-06-04T07:46:03.000Z</time>
      </trkpt>
      <trkpt lat="45.65471" lon="4.59461">
        <ele>691.4</ele>
        <time>2023-06-04T07:46:05.000Z</time>
      </trkpt>
      <trkpt lat="45.6547" lon="4.5946">
        <ele>691.4</ele>
        <time>2023-06-04T07:46:06.000Z</time>
      </trkpt>
      <trkpt lat="45.65468" lon="4.59457">
        <ele>691.8</ele>
        <time>2023-06-04T07:46:09.000Z</time>
      </trkpt>
      <trkpt lat="45.65468" lon="4.59456">
        <ele>691.8</ele>
        <time>2023-06-04T07:46:10.000Z</time>
      </trkpt>
      <trkpt lat="45.65466" lon="4.59453">
        <ele>692</ele>
        <time>2023-06-04T07:46:12.000Z</time>
      </trkpt>
      <trkpt lat="45.65466" lon="4.59452">
        <ele>692.2</ele>
        <time>2023-06-04T07:46:13.000Z</time>
      </trkpt>
      <trkpt lat="45.65463" lon="4.59446">
        <ele>692.6</ele>
        <time>2023-06-04T07:46:17.000Z</time>
      </trkpt>
      <trkpt lat="45.65462" lon="4.59444">
        <ele>692.8</ele>
        <time>2023-06-04T07:46:18.000Z</time>
      </trkpt>
      <trkpt lat="45.65461" lon="4.59443">
        <ele>692.8</ele>
        <time>2023-06-04T07:46:19.000Z</time>
      </trkpt>
      <trkpt lat="45.65461" lon="4.59441">
        <ele>693</ele>
        <time>2023-06-04T07:46:20.000Z</time>
      </trkpt>
      <trkpt lat="45.6546" lon="4.5944">
        <ele>693</ele>
        <time>2023-06-04T07:46:21.000Z</time>
      </trkpt>
      <trkpt lat="45.65458" lon="4.59436">
        <ele>693.2</ele>
        <time>2023-06-04T07:46:23.000Z</time>
      </trkpt>
      <trkpt lat="45.65456" lon="4.59431">
        <ele>693.6</ele>
        <time>2023-06-04T07:46:26.000Z</time>
      </trkpt>
      <trkpt lat="45.65453" lon="4.59426">
        <ele>694</ele>
        <time>2023-06-04T07:46:29.000Z</time>
      </trkpt>
      <trkpt lat="45.65449" lon="4.59418">
        <ele>694.6</ele>
        <time>2023-06-04T07:46:34.000Z</time>
      </trkpt>
      <trkpt lat="45.65445" lon="4.59412">
        <ele>695</ele>
        <time>2023-06-04T07:46:37.000Z</time>
      </trkpt>
      <trkpt lat="45.65443" lon="4.59409">
        <ele>695.2</ele>
        <time>2023-06-04T07:46:38.000Z</time>
      </trkpt>
      <trkpt lat="45.65442" lon="4.59403">
        <ele>695.6</ele>
        <time>2023-06-04T07:46:41.000Z</time>
      </trkpt>
      <trkpt lat="45.65441" lon="4.59401">
        <ele>695.8</ele>
        <time>2023-06-04T07:46:42.000Z</time>
      </trkpt>
      <trkpt lat="45.65439" lon="4.59396">
        <ele>696.2</ele>
        <time>2023-06-04T07:46:44.000Z</time>
      </trkpt>
      <trkpt lat="45.65437" lon="4.59393">
        <ele>696.2</ele>
        <time>2023-06-04T07:46:46.000Z</time>
      </trkpt>
      <trkpt lat="45.65431" lon="4.59384">
        <ele>697</ele>
        <time>2023-06-04T07:46:50.000Z</time>
      </trkpt>
      <trkpt lat="45.6543" lon="4.59382">
        <ele>697</ele>
        <time>2023-06-04T07:46:51.000Z</time>
      </trkpt>
      <trkpt lat="45.6543" lon="4.59379">
        <ele>697.2</ele>
        <time>2023-06-04T07:46:52.000Z</time>
      </trkpt>
      <trkpt lat="45.65427" lon="4.59376">
        <ele>697.6</ele>
        <time>2023-06-04T07:46:54.000Z</time>
      </trkpt>
      <trkpt lat="45.65425" lon="4.59372">
        <ele>697.8</ele>
        <time>2023-06-04T07:46:56.000Z</time>
      </trkpt>
      <trkpt lat="45.65423" lon="4.5937">
        <ele>698.2</ele>
        <time>2023-06-04T07:46:57.000Z</time>
      </trkpt>
      <trkpt lat="45.6542" lon="4.59366">
        <ele>698.6</ele>
        <time>2023-06-04T07:47:00.000Z</time>
      </trkpt>
      <trkpt lat="45.65418" lon="4.59363">
        <ele>698.8</ele>
        <time>2023-06-04T07:47:02.000Z</time>
      </trkpt>
      <trkpt lat="45.65416" lon="4.59362">
        <ele>699</ele>
        <time>2023-06-04T07:47:03.000Z</time>
      </trkpt>
      <trkpt lat="45.65412" lon="4.59356">
        <ele>699.2</ele>
        <time>2023-06-04T07:47:07.000Z</time>
      </trkpt>
      <trkpt lat="45.65404" lon="4.59345">
        <ele>699.8</ele>
        <time>2023-06-04T07:47:14.000Z</time>
      </trkpt>
      <trkpt lat="45.65397" lon="4.5934">
        <ele>700.4</ele>
        <time>2023-06-04T07:47:18.000Z</time>
      </trkpt>
      <trkpt lat="45.65393" lon="4.59334">
        <ele>700.8</ele>
        <time>2023-06-04T07:47:22.000Z</time>
      </trkpt>
      <trkpt lat="45.65389" lon="4.59329">
        <ele>701.4</ele>
        <time>2023-06-04T07:47:25.000Z</time>
      </trkpt>
      <trkpt lat="45.65381" lon="4.59318">
        <ele>702</ele>
        <time>2023-06-04T07:47:32.000Z</time>
      </trkpt>
      <trkpt lat="45.65378" lon="4.59315">
        <ele>702.6</ele>
        <time>2023-06-04T07:47:34.000Z</time>
      </trkpt>
      <trkpt lat="45.65377" lon="4.59313">
        <ele>702.8</ele>
        <time>2023-06-04T07:47:35.000Z</time>
      </trkpt>
      <trkpt lat="45.65373" lon="4.5931">
        <ele>703.2</ele>
        <time>2023-06-04T07:47:38.000Z</time>
      </trkpt>
      <trkpt lat="45.6537" lon="4.59307">
        <ele>703.6</ele>
        <time>2023-06-04T07:47:40.000Z</time>
      </trkpt>
      <trkpt lat="45.65359" lon="4.59296">
        <ele>704.6</ele>
        <time>2023-06-04T07:47:47.000Z</time>
      </trkpt>
      <trkpt lat="45.65355" lon="4.59293">
        <ele>704.6</ele>
        <time>2023-06-04T07:47:49.000Z</time>
      </trkpt>
      <trkpt lat="45.65353" lon="4.59291">
        <ele>704.6</ele>
        <time>2023-06-04T07:47:51.000Z</time>
      </trkpt>
      <trkpt lat="45.65346" lon="4.59286">
        <ele>705</ele>
        <time>2023-06-04T07:47:55.000Z</time>
      </trkpt>
      <trkpt lat="45.65339" lon="4.59281">
        <ele>705.6</ele>
        <time>2023-06-04T07:47:59.000Z</time>
      </trkpt>
      <trkpt lat="45.65337" lon="4.5928">
        <ele>705.8</ele>
        <time>2023-06-04T07:48:00.000Z</time>
      </trkpt>
      <trkpt lat="45.65333" lon="4.59276">
        <ele>705.8</ele>
        <time>2023-06-04T07:48:02.000Z</time>
      </trkpt>
      <trkpt lat="45.65332" lon="4.59275">
        <ele>706</ele>
        <time>2023-06-04T07:48:03.000Z</time>
      </trkpt>
      <trkpt lat="45.6533" lon="4.59275">
        <ele>706</ele>
        <time>2023-06-04T07:48:04.000Z</time>
      </trkpt>
      <trkpt lat="45.65327" lon="4.59272">
        <ele>706.2</ele>
        <time>2023-06-04T07:48:06.000Z</time>
      </trkpt>
      <trkpt lat="45.6532" lon="4.59269">
        <ele>706.8</ele>
        <time>2023-06-04T07:48:11.000Z</time>
      </trkpt>
      <trkpt lat="45.65318" lon="4.59268">
        <ele>707</ele>
        <time>2023-06-04T07:48:13.000Z</time>
      </trkpt>
      <trkpt lat="45.6531" lon="4.59267">
        <ele>707.8</ele>
        <time>2023-06-04T07:48:18.000Z</time>
      </trkpt>
      <trkpt lat="45.65308" lon="4.59267">
        <ele>707.8</ele>
        <time>2023-06-04T07:48:19.000Z</time>
      </trkpt>
      <trkpt lat="45.65303" lon="4.59266">
        <ele>708.6</ele>
        <time>2023-06-04T07:48:22.000Z</time>
      </trkpt>
      <trkpt lat="45.653" lon="4.59265">
        <ele>709</ele>
        <time>2023-06-04T07:48:24.000Z</time>
      </trkpt>
      <trkpt lat="45.65298" lon="4.59264">
        <ele>709.2</ele>
        <time>2023-06-04T07:48:25.000Z</time>
      </trkpt>
      <trkpt lat="45.65294" lon="4.59263">
        <ele>709.8</ele>
        <time>2023-06-04T07:48:28.000Z</time>
      </trkpt>
      <trkpt lat="45.65292" lon="4.59262">
        <ele>710</ele>
        <time>2023-06-04T07:48:29.000Z</time>
      </trkpt>
      <trkpt lat="45.65281" lon="4.5926">
        <ele>711</ele>
        <time>2023-06-04T07:48:35.000Z</time>
      </trkpt>
      <trkpt lat="45.65279" lon="4.59259">
        <ele>711.2</ele>
        <time>2023-06-04T07:48:36.000Z</time>
      </trkpt>
      <trkpt lat="45.65267" lon="4.59257">
        <ele>712</ele>
        <time>2023-06-04T07:48:42.000Z</time>
      </trkpt>
      <trkpt lat="45.65264" lon="4.59258">
        <ele>712.2</ele>
        <time>2023-06-04T07:48:44.000Z</time>
      </trkpt>
      <trkpt lat="45.65261" lon="4.59258">
        <ele>712.4</ele>
        <time>2023-06-04T07:48:46.000Z</time>
      </trkpt>
      <trkpt lat="45.6526" lon="4.59258">
        <ele>712.6</ele>
        <time>2023-06-04T07:48:47.000Z</time>
      </trkpt>
      <trkpt lat="45.65254" lon="4.59259">
        <ele>713</ele>
        <time>2023-06-04T07:48:51.000Z</time>
      </trkpt>
      <trkpt lat="45.65251" lon="4.5926">
        <ele>713.4</ele>
        <time>2023-06-04T07:48:53.000Z</time>
      </trkpt>
      <trkpt lat="45.65236" lon="4.59259">
        <ele>714</ele>
        <time>2023-06-04T07:49:00.000Z</time>
      </trkpt>
      <trkpt lat="45.6523" lon="4.59259">
        <ele>714.2</ele>
        <time>2023-06-04T07:49:03.000Z</time>
      </trkpt>
      <trkpt lat="45.65216" lon="4.59258">
        <ele>715</ele>
        <time>2023-06-04T07:49:10.000Z</time>
      </trkpt>
      <trkpt lat="45.65213" lon="4.59258">
        <ele>715.4</ele>
        <time>2023-06-04T07:49:12.000Z</time>
      </trkpt>
      <trkpt lat="45.65207" lon="4.59252">
        <ele>716.2</ele>
        <time>2023-06-04T07:49:17.000Z</time>
      </trkpt>
      <trkpt lat="45.65206" lon="4.59251">
        <ele>716.4</ele>
        <time>2023-06-04T07:49:19.000Z</time>
      </trkpt>
      <trkpt lat="45.65205" lon="4.59251">
        <ele>716.8</ele>
        <time>2023-06-04T07:49:27.000Z</time>
      </trkpt>
      <trkpt lat="45.65205" lon="4.59251">
        <ele>716.8</ele>
        <time>2023-06-04T07:49:31.000Z</time>
      </trkpt>
      <trkpt lat="45.65205" lon="4.59251">
        <ele>716.8</ele>
        <time>2023-06-04T07:49:34.000Z</time>
      </trkpt>
      <trkpt lat="45.65205" lon="4.59251">
        <ele>716.8</ele>
        <time>2023-06-04T07:49:36.000Z</time>
      </trkpt>
      <trkpt lat="45.65205" lon="4.59251">
        <ele>716.8</ele>
        <time>2023-06-04T07:49:50.000Z</time>
      </trkpt>
      <trkpt lat="45.65205" lon="4.59251">
        <ele>716.8</ele>
        <time>2023-06-04T07:50:05.000Z</time>
      </trkpt>
      <trkpt lat="45.65205" lon="4.59251">
        <ele>716.8</ele>
        <time>2023-06-04T07:50:07.000Z</time>
      </trkpt>
      <trkpt lat="45.65205" lon="4.59251">
        <ele>716.8</ele>
        <time>2023-06-04T07:50:22.000Z</time>
      </trkpt>
      <trkpt lat="45.65205" lon="4.59251">
        <ele>716.8</ele>
        <time>2023-06-04T07:50:28.000Z</time>
      </trkpt>
      <trkpt lat="45.65205" lon="4.59251">
        <ele>716.8</ele>
        <time>2023-06-04T07:50:29.000Z</time>
      </trkpt>
      <trkpt lat="45.65205" lon="4.59251">
        <ele>716.8</ele>
        <time>2023-06-04T07:50:34.000Z</time>
      </trkpt>
      <trkpt lat="45.65205" lon="4.59251">
        <ele>716.8</ele>
        <time>2023-06-04T07:50:40.000Z</time>
      </trkpt>
      <trkpt lat="45.65205" lon="4.59251">
        <ele>716.6</ele>
        <time>2023-06-04T07:51:09.000Z</time>
      </trkpt>
      <trkpt lat="45.65205" lon="4.59251">
        <ele>716.6</ele>
        <time>2023-06-04T07:51:21.000Z</time>
      </trkpt>
      <trkpt lat="45.65205" lon="4.59251">
        <ele>716.6</ele>
        <time>2023-06-04T07:51:28.000Z</time>
      </trkpt>
      <trkpt lat="45.65205" lon="4.59251">
        <ele>716.6</ele>
        <time>2023-06-04T07:51:31.000Z</time>
      </trkpt>
      <trkpt lat="45.65205" lon="4.59251">
        <ele>716.6</ele>
        <time>2023-06-04T07:51:41.000Z</time>
      </trkpt>
      <trkpt lat="45.65205" lon="4.59251">
        <ele>716.6</ele>
        <time>2023-06-04T07:51:47.000Z</time>
      </trkpt>
      <trkpt lat="45.65205" lon="4.59251">
        <ele>716.8</ele>
        <time>2023-06-04T07:52:03.000Z</time>
      </trkpt>
      <trkpt lat="45.65205" lon="4.59251">
        <ele>716.8</ele>
        <time>2023-06-04T07:52:05.000Z</time>
      </trkpt>
      <trkpt lat="45.65205" lon="4.59251">
        <ele>716.8</ele>
        <time>2023-06-04T07:52:26.000Z</time>
      </trkpt>
      <trkpt lat="45.65205" lon="4.59251">
        <ele>716.8</ele>
        <time>2023-06-04T07:52:29.000Z</time>
      </trkpt>
      <trkpt lat="45.65205" lon="4.59251">
        <ele>716.8</ele>
        <time>2023-06-04T07:52:32.000Z</time>
      </trkpt>
      <trkpt lat="45.65205" lon="4.59251">
        <ele>716.8</ele>
        <time>2023-06-04T07:52:38.000Z</time>
      </trkpt>
      <trkpt lat="45.65205" lon="4.59251">
        <ele>717</ele>
        <time>2023-06-04T07:52:41.000Z</time>
      </trkpt>
      <trkpt lat="45.65205" lon="4.59251">
        <ele>717.2</ele>
        <time>2023-06-04T07:52:54.000Z</time>
      </trkpt>
      <trkpt lat="45.65205" lon="4.59251">
        <ele>717.4</ele>
        <time>2023-06-04T07:53:01.000Z</time>
      </trkpt>
      <trkpt lat="45.65204" lon="4.59247">
        <ele>717.4</ele>
        <time>2023-06-04T07:53:05.000Z</time>
      </trkpt>
      <trkpt lat="45.65202" lon="4.59242">
        <ele>717.4</ele>
        <time>2023-06-04T07:53:07.000Z</time>
      </trkpt>
      <trkpt lat="45.65199" lon="4.59233">
        <ele>717.6</ele>
        <time>2023-06-04T07:53:11.000Z</time>
      </trkpt>
      <trkpt lat="45.65197" lon="4.59228">
        <ele>717.6</ele>
        <time>2023-06-04T07:53:13.000Z</time>
      </trkpt>
      <trkpt lat="45.65196" lon="4.59227">
        <ele>717.6</ele>
        <time>2023-06-04T07:53:14.000Z</time>
      </trkpt>
      <trkpt lat="45.65195" lon="4.59226">
        <ele>717.8</ele>
        <time>2023-06-04T07:53:15.000Z</time>
      </trkpt>
      <trkpt lat="45.65185" lon="4.59224">
        <ele>718.2</ele>
        <time>2023-06-04T07:53:20.000Z</time>
      </trkpt>
      <trkpt lat="45.65177" lon="4.59225">
        <ele>718.4</ele>
        <time>2023-06-04T07:53:24.000Z</time>
      </trkpt>
      <trkpt lat="45.65169" lon="4.59225">
        <ele>718.6</ele>
        <time>2023-06-04T07:53:28.000Z</time>
      </trkpt>
      <trkpt lat="45.65153" lon="4.59225">
        <ele>719</ele>
        <time>2023-06-04T07:53:35.000Z</time>
      </trkpt>
      <trkpt lat="45.6515" lon="4.59226">
        <ele>719.2</ele>
        <time>2023-06-04T07:53:36.000Z</time>
      </trkpt>
      <trkpt lat="45.65139" lon="4.59224">
        <ele>719.2</ele>
        <time>2023-06-04T07:53:40.000Z</time>
      </trkpt>
      <trkpt lat="45.65116" lon="4.59225">
        <ele>719.2</ele>
        <time>2023-06-04T07:53:46.000Z</time>
      </trkpt>
      <trkpt lat="45.651" lon="4.5923">
        <ele>718.8</ele>
        <time>2023-06-04T07:53:52.000Z</time>
      </trkpt>
      <trkpt lat="45.65093" lon="4.59232">
        <ele>718.8</ele>
        <time>2023-06-04T07:53:55.000Z</time>
      </trkpt>
      <trkpt lat="45.65086" lon="4.59239">
        <ele>718.8</ele>
        <time>2023-06-04T07:53:58.000Z</time>
      </trkpt>
      <trkpt lat="45.65076" lon="4.59248">
        <ele>718.8</ele>
        <time>2023-06-04T07:54:04.000Z</time>
      </trkpt>
      <trkpt lat="45.65076" lon="4.59248">
        <ele>719</ele>
        <time>2023-06-04T07:54:05.000Z</time>
      </trkpt>
      <trkpt lat="45.65074" lon="4.59249">
        <ele>719.4</ele>
        <time>2023-06-04T07:54:06.000Z</time>
      </trkpt>
      <trkpt lat="45.65071" lon="4.59251">
        <ele>720</ele>
        <time>2023-06-04T07:54:08.000Z</time>
      </trkpt>
      <trkpt lat="45.65068" lon="4.59253">
        <ele>720.6</ele>
        <time>2023-06-04T07:54:10.000Z</time>
      </trkpt>
      <trkpt lat="45.65063" lon="4.59255">
        <ele>721.2</ele>
        <time>2023-06-04T07:54:13.000Z</time>
      </trkpt>
      <trkpt lat="45.65059" lon="4.59256">
        <ele>722.2</ele>
        <time>2023-06-04T07:54:17.000Z</time>
      </trkpt>
      <trkpt lat="45.65053" lon="4.59255">
        <ele>723.2</ele>
        <time>2023-06-04T07:54:23.000Z</time>
      </trkpt>
      <trkpt lat="45.65051" lon="4.59256">
        <ele>723.4</ele>
        <time>2023-06-04T07:54:24.000Z</time>
      </trkpt>
      <trkpt lat="45.65048" lon="4.59255">
        <ele>723.8</ele>
        <time>2023-06-04T07:54:26.000Z</time>
      </trkpt>
      <trkpt lat="45.65043" lon="4.59253">
        <ele>724.4</ele>
        <time>2023-06-04T07:54:30.000Z</time>
      </trkpt>
      <trkpt lat="45.6504" lon="4.59251">
        <ele>724.8</ele>
        <time>2023-06-04T07:54:32.000Z</time>
      </trkpt>
      <trkpt lat="45.65037" lon="4.59249">
        <ele>725.2</ele>
        <time>2023-06-04T07:54:35.000Z</time>
      </trkpt>
      <trkpt lat="45.65036" lon="4.59249">
        <ele>725.2</ele>
        <time>2023-06-04T07:54:36.000Z</time>
      </trkpt>
      <trkpt lat="45.65035" lon="4.59248">
        <ele>725.4</ele>
        <time>2023-06-04T07:54:37.000Z</time>
      </trkpt>
      <trkpt lat="45.6503" lon="4.59245">
        <ele>725.4</ele>
        <time>2023-06-04T07:54:41.000Z</time>
      </trkpt>
      <trkpt lat="45.65019" lon="4.59239">
        <ele>725.4</ele>
        <time>2023-06-04T07:54:46.000Z</time>
      </trkpt>
      <trkpt lat="45.6501" lon="4.5923">
        <ele>725.4</ele>
        <time>2023-06-04T07:54:49.000Z</time>
      </trkpt>
      <trkpt lat="45.65003" lon="4.59222">
        <ele>725.2</ele>
        <time>2023-06-04T07:54:51.000Z</time>
      </trkpt>
      <trkpt lat="45.64995" lon="4.59213">
        <ele>724.8</ele>
        <time>2023-06-04T07:54:53.000Z</time>
      </trkpt>
      <trkpt lat="45.64981" lon="4.59195">
        <ele>723.4</ele>
        <time>2023-06-04T07:54:57.000Z</time>
      </trkpt>
      <trkpt lat="45.64969" lon="4.59175">
        <ele>722.2</ele>
        <time>2023-06-04T07:55:01.000Z</time>
      </trkpt>
      <trkpt lat="45.64963" lon="4.59165">
        <ele>721.8</ele>
        <time>2023-06-04T07:55:03.000Z</time>
      </trkpt>
      <trkpt lat="45.64949" lon="4.59141">
        <ele>721.2</ele>
        <time>2023-06-04T07:55:08.000Z</time>
      </trkpt>
      <trkpt lat="45.64941" lon="4.59127">
        <ele>720.8</ele>
        <time>2023-06-04T07:55:11.000Z</time>
      </trkpt>
      <trkpt lat="45.64934" lon="4.59119">
        <ele>720.6</ele>
        <time>2023-06-04T07:55:13.000Z</time>
      </trkpt>
      <trkpt lat="45.64925" lon="4.59114">
        <ele>720.2</ele>
        <time>2023-06-04T07:55:15.000Z</time>
      </trkpt>
      <trkpt lat="45.64921" lon="4.59114">
        <ele>720</ele>
        <time>2023-06-04T07:55:16.000Z</time>
      </trkpt>
      <trkpt lat="45.64918" lon="4.59115">
        <ele>720</ele>
        <time>2023-06-04T07:55:17.000Z</time>
      </trkpt>
      <trkpt lat="45.64903" lon="4.59124">
        <ele>719.2</ele>
        <time>2023-06-04T07:55:22.000Z</time>
      </trkpt>
      <trkpt lat="45.64896" lon="4.5913">
        <ele>719</ele>
        <time>2023-06-04T07:55:24.000Z</time>
      </trkpt>
      <trkpt lat="45.64881" lon="4.5914">
        <ele>719</ele>
        <time>2023-06-04T07:55:29.000Z</time>
      </trkpt>
      <trkpt lat="45.6487" lon="4.59145">
        <ele>719</ele>
        <time>2023-06-04T07:55:33.000Z</time>
      </trkpt>
      <trkpt lat="45.64866" lon="4.59146">
        <ele>719</ele>
        <time>2023-06-04T07:55:35.000Z</time>
      </trkpt>
      <trkpt lat="45.64851" lon="4.5915">
        <ele>720.2</ele>
        <time>2023-06-04T07:55:42.000Z</time>
      </trkpt>
      <trkpt lat="45.64848" lon="4.59151">
        <ele>720.4</ele>
        <time>2023-06-04T07:55:43.000Z</time>
      </trkpt>
      <trkpt lat="45.64839" lon="4.59154">
        <ele>721</ele>
        <time>2023-06-04T07:55:47.000Z</time>
      </trkpt>
      <trkpt lat="45.64834" lon="4.59156">
        <ele>721.2</ele>
        <time>2023-06-04T07:55:50.000Z</time>
      </trkpt>
      <trkpt lat="45.64828" lon="4.59157">
        <ele>722.2</ele>
        <time>2023-06-04T07:55:54.000Z</time>
      </trkpt>
      <trkpt lat="45.64825" lon="4.59157">
        <ele>722.6</ele>
        <time>2023-06-04T07:55:56.000Z</time>
      </trkpt>
      <trkpt lat="45.64821" lon="4.59159">
        <ele>723.2</ele>
        <time>2023-06-04T07:55:59.000Z</time>
      </trkpt>
      <trkpt lat="45.64816" lon="4.59162">
        <ele>724</ele>
        <time>2023-06-04T07:56:03.000Z</time>
      </trkpt>
      <trkpt lat="45.64814" lon="4.59163">
        <ele>724.2</ele>
        <time>2023-06-04T07:56:04.000Z</time>
      </trkpt>
      <trkpt lat="45.64813" lon="4.59164">
        <ele>724.2</ele>
        <time>2023-06-04T07:56:05.000Z</time>
      </trkpt>
      <trkpt lat="45.64809" lon="4.59168">
        <ele>724.8</ele>
        <time>2023-06-04T07:56:08.000Z</time>
      </trkpt>
      <trkpt lat="45.64806" lon="4.59172">
        <ele>725.2</ele>
        <time>2023-06-04T07:56:11.000Z</time>
      </trkpt>
      <trkpt lat="45.64805" lon="4.59173">
        <ele>725.4</ele>
        <time>2023-06-04T07:56:12.000Z</time>
      </trkpt>
      <trkpt lat="45.64803" lon="4.59175">
        <ele>725.6</ele>
        <time>2023-06-04T07:56:14.000Z</time>
      </trkpt>
      <trkpt lat="45.648" lon="4.59178">
        <ele>726</ele>
        <time>2023-06-04T07:56:16.000Z</time>
      </trkpt>
      <trkpt lat="45.64799" lon="4.59182">
        <ele>726.4</ele>
        <time>2023-06-04T07:56:18.000Z</time>
      </trkpt>
      <trkpt lat="45.64796" lon="4.5919">
        <ele>727</ele>
        <time>2023-06-04T07:56:22.000Z</time>
      </trkpt>
      <trkpt lat="45.64795" lon="4.59194">
        <ele>727.6</ele>
        <time>2023-06-04T07:56:24.000Z</time>
      </trkpt>
      <trkpt lat="45.64793" lon="4.59201">
        <ele>728.2</ele>
        <time>2023-06-04T07:56:28.000Z</time>
      </trkpt>
      <trkpt lat="45.64792" lon="4.59202">
        <ele>728.4</ele>
        <time>2023-06-04T07:56:29.000Z</time>
      </trkpt>
      <trkpt lat="45.64789" lon="4.59212">
        <ele>729.4</ele>
        <time>2023-06-04T07:56:35.000Z</time>
      </trkpt>
      <trkpt lat="45.64789" lon="4.59214">
        <ele>729.6</ele>
        <time>2023-06-04T07:56:36.000Z</time>
      </trkpt>
      <trkpt lat="45.64788" lon="4.59216">
        <ele>730</ele>
        <time>2023-06-04T07:56:38.000Z</time>
      </trkpt>
      <trkpt lat="45.64787" lon="4.5922">
        <ele>730.8</ele>
        <time>2023-06-04T07:56:41.000Z</time>
      </trkpt>
      <trkpt lat="45.64784" lon="4.59227">
        <ele>731.6</ele>
        <time>2023-06-04T07:56:46.000Z</time>
      </trkpt>
      <trkpt lat="45.64783" lon="4.59228">
        <ele>731.8</ele>
        <time>2023-06-04T07:56:47.000Z</time>
      </trkpt>
      <trkpt lat="45.6478" lon="4.59235">
        <ele>733</ele>
        <time>2023-06-04T07:56:52.000Z</time>
      </trkpt>
      <trkpt lat="45.6478" lon="4.59238">
        <ele>733.2</ele>
        <time>2023-06-04T07:56:54.000Z</time>
      </trkpt>
      <trkpt lat="45.64779" lon="4.59241">
        <ele>733.6</ele>
        <time>2023-06-04T07:56:56.000Z</time>
      </trkpt>
      <trkpt lat="45.64778" lon="4.59244">
        <ele>734</ele>
        <time>2023-06-04T07:56:57.000Z</time>
      </trkpt>
      <trkpt lat="45.64777" lon="4.59248">
        <ele>734.2</ele>
        <time>2023-06-04T07:56:59.000Z</time>
      </trkpt>
      <trkpt lat="45.64776" lon="4.59249">
        <ele>734.4</ele>
        <time>2023-06-04T07:57:00.000Z</time>
      </trkpt>
      <trkpt lat="45.64774" lon="4.59252">
        <ele>735</ele>
        <time>2023-06-04T07:57:03.000Z</time>
      </trkpt>
      <trkpt lat="45.64774" lon="4.59253">
        <ele>735.2</ele>
        <time>2023-06-04T07:57:04.000Z</time>
      </trkpt>
      <trkpt lat="45.6477" lon="4.59256">
        <ele>735.4</ele>
        <time>2023-06-04T07:57:06.000Z</time>
      </trkpt>
      <trkpt lat="45.64769" lon="4.59258">
        <ele>735.8</ele>
        <time>2023-06-04T07:57:08.000Z</time>
      </trkpt>
      <trkpt lat="45.64767" lon="4.59259">
        <ele>736.2</ele>
        <time>2023-06-04T07:57:10.000Z</time>
      </trkpt>
      <trkpt lat="45.64764" lon="4.59261">
        <ele>736.4</ele>
        <time>2023-06-04T07:57:12.000Z</time>
      </trkpt>
      <trkpt lat="45.64762" lon="4.59262">
        <ele>736.8</ele>
        <time>2023-06-04T07:57:14.000Z</time>
      </trkpt>
      <trkpt lat="45.6476" lon="4.59263">
        <ele>737.2</ele>
        <time>2023-06-04T07:57:16.000Z</time>
      </trkpt>
      <trkpt lat="45.64757" lon="4.59263">
        <ele>737.8</ele>
        <time>2023-06-04T07:57:19.000Z</time>
      </trkpt>
      <trkpt lat="45.64755" lon="4.59263">
        <ele>738.4</ele>
        <time>2023-06-04T07:57:21.000Z</time>
      </trkpt>
      <trkpt lat="45.6475" lon="4.59261">
        <ele>739</ele>
        <time>2023-06-04T07:57:26.000Z</time>
      </trkpt>
      <trkpt lat="45.64748" lon="4.59259">
        <ele>739.4</ele>
        <time>2023-06-04T07:57:28.000Z</time>
      </trkpt>
      <trkpt lat="45.64745" lon="4.59256">
        <ele>739.8</ele>
        <time>2023-06-04T07:57:31.000Z</time>
      </trkpt>
      <trkpt lat="45.64742" lon="4.59253">
        <ele>740.2</ele>
        <time>2023-06-04T07:57:34.000Z</time>
      </trkpt>
      <trkpt lat="45.64741" lon="4.59251">
        <ele>740.4</ele>
        <time>2023-06-04T07:57:36.000Z</time>
      </trkpt>
      <trkpt lat="45.64734" lon="4.59244">
        <ele>741.4</ele>
        <time>2023-06-04T07:57:43.000Z</time>
      </trkpt>
      <trkpt lat="45.64733" lon="4.59244">
        <ele>741.6</ele>
        <time>2023-06-04T07:57:44.000Z</time>
      </trkpt>
      <trkpt lat="45.64732" lon="4.59242">
        <ele>741.8</ele>
        <time>2023-06-04T07:57:45.000Z</time>
      </trkpt>
      <trkpt lat="45.64727" lon="4.59239">
        <ele>742.4</ele>
        <time>2023-06-04T07:57:50.000Z</time>
      </trkpt>
      <trkpt lat="45.64725" lon="4.59237">
        <ele>742.6</ele>
        <time>2023-06-04T07:57:52.000Z</time>
      </trkpt>
      <trkpt lat="45.64724" lon="4.59235">
        <ele>743.2</ele>
        <time>2023-06-04T07:57:54.000Z</time>
      </trkpt>
      <trkpt lat="45.64721" lon="4.59232">
        <ele>743.6</ele>
        <time>2023-06-04T07:57:57.000Z</time>
      </trkpt>
      <trkpt lat="45.64718" lon="4.5923">
        <ele>744.2</ele>
        <time>2023-06-04T07:58:00.000Z</time>
      </trkpt>
      <trkpt lat="45.64715" lon="4.59227">
        <ele>744.8</ele>
        <time>2023-06-04T07:58:03.000Z</time>
      </trkpt>
      <trkpt lat="45.64713" lon="4.59225">
        <ele>745.2</ele>
        <time>2023-06-04T07:58:05.000Z</time>
      </trkpt>
      <trkpt lat="45.64708" lon="4.59221">
        <ele>746</ele>
        <time>2023-06-04T07:58:10.000Z</time>
      </trkpt>
      <trkpt lat="45.64707" lon="4.59219">
        <ele>746.4</ele>
        <time>2023-06-04T07:58:12.000Z</time>
      </trkpt>
      <trkpt lat="45.64706" lon="4.59218">
        <ele>746.6</ele>
        <time>2023-06-04T07:58:13.000Z</time>
      </trkpt>
      <trkpt lat="45.64703" lon="4.59216">
        <ele>747</ele>
        <time>2023-06-04T07:58:16.000Z</time>
      </trkpt>
      <trkpt lat="45.64702" lon="4.59215">
        <ele>747</ele>
        <time>2023-06-04T07:58:17.000Z</time>
      </trkpt>
      <trkpt lat="45.64698" lon="4.5921">
        <ele>747.8</ele>
        <time>2023-06-04T07:58:21.000Z</time>
      </trkpt>
      <trkpt lat="45.64697" lon="4.59208">
        <ele>748.2</ele>
        <time>2023-06-04T07:58:23.000Z</time>
      </trkpt>
      <trkpt lat="45.6469" lon="4.59199">
        <ele>749.2</ele>
        <time>2023-06-04T07:58:30.000Z</time>
      </trkpt>
      <trkpt lat="45.64689" lon="4.59198">
        <ele>749.6</ele>
        <time>2023-06-04T07:58:31.000Z</time>
      </trkpt>
      <trkpt lat="45.64685" lon="4.5919">
        <ele>750.2</ele>
        <time>2023-06-04T07:58:37.000Z</time>
      </trkpt>
      <trkpt lat="45.64683" lon="4.59185">
        <ele>750.6</ele>
        <time>2023-06-04T07:58:40.000Z</time>
      </trkpt>
      <trkpt lat="45.6468" lon="4.59178">
        <ele>751.4</ele>
        <time>2023-06-04T07:58:46.000Z</time>
      </trkpt>
      <trkpt lat="45.64679" lon="4.59176">
        <ele>751.6</ele>
        <time>2023-06-04T07:58:48.000Z</time>
      </trkpt>
      <trkpt lat="45.64675" lon="4.5917">
        <ele>752.6</ele>
        <time>2023-06-04T07:58:53.000Z</time>
      </trkpt>
      <trkpt lat="45.64674" lon="4.59168">
        <ele>752.8</ele>
        <time>2023-06-04T07:58:55.000Z</time>
      </trkpt>
      <trkpt lat="45.64672" lon="4.59166">
        <ele>753</ele>
        <time>2023-06-04T07:58:57.000Z</time>
      </trkpt>
      <trkpt lat="45.64669" lon="4.59163">
        <ele>753.8</ele>
        <time>2023-06-04T07:59:00.000Z</time>
      </trkpt>
      <trkpt lat="45.64664" lon="4.59159">
        <ele>754.4</ele>
        <time>2023-06-04T07:59:04.000Z</time>
      </trkpt>
      <trkpt lat="45.64663" lon="4.59158">
        <ele>754.8</ele>
        <time>2023-06-04T07:59:05.000Z</time>
      </trkpt>
      <trkpt lat="45.64659" lon="4.59153">
        <ele>755.8</ele>
        <time>2023-06-04T07:59:10.000Z</time>
      </trkpt>
      <trkpt lat="45.64658" lon="4.5915">
        <ele>756.4</ele>
        <time>2023-06-04T07:59:13.000Z</time>
      </trkpt>
      <trkpt lat="45.64658" lon="4.59147">
        <ele>756.8</ele>
        <time>2023-06-04T07:59:15.000Z</time>
      </trkpt>
      <trkpt lat="45.64657" lon="4.59144">
        <ele>757.2</ele>
        <time>2023-06-04T07:59:18.000Z</time>
      </trkpt>
      <trkpt lat="45.64655" lon="4.59143">
        <ele>757.4</ele>
        <time>2023-06-04T07:59:20.000Z</time>
      </trkpt>
      <trkpt lat="45.64654" lon="4.59143">
        <ele>757.8</ele>
        <time>2023-06-04T07:59:21.000Z</time>
      </trkpt>
      <trkpt lat="45.6465" lon="4.59145">
        <ele>758.6</ele>
        <time>2023-06-04T07:59:24.000Z</time>
      </trkpt>
      <trkpt lat="45.64649" lon="4.59146">
        <ele>758.8</ele>
        <time>2023-06-04T07:59:25.000Z</time>
      </trkpt>
      <trkpt lat="45.64647" lon="4.59148">
        <ele>759.2</ele>
        <time>2023-06-04T07:59:26.000Z</time>
      </trkpt>
      <trkpt lat="45.64646" lon="4.59151">
        <ele>759.6</ele>
        <time>2023-06-04T07:59:28.000Z</time>
      </trkpt>
      <trkpt lat="45.64644" lon="4.59155">
        <ele>760</ele>
        <time>2023-06-04T07:59:30.000Z</time>
      </trkpt>
      <trkpt lat="45.64637" lon="4.59168">
        <ele>760.6</ele>
        <time>2023-06-04T07:59:37.000Z</time>
      </trkpt>
      <trkpt lat="45.64634" lon="4.59177">
        <ele>761</ele>
        <time>2023-06-04T07:59:41.000Z</time>
      </trkpt>
      <trkpt lat="45.64631" lon="4.59192">
        <ele>761.4</ele>
        <time>2023-06-04T07:59:46.000Z</time>
      </trkpt>
      <trkpt lat="45.64631" lon="4.59204">
        <ele>761.6</ele>
        <time>2023-06-04T07:59:50.000Z</time>
      </trkpt>
      <trkpt lat="45.6463" lon="4.59225">
        <ele>762</ele>
        <time>2023-06-04T07:59:57.000Z</time>
      </trkpt>
      <trkpt lat="45.6463" lon="4.59227">
        <ele>762</ele>
        <time>2023-06-04T07:59:58.000Z</time>
      </trkpt>
      <trkpt lat="45.64629" lon="4.59255">
        <ele>763</ele>
        <time>2023-06-04T08:00:08.000Z</time>
      </trkpt>
      <trkpt lat="45.64628" lon="4.59263">
        <ele>763.4</ele>
        <time>2023-06-04T08:00:11.000Z</time>
      </trkpt>
      <trkpt lat="45.64626" lon="4.59274">
        <ele>764</ele>
        <time>2023-06-04T08:00:15.000Z</time>
      </trkpt>
      <trkpt lat="45.64626" lon="4.59277">
        <ele>764.2</ele>
        <time>2023-06-04T08:00:16.000Z</time>
      </trkpt>
      <trkpt lat="45.64624" lon="4.59285">
        <ele>764.8</ele>
        <time>2023-06-04T08:00:19.000Z</time>
      </trkpt>
      <trkpt lat="45.64621" lon="4.59295">
        <ele>765.2</ele>
        <time>2023-06-04T08:00:23.000Z</time>
      </trkpt>
      <trkpt lat="45.64617" lon="4.59307">
        <ele>766.2</ele>
        <time>2023-06-04T08:00:28.000Z</time>
      </trkpt>
      <trkpt lat="45.64616" lon="4.59311">
        <ele>766.4</ele>
        <time>2023-06-04T08:00:30.000Z</time>
      </trkpt>
      <trkpt lat="45.64611" lon="4.59322">
        <ele>767.6</ele>
        <time>2023-06-04T08:00:36.000Z</time>
      </trkpt>
      <trkpt lat="45.6461" lon="4.59324">
        <ele>767.6</ele>
        <time>2023-06-04T08:00:37.000Z</time>
      </trkpt>
      <trkpt lat="45.64609" lon="4.59327">
        <ele>768</ele>
        <time>2023-06-04T08:00:39.000Z</time>
      </trkpt>
      <trkpt lat="45.64606" lon="4.59332">
        <ele>768.6</ele>
        <time>2023-06-04T08:00:42.000Z</time>
      </trkpt>
      <trkpt lat="45.64603" lon="4.59337">
        <ele>769</ele>
        <time>2023-06-04T08:00:45.000Z</time>
      </trkpt>
      <trkpt lat="45.646" lon="4.59341">
        <ele>769.6</ele>
        <time>2023-06-04T08:00:48.000Z</time>
      </trkpt>
      <trkpt lat="45.64595" lon="4.59345">
        <ele>770.2</ele>
        <time>2023-06-04T08:00:52.000Z</time>
      </trkpt>
      <trkpt lat="45.64592" lon="4.59347">
        <ele>770.8</ele>
        <time>2023-06-04T08:00:54.000Z</time>
      </trkpt>
      <trkpt lat="45.64583" lon="4.59353">
        <ele>771.8</ele>
        <time>2023-06-04T08:01:00.000Z</time>
      </trkpt>
      <trkpt lat="45.64578" lon="4.59356">
        <ele>772.4</ele>
        <time>2023-06-04T08:01:04.000Z</time>
      </trkpt>
      <trkpt lat="45.64575" lon="4.59357">
        <ele>772.8</ele>
        <time>2023-06-04T08:01:06.000Z</time>
      </trkpt>
      <trkpt lat="45.64574" lon="4.59358">
        <ele>773</ele>
        <time>2023-06-04T08:01:07.000Z</time>
      </trkpt>
      <trkpt lat="45.64568" lon="4.59363">
        <ele>773.6</ele>
        <time>2023-06-04T08:01:12.000Z</time>
      </trkpt>
      <trkpt lat="45.64566" lon="4.59364">
        <ele>774</ele>
        <time>2023-06-04T08:01:14.000Z</time>
      </trkpt>
      <trkpt lat="45.64563" lon="4.59366">
        <ele>774.2</ele>
        <time>2023-06-04T08:01:16.000Z</time>
      </trkpt>
      <trkpt lat="45.64557" lon="4.59368">
        <ele>775</ele>
        <time>2023-06-04T08:01:21.000Z</time>
      </trkpt>
      <trkpt lat="45.64556" lon="4.59369">
        <ele>775.2</ele>
        <time>2023-06-04T08:01:22.000Z</time>
      </trkpt>
      <trkpt lat="45.64551" lon="4.59371">
        <ele>776.2</ele>
        <time>2023-06-04T08:01:27.000Z</time>
      </trkpt>
      <trkpt lat="45.64547" lon="4.59372">
        <ele>776.8</ele>
        <time>2023-06-04T08:01:30.000Z</time>
      </trkpt>
      <trkpt lat="45.64545" lon="4.59372">
        <ele>777.2</ele>
        <time>2023-06-04T08:01:32.000Z</time>
      </trkpt>
      <trkpt lat="45.64541" lon="4.59373">
        <ele>777.8</ele>
        <time>2023-06-04T08:01:35.000Z</time>
      </trkpt>
      <trkpt lat="45.64538" lon="4.59372">
        <ele>778.4</ele>
        <time>2023-06-04T08:01:38.000Z</time>
      </trkpt>
      <trkpt lat="45.64534" lon="4.59371">
        <ele>779.2</ele>
        <time>2023-06-04T08:01:42.000Z</time>
      </trkpt>
      <trkpt lat="45.64532" lon="4.5937">
        <ele>779.6</ele>
        <time>2023-06-04T08:01:44.000Z</time>
      </trkpt>
      <trkpt lat="45.64529" lon="4.59368">
        <ele>780</ele>
        <time>2023-06-04T08:01:46.000Z</time>
      </trkpt>
      <trkpt lat="45.64526" lon="4.59367">
        <ele>780.4</ele>
        <time>2023-06-04T08:01:49.000Z</time>
      </trkpt>
      <trkpt lat="45.64525" lon="4.59367">
        <ele>780.8</ele>
        <time>2023-06-04T08:01:50.000Z</time>
      </trkpt>
      <trkpt lat="45.64517" lon="4.5937">
        <ele>782</ele>
        <time>2023-06-04T08:01:56.000Z</time>
      </trkpt>
      <trkpt lat="45.64513" lon="4.5937">
        <ele>782.4</ele>
        <time>2023-06-04T08:01:59.000Z</time>
      </trkpt>
      <trkpt lat="45.64512" lon="4.5937">
        <ele>782.6</ele>
        <time>2023-06-04T08:02:00.000Z</time>
      </trkpt>
      <trkpt lat="45.64507" lon="4.59373">
        <ele>783</ele>
        <time>2023-06-04T08:02:04.000Z</time>
      </trkpt>
      <trkpt lat="45.64502" lon="4.59379">
        <ele>783.6</ele>
        <time>2023-06-04T08:02:09.000Z</time>
      </trkpt>
      <trkpt lat="45.64495" lon="4.59384">
        <ele>784</ele>
        <time>2023-06-04T08:02:16.000Z</time>
      </trkpt>
      <trkpt lat="45.64492" lon="4.59386">
        <ele>784</ele>
        <time>2023-06-04T08:02:18.000Z</time>
      </trkpt>
      <trkpt lat="45.64478" lon="4.59399">
        <ele>785</ele>
        <time>2023-06-04T08:02:29.000Z</time>
      </trkpt>
      <trkpt lat="45.6447" lon="4.59413">
        <ele>785.8</ele>
        <time>2023-06-04T08:02:38.000Z</time>
      </trkpt>
      <trkpt lat="45.64467" lon="4.59416">
        <ele>786</ele>
        <time>2023-06-04T08:02:40.000Z</time>
      </trkpt>
      <trkpt lat="45.64459" lon="4.59424">
        <ele>786.6</ele>
        <time>2023-06-04T08:02:46.000Z</time>
      </trkpt>
      <trkpt lat="45.64456" lon="4.59427">
        <ele>787</ele>
        <time>2023-06-04T08:02:49.000Z</time>
      </trkpt>
      <trkpt lat="45.6445" lon="4.59434">
        <ele>787.8</ele>
        <time>2023-06-04T08:02:55.000Z</time>
      </trkpt>
      <trkpt lat="45.64449" lon="4.59436">
        <ele>788.2</ele>
        <time>2023-06-04T08:02:57.000Z</time>
      </trkpt>
      <trkpt lat="45.64444" lon="4.59442">
        <ele>789.2</ele>
        <time>2023-06-04T08:03:02.000Z</time>
      </trkpt>
      <trkpt lat="45.64441" lon="4.59448">
        <ele>790.2</ele>
        <time>2023-06-04T08:03:07.000Z</time>
      </trkpt>
      <trkpt lat="45.64438" lon="4.5945">
        <ele>791</ele>
        <time>2023-06-04T08:03:10.000Z</time>
      </trkpt>
      <trkpt lat="45.64437" lon="4.59452">
        <ele>791.4</ele>
        <time>2023-06-04T08:03:12.000Z</time>
      </trkpt>
      <trkpt lat="45.64436" lon="4.59453">
        <ele>791.6</ele>
        <time>2023-06-04T08:03:13.000Z</time>
      </trkpt>
      <trkpt lat="45.64434" lon="4.59455">
        <ele>792</ele>
        <time>2023-06-04T08:03:16.000Z</time>
      </trkpt>
      <trkpt lat="45.64432" lon="4.59458">
        <ele>792.6</ele>
        <time>2023-06-04T08:03:18.000Z</time>
      </trkpt>
      <trkpt lat="45.64428" lon="4.59462">
        <ele>793.6</ele>
        <time>2023-06-04T08:03:22.000Z</time>
      </trkpt>
      <trkpt lat="45.64427" lon="4.59463">
        <ele>793.8</ele>
        <time>2023-06-04T08:03:23.000Z</time>
      </trkpt>
      <trkpt lat="45.64423" lon="4.59466">
        <ele>794.8</ele>
        <time>2023-06-04T08:03:27.000Z</time>
      </trkpt>
      <trkpt lat="45.64419" lon="4.59468">
        <ele>795.4</ele>
        <time>2023-06-04T08:03:30.000Z</time>
      </trkpt>
      <trkpt lat="45.64418" lon="4.5947">
        <ele>795.8</ele>
        <time>2023-06-04T08:03:32.000Z</time>
      </trkpt>
      <trkpt lat="45.64417" lon="4.59471">
        <ele>796</ele>
        <time>2023-06-04T08:03:33.000Z</time>
      </trkpt>
      <trkpt lat="45.64417" lon="4.59473">
        <ele>796.4</ele>
        <time>2023-06-04T08:03:35.000Z</time>
      </trkpt>
      <trkpt lat="45.64415" lon="4.59478">
        <ele>797</ele>
        <time>2023-06-04T08:03:38.000Z</time>
      </trkpt>
      <trkpt lat="45.64413" lon="4.59485">
        <ele>797.8</ele>
        <time>2023-06-04T08:03:42.000Z</time>
      </trkpt>
      <trkpt lat="45.64411" lon="4.5949">
        <ele>798.2</ele>
        <time>2023-06-04T08:03:45.000Z</time>
      </trkpt>
      <trkpt lat="45.64408" lon="4.59498">
        <ele>798.8</ele>
        <time>2023-06-04T08:03:49.000Z</time>
      </trkpt>
      <trkpt lat="45.64407" lon="4.59499">
        <ele>799.2</ele>
        <time>2023-06-04T08:03:51.000Z</time>
      </trkpt>
      <trkpt lat="45.64407" lon="4.595">
        <ele>799.4</ele>
        <time>2023-06-04T08:03:52.000Z</time>
      </trkpt>
      <trkpt lat="45.64404" lon="4.59504">
        <ele>799.8</ele>
        <time>2023-06-04T08:03:55.000Z</time>
      </trkpt>
      <trkpt lat="45.644" lon="4.59509">
        <ele>800.4</ele>
        <time>2023-06-04T08:03:59.000Z</time>
      </trkpt>
      <trkpt lat="45.64397" lon="4.59517">
        <ele>801.2</ele>
        <time>2023-06-04T08:04:05.000Z</time>
      </trkpt>
      <trkpt lat="45.64396" lon="4.59518">
        <ele>801.4</ele>
        <time>2023-06-04T08:04:06.000Z</time>
      </trkpt>
      <trkpt lat="45.64396" lon="4.59522">
        <ele>801.8</ele>
        <time>2023-06-04T08:04:08.000Z</time>
      </trkpt>
      <trkpt lat="45.64395" lon="4.59524">
        <ele>802.6</ele>
        <time>2023-06-04T08:04:11.000Z</time>
      </trkpt>
      <trkpt lat="45.64395" lon="4.59525">
        <ele>802.8</ele>
        <time>2023-06-04T08:04:12.000Z</time>
      </trkpt>
      <trkpt lat="45.64394" lon="4.59529">
        <ele>803.6</ele>
        <time>2023-06-04T08:04:16.000Z</time>
      </trkpt>
      <trkpt lat="45.64393" lon="4.59531">
        <ele>804</ele>
        <time>2023-06-04T08:04:18.000Z</time>
      </trkpt>
      <trkpt lat="45.64388" lon="4.59537">
        <ele>804.6</ele>
        <time>2023-06-04T08:04:22.000Z</time>
      </trkpt>
      <trkpt lat="45.64386" lon="4.59542">
        <ele>805</ele>
        <time>2023-06-04T08:04:24.000Z</time>
      </trkpt>
      <trkpt lat="45.64383" lon="4.59551">
        <ele>805.6</ele>
        <time>2023-06-04T08:04:29.000Z</time>
      </trkpt>
      <trkpt lat="45.6438" lon="4.59558">
        <ele>806.4</ele>
        <time>2023-06-04T08:04:33.000Z</time>
      </trkpt>
      <trkpt lat="45.64377" lon="4.59563">
        <ele>806.8</ele>
        <time>2023-06-04T08:04:35.000Z</time>
      </trkpt>
      <trkpt lat="45.64377" lon="4.59572">
        <ele>807.4</ele>
        <time>2023-06-04T08:04:41.000Z</time>
      </trkpt>
      <trkpt lat="45.64377" lon="4.59575">
        <ele>807.6</ele>
        <time>2023-06-04T08:04:43.000Z</time>
      </trkpt>
      <trkpt lat="45.64375" lon="4.59578">
        <ele>808</ele>
        <time>2023-06-04T08:04:46.000Z</time>
      </trkpt>
      <trkpt lat="45.64374" lon="4.59581">
        <ele>808.4</ele>
        <time>2023-06-04T08:04:48.000Z</time>
      </trkpt>
      <trkpt lat="45.64374" lon="4.59583">
        <ele>808.6</ele>
        <time>2023-06-04T08:04:49.000Z</time>
      </trkpt>
      <trkpt lat="45.64372" lon="4.59591">
        <ele>809.8</ele>
        <time>2023-06-04T08:04:56.000Z</time>
      </trkpt>
      <trkpt lat="45.64372" lon="4.59592">
        <ele>810</ele>
        <time>2023-06-04T08:04:57.000Z</time>
      </trkpt>
      <trkpt lat="45.64371" lon="4.596">
        <ele>810.8</ele>
        <time>2023-06-04T08:05:03.000Z</time>
      </trkpt>
      <trkpt lat="45.64371" lon="4.59601">
        <ele>811</ele>
        <time>2023-06-04T08:05:04.000Z</time>
      </trkpt>
      <trkpt lat="45.64369" lon="4.59604">
        <ele>811.4</ele>
        <time>2023-06-04T08:05:06.000Z</time>
      </trkpt>
      <trkpt lat="45.64368" lon="4.59608">
        <ele>811.8</ele>
        <time>2023-06-04T08:05:09.000Z</time>
      </trkpt>
      <trkpt lat="45.64368" lon="4.59609">
        <ele>812</ele>
        <time>2023-06-04T08:05:10.000Z</time>
      </trkpt>
      <trkpt lat="45.64366" lon="4.59616">
        <ele>812.2</ele>
        <time>2023-06-04T08:05:13.000Z</time>
      </trkpt>
      <trkpt lat="45.64364" lon="4.5962">
        <ele>812.6</ele>
        <time>2023-06-04T08:05:15.000Z</time>
      </trkpt>
      <trkpt lat="45.6436" lon="4.59628">
        <ele>813</ele>
        <time>2023-06-04T08:05:20.000Z</time>
      </trkpt>
      <trkpt lat="45.6436" lon="4.59628">
        <ele>813.2</ele>
        <time>2023-06-04T08:05:21.000Z</time>
      </trkpt>
      <trkpt lat="45.64358" lon="4.59643">
        <ele>814</ele>
        <time>2023-06-04T08:05:27.000Z</time>
      </trkpt>
      <trkpt lat="45.64357" lon="4.59648">
        <ele>814.4</ele>
        <time>2023-06-04T08:05:29.000Z</time>
      </trkpt>
      <trkpt lat="45.64357" lon="4.5965">
        <ele>814.6</ele>
        <time>2023-06-04T08:05:30.000Z</time>
      </trkpt>
      <trkpt lat="45.64356" lon="4.59655">
        <ele>815</ele>
        <time>2023-06-04T08:05:32.000Z</time>
      </trkpt>
      <trkpt lat="45.64356" lon="4.59659">
        <ele>815.4</ele>
        <time>2023-06-04T08:05:34.000Z</time>
      </trkpt>
      <trkpt lat="45.64355" lon="4.59665">
        <ele>816.2</ele>
        <time>2023-06-04T08:05:38.000Z</time>
      </trkpt>
      <trkpt lat="45.64353" lon="4.59671">
        <ele>816.4</ele>
        <time>2023-06-04T08:05:41.000Z</time>
      </trkpt>
      <trkpt lat="45.6435" lon="4.59678">
        <ele>816.6</ele>
        <time>2023-06-04T08:05:45.000Z</time>
      </trkpt>
      <trkpt lat="45.64348" lon="4.5968">
        <ele>817</ele>
        <time>2023-06-04T08:05:47.000Z</time>
      </trkpt>
      <trkpt lat="45.64346" lon="4.59681">
        <ele>817</ele>
        <time>2023-06-04T08:05:49.000Z</time>
      </trkpt>
      <trkpt lat="45.64345" lon="4.59683">
        <ele>817.4</ele>
        <time>2023-06-04T08:05:51.000Z</time>
      </trkpt>
      <trkpt lat="45.64341" lon="4.59685">
        <ele>818</ele>
        <time>2023-06-04T08:05:54.000Z</time>
      </trkpt>
      <trkpt lat="45.64336" lon="4.59688">
        <ele>818.4</ele>
        <time>2023-06-04T08:05:59.000Z</time>
      </trkpt>
      <trkpt lat="45.64334" lon="4.5969">
        <ele>818.6</ele>
        <time>2023-06-04T08:06:01.000Z</time>
      </trkpt>
      <trkpt lat="45.64331" lon="4.59691">
        <ele>818.8</ele>
        <time>2023-06-04T08:06:03.000Z</time>
      </trkpt>
      <trkpt lat="45.64329" lon="4.59691">
        <ele>819</ele>
        <time>2023-06-04T08:06:05.000Z</time>
      </trkpt>
      <trkpt lat="45.64323" lon="4.59693">
        <ele>819.4</ele>
        <time>2023-06-04T08:06:09.000Z</time>
      </trkpt>
      <trkpt lat="45.64316" lon="4.59696">
        <ele>820.2</ele>
        <time>2023-06-04T08:06:14.000Z</time>
      </trkpt>
      <trkpt lat="45.64313" lon="4.59698">
        <ele>820.6</ele>
        <time>2023-06-04T08:06:16.000Z</time>
      </trkpt>
      <trkpt lat="45.64312" lon="4.59699">
        <ele>820.8</ele>
        <time>2023-06-04T08:06:17.000Z</time>
      </trkpt>
      <trkpt lat="45.64307" lon="4.59704">
        <ele>821.2</ele>
        <time>2023-06-04T08:06:21.000Z</time>
      </trkpt>
      <trkpt lat="45.64306" lon="4.59705">
        <ele>821.4</ele>
        <time>2023-06-04T08:06:22.000Z</time>
      </trkpt>
      <trkpt lat="45.64294" lon="4.59715">
        <ele>822.4</ele>
        <time>2023-06-04T08:06:29.000Z</time>
      </trkpt>
      <trkpt lat="45.64293" lon="4.59716">
        <ele>822.4</ele>
        <time>2023-06-04T08:06:30.000Z</time>
      </trkpt>
      <trkpt lat="45.64289" lon="4.5972">
        <ele>822.8</ele>
        <time>2023-06-04T08:06:33.000Z</time>
      </trkpt>
      <trkpt lat="45.64283" lon="4.59725">
        <ele>823.4</ele>
        <time>2023-06-04T08:06:36.000Z</time>
      </trkpt>
      <trkpt lat="45.64281" lon="4.59726">
        <ele>823.4</ele>
        <time>2023-06-04T08:06:37.000Z</time>
      </trkpt>
      <trkpt lat="45.64276" lon="4.59728">
        <ele>823.6</ele>
        <time>2023-06-04T08:06:39.000Z</time>
      </trkpt>
      <trkpt lat="45.64273" lon="4.59729">
        <ele>823.6</ele>
        <time>2023-06-04T08:06:40.000Z</time>
      </trkpt>
      <trkpt lat="45.64264" lon="4.59729">
        <ele>823.6</ele>
        <time>2023-06-04T08:06:42.000Z</time>
      </trkpt>
      <trkpt lat="45.64254" lon="4.59728">
        <ele>823.6</ele>
        <time>2023-06-04T08:06:44.000Z</time>
      </trkpt>
      <trkpt lat="45.64243" lon="4.59727">
        <ele>823.6</ele>
        <time>2023-06-04T08:06:46.000Z</time>
      </trkpt>
      <trkpt lat="45.64225" lon="4.59723">
        <ele>821.8</ele>
        <time>2023-06-04T08:06:50.000Z</time>
      </trkpt>
      <trkpt lat="45.64221" lon="4.59722">
        <ele>821.4</ele>
        <time>2023-06-04T08:06:52.000Z</time>
      </trkpt>
      <trkpt lat="45.64219" lon="4.59722">
        <ele>821</ele>
        <time>2023-06-04T08:06:53.000Z</time>
      </trkpt>
      <trkpt lat="45.64216" lon="4.59721">
        <ele>820.6</ele>
        <time>2023-06-04T08:06:55.000Z</time>
      </trkpt>
      <trkpt lat="45.64204" lon="4.59726">
        <ele>820.4</ele>
        <time>2023-06-04T08:06:59.000Z</time>
      </trkpt>
      <trkpt lat="45.64181" lon="4.59735">
        <ele>820.2</ele>
        <time>2023-06-04T08:07:04.000Z</time>
      </trkpt>
      <trkpt lat="45.64174" lon="4.59737">
        <ele>820.2</ele>
        <time>2023-06-04T08:07:05.000Z</time>
      </trkpt>
      <trkpt lat="45.64158" lon="4.59737">
        <ele>819</ele>
        <time>2023-06-04T08:07:08.000Z</time>
      </trkpt>
      <trkpt lat="45.64153" lon="4.59738">
        <ele>818.6</ele>
        <time>2023-06-04T08:07:09.000Z</time>
      </trkpt>
      <trkpt lat="45.64151" lon="4.59739">
        <ele>818</ele>
        <time>2023-06-04T08:07:10.000Z</time>
      </trkpt>
      <trkpt lat="45.64147" lon="4.59737">
        <ele>817.4</ele>
        <time>2023-06-04T08:07:12.000Z</time>
      </trkpt>
      <trkpt lat="45.64139" lon="4.59734">
        <ele>817.4</ele>
        <time>2023-06-04T08:07:15.000Z</time>
      </trkpt>
      <trkpt lat="45.64134" lon="4.59733">
        <ele>817.4</ele>
        <time>2023-06-04T08:07:18.000Z</time>
      </trkpt>
      <trkpt lat="45.64129" lon="4.59732">
        <ele>817.4</ele>
        <time>2023-06-04T08:07:20.000Z</time>
      </trkpt>
      <trkpt lat="45.64126" lon="4.59731">
        <ele>817.6</ele>
        <time>2023-06-04T08:07:22.000Z</time>
      </trkpt>
      <trkpt lat="45.64121" lon="4.59733">
        <ele>818.2</ele>
        <time>2023-06-04T08:07:25.000Z</time>
      </trkpt>
      <trkpt lat="45.64119" lon="4.59732">
        <ele>818.8</ele>
        <time>2023-06-04T08:07:27.000Z</time>
      </trkpt>
      <trkpt lat="45.64111" lon="4.5973">
        <ele>819.8</ele>
        <time>2023-06-04T08:07:32.000Z</time>
      </trkpt>
      <trkpt lat="45.64107" lon="4.5973">
        <ele>820.2</ele>
        <time>2023-06-04T08:07:34.000Z</time>
      </trkpt>
      <trkpt lat="45.64102" lon="4.5973">
        <ele>820.8</ele>
        <time>2023-06-04T08:07:37.000Z</time>
      </trkpt>
      <trkpt lat="45.64098" lon="4.5973">
        <ele>821</ele>
        <time>2023-06-04T08:07:39.000Z</time>
      </trkpt>
      <trkpt lat="45.64097" lon="4.59729">
        <ele>821.4</ele>
        <time>2023-06-04T08:07:40.000Z</time>
      </trkpt>
      <trkpt lat="45.64091" lon="4.59729">
        <ele>822</ele>
        <time>2023-06-04T08:07:43.000Z</time>
      </trkpt>
      <trkpt lat="45.64085" lon="4.59728">
        <ele>822.6</ele>
        <time>2023-06-04T08:07:45.000Z</time>
      </trkpt>
      <trkpt lat="45.64081" lon="4.59727">
        <ele>823.2</ele>
        <time>2023-06-04T08:07:48.000Z</time>
      </trkpt>
      <trkpt lat="45.64074" lon="4.59731">
        <ele>824</ele>
        <time>2023-06-04T08:07:53.000Z</time>
      </trkpt>
      <trkpt lat="45.64073" lon="4.59731">
        <ele>824.2</ele>
        <time>2023-06-04T08:07:54.000Z</time>
      </trkpt>
      <trkpt lat="45.64072" lon="4.5973">
        <ele>824.4</ele>
        <time>2023-06-04T08:07:55.000Z</time>
      </trkpt>
      <trkpt lat="45.64068" lon="4.59727">
        <ele>824.8</ele>
        <time>2023-06-04T08:07:58.000Z</time>
      </trkpt>
      <trkpt lat="45.64066" lon="4.59728">
        <ele>825</ele>
        <time>2023-06-04T08:08:00.000Z</time>
      </trkpt>
      <trkpt lat="45.64062" lon="4.59729">
        <ele>825.6</ele>
        <time>2023-06-04T08:08:05.000Z</time>
      </trkpt>
      <trkpt lat="45.64061" lon="4.59729">
        <ele>825.8</ele>
        <time>2023-06-04T08:08:06.000Z</time>
      </trkpt>
      <trkpt lat="45.64059" lon="4.5973">
        <ele>826</ele>
        <time>2023-06-04T08:08:07.000Z</time>
      </trkpt>
      <trkpt lat="45.64058" lon="4.5973">
        <ele>826.2</ele>
        <time>2023-06-04T08:08:08.000Z</time>
      </trkpt>
      <trkpt lat="45.6405" lon="4.59731">
        <ele>826.8</ele>
        <time>2023-06-04T08:08:14.000Z</time>
      </trkpt>
      <trkpt lat="45.64043" lon="4.59733">
        <ele>827</ele>
        <time>2023-06-04T08:08:18.000Z</time>
      </trkpt>
      <trkpt lat="45.64035" lon="4.59732">
        <ele>827.4</ele>
        <time>2023-06-04T08:08:22.000Z</time>
      </trkpt>
      <trkpt lat="45.64027" lon="4.59733">
        <ele>828</ele>
        <time>2023-06-04T08:08:26.000Z</time>
      </trkpt>
      <trkpt lat="45.64024" lon="4.59734">
        <ele>828</ele>
        <time>2023-06-04T08:08:28.000Z</time>
      </trkpt>
      <trkpt lat="45.64018" lon="4.59734">
        <ele>828.4</ele>
        <time>2023-06-04T08:08:30.000Z</time>
      </trkpt>
      <trkpt lat="45.6401" lon="4.59735">
        <ele>829.2</ele>
        <time>2023-06-04T08:08:32.000Z</time>
      </trkpt>
      <trkpt lat="45.64002" lon="4.59736">
        <ele>829.2</ele>
        <time>2023-06-04T08:08:34.000Z</time>
      </trkpt>
      <trkpt lat="45.63992" lon="4.59738">
        <ele>829.4</ele>
        <time>2023-06-04T08:08:36.000Z</time>
      </trkpt>
      <trkpt lat="45.63981" lon="4.59738">
        <ele>829.4</ele>
        <time>2023-06-04T08:08:38.000Z</time>
      </trkpt>
      <trkpt lat="45.63975" lon="4.5974">
        <ele>829.4</ele>
        <time>2023-06-04T08:08:39.000Z</time>
      </trkpt>
      <trkpt lat="45.6397" lon="4.59741">
        <ele>829.4</ele>
        <time>2023-06-04T08:08:40.000Z</time>
      </trkpt>
      <trkpt lat="45.63954" lon="4.59736">
        <ele>828.6</ele>
        <time>2023-06-04T08:08:43.000Z</time>
      </trkpt>
      <trkpt lat="45.63949" lon="4.59735">
        <ele>828.2</ele>
        <time>2023-06-04T08:08:44.000Z</time>
      </trkpt>
      <trkpt lat="45.63945" lon="4.59733">
        <ele>827.6</ele>
        <time>2023-06-04T08:08:45.000Z</time>
      </trkpt>
      <trkpt lat="45.63942" lon="4.59731">
        <ele>827.4</ele>
        <time>2023-06-04T08:08:46.000Z</time>
      </trkpt>
      <trkpt lat="45.63936" lon="4.59731">
        <ele>827</ele>
        <time>2023-06-04T08:08:48.000Z</time>
      </trkpt>
      <trkpt lat="45.63918" lon="4.5973">
        <ele>826.8</ele>
        <time>2023-06-04T08:08:55.000Z</time>
      </trkpt>
      <trkpt lat="45.63903" lon="4.59725">
        <ele>827</ele>
        <time>2023-06-04T08:08:59.000Z</time>
      </trkpt>
      <trkpt lat="45.63895" lon="4.5972">
        <ele>827</ele>
        <time>2023-06-04T08:09:01.000Z</time>
      </trkpt>
      <trkpt lat="45.6388" lon="4.59717">
        <ele>827.2</ele>
        <time>2023-06-04T08:09:06.000Z</time>
      </trkpt>
      <trkpt lat="45.63874" lon="4.59715">
        <ele>827.2</ele>
        <time>2023-06-04T08:09:08.000Z</time>
      </trkpt>
      <trkpt lat="45.63866" lon="4.59713">
        <ele>827.4</ele>
        <time>2023-06-04T08:09:11.000Z</time>
      </trkpt>
      <trkpt lat="45.63857" lon="4.59711">
        <ele>827.6</ele>
        <time>2023-06-04T08:09:15.000Z</time>
      </trkpt>
      <trkpt lat="45.63852" lon="4.59711">
        <ele>827.6</ele>
        <time>2023-06-04T08:09:17.000Z</time>
      </trkpt>
      <trkpt lat="45.63839" lon="4.59707">
        <ele>828.2</ele>
        <time>2023-06-04T08:09:22.000Z</time>
      </trkpt>
      <trkpt lat="45.63836" lon="4.59705">
        <ele>828.2</ele>
        <time>2023-06-04T08:09:23.000Z</time>
      </trkpt>
      <trkpt lat="45.63824" lon="4.59703">
        <ele>828.6</ele>
        <time>2023-06-04T08:09:27.000Z</time>
      </trkpt>
      <trkpt lat="45.63817" lon="4.59701">
        <ele>828.8</ele>
        <time>2023-06-04T08:09:29.000Z</time>
      </trkpt>
      <trkpt lat="45.63807" lon="4.59699">
        <ele>829</ele>
        <time>2023-06-04T08:09:33.000Z</time>
      </trkpt>
      <trkpt lat="45.638" lon="4.59697">
        <ele>829.2</ele>
        <time>2023-06-04T08:09:36.000Z</time>
      </trkpt>
      <trkpt lat="45.63796" lon="4.59696">
        <ele>829.4</ele>
        <time>2023-06-04T08:09:38.000Z</time>
      </trkpt>
      <trkpt lat="45.63789" lon="4.59695">
        <ele>829.8</ele>
        <time>2023-06-04T08:09:41.000Z</time>
      </trkpt>
      <trkpt lat="45.6378" lon="4.59693">
        <ele>830.4</ele>
        <time>2023-06-04T08:09:46.000Z</time>
      </trkpt>
      <trkpt lat="45.63778" lon="4.59692">
        <ele>830.6</ele>
        <time>2023-06-04T08:09:47.000Z</time>
      </trkpt>
      <trkpt lat="45.63776" lon="4.59692">
        <ele>830.8</ele>
        <time>2023-06-04T08:09:48.000Z</time>
      </trkpt>
      <trkpt lat="45.63774" lon="4.59691">
        <ele>830.8</ele>
        <time>2023-06-04T08:09:49.000Z</time>
      </trkpt>
      <trkpt lat="45.63769" lon="4.5969">
        <ele>831.4</ele>
        <time>2023-06-04T08:09:52.000Z</time>
      </trkpt>
      <trkpt lat="45.63768" lon="4.59689">
        <ele>831.8</ele>
        <time>2023-06-04T08:09:53.000Z</time>
      </trkpt>
      <trkpt lat="45.63759" lon="4.59687">
        <ele>833</ele>
        <time>2023-06-04T08:09:59.000Z</time>
      </trkpt>
      <trkpt lat="45.63755" lon="4.59685">
        <ele>833.4</ele>
        <time>2023-06-04T08:10:01.000Z</time>
      </trkpt>
      <trkpt lat="45.6375" lon="4.59682">
        <ele>834.2</ele>
        <time>2023-06-04T08:10:05.000Z</time>
      </trkpt>
      <trkpt lat="45.63746" lon="4.59681">
        <ele>834.8</ele>
        <time>2023-06-04T08:10:07.000Z</time>
      </trkpt>
      <trkpt lat="45.63743" lon="4.5968">
        <ele>835.4</ele>
        <time>2023-06-04T08:10:09.000Z</time>
      </trkpt>
      <trkpt lat="45.63741" lon="4.59679">
        <ele>835.8</ele>
        <time>2023-06-04T08:10:11.000Z</time>
      </trkpt>
      <trkpt lat="45.63738" lon="4.5968">
        <ele>836.4</ele>
        <time>2023-06-04T08:10:13.000Z</time>
      </trkpt>
      <trkpt lat="45.63733" lon="4.5968">
        <ele>837.4</ele>
        <time>2023-06-04T08:10:17.000Z</time>
      </trkpt>
      <trkpt lat="45.63727" lon="4.59679">
        <ele>838.6</ele>
        <time>2023-06-04T08:10:21.000Z</time>
      </trkpt>
      <trkpt lat="45.63718" lon="4.59678">
        <ele>839.6</ele>
        <time>2023-06-04T08:10:27.000Z</time>
      </trkpt>
      <trkpt lat="45.63716" lon="4.59678">
        <ele>839.8</ele>
        <time>2023-06-04T08:10:28.000Z</time>
      </trkpt>
      <trkpt lat="45.63713" lon="4.59678">
        <ele>840</ele>
        <time>2023-06-04T08:10:30.000Z</time>
      </trkpt>
      <trkpt lat="45.63706" lon="4.59677">
        <ele>840.6</ele>
        <time>2023-06-04T08:10:34.000Z</time>
      </trkpt>
      <trkpt lat="45.63705" lon="4.59677">
        <ele>840.8</ele>
        <time>2023-06-04T08:10:35.000Z</time>
      </trkpt>
      <trkpt lat="45.637" lon="4.59678">
        <ele>841.2</ele>
        <time>2023-06-04T08:10:38.000Z</time>
      </trkpt>
      <trkpt lat="45.63694" lon="4.5968">
        <ele>841.6</ele>
        <time>2023-06-04T08:10:41.000Z</time>
      </trkpt>
      <trkpt lat="45.63686" lon="4.59681">
        <ele>842.2</ele>
        <time>2023-06-04T08:10:45.000Z</time>
      </trkpt>
      <trkpt lat="45.63668" lon="4.59683">
        <ele>842.6</ele>
        <time>2023-06-04T08:10:53.000Z</time>
      </trkpt>
      <trkpt lat="45.63666" lon="4.59683">
        <ele>842.8</ele>
        <time>2023-06-04T08:10:54.000Z</time>
      </trkpt>
      <trkpt lat="45.63655" lon="4.59685">
        <ele>843</ele>
        <time>2023-06-04T08:10:59.000Z</time>
      </trkpt>
      <trkpt lat="45.63645" lon="4.5969">
        <ele>843.2</ele>
        <time>2023-06-04T08:11:03.000Z</time>
      </trkpt>
      <trkpt lat="45.63621" lon="4.59702">
        <ele>843.6</ele>
        <time>2023-06-04T08:11:13.000Z</time>
      </trkpt>
      <trkpt lat="45.63619" lon="4.59703">
        <ele>843.8</ele>
        <time>2023-06-04T08:11:14.000Z</time>
      </trkpt>
      <trkpt lat="45.63612" lon="4.59703">
        <ele>844</ele>
        <time>2023-06-04T08:11:17.000Z</time>
      </trkpt>
      <trkpt lat="45.6361" lon="4.59703">
        <ele>844</ele>
        <time>2023-06-04T08:11:18.000Z</time>
      </trkpt>
      <trkpt lat="45.63602" lon="4.59702">
        <ele>844.4</ele>
        <time>2023-06-04T08:11:22.000Z</time>
      </trkpt>
      <trkpt lat="45.636" lon="4.59701">
        <ele>844.8</ele>
        <time>2023-06-04T08:11:23.000Z</time>
      </trkpt>
      <trkpt lat="45.63598" lon="4.59699">
        <ele>845</ele>
        <time>2023-06-04T08:11:24.000Z</time>
      </trkpt>
      <trkpt lat="45.63593" lon="4.59691">
        <ele>845.8</ele>
        <time>2023-06-04T08:11:28.000Z</time>
      </trkpt>
      <trkpt lat="45.63586" lon="4.59684">
        <ele>847</ele>
        <time>2023-06-04T08:11:32.000Z</time>
      </trkpt>
      <trkpt lat="45.63583" lon="4.5968">
        <ele>847.2</ele>
        <time>2023-06-04T08:11:34.000Z</time>
      </trkpt>
      <trkpt lat="45.63577" lon="4.59673">
        <ele>848</ele>
        <time>2023-06-04T08:11:38.000Z</time>
      </trkpt>
      <trkpt lat="45.63573" lon="4.59667">
        <ele>848.6</ele>
        <time>2023-06-04T08:11:41.000Z</time>
      </trkpt>
      <trkpt lat="45.63571" lon="4.59662">
        <ele>849</ele>
        <time>2023-06-04T08:11:43.000Z</time>
      </trkpt>
      <trkpt lat="45.6357" lon="4.59659">
        <ele>849.2</ele>
        <time>2023-06-04T08:11:44.000Z</time>
      </trkpt>
      <trkpt lat="45.63569" lon="4.59653">
        <ele>849.6</ele>
        <time>2023-06-04T08:11:46.000Z</time>
      </trkpt>
      <trkpt lat="45.63565" lon="4.59637">
        <ele>850.2</ele>
        <time>2023-06-04T08:11:51.000Z</time>
      </trkpt>
      <trkpt lat="45.63561" lon="4.59628">
        <ele>850.6</ele>
        <time>2023-06-04T08:11:54.000Z</time>
      </trkpt>
      <trkpt lat="45.63552" lon="4.5961">
        <ele>850.8</ele>
        <time>2023-06-04T08:12:01.000Z</time>
      </trkpt>
      <trkpt lat="45.63546" lon="4.59601">
        <ele>850.8</ele>
        <time>2023-06-04T08:12:04.000Z</time>
      </trkpt>
      <trkpt lat="45.63538" lon="4.59592">
        <ele>850.6</ele>
        <time>2023-06-04T08:12:07.000Z</time>
      </trkpt>
      <trkpt lat="45.63524" lon="4.59567">
        <ele>850.2</ele>
        <time>2023-06-04T08:12:13.000Z</time>
      </trkpt>
      <trkpt lat="45.63521" lon="4.59533">
        <ele>849.2</ele>
        <time>2023-06-04T08:12:18.000Z</time>
      </trkpt>
      <trkpt lat="45.63519" lon="4.59519">
        <ele>849</ele>
        <time>2023-06-04T08:12:20.000Z</time>
      </trkpt>
      <trkpt lat="45.63518" lon="4.59511">
        <ele>849</ele>
        <time>2023-06-04T08:12:21.000Z</time>
      </trkpt>
      <trkpt lat="45.63515" lon="4.59488">
        <ele>848.2</ele>
        <time>2023-06-04T08:12:24.000Z</time>
      </trkpt>
      <trkpt lat="45.63513" lon="4.59481">
        <ele>848</ele>
        <time>2023-06-04T08:12:25.000Z</time>
      </trkpt>
      <trkpt lat="45.63509" lon="4.59465">
        <ele>847.4</ele>
        <time>2023-06-04T08:12:27.000Z</time>
      </trkpt>
      <trkpt lat="45.63508" lon="4.59459">
        <ele>847</ele>
        <time>2023-06-04T08:12:28.000Z</time>
      </trkpt>
      <trkpt lat="45.63508" lon="4.59451">
        <ele>846.6</ele>
        <time>2023-06-04T08:12:29.000Z</time>
      </trkpt>
      <trkpt lat="45.63508" lon="4.59425">
        <ele>846</ele>
        <time>2023-06-04T08:12:33.000Z</time>
      </trkpt>
      <trkpt lat="45.63511" lon="4.5941">
        <ele>845.8</ele>
        <time>2023-06-04T08:12:37.000Z</time>
      </trkpt>
      <trkpt lat="45.63512" lon="4.59409">
        <ele>845.8</ele>
        <time>2023-06-04T08:12:38.000Z</time>
      </trkpt>
      <trkpt lat="45.63513" lon="4.59406">
        <ele>845.8</ele>
        <time>2023-06-04T08:12:40.000Z</time>
      </trkpt>
      <trkpt lat="45.6352" lon="4.59394">
        <ele>847</ele>
        <time>2023-06-04T08:12:48.000Z</time>
      </trkpt>
      <trkpt lat="45.63523" lon="4.59391">
        <ele>848</ele>
        <time>2023-06-04T08:12:51.000Z</time>
      </trkpt>
      <trkpt lat="45.63528" lon="4.59385">
        <ele>849.2</ele>
        <time>2023-06-04T08:12:56.000Z</time>
      </trkpt>
      <trkpt lat="45.63529" lon="4.59383">
        <ele>849.8</ele>
        <time>2023-06-04T08:12:58.000Z</time>
      </trkpt>
      <trkpt lat="45.6353" lon="4.5938">
        <ele>850.6</ele>
        <time>2023-06-04T08:13:00.000Z</time>
      </trkpt>
      <trkpt lat="45.63532" lon="4.59377">
        <ele>851.4</ele>
        <time>2023-06-04T08:13:03.000Z</time>
      </trkpt>
      <trkpt lat="45.63533" lon="4.59376">
        <ele>851.6</ele>
        <time>2023-06-04T08:13:04.000Z</time>
      </trkpt>
      <trkpt lat="45.63535" lon="4.59369">
        <ele>852.6</ele>
        <time>2023-06-04T08:13:09.000Z</time>
      </trkpt>
      <trkpt lat="45.63537" lon="4.59365">
        <ele>853.4</ele>
        <time>2023-06-04T08:13:12.000Z</time>
      </trkpt>
      <trkpt lat="45.63537" lon="4.59364">
        <ele>853.6</ele>
        <time>2023-06-04T08:13:13.000Z</time>
      </trkpt>
      <trkpt lat="45.63537" lon="4.59363">
        <ele>853.8</ele>
        <time>2023-06-04T08:13:14.000Z</time>
      </trkpt>
      <trkpt lat="45.63537" lon="4.59361">
        <ele>854</ele>
        <time>2023-06-04T08:13:15.000Z</time>
      </trkpt>
      <trkpt lat="45.63539" lon="4.59357">
        <ele>854.8</ele>
        <time>2023-06-04T08:13:18.000Z</time>
      </trkpt>
      <trkpt lat="45.63541" lon="4.5935">
        <ele>855.8</ele>
        <time>2023-06-04T08:13:23.000Z</time>
      </trkpt>
      <trkpt lat="45.63541" lon="4.59348">
        <ele>856</ele>
        <time>2023-06-04T08:13:24.000Z</time>
      </trkpt>
      <trkpt lat="45.63542" lon="4.59346">
        <ele>856.4</ele>
        <time>2023-06-04T08:13:26.000Z</time>
      </trkpt>
      <trkpt lat="45.63542" lon="4.59344">
        <ele>856.6</ele>
        <time>2023-06-04T08:13:27.000Z</time>
      </trkpt>
      <trkpt lat="45.63544" lon="4.59339">
        <ele>857</ele>
        <time>2023-06-04T08:13:30.000Z</time>
      </trkpt>
      <trkpt lat="45.63546" lon="4.59331">
        <ele>857.8</ele>
        <time>2023-06-04T08:13:35.000Z</time>
      </trkpt>
      <trkpt lat="45.63547" lon="4.59329">
        <ele>857.8</ele>
        <time>2023-06-04T08:13:36.000Z</time>
      </trkpt>
      <trkpt lat="45.63547" lon="4.59328">
        <ele>858</ele>
        <time>2023-06-04T08:13:37.000Z</time>
      </trkpt>
      <trkpt lat="45.63551" lon="4.59322">
        <ele>859</ele>
        <time>2023-06-04T08:13:42.000Z</time>
      </trkpt>
      <trkpt lat="45.63552" lon="4.59321">
        <ele>859.2</ele>
        <time>2023-06-04T08:13:43.000Z</time>
      </trkpt>
      <trkpt lat="45.63555" lon="4.59316">
        <ele>860.2</ele>
        <time>2023-06-04T08:13:48.000Z</time>
      </trkpt>
      <trkpt lat="45.63557" lon="4.59311">
        <ele>860.6</ele>
        <time>2023-06-04T08:13:52.000Z</time>
      </trkpt>
      <trkpt lat="45.63557" lon="4.59309">
        <ele>861.2</ele>
        <time>2023-06-04T08:13:55.000Z</time>
      </trkpt>
      <trkpt lat="45.63559" lon="4.59303">
        <ele>862.2</ele>
        <time>2023-06-04T08:13:59.000Z</time>
      </trkpt>
      <trkpt lat="45.63559" lon="4.59302">
        <ele>862.4</ele>
        <time>2023-06-04T08:14:00.000Z</time>
      </trkpt>
      <trkpt lat="45.63559" lon="4.593">
        <ele>862.8</ele>
        <time>2023-06-04T08:14:01.000Z</time>
      </trkpt>
      <trkpt lat="45.63559" lon="4.59296">
        <ele>863.4</ele>
        <time>2023-06-04T08:14:04.000Z</time>
      </trkpt>
      <trkpt lat="45.63559" lon="4.59294">
        <ele>863.6</ele>
        <time>2023-06-04T08:14:05.000Z</time>
      </trkpt>
      <trkpt lat="45.63559" lon="4.59292">
        <ele>863.6</ele>
        <time>2023-06-04T08:14:06.000Z</time>
      </trkpt>
      <trkpt lat="45.63562" lon="4.59291">
        <ele>864.2</ele>
        <time>2023-06-04T08:14:08.000Z</time>
      </trkpt>
      <trkpt lat="45.63562" lon="4.59289">
        <ele>864.4</ele>
        <time>2023-06-04T08:14:10.000Z</time>
      </trkpt>
      <trkpt lat="45.63563" lon="4.59288">
        <ele>864.6</ele>
        <time>2023-06-04T08:14:11.000Z</time>
      </trkpt>
      <trkpt lat="45.63564" lon="4.59285">
        <ele>865.4</ele>
        <time>2023-06-04T08:14:15.000Z</time>
      </trkpt>
      <trkpt lat="45.63566" lon="4.59282">
        <ele>865.8</ele>
        <time>2023-06-04T08:14:18.000Z</time>
      </trkpt>
      <trkpt lat="45.63568" lon="4.59278">
        <ele>867</ele>
        <time>2023-06-04T08:14:25.000Z</time>
      </trkpt>
      <trkpt lat="45.63569" lon="4.59275">
        <ele>867.4</ele>
        <time>2023-06-04T08:14:27.000Z</time>
      </trkpt>
      <trkpt lat="45.63572" lon="4.59268">
        <ele>868.2</ele>
        <time>2023-06-04T08:14:32.000Z</time>
      </trkpt>
      <trkpt lat="45.63574" lon="4.59265">
        <ele>868.6</ele>
        <time>2023-06-04T08:14:34.000Z</time>
      </trkpt>
      <trkpt lat="45.63578" lon="4.59259">
        <ele>869</ele>
        <time>2023-06-04T08:14:38.000Z</time>
      </trkpt>
      <trkpt lat="45.63581" lon="4.59255">
        <ele>869.2</ele>
        <time>2023-06-04T08:14:41.000Z</time>
      </trkpt>
      <trkpt lat="45.63582" lon="4.59254">
        <ele>869.4</ele>
        <time>2023-06-04T08:14:42.000Z</time>
      </trkpt>
      <trkpt lat="45.6359" lon="4.59245">
        <ele>870.2</ele>
        <time>2023-06-04T08:14:49.000Z</time>
      </trkpt>
      <trkpt lat="45.6359" lon="4.59245">
        <ele>870.4</ele>
        <time>2023-06-04T08:14:50.000Z</time>
      </trkpt>
      <trkpt lat="45.63596" lon="4.59238">
        <ele>870.8</ele>
        <time>2023-06-04T08:14:54.000Z</time>
      </trkpt>
      <trkpt lat="45.636" lon="4.59234">
        <ele>871</ele>
        <time>2023-06-04T08:14:56.000Z</time>
      </trkpt>
      <trkpt lat="45.63603" lon="4.59229">
        <ele>871.4</ele>
        <time>2023-06-04T08:14:59.000Z</time>
      </trkpt>
      <trkpt lat="45.63608" lon="4.5922">
        <ele>871.8</ele>
        <time>2023-06-04T08:15:04.000Z</time>
      </trkpt>
      <trkpt lat="45.63612" lon="4.59215">
        <ele>872</ele>
        <time>2023-06-04T08:15:07.000Z</time>
      </trkpt>
      <trkpt lat="45.63616" lon="4.59213">
        <ele>872.4</ele>
        <time>2023-06-04T08:15:11.000Z</time>
      </trkpt>
      <trkpt lat="45.63618" lon="4.59212">
        <ele>872.6</ele>
        <time>2023-06-04T08:15:12.000Z</time>
      </trkpt>
      <trkpt lat="45.63627" lon="4.592">
        <ele>873</ele>
        <time>2023-06-04T08:15:19.000Z</time>
      </trkpt>
      <trkpt lat="45.63632" lon="4.59193">
        <ele>873.4</ele>
        <time>2023-06-04T08:15:24.000Z</time>
      </trkpt>
      <trkpt lat="45.63633" lon="4.59192">
        <ele>873.4</ele>
        <time>2023-06-04T08:15:25.000Z</time>
      </trkpt>
      <trkpt lat="45.63635" lon="4.59189">
        <ele>873.6</ele>
        <time>2023-06-04T08:15:27.000Z</time>
      </trkpt>
      <trkpt lat="45.63638" lon="4.59186">
        <ele>874.2</ele>
        <time>2023-06-04T08:15:34.000Z</time>
      </trkpt>
      <trkpt lat="45.63639" lon="4.59186">
        <ele>874.4</ele>
        <time>2023-06-04T08:15:37.000Z</time>
      </trkpt>
      <trkpt lat="45.6364" lon="4.59185">
        <ele>874.6</ele>
        <time>2023-06-04T08:15:38.000Z</time>
      </trkpt>
      <trkpt lat="45.63644" lon="4.59182">
        <ele>875</ele>
        <time>2023-06-04T08:15:41.000Z</time>
      </trkpt>
      <trkpt lat="45.63652" lon="4.5918">
        <ele>875.2</ele>
        <time>2023-06-04T08:15:46.000Z</time>
      </trkpt>
      <trkpt lat="45.63654" lon="4.59182">
        <ele>875.2</ele>
        <time>2023-06-04T08:15:47.000Z</time>
      </trkpt>
      <trkpt lat="45.63658" lon="4.59183">
        <ele>875.6</ele>
        <time>2023-06-04T08:15:49.000Z</time>
      </trkpt>
      <trkpt lat="45.63664" lon="4.5919">
        <ele>876</ele>
        <time>2023-06-04T08:15:53.000Z</time>
      </trkpt>
      <trkpt lat="45.63665" lon="4.59194">
        <ele>876.8</ele>
        <time>2023-06-04T08:15:56.000Z</time>
      </trkpt>
      <trkpt lat="45.63665" lon="4.59196">
        <ele>877</ele>
        <time>2023-06-04T08:15:57.000Z</time>
      </trkpt>
      <trkpt lat="45.63668" lon="4.59204">
        <ele>878</ele>
        <time>2023-06-04T08:16:01.000Z</time>
      </trkpt>
      <trkpt lat="45.63669" lon="4.59208">
        <ele>878.6</ele>
        <time>2023-06-04T08:16:03.000Z</time>
      </trkpt>
      <trkpt lat="45.6367" lon="4.5921">
        <ele>879.2</ele>
        <time>2023-06-04T08:16:05.000Z</time>
      </trkpt>
      <trkpt lat="45.63671" lon="4.59209">
        <ele>879.4</ele>
        <time>2023-06-04T08:16:06.000Z</time>
      </trkpt>
      <trkpt lat="45.63674" lon="4.59212">
        <ele>880</ele>
        <time>2023-06-04T08:16:09.000Z</time>
      </trkpt>
      <trkpt lat="45.63675" lon="4.59213">
        <ele>880.2</ele>
        <time>2023-06-04T08:16:10.000Z</time>
      </trkpt>
      <trkpt lat="45.63676" lon="4.59215">
        <ele>880.8</ele>
        <time>2023-06-04T08:16:12.000Z</time>
      </trkpt>
      <trkpt lat="45.63677" lon="4.59217">
        <ele>881.4</ele>
        <time>2023-06-04T08:16:14.000Z</time>
      </trkpt>
      <trkpt lat="45.63679" lon="4.59218">
        <ele>882.2</ele>
        <time>2023-06-04T08:16:17.000Z</time>
      </trkpt>
      <trkpt lat="45.63679" lon="4.5922">
        <ele>882.4</ele>
        <time>2023-06-04T08:16:18.000Z</time>
      </trkpt>
      <trkpt lat="45.6368" lon="4.59221">
        <ele>882.6</ele>
        <time>2023-06-04T08:16:19.000Z</time>
      </trkpt>
      <trkpt lat="45.63681" lon="4.59223">
        <ele>883.4</ele>
        <time>2023-06-04T08:16:22.000Z</time>
      </trkpt>
      <trkpt lat="45.63684" lon="4.59231">
        <ele>884.4</ele>
        <time>2023-06-04T08:16:27.000Z</time>
      </trkpt>
      <trkpt lat="45.63685" lon="4.59232">
        <ele>884.6</ele>
        <time>2023-06-04T08:16:28.000Z</time>
      </trkpt>
      <trkpt lat="45.63684" lon="4.5924">
        <ele>885.6</ele>
        <time>2023-06-04T08:16:33.000Z</time>
      </trkpt>
      <trkpt lat="45.63684" lon="4.59241">
        <ele>886.2</ele>
        <time>2023-06-04T08:16:36.000Z</time>
      </trkpt>
      <trkpt lat="45.63686" lon="4.59246">
        <ele>886.6</ele>
        <time>2023-06-04T08:16:38.000Z</time>
      </trkpt>
      <trkpt lat="45.63686" lon="4.59252">
        <ele>887.8</ele>
        <time>2023-06-04T08:16:43.000Z</time>
      </trkpt>
      <trkpt lat="45.63686" lon="4.59253">
        <ele>888.2</ele>
        <time>2023-06-04T08:16:45.000Z</time>
      </trkpt>
      <trkpt lat="45.63686" lon="4.59255">
        <ele>889</ele>
        <time>2023-06-04T08:16:48.000Z</time>
      </trkpt>
      <trkpt lat="45.63688" lon="4.59261">
        <ele>889.6</ele>
        <time>2023-06-04T08:16:51.000Z</time>
      </trkpt>
      <trkpt lat="45.6369" lon="4.59267">
        <ele>890.2</ele>
        <time>2023-06-04T08:16:53.000Z</time>
      </trkpt>
      <trkpt lat="45.63694" lon="4.59278">
        <ele>891.2</ele>
        <time>2023-06-04T08:16:59.000Z</time>
      </trkpt>
      <trkpt lat="45.63695" lon="4.59279">
        <ele>891.2</ele>
        <time>2023-06-04T08:17:00.000Z</time>
      </trkpt>
      <trkpt lat="45.63696" lon="4.5928">
        <ele>892.2</ele>
        <time>2023-06-04T08:17:03.000Z</time>
      </trkpt>
      <trkpt lat="45.63696" lon="4.59282">
        <ele>892.8</ele>
        <time>2023-06-04T08:17:05.000Z</time>
      </trkpt>
      <trkpt lat="45.63697" lon="4.59285">
        <ele>893.4</ele>
        <time>2023-06-04T08:17:07.000Z</time>
      </trkpt>
      <trkpt lat="45.63699" lon="4.59288">
        <ele>894.4</ele>
        <time>2023-06-04T08:17:11.000Z</time>
      </trkpt>
      <trkpt lat="45.637" lon="4.5929">
        <ele>895.2</ele>
        <time>2023-06-04T08:17:14.000Z</time>
      </trkpt>
      <trkpt lat="45.63701" lon="4.59291">
        <ele>895.6</ele>
        <time>2023-06-04T08:17:15.000Z</time>
      </trkpt>
      <trkpt lat="45.63702" lon="4.59298">
        <ele>896.6</ele>
        <time>2023-06-04T08:17:21.000Z</time>
      </trkpt>
      <trkpt lat="45.63704" lon="4.59303">
        <ele>897.6</ele>
        <time>2023-06-04T08:17:26.000Z</time>
      </trkpt>
      <trkpt lat="45.63709" lon="4.59308">
        <ele>898.4</ele>
        <time>2023-06-04T08:17:30.000Z</time>
      </trkpt>
      <trkpt lat="45.6371" lon="4.5931">
        <ele>898.8</ele>
        <time>2023-06-04T08:17:32.000Z</time>
      </trkpt>
      <trkpt lat="45.63714" lon="4.59315">
        <ele>900</ele>
        <time>2023-06-04T08:17:37.000Z</time>
      </trkpt>
      <trkpt lat="45.63715" lon="4.59321">
        <ele>901</ele>
        <time>2023-06-04T08:17:40.000Z</time>
      </trkpt>
      <trkpt lat="45.63716" lon="4.59323">
        <ele>901.2</ele>
        <time>2023-06-04T08:17:41.000Z</time>
      </trkpt>
      <trkpt lat="45.63718" lon="4.59327">
        <ele>902.4</ele>
        <time>2023-06-04T08:17:46.000Z</time>
      </trkpt>
      <trkpt lat="45.63719" lon="4.59329">
        <ele>902.6</ele>
        <time>2023-06-04T08:17:47.000Z</time>
      </trkpt>
      <trkpt lat="45.6372" lon="4.59335">
        <ele>903.6</ele>
        <time>2023-06-04T08:17:51.000Z</time>
      </trkpt>
      <trkpt lat="45.63722" lon="4.59338">
        <ele>904.4</ele>
        <time>2023-06-04T08:17:54.000Z</time>
      </trkpt>
      <trkpt lat="45.63722" lon="4.5934">
        <ele>904.6</ele>
        <time>2023-06-04T08:17:55.000Z</time>
      </trkpt>
      <trkpt lat="45.63725" lon="4.59346">
        <ele>905.6</ele>
        <time>2023-06-04T08:18:00.000Z</time>
      </trkpt>
      <trkpt lat="45.63726" lon="4.59347">
        <ele>905.8</ele>
        <time>2023-06-04T08:18:01.000Z</time>
      </trkpt>
      <trkpt lat="45.6373" lon="4.59353">
        <ele>906.6</ele>
        <time>2023-06-04T08:18:07.000Z</time>
      </trkpt>
      <trkpt lat="45.63735" lon="4.59357">
        <ele>907.4</ele>
        <time>2023-06-04T08:18:12.000Z</time>
      </trkpt>
      <trkpt lat="45.63738" lon="4.5936">
        <ele>907.8</ele>
        <time>2023-06-04T08:18:15.000Z</time>
      </trkpt>
      <trkpt lat="45.63742" lon="4.59366">
        <ele>908.6</ele>
        <time>2023-06-04T08:18:21.000Z</time>
      </trkpt>
      <trkpt lat="45.63744" lon="4.59367">
        <ele>908.8</ele>
        <time>2023-06-04T08:18:23.000Z</time>
      </trkpt>
      <trkpt lat="45.63746" lon="4.5937">
        <ele>909.2</ele>
        <time>2023-06-04T08:18:26.000Z</time>
      </trkpt>
      <trkpt lat="45.63748" lon="4.59374">
        <ele>909.6</ele>
        <time>2023-06-04T08:18:29.000Z</time>
      </trkpt>
      <trkpt lat="45.6375" lon="4.59377">
        <ele>910</ele>
        <time>2023-06-04T08:18:31.000Z</time>
      </trkpt>
      <trkpt lat="45.63754" lon="4.59383">
        <ele>911.2</ele>
        <time>2023-06-04T08:18:36.000Z</time>
      </trkpt>
      <trkpt lat="45.63755" lon="4.59386">
        <ele>911.4</ele>
        <time>2023-06-04T08:18:38.000Z</time>
      </trkpt>
      <trkpt lat="45.63755" lon="4.59387">
        <ele>911.8</ele>
        <time>2023-06-04T08:18:39.000Z</time>
      </trkpt>
      <trkpt lat="45.63754" lon="4.59389">
        <ele>912</ele>
        <time>2023-06-04T08:18:41.000Z</time>
      </trkpt>
      <trkpt lat="45.63753" lon="4.5939">
        <ele>912.4</ele>
        <time>2023-06-04T08:18:42.000Z</time>
      </trkpt>
      <trkpt lat="45.63747" lon="4.59393">
        <ele>912.8</ele>
        <time>2023-06-04T08:18:45.000Z</time>
      </trkpt>
      <trkpt lat="45.63744" lon="4.59395">
        <ele>912.8</ele>
        <time>2023-06-04T08:18:50.000Z</time>
      </trkpt>
      <trkpt lat="45.63744" lon="4.59395">
        <ele>913</ele>
        <time>2023-06-04T08:18:54.000Z</time>
      </trkpt>
      <trkpt lat="45.63744" lon="4.59395">
        <ele>913</ele>
        <time>2023-06-04T08:18:58.000Z</time>
      </trkpt>
      <trkpt lat="45.63744" lon="4.59395">
        <ele>913</ele>
        <time>2023-06-04T08:19:03.000Z</time>
      </trkpt>
      <trkpt lat="45.63744" lon="4.59395">
        <ele>913</ele>
        <time>2023-06-04T08:19:29.000Z</time>
      </trkpt>
      <trkpt lat="45.63744" lon="4.59395">
        <ele>913</ele>
        <time>2023-06-04T08:19:30.000Z</time>
      </trkpt>
      <trkpt lat="45.63744" lon="4.59395">
        <ele>913</ele>
        <time>2023-06-04T08:19:57.000Z</time>
      </trkpt>
      <trkpt lat="45.63744" lon="4.59395">
        <ele>913</ele>
        <time>2023-06-04T08:19:58.000Z</time>
      </trkpt>
      <trkpt lat="45.63745" lon="4.59395">
        <ele>913</ele>
        <time>2023-06-04T08:20:08.000Z</time>
      </trkpt>
      <trkpt lat="45.63746" lon="4.59396">
        <ele>913</ele>
        <time>2023-06-04T08:20:09.000Z</time>
      </trkpt>
      <trkpt lat="45.63757" lon="4.59399">
        <ele>913.2</ele>
        <time>2023-06-04T08:20:14.000Z</time>
      </trkpt>
      <trkpt lat="45.63761" lon="4.59401">
        <ele>913.2</ele>
        <time>2023-06-04T08:20:16.000Z</time>
      </trkpt>
      <trkpt lat="45.63771" lon="4.59407">
        <ele>913.2</ele>
        <time>2023-06-04T08:20:21.000Z</time>
      </trkpt>
      <trkpt lat="45.63773" lon="4.5941">
        <ele>913</ele>
        <time>2023-06-04T08:20:22.000Z</time>
      </trkpt>
      <trkpt lat="45.63785" lon="4.59424">
        <ele>913</ele>
        <time>2023-06-04T08:20:27.000Z</time>
      </trkpt>
      <trkpt lat="45.638" lon="4.59447">
        <ele>912.4</ele>
        <time>2023-06-04T08:20:34.000Z</time>
      </trkpt>
      <trkpt lat="45.63814" lon="4.59455">
        <ele>910.8</ele>
        <time>2023-06-04T08:20:38.000Z</time>
      </trkpt>
      <trkpt lat="45.63819" lon="4.59456">
        <ele>910.6</ele>
        <time>2023-06-04T08:20:39.000Z</time>
      </trkpt>
      <trkpt lat="45.63824" lon="4.59456">
        <ele>910.2</ele>
        <time>2023-06-04T08:20:40.000Z</time>
      </trkpt>
      <trkpt lat="45.63835" lon="4.59456">
        <ele>909.6</ele>
        <time>2023-06-04T08:20:42.000Z</time>
      </trkpt>
      <trkpt lat="45.63841" lon="4.59457">
        <ele>909.2</ele>
        <time>2023-06-04T08:20:43.000Z</time>
      </trkpt>
      <trkpt lat="45.63847" lon="4.59457">
        <ele>908.8</ele>
        <time>2023-06-04T08:20:44.000Z</time>
      </trkpt>
      <trkpt lat="45.63852" lon="4.59458">
        <ele>908</ele>
        <time>2023-06-04T08:20:45.000Z</time>
      </trkpt>
      <trkpt lat="45.63864" lon="4.59457">
        <ele>907.2</ele>
        <time>2023-06-04T08:20:47.000Z</time>
      </trkpt>
      <trkpt lat="45.6387" lon="4.59457">
        <ele>907.2</ele>
        <time>2023-06-04T08:20:48.000Z</time>
      </trkpt>
      <trkpt lat="45.63875" lon="4.59458">
        <ele>906.8</ele>
        <time>2023-06-04T08:20:49.000Z</time>
      </trkpt>
      <trkpt lat="45.63883" lon="4.59459">
        <ele>905.8</ele>
        <time>2023-06-04T08:20:52.000Z</time>
      </trkpt>
      <trkpt lat="45.63885" lon="4.59458">
        <ele>905.8</ele>
        <time>2023-06-04T08:20:53.000Z</time>
      </trkpt>
      <trkpt lat="45.63889" lon="4.59457">
        <ele>905.8</ele>
        <time>2023-06-04T08:20:54.000Z</time>
      </trkpt>
      <trkpt lat="45.63896" lon="4.59447">
        <ele>905.6</ele>
        <time>2023-06-04T08:20:57.000Z</time>
      </trkpt>
      <trkpt lat="45.63906" lon="4.59432">
        <ele>906</ele>
        <time>2023-06-04T08:21:03.000Z</time>
      </trkpt>
      <trkpt lat="45.63908" lon="4.59431">
        <ele>906.2</ele>
        <time>2023-06-04T08:21:04.000Z</time>
      </trkpt>
      <trkpt lat="45.63911" lon="4.59432">
        <ele>906.8</ele>
        <time>2023-06-04T08:21:06.000Z</time>
      </trkpt>
      <trkpt lat="45.63916" lon="4.59428">
        <ele>907.8</ele>
        <time>2023-06-04T08:21:09.000Z</time>
      </trkpt>
      <trkpt lat="45.63919" lon="4.59424">
        <ele>908</ele>
        <time>2023-06-04T08:21:11.000Z</time>
      </trkpt>
      <trkpt lat="45.63926" lon="4.59424">
        <ele>908.8</ele>
        <time>2023-06-04T08:21:15.000Z</time>
      </trkpt>
      <trkpt lat="45.63928" lon="4.59426">
        <ele>909</ele>
        <time>2023-06-04T08:21:16.000Z</time>
      </trkpt>
      <trkpt lat="45.63933" lon="4.59426">
        <ele>908.8</ele>
        <time>2023-06-04T08:21:18.000Z</time>
      </trkpt>
      <trkpt lat="45.63946" lon="4.59417">
        <ele>908.8</ele>
        <time>2023-06-04T08:21:23.000Z</time>
      </trkpt>
      <trkpt lat="45.63948" lon="4.59412">
        <ele>908.8</ele>
        <time>2023-06-04T08:21:24.000Z</time>
      </trkpt>
      <trkpt lat="45.6395" lon="4.594">
        <ele>908.4</ele>
        <time>2023-06-04T08:21:27.000Z</time>
      </trkpt>
      <trkpt lat="45.63955" lon="4.59391">
        <ele>908.2</ele>
        <time>2023-06-04T08:21:29.000Z</time>
      </trkpt>
      <trkpt lat="45.63962" lon="4.59377">
        <ele>907.6</ele>
        <time>2023-06-04T08:21:32.000Z</time>
      </trkpt>
      <trkpt lat="45.63966" lon="4.59366">
        <ele>907</ele>
        <time>2023-06-04T08:21:34.000Z</time>
      </trkpt>
      <trkpt lat="45.63968" lon="4.59355">
        <ele>906.8</ele>
        <time>2023-06-04T08:21:36.000Z</time>
      </trkpt>
      <trkpt lat="45.6397" lon="4.59344">
        <ele>906.2</ele>
        <time>2023-06-04T08:21:38.000Z</time>
      </trkpt>
      <trkpt lat="45.63971" lon="4.59334">
        <ele>905.6</ele>
        <time>2023-06-04T08:21:40.000Z</time>
      </trkpt>
      <trkpt lat="45.63971" lon="4.59328">
        <ele>905</ele>
        <time>2023-06-04T08:21:41.000Z</time>
      </trkpt>
      <trkpt lat="45.63969" lon="4.59313">
        <ele>903.4</ele>
        <time>2023-06-04T08:21:43.000Z</time>
      </trkpt>
      <trkpt lat="45.63965" lon="4.59299">
        <ele>902.4</ele>
        <time>2023-06-04T08:21:45.000Z</time>
      </trkpt>
      <trkpt lat="45.63962" lon="4.59278">
        <ele>901</ele>
        <time>2023-06-04T08:21:48.000Z</time>
      </trkpt>
      <trkpt lat="45.63958" lon="4.59261">
        <ele>899.8</ele>
        <time>2023-06-04T08:21:50.000Z</time>
      </trkpt>
      <trkpt lat="45.63961" lon="4.59246">
        <ele>899</ele>
        <time>2023-06-04T08:21:52.000Z</time>
      </trkpt>
      <trkpt lat="45.6396" lon="4.59238">
        <ele>898.4</ele>
        <time>2023-06-04T08:21:53.000Z</time>
      </trkpt>
      <trkpt lat="45.63958" lon="4.59229">
        <ele>897.8</ele>
        <time>2023-06-04T08:21:54.000Z</time>
      </trkpt>
      <trkpt lat="45.63952" lon="4.59218">
        <ele>897.2</ele>
        <time>2023-06-04T08:21:56.000Z</time>
      </trkpt>
      <trkpt lat="45.63945" lon="4.59202">
        <ele>896.8</ele>
        <time>2023-06-04T08:21:58.000Z</time>
      </trkpt>
      <trkpt lat="45.63941" lon="4.59188">
        <ele>896.2</ele>
        <time>2023-06-04T08:22:00.000Z</time>
      </trkpt>
      <trkpt lat="45.6394" lon="4.59175">
        <ele>895.2</ele>
        <time>2023-06-04T08:22:02.000Z</time>
      </trkpt>
      <trkpt lat="45.63943" lon="4.5917">
        <ele>895</ele>
        <time>2023-06-04T08:22:03.000Z</time>
      </trkpt>
      <trkpt lat="45.63951" lon="4.59157">
        <ele>893.8</ele>
        <time>2023-06-04T08:22:07.000Z</time>
      </trkpt>
      <trkpt lat="45.63962" lon="4.59147">
        <ele>893.2</ele>
        <time>2023-06-04T08:22:10.000Z</time>
      </trkpt>
      <trkpt lat="45.63966" lon="4.59144">
        <ele>892.6</ele>
        <time>2023-06-04T08:22:11.000Z</time>
      </trkpt>
      <trkpt lat="45.63979" lon="4.59133">
        <ele>891.4</ele>
        <time>2023-06-04T08:22:14.000Z</time>
      </trkpt>
      <trkpt lat="45.63986" lon="4.59129">
        <ele>890.4</ele>
        <time>2023-06-04T08:22:16.000Z</time>
      </trkpt>
      <trkpt lat="45.63989" lon="4.59125">
        <ele>889.4</ele>
        <time>2023-06-04T08:22:17.000Z</time>
      </trkpt>
      <trkpt lat="45.63995" lon="4.59115">
        <ele>887.8</ele>
        <time>2023-06-04T08:22:19.000Z</time>
      </trkpt>
      <trkpt lat="45.63999" lon="4.59106">
        <ele>886</ele>
        <time>2023-06-04T08:22:21.000Z</time>
      </trkpt>
      <trkpt lat="45.64001" lon="4.591">
        <ele>886</ele>
        <time>2023-06-04T08:22:22.000Z</time>
      </trkpt>
      <trkpt lat="45.64007" lon="4.59086">
        <ele>884.6</ele>
        <time>2023-06-04T08:22:24.000Z</time>
      </trkpt>
      <trkpt lat="45.64015" lon="4.59067">
        <ele>883.2</ele>
        <time>2023-06-04T08:22:26.000Z</time>
      </trkpt>
      <trkpt lat="45.64019" lon="4.59062">
        <ele>882.4</ele>
        <time>2023-06-04T08:22:27.000Z</time>
      </trkpt>
      <trkpt lat="45.64023" lon="4.59056">
        <ele>881.8</ele>
        <time>2023-06-04T08:22:28.000Z</time>
      </trkpt>
      <trkpt lat="45.64028" lon="4.59045">
        <ele>880.8</ele>
        <time>2023-06-04T08:22:30.000Z</time>
      </trkpt>
      <trkpt lat="45.6403" lon="4.59039">
        <ele>879.8</ele>
        <time>2023-06-04T08:22:31.000Z</time>
      </trkpt>
      <trkpt lat="45.64032" lon="4.59034">
        <ele>878.8</ele>
        <time>2023-06-04T08:22:32.000Z</time>
      </trkpt>
      <trkpt lat="45.64033" lon="4.59027">
        <ele>878.2</ele>
        <time>2023-06-04T08:22:33.000Z</time>
      </trkpt>
      <trkpt lat="45.64033" lon="4.5902">
        <ele>877.4</ele>
        <time>2023-06-04T08:22:34.000Z</time>
      </trkpt>
      <trkpt lat="45.64034" lon="4.59012">
        <ele>876.8</ele>
        <time>2023-06-04T08:22:35.000Z</time>
      </trkpt>
      <trkpt lat="45.64036" lon="4.58999">
        <ele>876</ele>
        <time>2023-06-04T08:22:36.000Z</time>
      </trkpt>
      <trkpt lat="45.64039" lon="4.58988">
        <ele>875.6</ele>
        <time>2023-06-04T08:22:37.000Z</time>
      </trkpt>
      <trkpt lat="45.64042" lon="4.58978">
        <ele>874.8</ele>
        <time>2023-06-04T08:22:38.000Z</time>
      </trkpt>
      <trkpt lat="45.64042" lon="4.5897">
        <ele>874.2</ele>
        <time>2023-06-04T08:22:39.000Z</time>
      </trkpt>
      <trkpt lat="45.64041" lon="4.58961">
        <ele>873.4</ele>
        <time>2023-06-04T08:22:40.000Z</time>
      </trkpt>
      <trkpt lat="45.64039" lon="4.58945">
        <ele>872.6</ele>
        <time>2023-06-04T08:22:42.000Z</time>
      </trkpt>
      <trkpt lat="45.64039" lon="4.58936">
        <ele>872</ele>
        <time>2023-06-04T08:22:43.000Z</time>
      </trkpt>
      <trkpt lat="45.6404" lon="4.58928">
        <ele>871.4</ele>
        <time>2023-06-04T08:22:44.000Z</time>
      </trkpt>
      <trkpt lat="45.64041" lon="4.58921">
        <ele>871.4</ele>
        <time>2023-06-04T08:22:45.000Z</time>
      </trkpt>
      <trkpt lat="45.64041" lon="4.58901">
        <ele>870.4</ele>
        <time>2023-06-04T08:22:47.000Z</time>
      </trkpt>
      <trkpt lat="45.64042" lon="4.58893">
        <ele>870.2</ele>
        <time>2023-06-04T08:22:48.000Z</time>
      </trkpt>
      <trkpt lat="45.64045" lon="4.58885">
        <ele>869.6</ele>
        <time>2023-06-04T08:22:49.000Z</time>
      </trkpt>
      <trkpt lat="45.64049" lon="4.58877">
        <ele>869</ele>
        <time>2023-06-04T08:22:50.000Z</time>
      </trkpt>
      <trkpt lat="45.64055" lon="4.58867">
        <ele>868.2</ele>
        <time>2023-06-04T08:22:52.000Z</time>
      </trkpt>
      <trkpt lat="45.6406" lon="4.58856">
        <ele>867.8</ele>
        <time>2023-06-04T08:22:54.000Z</time>
      </trkpt>
      <trkpt lat="45.64069" lon="4.58836">
        <ele>866.4</ele>
        <time>2023-06-04T08:22:58.000Z</time>
      </trkpt>
      <trkpt lat="45.64076" lon="4.58819">
        <ele>865</ele>
        <time>2023-06-04T08:23:01.000Z</time>
      </trkpt>
      <trkpt lat="45.64077" lon="4.58814">
        <ele>864.4</ele>
        <time>2023-06-04T08:23:02.000Z</time>
      </trkpt>
      <trkpt lat="45.64078" lon="4.58808">
        <ele>864</ele>
        <time>2023-06-04T08:23:03.000Z</time>
      </trkpt>
      <trkpt lat="45.64082" lon="4.58802">
        <ele>863.2</ele>
        <time>2023-06-04T08:23:05.000Z</time>
      </trkpt>
      <trkpt lat="45.64084" lon="4.58801">
        <ele>862.4</ele>
        <time>2023-06-04T08:23:06.000Z</time>
      </trkpt>
      <trkpt lat="45.64089" lon="4.58802">
        <ele>861.8</ele>
        <time>2023-06-04T08:23:08.000Z</time>
      </trkpt>
      <trkpt lat="45.64092" lon="4.58804">
        <ele>861.4</ele>
        <time>2023-06-04T08:23:09.000Z</time>
      </trkpt>
      <trkpt lat="45.64102" lon="4.58811">
        <ele>860.6</ele>
        <time>2023-06-04T08:23:12.000Z</time>
      </trkpt>
      <trkpt lat="45.64105" lon="4.58812">
        <ele>860.4</ele>
        <time>2023-06-04T08:23:13.000Z</time>
      </trkpt>
      <trkpt lat="45.6411" lon="4.58812">
        <ele>860.2</ele>
        <time>2023-06-04T08:23:14.000Z</time>
      </trkpt>
      <trkpt lat="45.64119" lon="4.58808">
        <ele>859.8</ele>
        <time>2023-06-04T08:23:16.000Z</time>
      </trkpt>
      <trkpt lat="45.64124" lon="4.58806">
        <ele>859.2</ele>
        <time>2023-06-04T08:23:17.000Z</time>
      </trkpt>
      <trkpt lat="45.64139" lon="4.58799">
        <ele>857.6</ele>
        <time>2023-06-04T08:23:20.000Z</time>
      </trkpt>
      <trkpt lat="45.64144" lon="4.58797">
        <ele>857</ele>
        <time>2023-06-04T08:23:21.000Z</time>
      </trkpt>
      <trkpt lat="45.6415" lon="4.58795">
        <ele>856.8</ele>
        <time>2023-06-04T08:23:22.000Z</time>
      </trkpt>
      <trkpt lat="45.64155" lon="4.58793">
        <ele>855.8</ele>
        <time>2023-06-04T08:23:23.000Z</time>
      </trkpt>
      <trkpt lat="45.64161" lon="4.58791">
        <ele>855.4</ele>
        <time>2023-06-04T08:23:24.000Z</time>
      </trkpt>
      <trkpt lat="45.64174" lon="4.58786">
        <ele>853.6</ele>
        <time>2023-06-04T08:23:26.000Z</time>
      </trkpt>
      <trkpt lat="45.64181" lon="4.58783">
        <ele>852.8</ele>
        <time>2023-06-04T08:23:27.000Z</time>
      </trkpt>
      <trkpt lat="45.64188" lon="4.58781">
        <ele>852.2</ele>
        <time>2023-06-04T08:23:28.000Z</time>
      </trkpt>
      <trkpt lat="45.64201" lon="4.58777">
        <ele>850.8</ele>
        <time>2023-06-04T08:23:30.000Z</time>
      </trkpt>
      <trkpt lat="45.64207" lon="4.58774">
        <ele>850.4</ele>
        <time>2023-06-04T08:23:31.000Z</time>
      </trkpt>
      <trkpt lat="45.64218" lon="4.58768">
        <ele>849.8</ele>
        <time>2023-06-04T08:23:33.000Z</time>
      </trkpt>
      <trkpt lat="45.64229" lon="4.5876">
        <ele>848.2</ele>
        <time>2023-06-04T08:23:35.000Z</time>
      </trkpt>
      <trkpt lat="45.64234" lon="4.58755">
        <ele>847</ele>
        <time>2023-06-04T08:23:36.000Z</time>
      </trkpt>
      <trkpt lat="45.64243" lon="4.58744">
        <ele>846</ele>
        <time>2023-06-04T08:23:38.000Z</time>
      </trkpt>
      <trkpt lat="45.64247" lon="4.58738">
        <ele>845.4</ele>
        <time>2023-06-04T08:23:39.000Z</time>
      </trkpt>
      <trkpt lat="45.64249" lon="4.5873">
        <ele>844.8</ele>
        <time>2023-06-04T08:23:40.000Z</time>
      </trkpt>
      <trkpt lat="45.6425" lon="4.58722">
        <ele>844.4</ele>
        <time>2023-06-04T08:23:41.000Z</time>
      </trkpt>
      <trkpt lat="45.64251" lon="4.58706">
        <ele>842.6</ele>
        <time>2023-06-04T08:23:43.000Z</time>
      </trkpt>
      <trkpt lat="45.64252" lon="4.58693">
        <ele>841</ele>
        <time>2023-06-04T08:23:45.000Z</time>
      </trkpt>
      <trkpt lat="45.64247" lon="4.58685">
        <ele>839.6</ele>
        <time>2023-06-04T08:23:47.000Z</time>
      </trkpt>
      <trkpt lat="45.64245" lon="4.58682">
        <ele>838.6</ele>
        <time>2023-06-04T08:23:48.000Z</time>
      </trkpt>
      <trkpt lat="45.64242" lon="4.58679">
        <ele>837.8</ele>
        <time>2023-06-04T08:23:49.000Z</time>
      </trkpt>
      <trkpt lat="45.6424" lon="4.58677">
        <ele>837</ele>
        <time>2023-06-04T08:23:50.000Z</time>
      </trkpt>
      <trkpt lat="45.64235" lon="4.58673">
        <ele>835.4</ele>
        <time>2023-06-04T08:23:52.000Z</time>
      </trkpt>
      <trkpt lat="45.64229" lon="4.58668">
        <ele>834.8</ele>
        <time>2023-06-04T08:23:54.000Z</time>
      </trkpt>
      <trkpt lat="45.64224" lon="4.58662">
        <ele>834.8</ele>
        <time>2023-06-04T08:23:56.000Z</time>
      </trkpt>
      <trkpt lat="45.64213" lon="4.58641">
        <ele>834.8</ele>
        <time>2023-06-04T08:24:02.000Z</time>
      </trkpt>
      <trkpt lat="45.64207" lon="4.58622">
        <ele>835.4</ele>
        <time>2023-06-04T08:24:09.000Z</time>
      </trkpt>
      <trkpt lat="45.64206" lon="4.58617">
        <ele>835.8</ele>
        <time>2023-06-04T08:24:11.000Z</time>
      </trkpt>
      <trkpt lat="45.64205" lon="4.58612">
        <ele>836.6</ele>
        <time>2023-06-04T08:24:13.000Z</time>
      </trkpt>
      <trkpt lat="45.64205" lon="4.58598">
        <ele>837.2</ele>
        <time>2023-06-04T08:24:17.000Z</time>
      </trkpt>
      <trkpt lat="45.64208" lon="4.58569">
        <ele>837.4</ele>
        <time>2023-06-04T08:24:22.000Z</time>
      </trkpt>
      <trkpt lat="45.64209" lon="4.58547">
        <ele>837.4</ele>
        <time>2023-06-04T08:24:25.000Z</time>
      </trkpt>
      <trkpt lat="45.64207" lon="4.58533">
        <ele>837.2</ele>
        <time>2023-06-04T08:24:27.000Z</time>
      </trkpt>
      <trkpt lat="45.64204" lon="4.58517">
        <ele>836.4</ele>
        <time>2023-06-04T08:24:31.000Z</time>
      </trkpt>
      <trkpt lat="45.64196" lon="4.58501">
        <ele>836.4</ele>
        <time>2023-06-04T08:24:37.000Z</time>
      </trkpt>
      <trkpt lat="45.64187" lon="4.58487">
        <ele>836.8</ele>
        <time>2023-06-04T08:24:44.000Z</time>
      </trkpt>
      <trkpt lat="45.64182" lon="4.58476">
        <ele>837.8</ele>
        <time>2023-06-04T08:24:50.000Z</time>
      </trkpt>
      <trkpt lat="45.6418" lon="4.58474">
        <ele>838</ele>
        <time>2023-06-04T08:24:51.000Z</time>
      </trkpt>
      <trkpt lat="45.64176" lon="4.58467">
        <ele>838.6</ele>
        <time>2023-06-04T08:24:55.000Z</time>
      </trkpt>
      <trkpt lat="45.64174" lon="4.58464">
        <ele>839</ele>
        <time>2023-06-04T08:24:57.000Z</time>
      </trkpt>
      <trkpt lat="45.64168" lon="4.58455">
        <ele>839.4</ele>
        <time>2023-06-04T08:25:02.000Z</time>
      </trkpt>
      <trkpt lat="45.64166" lon="4.58449">
        <ele>840</ele>
        <time>2023-06-04T08:25:06.000Z</time>
      </trkpt>
      <trkpt lat="45.64164" lon="4.58444">
        <ele>840.4</ele>
        <time>2023-06-04T08:25:09.000Z</time>
      </trkpt>
      <trkpt lat="45.64163" lon="4.58441">
        <ele>840.8</ele>
        <time>2023-06-04T08:25:11.000Z</time>
      </trkpt>
      <trkpt lat="45.64161" lon="4.58438">
        <ele>841</ele>
        <time>2023-06-04T08:25:13.000Z</time>
      </trkpt>
      <trkpt lat="45.64161" lon="4.58437">
        <ele>841.2</ele>
        <time>2023-06-04T08:25:14.000Z</time>
      </trkpt>
      <trkpt lat="45.64159" lon="4.58426">
        <ele>842.2</ele>
        <time>2023-06-04T08:25:19.000Z</time>
      </trkpt>
      <trkpt lat="45.64161" lon="4.58411">
        <ele>843.2</ele>
        <time>2023-06-04T08:25:26.000Z</time>
      </trkpt>
      <trkpt lat="45.64161" lon="4.58408">
        <ele>843.4</ele>
        <time>2023-06-04T08:25:27.000Z</time>
      </trkpt>
      <trkpt lat="45.64166" lon="4.58387">
        <ele>844</ele>
        <time>2023-06-04T08:25:34.000Z</time>
      </trkpt>
      <trkpt lat="45.64171" lon="4.58369">
        <ele>844</ele>
        <time>2023-06-04T08:25:39.000Z</time>
      </trkpt>
      <trkpt lat="45.64172" lon="4.58364">
        <ele>844</ele>
        <time>2023-06-04T08:25:40.000Z</time>
      </trkpt>
      <trkpt lat="45.64176" lon="4.58348">
        <ele>844.2</ele>
        <time>2023-06-04T08:25:44.000Z</time>
      </trkpt>
      <trkpt lat="45.64178" lon="4.58329">
        <ele>844.4</ele>
        <time>2023-06-04T08:25:49.000Z</time>
      </trkpt>
      <trkpt lat="45.64179" lon="4.58318">
        <ele>844.4</ele>
        <time>2023-06-04T08:25:52.000Z</time>
      </trkpt>
      <trkpt lat="45.64183" lon="4.58309">
        <ele>844.4</ele>
        <time>2023-06-04T08:25:54.000Z</time>
      </trkpt>
      <trkpt lat="45.64188" lon="4.58287">
        <ele>845</ele>
        <time>2023-06-04T08:26:00.000Z</time>
      </trkpt>
      <trkpt lat="45.64193" lon="4.58271">
        <ele>845.6</ele>
        <time>2023-06-04T08:26:03.000Z</time>
      </trkpt>
      <trkpt lat="45.64195" lon="4.58262">
        <ele>845.8</ele>
        <time>2023-06-04T08:26:05.000Z</time>
      </trkpt>
      <trkpt lat="45.64195" lon="4.58258">
        <ele>846</ele>
        <time>2023-06-04T08:26:06.000Z</time>
      </trkpt>
      <trkpt lat="45.64194" lon="4.58255">
        <ele>846</ele>
        <time>2023-06-04T08:26:07.000Z</time>
      </trkpt>
      <trkpt lat="45.64197" lon="4.58229">
        <ele>846.2</ele>
        <time>2023-06-04T08:26:14.000Z</time>
      </trkpt>
      <trkpt lat="45.64202" lon="4.58204">
        <ele>846.2</ele>
        <time>2023-06-04T08:26:18.000Z</time>
      </trkpt>
      <trkpt lat="45.64207" lon="4.58167">
        <ele>844.4</ele>
        <time>2023-06-04T08:26:24.000Z</time>
      </trkpt>
      <trkpt lat="45.64207" lon="4.58163">
        <ele>844.4</ele>
        <time>2023-06-04T08:26:25.000Z</time>
      </trkpt>
      <trkpt lat="45.64213" lon="4.58141">
        <ele>843.8</ele>
        <time>2023-06-04T08:26:29.000Z</time>
      </trkpt>
      <trkpt lat="45.64217" lon="4.58125">
        <ele>843.8</ele>
        <time>2023-06-04T08:26:31.000Z</time>
      </trkpt>
      <trkpt lat="45.6422" lon="4.58109">
        <ele>843.6</ele>
        <time>2023-06-04T08:26:33.000Z</time>
      </trkpt>
      <trkpt lat="45.64222" lon="4.58102">
        <ele>843.6</ele>
        <time>2023-06-04T08:26:34.000Z</time>
      </trkpt>
      <trkpt lat="45.64222" lon="4.58081">
        <ele>843.4</ele>
        <time>2023-06-04T08:26:36.000Z</time>
      </trkpt>
      <trkpt lat="45.64221" lon="4.58071">
        <ele>843.2</ele>
        <time>2023-06-04T08:26:37.000Z</time>
      </trkpt>
      <trkpt lat="45.64219" lon="4.58055">
        <ele>842.2</ele>
        <time>2023-06-04T08:26:39.000Z</time>
      </trkpt>
      <trkpt lat="45.64222" lon="4.58039">
        <ele>840.8</ele>
        <time>2023-06-04T08:26:41.000Z</time>
      </trkpt>
      <trkpt lat="45.64227" lon="4.58025">
        <ele>839.4</ele>
        <time>2023-06-04T08:26:43.000Z</time>
      </trkpt>
      <trkpt lat="45.64232" lon="4.58018">
        <ele>839</ele>
        <time>2023-06-04T08:26:44.000Z</time>
      </trkpt>
      <trkpt lat="45.64237" lon="4.58015">
        <ele>838.4</ele>
        <time>2023-06-04T08:26:45.000Z</time>
      </trkpt>
      <trkpt lat="45.64244" lon="4.58012">
        <ele>837.2</ele>
        <time>2023-06-04T08:26:47.000Z</time>
      </trkpt>
      <trkpt lat="45.64245" lon="4.58011">
        <ele>836.8</ele>
        <time>2023-06-04T08:26:48.000Z</time>
      </trkpt>
      <trkpt lat="45.64247" lon="4.58008">
        <ele>836</ele>
        <time>2023-06-04T08:26:49.000Z</time>
      </trkpt>
      <trkpt lat="45.64248" lon="4.58004">
        <ele>835</ele>
        <time>2023-06-04T08:26:50.000Z</time>
      </trkpt>
      <trkpt lat="45.64247" lon="4.58001">
        <ele>833.8</ele>
        <time>2023-06-04T08:26:51.000Z</time>
      </trkpt>
      <trkpt lat="45.64246" lon="4.57997">
        <ele>832.4</ele>
        <time>2023-06-04T08:26:52.000Z</time>
      </trkpt>
      <trkpt lat="45.64245" lon="4.5799">
        <ele>831.2</ele>
        <time>2023-06-04T08:26:54.000Z</time>
      </trkpt>
      <trkpt lat="45.64247" lon="4.57985">
        <ele>830.2</ele>
        <time>2023-06-04T08:26:55.000Z</time>
      </trkpt>
      <trkpt lat="45.6425" lon="4.57982">
        <ele>829.4</ele>
        <time>2023-06-04T08:26:56.000Z</time>
      </trkpt>
      <trkpt lat="45.64261" lon="4.57972">
        <ele>828.2</ele>
        <time>2023-06-04T08:26:59.000Z</time>
      </trkpt>
      <trkpt lat="45.64277" lon="4.57968">
        <ele>827.6</ele>
        <time>2023-06-04T08:27:03.000Z</time>
      </trkpt>
      <trkpt lat="45.64287" lon="4.57967">
        <ele>827</ele>
        <time>2023-06-04T08:27:05.000Z</time>
      </trkpt>
      <trkpt lat="45.64296" lon="4.57968">
        <ele>826</ele>
        <time>2023-06-04T08:27:07.000Z</time>
      </trkpt>
      <trkpt lat="45.64302" lon="4.57967">
        <ele>825.2</ele>
        <time>2023-06-04T08:27:09.000Z</time>
      </trkpt>
      <trkpt lat="45.64305" lon="4.57967">
        <ele>824.6</ele>
        <time>2023-06-04T08:27:10.000Z</time>
      </trkpt>
      <trkpt lat="45.64309" lon="4.57966">
        <ele>823.2</ele>
        <time>2023-06-04T08:27:12.000Z</time>
      </trkpt>
      <trkpt lat="45.64311" lon="4.57966">
        <ele>822</ele>
        <time>2023-06-04T08:27:13.000Z</time>
      </trkpt>
      <trkpt lat="45.64316" lon="4.57965">
        <ele>821.2</ele>
        <time>2023-06-04T08:27:15.000Z</time>
      </trkpt>
      <trkpt lat="45.6432" lon="4.57964">
        <ele>820.8</ele>
        <time>2023-06-04T08:27:17.000Z</time>
      </trkpt>
      <trkpt lat="45.64325" lon="4.57962">
        <ele>819.2</ele>
        <time>2023-06-04T08:27:19.000Z</time>
      </trkpt>
      <trkpt lat="45.64329" lon="4.57958">
        <ele>818</ele>
        <time>2023-06-04T08:27:21.000Z</time>
      </trkpt>
      <trkpt lat="45.64332" lon="4.57945">
        <ele>816.2</ele>
        <time>2023-06-04T08:27:24.000Z</time>
      </trkpt>
      <trkpt lat="45.64332" lon="4.5794">
        <ele>815.2</ele>
        <time>2023-06-04T08:27:25.000Z</time>
      </trkpt>
      <trkpt lat="45.64332" lon="4.5793">
        <ele>813.8</ele>
        <time>2023-06-04T08:27:27.000Z</time>
      </trkpt>
      <trkpt lat="45.64332" lon="4.57924">
        <ele>813.2</ele>
        <time>2023-06-04T08:27:28.000Z</time>
      </trkpt>
      <trkpt lat="45.64331" lon="4.57919">
        <ele>812.8</ele>
        <time>2023-06-04T08:27:29.000Z</time>
      </trkpt>
      <trkpt lat="45.64331" lon="4.57915">
        <ele>812.2</ele>
        <time>2023-06-04T08:27:30.000Z</time>
      </trkpt>
      <trkpt lat="45.64331" lon="4.57911">
        <ele>811.6</ele>
        <time>2023-06-04T08:27:31.000Z</time>
      </trkpt>
      <trkpt lat="45.6433" lon="4.57906">
        <ele>810.8</ele>
        <time>2023-06-04T08:27:32.000Z</time>
      </trkpt>
      <trkpt lat="45.6433" lon="4.57901">
        <ele>810.2</ele>
        <time>2023-06-04T08:27:33.000Z</time>
      </trkpt>
      <trkpt lat="45.6433" lon="4.57891">
        <ele>809</ele>
        <time>2023-06-04T08:27:35.000Z</time>
      </trkpt>
      <trkpt lat="45.6433" lon="4.57886">
        <ele>808.2</ele>
        <time>2023-06-04T08:27:36.000Z</time>
      </trkpt>
      <trkpt lat="45.6433" lon="4.5788">
        <ele>807.8</ele>
        <time>2023-06-04T08:27:37.000Z</time>
      </trkpt>
      <trkpt lat="45.64329" lon="4.57855">
        <ele>806.6</ele>
        <time>2023-06-04T08:27:41.000Z</time>
      </trkpt>
      <trkpt lat="45.64329" lon="4.57849">
        <ele>806</ele>
        <time>2023-06-04T08:27:42.000Z</time>
      </trkpt>
      <trkpt lat="45.64328" lon="4.57844">
        <ele>805.2</ele>
        <time>2023-06-04T08:27:43.000Z</time>
      </trkpt>
      <trkpt lat="45.64326" lon="4.57831">
        <ele>804.2</ele>
        <time>2023-06-04T08:27:45.000Z</time>
      </trkpt>
      <trkpt lat="45.64324" lon="4.57821">
        <ele>802.8</ele>
        <time>2023-06-04T08:27:47.000Z</time>
      </trkpt>
      <trkpt lat="45.64323" lon="4.5781">
        <ele>801.6</ele>
        <time>2023-06-04T08:27:49.000Z</time>
      </trkpt>
      <trkpt lat="45.64323" lon="4.57799">
        <ele>800.4</ele>
        <time>2023-06-04T08:27:51.000Z</time>
      </trkpt>
      <trkpt lat="45.64323" lon="4.5779">
        <ele>799.4</ele>
        <time>2023-06-04T08:27:53.000Z</time>
      </trkpt>
      <trkpt lat="45.64323" lon="4.5778">
        <ele>798.4</ele>
        <time>2023-06-04T08:27:55.000Z</time>
      </trkpt>
      <trkpt lat="45.64322" lon="4.57775">
        <ele>797.8</ele>
        <time>2023-06-04T08:27:56.000Z</time>
      </trkpt>
      <trkpt lat="45.64322" lon="4.57765">
        <ele>797</ele>
        <time>2023-06-04T08:27:58.000Z</time>
      </trkpt>
      <trkpt lat="45.64324" lon="4.57743">
        <ele>796.2</ele>
        <time>2023-06-04T08:28:01.000Z</time>
      </trkpt>
      <trkpt lat="45.64325" lon="4.57738">
        <ele>796</ele>
        <time>2023-06-04T08:28:02.000Z</time>
      </trkpt>
      <trkpt lat="45.64326" lon="4.57731">
        <ele>795.4</ele>
        <time>2023-06-04T08:28:03.000Z</time>
      </trkpt>
      <trkpt lat="45.6433" lon="4.57712">
        <ele>794.6</ele>
        <time>2023-06-04T08:28:05.000Z</time>
      </trkpt>
      <trkpt lat="45.64332" lon="4.57693">
        <ele>793.6</ele>
        <time>2023-06-04T08:28:07.000Z</time>
      </trkpt>
      <trkpt lat="45.64334" lon="4.57684">
        <ele>793</ele>
        <time>2023-06-04T08:28:08.000Z</time>
      </trkpt>
      <trkpt lat="45.64336" lon="4.5766">
        <ele>791.6</ele>
        <time>2023-06-04T08:28:11.000Z</time>
      </trkpt>
      <trkpt lat="45.64339" lon="4.57643">
        <ele>790.2</ele>
        <time>2023-06-04T08:28:13.000Z</time>
      </trkpt>
      <trkpt lat="45.64341" lon="4.57629">
        <ele>789</ele>
        <time>2023-06-04T08:28:15.000Z</time>
      </trkpt>
      <trkpt lat="45.64343" lon="4.57591">
        <ele>787.8</ele>
        <time>2023-06-04T08:28:19.000Z</time>
      </trkpt>
      <trkpt lat="45.64344" lon="4.57582">
        <ele>787.6</ele>
        <time>2023-06-04T08:28:20.000Z</time>
      </trkpt>
      <trkpt lat="45.64343" lon="4.57572">
        <ele>787</ele>
        <time>2023-06-04T08:28:21.000Z</time>
      </trkpt>
      <trkpt lat="45.64342" lon="4.57564">
        <ele>786.4</ele>
        <time>2023-06-04T08:28:22.000Z</time>
      </trkpt>
      <trkpt lat="45.6434" lon="4.57555">
        <ele>785.8</ele>
        <time>2023-06-04T08:28:23.000Z</time>
      </trkpt>
      <trkpt lat="45.64338" lon="4.57546">
        <ele>785.2</ele>
        <time>2023-06-04T08:28:24.000Z</time>
      </trkpt>
      <trkpt lat="45.64333" lon="4.57529">
        <ele>784.2</ele>
        <time>2023-06-04T08:28:26.000Z</time>
      </trkpt>
      <trkpt lat="45.64329" lon="4.57521">
        <ele>783.6</ele>
        <time>2023-06-04T08:28:27.000Z</time>
      </trkpt>
      <trkpt lat="45.64325" lon="4.57513">
        <ele>783.2</ele>
        <time>2023-06-04T08:28:28.000Z</time>
      </trkpt>
      <trkpt lat="45.64321" lon="4.57506">
        <ele>782.8</ele>
        <time>2023-06-04T08:28:29.000Z</time>
      </trkpt>
      <trkpt lat="45.64312" lon="4.57492">
        <ele>782</ele>
        <time>2023-06-04T08:28:31.000Z</time>
      </trkpt>
      <trkpt lat="45.64303" lon="4.57478">
        <ele>781</ele>
        <time>2023-06-04T08:28:33.000Z</time>
      </trkpt>
      <trkpt lat="45.643" lon="4.57472">
        <ele>780.6</ele>
        <time>2023-06-04T08:28:34.000Z</time>
      </trkpt>
      <trkpt lat="45.64296" lon="4.57465">
        <ele>780.4</ele>
        <time>2023-06-04T08:28:35.000Z</time>
      </trkpt>
      <trkpt lat="45.64292" lon="4.57456">
        <ele>779.6</ele>
        <time>2023-06-04T08:28:36.000Z</time>
      </trkpt>
      <trkpt lat="45.64287" lon="4.57443">
        <ele>778.6</ele>
        <time>2023-06-04T08:28:38.000Z</time>
      </trkpt>
      <trkpt lat="45.64286" lon="4.57438">
        <ele>778.2</ele>
        <time>2023-06-04T08:28:39.000Z</time>
      </trkpt>
      <trkpt lat="45.64287" lon="4.57434">
        <ele>777.8</ele>
        <time>2023-06-04T08:28:40.000Z</time>
      </trkpt>
      <trkpt lat="45.64288" lon="4.57431">
        <ele>777.2</ele>
        <time>2023-06-04T08:28:41.000Z</time>
      </trkpt>
      <trkpt lat="45.6429" lon="4.57429">
        <ele>776.8</ele>
        <time>2023-06-04T08:28:42.000Z</time>
      </trkpt>
      <trkpt lat="45.64293" lon="4.57428">
        <ele>776</ele>
        <time>2023-06-04T08:28:43.000Z</time>
      </trkpt>
      <trkpt lat="45.64299" lon="4.57427">
        <ele>774</ele>
        <time>2023-06-04T08:28:45.000Z</time>
      </trkpt>
      <trkpt lat="45.64306" lon="4.57427">
        <ele>773.2</ele>
        <time>2023-06-04T08:28:47.000Z</time>
      </trkpt>
      <trkpt lat="45.6431" lon="4.57427">
        <ele>772.8</ele>
        <time>2023-06-04T08:28:48.000Z</time>
      </trkpt>
      <trkpt lat="45.64315" lon="4.57426">
        <ele>771.6</ele>
        <time>2023-06-04T08:28:50.000Z</time>
      </trkpt>
      <trkpt lat="45.6433" lon="4.57422">
        <ele>771</ele>
        <time>2023-06-04T08:28:55.000Z</time>
      </trkpt>
      <trkpt lat="45.64344" lon="4.57417">
        <ele>770.8</ele>
        <time>2023-06-04T08:29:01.000Z</time>
      </trkpt>
      <trkpt lat="45.64348" lon="4.57415">
        <ele>771</ele>
        <time>2023-06-04T08:29:04.000Z</time>
      </trkpt>
      <trkpt lat="45.64351" lon="4.57414">
        <ele>771.4</ele>
        <time>2023-06-04T08:29:06.000Z</time>
      </trkpt>
      <trkpt lat="45.64354" lon="4.57412">
        <ele>771.8</ele>
        <time>2023-06-04T08:29:08.000Z</time>
      </trkpt>
      <trkpt lat="45.6436" lon="4.57406">
        <ele>772.8</ele>
        <time>2023-06-04T08:29:13.000Z</time>
      </trkpt>
      <trkpt lat="45.64362" lon="4.57404">
        <ele>773.2</ele>
        <time>2023-06-04T08:29:15.000Z</time>
      </trkpt>
      <trkpt lat="45.64364" lon="4.57401">
        <ele>774</ele>
        <time>2023-06-04T08:29:18.000Z</time>
      </trkpt>
      <trkpt lat="45.64369" lon="4.57397">
        <ele>775.2</ele>
        <time>2023-06-04T08:29:22.000Z</time>
      </trkpt>
      <trkpt lat="45.64373" lon="4.57391">
        <ele>776.2</ele>
        <time>2023-06-04T08:29:26.000Z</time>
      </trkpt>
      <trkpt lat="45.64378" lon="4.57385">
        <ele>777</ele>
        <time>2023-06-04T08:29:31.000Z</time>
      </trkpt>
      <trkpt lat="45.64379" lon="4.57384">
        <ele>777</ele>
        <time>2023-06-04T08:29:32.000Z</time>
      </trkpt>
      <trkpt lat="45.6438" lon="4.57383">
        <ele>777.4</ele>
        <time>2023-06-04T08:29:33.000Z</time>
      </trkpt>
      <trkpt lat="45.64382" lon="4.57381">
        <ele>777.8</ele>
        <time>2023-06-04T08:29:35.000Z</time>
      </trkpt>
      <trkpt lat="45.64386" lon="4.57378">
        <ele>778.4</ele>
        <time>2023-06-04T08:29:38.000Z</time>
      </trkpt>
      <trkpt lat="45.64388" lon="4.57376">
        <ele>778.8</ele>
        <time>2023-06-04T08:29:40.000Z</time>
      </trkpt>
      <trkpt lat="45.64393" lon="4.57374">
        <ele>779.6</ele>
        <time>2023-06-04T08:29:43.000Z</time>
      </trkpt>
      <trkpt lat="45.64396" lon="4.57374">
        <ele>780.6</ele>
        <time>2023-06-04T08:29:47.000Z</time>
      </trkpt>
      <trkpt lat="45.64398" lon="4.57374">
        <ele>781</ele>
        <time>2023-06-04T08:29:48.000Z</time>
      </trkpt>
      <trkpt lat="45.644" lon="4.57376">
        <ele>781.6</ele>
        <time>2023-06-04T08:29:50.000Z</time>
      </trkpt>
      <trkpt lat="45.64408" lon="4.57379">
        <ele>782.6</ele>
        <time>2023-06-04T08:29:57.000Z</time>
      </trkpt>
      <trkpt lat="45.64414" lon="4.57382">
        <ele>783.4</ele>
        <time>2023-06-04T08:30:02.000Z</time>
      </trkpt>
      <trkpt lat="45.64417" lon="4.57381">
        <ele>783.8</ele>
        <time>2023-06-04T08:30:04.000Z</time>
      </trkpt>
      <trkpt lat="45.64426" lon="4.57384">
        <ele>784.8</ele>
        <time>2023-06-04T08:30:11.000Z</time>
      </trkpt>
      <trkpt lat="45.6443" lon="4.57385">
        <ele>785.2</ele>
        <time>2023-06-04T08:30:14.000Z</time>
      </trkpt>
      <trkpt lat="45.64433" lon="4.57385">
        <ele>785.4</ele>
        <time>2023-06-04T08:30:16.000Z</time>
      </trkpt>
      <trkpt lat="45.64437" lon="4.57386">
        <ele>785.8</ele>
        <time>2023-06-04T08:30:19.000Z</time>
      </trkpt>
      <trkpt lat="45.64438" lon="4.57386">
        <ele>786</ele>
        <time>2023-06-04T08:30:20.000Z</time>
      </trkpt>
      <trkpt lat="45.64447" lon="4.57386">
        <ele>786.8</ele>
        <time>2023-06-04T08:30:27.000Z</time>
      </trkpt>
      <trkpt lat="45.64452" lon="4.57386">
        <ele>787.4</ele>
        <time>2023-06-04T08:30:31.000Z</time>
      </trkpt>
      <trkpt lat="45.64456" lon="4.57386">
        <ele>788</ele>
        <time>2023-06-04T08:30:34.000Z</time>
      </trkpt>
      <trkpt lat="45.64461" lon="4.57384">
        <ele>788.4</ele>
        <time>2023-06-04T08:30:37.000Z</time>
      </trkpt>
      <trkpt lat="45.64464" lon="4.57383">
        <ele>788.6</ele>
        <time>2023-06-04T08:30:39.000Z</time>
      </trkpt>
      <trkpt lat="45.64471" lon="4.57379">
        <ele>789</ele>
        <time>2023-06-04T08:30:43.000Z</time>
      </trkpt>
      <trkpt lat="45.64481" lon="4.57371">
        <ele>790</ele>
        <time>2023-06-04T08:30:49.000Z</time>
      </trkpt>
      <trkpt lat="45.64482" lon="4.57369">
        <ele>790</ele>
        <time>2023-06-04T08:30:50.000Z</time>
      </trkpt>
      <trkpt lat="45.64493" lon="4.57361">
        <ele>791</ele>
        <time>2023-06-04T08:30:56.000Z</time>
      </trkpt>
      <trkpt lat="45.64495" lon="4.5736">
        <ele>791</ele>
        <time>2023-06-04T08:30:57.000Z</time>
      </trkpt>
      <trkpt lat="45.645" lon="4.57355">
        <ele>791.6</ele>
        <time>2023-06-04T08:31:00.000Z</time>
      </trkpt>
      <trkpt lat="45.64502" lon="4.57354">
        <ele>791.6</ele>
        <time>2023-06-04T08:31:01.000Z</time>
      </trkpt>
      <trkpt lat="45.64511" lon="4.57348">
        <ele>792.2</ele>
        <time>2023-06-04T08:31:06.000Z</time>
      </trkpt>
      <trkpt lat="45.64516" lon="4.57343">
        <ele>792.6</ele>
        <time>2023-06-04T08:31:09.000Z</time>
      </trkpt>
      <trkpt lat="45.64524" lon="4.57337">
        <ele>793.2</ele>
        <time>2023-06-04T08:31:13.000Z</time>
      </trkpt>
      <trkpt lat="45.64526" lon="4.57336">
        <ele>793.2</ele>
        <time>2023-06-04T08:31:14.000Z</time>
      </trkpt>
      <trkpt lat="45.64534" lon="4.57328">
        <ele>794.2</ele>
        <time>2023-06-04T08:31:19.000Z</time>
      </trkpt>
      <trkpt lat="45.64536" lon="4.57327">
        <ele>794.4</ele>
        <time>2023-06-04T08:31:20.000Z</time>
      </trkpt>
      <trkpt lat="45.64544" lon="4.57321">
        <ele>795.2</ele>
        <time>2023-06-04T08:31:24.000Z</time>
      </trkpt>
      <trkpt lat="45.64546" lon="4.5732">
        <ele>795.4</ele>
        <time>2023-06-04T08:31:25.000Z</time>
      </trkpt>
      <trkpt lat="45.6455" lon="4.57316">
        <ele>795.8</ele>
        <time>2023-06-04T08:31:27.000Z</time>
      </trkpt>
      <trkpt lat="45.64559" lon="4.57309">
        <ele>796.6</ele>
        <time>2023-06-04T08:31:31.000Z</time>
      </trkpt>
      <trkpt lat="45.64568" lon="4.57302">
        <ele>797</ele>
        <time>2023-06-04T08:31:35.000Z</time>
      </trkpt>
      <trkpt lat="45.64586" lon="4.57289">
        <ele>797.6</ele>
        <time>2023-06-04T08:31:42.000Z</time>
      </trkpt>
      <trkpt lat="45.64593" lon="4.57284">
        <ele>798</ele>
        <time>2023-06-04T08:31:45.000Z</time>
      </trkpt>
      <trkpt lat="45.6461" lon="4.5727">
        <ele>798.4</ele>
        <time>2023-06-04T08:31:51.000Z</time>
      </trkpt>
      <trkpt lat="45.64619" lon="4.57264">
        <ele>798.8</ele>
        <time>2023-06-04T08:31:54.000Z</time>
      </trkpt>
      <trkpt lat="45.64621" lon="4.57261">
        <ele>799</ele>
        <time>2023-06-04T08:31:55.000Z</time>
      </trkpt>
      <trkpt lat="45.64638" lon="4.5725">
        <ele>799.4</ele>
        <time>2023-06-04T08:32:00.000Z</time>
      </trkpt>
      <trkpt lat="45.6466" lon="4.57234">
        <ele>799.8</ele>
        <time>2023-06-04T08:32:07.000Z</time>
      </trkpt>
      <trkpt lat="45.64686" lon="4.57216">
        <ele>799.8</ele>
        <time>2023-06-04T08:32:13.000Z</time>
      </trkpt>
      <trkpt lat="45.64699" lon="4.57207">
        <ele>799.8</ele>
        <time>2023-06-04T08:32:16.000Z</time>
      </trkpt>
      <trkpt lat="45.64711" lon="4.57199">
        <ele>799.6</ele>
        <time>2023-06-04T08:32:19.000Z</time>
      </trkpt>
      <trkpt lat="45.6474" lon="4.57181">
        <ele>798.8</ele>
        <time>2023-06-04T08:32:26.000Z</time>
      </trkpt>
      <trkpt lat="45.64772" lon="4.57153">
        <ele>798.6</ele>
        <time>2023-06-04T08:32:33.000Z</time>
      </trkpt>
      <trkpt lat="45.64806" lon="4.57114">
        <ele>798.4</ele>
        <time>2023-06-04T08:32:40.000Z</time>
      </trkpt>
      <trkpt lat="45.64826" lon="4.57083">
        <ele>797.8</ele>
        <time>2023-06-04T08:32:45.000Z</time>
      </trkpt>
      <trkpt lat="45.64842" lon="4.57057">
        <ele>796.6</ele>
        <time>2023-06-04T08:32:49.000Z</time>
      </trkpt>
      <trkpt lat="45.64851" lon="4.57044">
        <ele>796.2</ele>
        <time>2023-06-04T08:32:51.000Z</time>
      </trkpt>
      <trkpt lat="45.6487" lon="4.57022">
        <ele>795.8</ele>
        <time>2023-06-04T08:32:55.000Z</time>
      </trkpt>
      <trkpt lat="45.64875" lon="4.57017">
        <ele>795.6</ele>
        <time>2023-06-04T08:32:56.000Z</time>
      </trkpt>
      <trkpt lat="45.64902" lon="4.56982">
        <ele>794.4</ele>
        <time>2023-06-04T08:33:02.000Z</time>
      </trkpt>
      <trkpt lat="45.64906" lon="4.56975">
        <ele>794.2</ele>
        <time>2023-06-04T08:33:03.000Z</time>
      </trkpt>
      <trkpt lat="45.64924" lon="4.56939">
        <ele>793.2</ele>
        <time>2023-06-04T08:33:08.000Z</time>
      </trkpt>
      <trkpt lat="45.64929" lon="4.5693">
        <ele>793</ele>
        <time>2023-06-04T08:33:09.000Z</time>
      </trkpt>
      <trkpt lat="45.64952" lon="4.56884">
        <ele>792.2</ele>
        <time>2023-06-04T08:33:15.000Z</time>
      </trkpt>
      <trkpt lat="45.64956" lon="4.56876">
        <ele>792</ele>
        <time>2023-06-04T08:33:16.000Z</time>
      </trkpt>
      <trkpt lat="45.64996" lon="4.5681">
        <ele>791.2</ele>
        <time>2023-06-04T08:33:25.000Z</time>
      </trkpt>
      <trkpt lat="45.65" lon="4.56805">
        <ele>791.2</ele>
        <time>2023-06-04T08:33:26.000Z</time>
      </trkpt>
      <trkpt lat="45.65028" lon="4.56772">
        <ele>790</ele>
        <time>2023-06-04T08:33:31.000Z</time>
      </trkpt>
      <trkpt lat="45.65039" lon="4.5676">
        <ele>789.8</ele>
        <time>2023-06-04T08:33:33.000Z</time>
      </trkpt>
      <trkpt lat="45.65056" lon="4.56743">
        <ele>789</ele>
        <time>2023-06-04T08:33:36.000Z</time>
      </trkpt>
      <trkpt lat="45.65075" lon="4.56721">
        <ele>788.6</ele>
        <time>2023-06-04T08:33:39.000Z</time>
      </trkpt>
      <trkpt lat="45.65089" lon="4.56706">
        <ele>788.2</ele>
        <time>2023-06-04T08:33:41.000Z</time>
      </trkpt>
      <trkpt lat="45.65104" lon="4.5669">
        <ele>788</ele>
        <time>2023-06-04T08:33:43.000Z</time>
      </trkpt>
      <trkpt lat="45.65127" lon="4.56668">
        <ele>786.8</ele>
        <time>2023-06-04T08:33:46.000Z</time>
      </trkpt>
      <trkpt lat="45.6514" lon="4.5666">
        <ele>786</ele>
        <time>2023-06-04T08:33:48.000Z</time>
      </trkpt>
      <trkpt lat="45.65145" lon="4.56659">
        <ele>785</ele>
        <time>2023-06-04T08:33:49.000Z</time>
      </trkpt>
      <trkpt lat="45.65153" lon="4.56659">
        <ele>784.2</ele>
        <time>2023-06-04T08:33:50.000Z</time>
      </trkpt>
      <trkpt lat="45.65159" lon="4.56659">
        <ele>783.2</ele>
        <time>2023-06-04T08:33:51.000Z</time>
      </trkpt>
      <trkpt lat="45.65166" lon="4.5666">
        <ele>782</ele>
        <time>2023-06-04T08:33:52.000Z</time>
      </trkpt>
      <trkpt lat="45.65173" lon="4.5666">
        <ele>781.2</ele>
        <time>2023-06-04T08:33:53.000Z</time>
      </trkpt>
      <trkpt lat="45.65179" lon="4.5666">
        <ele>780.8</ele>
        <time>2023-06-04T08:33:54.000Z</time>
      </trkpt>
      <trkpt lat="45.65195" lon="4.5666">
        <ele>780.2</ele>
        <time>2023-06-04T08:33:56.000Z</time>
      </trkpt>
      <trkpt lat="45.65209" lon="4.56659">
        <ele>779.4</ele>
        <time>2023-06-04T08:33:58.000Z</time>
      </trkpt>
      <trkpt lat="45.65214" lon="4.56658">
        <ele>779</ele>
        <time>2023-06-04T08:33:59.000Z</time>
      </trkpt>
      <trkpt lat="45.65218" lon="4.56657">
        <ele>778.4</ele>
        <time>2023-06-04T08:34:00.000Z</time>
      </trkpt>
      <trkpt lat="45.65221" lon="4.56656">
        <ele>777.6</ele>
        <time>2023-06-04T08:34:01.000Z</time>
      </trkpt>
      <trkpt lat="45.65229" lon="4.56655">
        <ele>776.2</ele>
        <time>2023-06-04T08:34:03.000Z</time>
      </trkpt>
      <trkpt lat="45.65233" lon="4.56654">
        <ele>776</ele>
        <time>2023-06-04T08:34:04.000Z</time>
      </trkpt>
      <trkpt lat="45.65249" lon="4.56652">
        <ele>775.6</ele>
        <time>2023-06-04T08:34:07.000Z</time>
      </trkpt>
      <trkpt lat="45.65254" lon="4.56651">
        <ele>775.4</ele>
        <time>2023-06-04T08:34:08.000Z</time>
      </trkpt>
      <trkpt lat="45.65283" lon="4.56647">
        <ele>775.4</ele>
        <time>2023-06-04T08:34:13.000Z</time>
      </trkpt>
      <trkpt lat="45.65299" lon="4.56645">
        <ele>774.4</ele>
        <time>2023-06-04T08:34:16.000Z</time>
      </trkpt>
      <trkpt lat="45.65322" lon="4.56643">
        <ele>774.2</ele>
        <time>2023-06-04T08:34:20.000Z</time>
      </trkpt>
      <trkpt lat="45.65338" lon="4.56642">
        <ele>774</ele>
        <time>2023-06-04T08:34:23.000Z</time>
      </trkpt>
      <trkpt lat="45.65361" lon="4.56646">
        <ele>773.8</ele>
        <time>2023-06-04T08:34:28.000Z</time>
      </trkpt>
      <trkpt lat="45.65365" lon="4.56646">
        <ele>773.8</ele>
        <time>2023-06-04T08:34:29.000Z</time>
      </trkpt>
      <trkpt lat="45.65369" lon="4.56644">
        <ele>773.8</ele>
        <time>2023-06-04T08:34:30.000Z</time>
      </trkpt>
      <trkpt lat="45.65381" lon="4.56636">
        <ele>773.6</ele>
        <time>2023-06-04T08:34:33.000Z</time>
      </trkpt>
      <trkpt lat="45.65387" lon="4.5663">
        <ele>773.2</ele>
        <time>2023-06-04T08:34:35.000Z</time>
      </trkpt>
      <trkpt lat="45.65398" lon="4.56619">
        <ele>773</ele>
        <time>2023-06-04T08:34:38.000Z</time>
      </trkpt>
      <trkpt lat="45.65403" lon="4.56612">
        <ele>772.8</ele>
        <time>2023-06-04T08:34:40.000Z</time>
      </trkpt>
      <trkpt lat="45.65422" lon="4.56597">
        <ele>772.8</ele>
        <time>2023-06-04T08:34:45.000Z</time>
      </trkpt>
      <trkpt lat="45.65428" lon="4.56599">
        <ele>772.6</ele>
        <time>2023-06-04T08:34:47.000Z</time>
      </trkpt>
      <trkpt lat="45.65432" lon="4.56599">
        <ele>772.6</ele>
        <time>2023-06-04T08:34:48.000Z</time>
      </trkpt>
      <trkpt lat="45.65444" lon="4.56598">
        <ele>772.6</ele>
        <time>2023-06-04T08:34:51.000Z</time>
      </trkpt>
      <trkpt lat="45.65447" lon="4.56599">
        <ele>772.4</ele>
        <time>2023-06-04T08:34:52.000Z</time>
      </trkpt>
      <trkpt lat="45.65453" lon="4.56601">
        <ele>771.6</ele>
        <time>2023-06-04T08:34:54.000Z</time>
      </trkpt>
      <trkpt lat="45.65459" lon="4.56599">
        <ele>770.6</ele>
        <time>2023-06-04T08:34:56.000Z</time>
      </trkpt>
      <trkpt lat="45.65468" lon="4.56605">
        <ele>769.4</ele>
        <time>2023-06-04T08:34:59.000Z</time>
      </trkpt>
      <trkpt lat="45.65476" lon="4.56599">
        <ele>768.8</ele>
        <time>2023-06-04T08:35:01.000Z</time>
      </trkpt>
      <trkpt lat="45.65479" lon="4.56594">
        <ele>768.8</ele>
        <time>2023-06-04T08:35:02.000Z</time>
      </trkpt>
      <trkpt lat="45.65482" lon="4.56583">
        <ele>768.2</ele>
        <time>2023-06-04T08:35:04.000Z</time>
      </trkpt>
      <trkpt lat="45.65485" lon="4.56576">
        <ele>768</ele>
        <time>2023-06-04T08:35:05.000Z</time>
      </trkpt>
      <trkpt lat="45.65492" lon="4.56562">
        <ele>767</ele>
        <time>2023-06-04T08:35:07.000Z</time>
      </trkpt>
      <trkpt lat="45.65503" lon="4.56548">
        <ele>766.2</ele>
        <time>2023-06-04T08:35:09.000Z</time>
      </trkpt>
      <trkpt lat="45.65508" lon="4.56542">
        <ele>765.8</ele>
        <time>2023-06-04T08:35:10.000Z</time>
      </trkpt>
      <trkpt lat="45.65516" lon="4.56538">
        <ele>765.4</ele>
        <time>2023-06-04T08:35:12.000Z</time>
      </trkpt>
      <trkpt lat="45.65526" lon="4.5654">
        <ele>765</ele>
        <time>2023-06-04T08:35:14.000Z</time>
      </trkpt>
      <trkpt lat="45.6553" lon="4.56537">
        <ele>764</ele>
        <time>2023-06-04T08:35:15.000Z</time>
      </trkpt>
      <trkpt lat="45.65534" lon="4.56529">
        <ele>762.6</ele>
        <time>2023-06-04T08:35:17.000Z</time>
      </trkpt>
      <trkpt lat="45.65534" lon="4.56524">
        <ele>761.6</ele>
        <time>2023-06-04T08:35:18.000Z</time>
      </trkpt>
      <trkpt lat="45.65536" lon="4.56515">
        <ele>760.4</ele>
        <time>2023-06-04T08:35:19.000Z</time>
      </trkpt>
      <trkpt lat="45.65537" lon="4.56507">
        <ele>759.4</ele>
        <time>2023-06-04T08:35:20.000Z</time>
      </trkpt>
      <trkpt lat="45.65539" lon="4.56497">
        <ele>758.6</ele>
        <time>2023-06-04T08:35:21.000Z</time>
      </trkpt>
      <trkpt lat="45.65541" lon="4.56486">
        <ele>758.2</ele>
        <time>2023-06-04T08:35:22.000Z</time>
      </trkpt>
      <trkpt lat="45.65547" lon="4.56472">
        <ele>757.2</ele>
        <time>2023-06-04T08:35:24.000Z</time>
      </trkpt>
      <trkpt lat="45.6555" lon="4.56468">
        <ele>756.6</ele>
        <time>2023-06-04T08:35:25.000Z</time>
      </trkpt>
      <trkpt lat="45.65554" lon="4.56467">
        <ele>756</ele>
        <time>2023-06-04T08:35:26.000Z</time>
      </trkpt>
      <trkpt lat="45.65561" lon="4.56471">
        <ele>754.4</ele>
        <time>2023-06-04T08:35:28.000Z</time>
      </trkpt>
      <trkpt lat="45.65563" lon="4.56475">
        <ele>753</ele>
        <time>2023-06-04T08:35:29.000Z</time>
      </trkpt>
      <trkpt lat="45.65566" lon="4.5648">
        <ele>751.8</ele>
        <time>2023-06-04T08:35:30.000Z</time>
      </trkpt>
      <trkpt lat="45.65567" lon="4.56484">
        <ele>750.4</ele>
        <time>2023-06-04T08:35:31.000Z</time>
      </trkpt>
      <trkpt lat="45.6557" lon="4.56489">
        <ele>749.2</ele>
        <time>2023-06-04T08:35:32.000Z</time>
      </trkpt>
      <trkpt lat="45.65576" lon="4.56498">
        <ele>748</ele>
        <time>2023-06-04T08:35:34.000Z</time>
      </trkpt>
      <trkpt lat="45.65581" lon="4.56502">
        <ele>747.8</ele>
        <time>2023-06-04T08:35:36.000Z</time>
      </trkpt>
      <trkpt lat="45.65583" lon="4.56501">
        <ele>747.8</ele>
        <time>2023-06-04T08:35:37.000Z</time>
      </trkpt>
      <trkpt lat="45.65587" lon="4.56498">
        <ele>747.6</ele>
        <time>2023-06-04T08:35:38.000Z</time>
      </trkpt>
      <trkpt lat="45.65593" lon="4.56488">
        <ele>747.6</ele>
        <time>2023-06-04T08:35:40.000Z</time>
      </trkpt>
      <trkpt lat="45.65604" lon="4.56483">
        <ele>747.4</ele>
        <time>2023-06-04T08:35:42.000Z</time>
      </trkpt>
      <trkpt lat="45.6561" lon="4.56482">
        <ele>747.4</ele>
        <time>2023-06-04T08:35:43.000Z</time>
      </trkpt>
      <trkpt lat="45.65619" lon="4.56483">
        <ele>747.4</ele>
        <time>2023-06-04T08:35:44.000Z</time>
      </trkpt>
      <trkpt lat="45.65625" lon="4.56485">
        <ele>746.6</ele>
        <time>2023-06-04T08:35:45.000Z</time>
      </trkpt>
      <trkpt lat="45.65631" lon="4.56488">
        <ele>746.2</ele>
        <time>2023-06-04T08:35:46.000Z</time>
      </trkpt>
      <trkpt lat="45.65638" lon="4.56493">
        <ele>745.6</ele>
        <time>2023-06-04T08:35:47.000Z</time>
      </trkpt>
      <trkpt lat="45.65646" lon="4.56498">
        <ele>745.2</ele>
        <time>2023-06-04T08:35:48.000Z</time>
      </trkpt>
      <trkpt lat="45.65653" lon="4.56504">
        <ele>744.2</ele>
        <time>2023-06-04T08:35:49.000Z</time>
      </trkpt>
      <trkpt lat="45.65658" lon="4.56509">
        <ele>743.2</ele>
        <time>2023-06-04T08:35:50.000Z</time>
      </trkpt>
      <trkpt lat="45.65664" lon="4.56515">
        <ele>742</ele>
        <time>2023-06-04T08:35:51.000Z</time>
      </trkpt>
      <trkpt lat="45.65675" lon="4.56527">
        <ele>740.2</ele>
        <time>2023-06-04T08:35:53.000Z</time>
      </trkpt>
      <trkpt lat="45.65679" lon="4.56532">
        <ele>738.8</ele>
        <time>2023-06-04T08:35:54.000Z</time>
      </trkpt>
      <trkpt lat="45.65683" lon="4.56537">
        <ele>737.6</ele>
        <time>2023-06-04T08:35:55.000Z</time>
      </trkpt>
      <trkpt lat="45.65686" lon="4.56541">
        <ele>736.6</ele>
        <time>2023-06-04T08:35:56.000Z</time>
      </trkpt>
      <trkpt lat="45.6569" lon="4.56545">
        <ele>734.8</ele>
        <time>2023-06-04T08:35:58.000Z</time>
      </trkpt>
      <trkpt lat="45.65692" lon="4.56544">
        <ele>734.8</ele>
        <time>2023-06-04T08:35:59.000Z</time>
      </trkpt>
      <trkpt lat="45.65698" lon="4.5654">
        <ele>733.2</ele>
        <time>2023-06-04T08:36:01.000Z</time>
      </trkpt>
      <trkpt lat="45.65703" lon="4.56537">
        <ele>732.2</ele>
        <time>2023-06-04T08:36:02.000Z</time>
      </trkpt>
      <trkpt lat="45.65708" lon="4.56533">
        <ele>731.8</ele>
        <time>2023-06-04T08:36:03.000Z</time>
      </trkpt>
      <trkpt lat="45.65719" lon="4.56524">
        <ele>730.6</ele>
        <time>2023-06-04T08:36:05.000Z</time>
      </trkpt>
      <trkpt lat="45.6573" lon="4.56516">
        <ele>730</ele>
        <time>2023-06-04T08:36:07.000Z</time>
      </trkpt>
      <trkpt lat="45.65751" lon="4.565">
        <ele>729.6</ele>
        <time>2023-06-04T08:36:10.000Z</time>
      </trkpt>
      <trkpt lat="45.65767" lon="4.56491">
        <ele>728.6</ele>
        <time>2023-06-04T08:36:12.000Z</time>
      </trkpt>
      <trkpt lat="45.65774" lon="4.56487">
        <ele>728</ele>
        <time>2023-06-04T08:36:13.000Z</time>
      </trkpt>
      <trkpt lat="45.65788" lon="4.56481">
        <ele>726.6</ele>
        <time>2023-06-04T08:36:15.000Z</time>
      </trkpt>
      <trkpt lat="45.65805" lon="4.56475">
        <ele>725</ele>
        <time>2023-06-04T08:36:17.000Z</time>
      </trkpt>
      <trkpt lat="45.65813" lon="4.56473">
        <ele>724.4</ele>
        <time>2023-06-04T08:36:18.000Z</time>
      </trkpt>
      <trkpt lat="45.6582" lon="4.56471">
        <ele>723.6</ele>
        <time>2023-06-04T08:36:19.000Z</time>
      </trkpt>
      <trkpt lat="45.65845" lon="4.56464">
        <ele>722.2</ele>
        <time>2023-06-04T08:36:22.000Z</time>
      </trkpt>
      <trkpt lat="45.65855" lon="4.56462">
        <ele>720.8</ele>
        <time>2023-06-04T08:36:24.000Z</time>
      </trkpt>
      <trkpt lat="45.6586" lon="4.5646">
        <ele>720.2</ele>
        <time>2023-06-04T08:36:25.000Z</time>
      </trkpt>
      <trkpt lat="45.65863" lon="4.5646">
        <ele>719.4</ele>
        <time>2023-06-04T08:36:26.000Z</time>
      </trkpt>
      <trkpt lat="45.65865" lon="4.56461">
        <ele>718.6</ele>
        <time>2023-06-04T08:36:27.000Z</time>
      </trkpt>
      <trkpt lat="45.65868" lon="4.56461">
        <ele>718</ele>
        <time>2023-06-04T08:36:28.000Z</time>
      </trkpt>
      <trkpt lat="45.6587" lon="4.5646">
        <ele>717.4</ele>
        <time>2023-06-04T08:36:29.000Z</time>
      </trkpt>
      <trkpt lat="45.65876" lon="4.56454">
        <ele>716.8</ele>
        <time>2023-06-04T08:36:31.000Z</time>
      </trkpt>
      <trkpt lat="45.6588" lon="4.56446">
        <ele>716.2</ele>
        <time>2023-06-04T08:36:33.000Z</time>
      </trkpt>
      <trkpt lat="45.65886" lon="4.5643">
        <ele>716</ele>
        <time>2023-06-04T08:36:36.000Z</time>
      </trkpt>
      <trkpt lat="45.65897" lon="4.56417">
        <ele>716</ele>
        <time>2023-06-04T08:36:40.000Z</time>
      </trkpt>
      <trkpt lat="45.65903" lon="4.56425">
        <ele>716</ele>
        <time>2023-06-04T08:36:42.000Z</time>
      </trkpt>
      <trkpt lat="45.65915" lon="4.56435">
        <ele>716</ele>
        <time>2023-06-04T08:36:45.000Z</time>
      </trkpt>
      <trkpt lat="45.65933" lon="4.56431">
        <ele>716.2</ele>
        <time>2023-06-04T08:36:49.000Z</time>
      </trkpt>
      <trkpt lat="45.65953" lon="4.56419">
        <ele>716.8</ele>
        <time>2023-06-04T08:36:55.000Z</time>
      </trkpt>
      <trkpt lat="45.65957" lon="4.56417">
        <ele>717.4</ele>
        <time>2023-06-04T08:36:56.000Z</time>
      </trkpt>
      <trkpt lat="45.65963" lon="4.56413">
        <ele>718</ele>
        <time>2023-06-04T08:36:58.000Z</time>
      </trkpt>
      <trkpt lat="45.65976" lon="4.56405">
        <ele>719.2</ele>
        <time>2023-06-04T08:37:02.000Z</time>
      </trkpt>
      <trkpt lat="45.6598" lon="4.56405">
        <ele>719.6</ele>
        <time>2023-06-04T08:37:03.000Z</time>
      </trkpt>
      <trkpt lat="45.65988" lon="4.56401">
        <ele>720.4</ele>
        <time>2023-06-04T08:37:06.000Z</time>
      </trkpt>
      <trkpt lat="45.65991" lon="4.564">
        <ele>720.4</ele>
        <time>2023-06-04T08:37:07.000Z</time>
      </trkpt>
      <trkpt lat="45.66003" lon="4.56394">
        <ele>721.4</ele>
        <time>2023-06-04T08:37:11.000Z</time>
      </trkpt>
      <trkpt lat="45.66009" lon="4.56391">
        <ele>722</ele>
        <time>2023-06-04T08:37:13.000Z</time>
      </trkpt>
      <trkpt lat="45.66015" lon="4.56388">
        <ele>722.4</ele>
        <time>2023-06-04T08:37:15.000Z</time>
      </trkpt>
      <trkpt lat="45.66036" lon="4.56376">
        <ele>723.4</ele>
        <time>2023-06-04T08:37:22.000Z</time>
      </trkpt>
      <trkpt lat="45.66038" lon="4.56374">
        <ele>723.6</ele>
        <time>2023-06-04T08:37:23.000Z</time>
      </trkpt>
      <trkpt lat="45.66054" lon="4.56365">
        <ele>724</ele>
        <time>2023-06-04T08:37:28.000Z</time>
      </trkpt>
      <trkpt lat="45.66063" lon="4.56358">
        <ele>724.2</ele>
        <time>2023-06-04T08:37:31.000Z</time>
      </trkpt>
      <trkpt lat="45.66074" lon="4.56351">
        <ele>724.4</ele>
        <time>2023-06-04T08:37:34.000Z</time>
      </trkpt>
      <trkpt lat="45.66091" lon="4.56344">
        <ele>724.4</ele>
        <time>2023-06-04T08:37:38.000Z</time>
      </trkpt>
      <trkpt lat="45.66095" lon="4.56343">
        <ele>724.4</ele>
        <time>2023-06-04T08:37:39.000Z</time>
      </trkpt>
      <trkpt lat="45.66113" lon="4.56335">
        <ele>724.4</ele>
        <time>2023-06-04T08:37:43.000Z</time>
      </trkpt>
      <trkpt lat="45.66117" lon="4.56333">
        <ele>724.4</ele>
        <time>2023-06-04T08:37:44.000Z</time>
      </trkpt>
      <trkpt lat="45.6614" lon="4.56323">
        <ele>724.4</ele>
        <time>2023-06-04T08:37:49.000Z</time>
      </trkpt>
      <trkpt lat="45.66164" lon="4.56314">
        <ele>724.4</ele>
        <time>2023-06-04T08:37:54.000Z</time>
      </trkpt>
      <trkpt lat="45.66173" lon="4.56312">
        <ele>724.4</ele>
        <time>2023-06-04T08:37:56.000Z</time>
      </trkpt>
      <trkpt lat="45.66183" lon="4.56311">
        <ele>724.4</ele>
        <time>2023-06-04T08:37:58.000Z</time>
      </trkpt>
      <trkpt lat="45.66188" lon="4.5631">
        <ele>724.4</ele>
        <time>2023-06-04T08:37:59.000Z</time>
      </trkpt>
      <trkpt lat="45.66202" lon="4.56308">
        <ele>724.6</ele>
        <time>2023-06-04T08:38:02.000Z</time>
      </trkpt>
      <trkpt lat="45.66239" lon="4.56304">
        <ele>725.2</ele>
        <time>2023-06-04T08:38:10.000Z</time>
      </trkpt>
      <trkpt lat="45.66249" lon="4.56303">
        <ele>725.6</ele>
        <time>2023-06-04T08:38:12.000Z</time>
      </trkpt>
      <trkpt lat="45.66269" lon="4.56299">
        <ele>726.4</ele>
        <time>2023-06-04T08:38:16.000Z</time>
      </trkpt>
      <trkpt lat="45.66273" lon="4.56299">
        <ele>726.6</ele>
        <time>2023-06-04T08:38:17.000Z</time>
      </trkpt>
      <trkpt lat="45.66277" lon="4.56298">
        <ele>726.8</ele>
        <time>2023-06-04T08:38:18.000Z</time>
      </trkpt>
      <trkpt lat="45.66286" lon="4.56295">
        <ele>727.2</ele>
        <time>2023-06-04T08:38:20.000Z</time>
      </trkpt>
      <trkpt lat="45.6629" lon="4.56295">
        <ele>727.2</ele>
        <time>2023-06-04T08:38:21.000Z</time>
      </trkpt>
      <trkpt lat="45.66297" lon="4.56296">
        <ele>727.6</ele>
        <time>2023-06-04T08:38:23.000Z</time>
      </trkpt>
      <trkpt lat="45.66301" lon="4.56297">
        <ele>727.8</ele>
        <time>2023-06-04T08:38:24.000Z</time>
      </trkpt>
      <trkpt lat="45.6632" lon="4.56297">
        <ele>728.2</ele>
        <time>2023-06-04T08:38:29.000Z</time>
      </trkpt>
      <trkpt lat="45.66336" lon="4.5631">
        <ele>728.6</ele>
        <time>2023-06-04T08:38:34.000Z</time>
      </trkpt>
      <trkpt lat="45.66339" lon="4.56313">
        <ele>728.6</ele>
        <time>2023-06-04T08:38:35.000Z</time>
      </trkpt>
      <trkpt lat="45.66367" lon="4.56342">
        <ele>729.4</ele>
        <time>2023-06-04T08:38:44.000Z</time>
      </trkpt>
      <trkpt lat="45.6638" lon="4.56357">
        <ele>729.8</ele>
        <time>2023-06-04T08:38:48.000Z</time>
      </trkpt>
      <trkpt lat="45.66392" lon="4.56373">
        <ele>730.2</ele>
        <time>2023-06-04T08:38:52.000Z</time>
      </trkpt>
      <trkpt lat="45.66406" lon="4.56393">
        <ele>730.8</ele>
        <time>2023-06-04T08:38:57.000Z</time>
      </trkpt>
      <trkpt lat="45.66414" lon="4.56404">
        <ele>731.2</ele>
        <time>2023-06-04T08:39:00.000Z</time>
      </trkpt>
      <trkpt lat="45.66424" lon="4.56421">
        <ele>732</ele>
        <time>2023-06-04T08:39:04.000Z</time>
      </trkpt>
      <trkpt lat="45.66436" lon="4.56442">
        <ele>733.2</ele>
        <time>2023-06-04T08:39:09.000Z</time>
      </trkpt>
      <trkpt lat="45.66438" lon="4.56446">
        <ele>733.4</ele>
        <time>2023-06-04T08:39:10.000Z</time>
      </trkpt>
      <trkpt lat="45.66444" lon="4.56457">
        <ele>734.4</ele>
        <time>2023-06-04T08:39:13.000Z</time>
      </trkpt>
      <trkpt lat="45.66451" lon="4.5647">
        <ele>735.6</ele>
        <time>2023-06-04T08:39:17.000Z</time>
      </trkpt>
      <trkpt lat="45.66459" lon="4.56485">
        <ele>736.8</ele>
        <time>2023-06-04T08:39:21.000Z</time>
      </trkpt>
      <trkpt lat="45.66471" lon="4.56507">
        <ele>737.6</ele>
        <time>2023-06-04T08:39:27.000Z</time>
      </trkpt>
      <trkpt lat="45.66476" lon="4.56515">
        <ele>738</ele>
        <time>2023-06-04T08:39:29.000Z</time>
      </trkpt>
      <trkpt lat="45.66487" lon="4.56528">
        <ele>738.4</ele>
        <time>2023-06-04T08:39:33.000Z</time>
      </trkpt>
      <trkpt lat="45.66495" lon="4.56539">
        <ele>738.6</ele>
        <time>2023-06-04T08:39:36.000Z</time>
      </trkpt>
      <trkpt lat="45.6651" lon="4.56558">
        <ele>739</ele>
        <time>2023-06-04T08:39:41.000Z</time>
      </trkpt>
      <trkpt lat="45.6652" lon="4.5657">
        <ele>739</ele>
        <time>2023-06-04T08:39:44.000Z</time>
      </trkpt>
      <trkpt lat="45.66553" lon="4.56613">
        <ele>739.2</ele>
        <time>2023-06-04T08:39:54.000Z</time>
      </trkpt>
      <trkpt lat="45.66584" lon="4.56652">
        <ele>739.6</ele>
        <time>2023-06-04T08:40:03.000Z</time>
      </trkpt>
      <trkpt lat="45.66588" lon="4.56657">
        <ele>739.6</ele>
        <time>2023-06-04T08:40:04.000Z</time>
      </trkpt>
      <trkpt lat="45.66602" lon="4.56677">
        <ele>739.6</ele>
        <time>2023-06-04T08:40:09.000Z</time>
      </trkpt>
      <trkpt lat="45.66609" lon="4.5669">
        <ele>739.8</ele>
        <time>2023-06-04T08:40:12.000Z</time>
      </trkpt>
      <trkpt lat="45.66614" lon="4.56699">
        <ele>740</ele>
        <time>2023-06-04T08:40:14.000Z</time>
      </trkpt>
      <trkpt lat="45.66637" lon="4.56732">
        <ele>740.6</ele>
        <time>2023-06-04T08:40:21.000Z</time>
      </trkpt>
      <trkpt lat="45.66645" lon="4.56739">
        <ele>740.6</ele>
        <time>2023-06-04T08:40:23.000Z</time>
      </trkpt>
      <trkpt lat="45.66661" lon="4.56748">
        <ele>740.8</ele>
        <time>2023-06-04T08:40:27.000Z</time>
      </trkpt>
      <trkpt lat="45.66696" lon="4.56758">
        <ele>741</ele>
        <time>2023-06-04T08:40:35.000Z</time>
      </trkpt>
      <trkpt lat="45.66707" lon="4.56764">
        <ele>741</ele>
        <time>2023-06-04T08:40:38.000Z</time>
      </trkpt>
      <trkpt lat="45.66717" lon="4.56769">
        <ele>741.2</ele>
        <time>2023-06-04T08:40:41.000Z</time>
      </trkpt>
      <trkpt lat="45.66732" lon="4.56778">
        <ele>742.2</ele>
        <time>2023-06-04T08:40:46.000Z</time>
      </trkpt>
      <trkpt lat="45.66742" lon="4.56783">
        <ele>743.4</ele>
        <time>2023-06-04T08:40:50.000Z</time>
      </trkpt>
      <trkpt lat="45.66753" lon="4.56789">
        <ele>744.6</ele>
        <time>2023-06-04T08:40:54.000Z</time>
      </trkpt>
      <trkpt lat="45.66756" lon="4.56791">
        <ele>744.8</ele>
        <time>2023-06-04T08:40:55.000Z</time>
      </trkpt>
      <trkpt lat="45.66763" lon="4.56794">
        <ele>745</ele>
        <time>2023-06-04T08:40:57.000Z</time>
      </trkpt>
      <trkpt lat="45.66775" lon="4.56798">
        <ele>745.2</ele>
        <time>2023-06-04T08:41:00.000Z</time>
      </trkpt>
      <trkpt lat="45.66784" lon="4.568">
        <ele>745.2</ele>
        <time>2023-06-04T08:41:02.000Z</time>
      </trkpt>
      <trkpt lat="45.66798" lon="4.56803">
        <ele>745.2</ele>
        <time>2023-06-04T08:41:05.000Z</time>
      </trkpt>
      <trkpt lat="45.66803" lon="4.56804">
        <ele>745.2</ele>
        <time>2023-06-04T08:41:06.000Z</time>
      </trkpt>
      <trkpt lat="45.66809" lon="4.56805">
        <ele>745.2</ele>
        <time>2023-06-04T08:41:07.000Z</time>
      </trkpt>
      <trkpt lat="45.66815" lon="4.56806">
        <ele>745</ele>
        <time>2023-06-04T08:41:08.000Z</time>
      </trkpt>
      <trkpt lat="45.66841" lon="4.56813">
        <ele>744</ele>
        <time>2023-06-04T08:41:13.000Z</time>
      </trkpt>
      <trkpt lat="45.66846" lon="4.56814">
        <ele>743.6</ele>
        <time>2023-06-04T08:41:14.000Z</time>
      </trkpt>
      <trkpt lat="45.66851" lon="4.56815">
        <ele>743.2</ele>
        <time>2023-06-04T08:41:15.000Z</time>
      </trkpt>
      <trkpt lat="45.66871" lon="4.56814">
        <ele>742.8</ele>
        <time>2023-06-04T08:41:19.000Z</time>
      </trkpt>
      <trkpt lat="45.66899" lon="4.5681">
        <ele>742.6</ele>
        <time>2023-06-04T08:41:24.000Z</time>
      </trkpt>
      <trkpt lat="45.6691" lon="4.56809">
        <ele>742.4</ele>
        <time>2023-06-04T08:41:26.000Z</time>
      </trkpt>
      <trkpt lat="45.6692" lon="4.5681">
        <ele>742.2</ele>
        <time>2023-06-04T08:41:28.000Z</time>
      </trkpt>
      <trkpt lat="45.66928" lon="4.5681">
        <ele>741.4</ele>
        <time>2023-06-04T08:41:30.000Z</time>
      </trkpt>
      <trkpt lat="45.66937" lon="4.56811">
        <ele>740.4</ele>
        <time>2023-06-04T08:41:32.000Z</time>
      </trkpt>
      <trkpt lat="45.66947" lon="4.5681">
        <ele>739.2</ele>
        <time>2023-06-04T08:41:34.000Z</time>
      </trkpt>
      <trkpt lat="45.66966" lon="4.56809">
        <ele>738</ele>
        <time>2023-06-04T08:41:37.000Z</time>
      </trkpt>
      <trkpt lat="45.66972" lon="4.56809">
        <ele>737.6</ele>
        <time>2023-06-04T08:41:38.000Z</time>
      </trkpt>
      <trkpt lat="45.66985" lon="4.56805">
        <ele>737.4</ele>
        <time>2023-06-04T08:41:40.000Z</time>
      </trkpt>
      <trkpt lat="45.66993" lon="4.56803">
        <ele>736.8</ele>
        <time>2023-06-04T08:41:41.000Z</time>
      </trkpt>
      <trkpt lat="45.67" lon="4.56801">
        <ele>736</ele>
        <time>2023-06-04T08:41:42.000Z</time>
      </trkpt>
      <trkpt lat="45.67007" lon="4.568">
        <ele>735.2</ele>
        <time>2023-06-04T08:41:43.000Z</time>
      </trkpt>
      <trkpt lat="45.67013" lon="4.56799">
        <ele>734.6</ele>
        <time>2023-06-04T08:41:44.000Z</time>
      </trkpt>
      <trkpt lat="45.6702" lon="4.56797">
        <ele>734</ele>
        <time>2023-06-04T08:41:45.000Z</time>
      </trkpt>
      <trkpt lat="45.67025" lon="4.56795">
        <ele>732.8</ele>
        <time>2023-06-04T08:41:46.000Z</time>
      </trkpt>
      <trkpt lat="45.67029" lon="4.56793">
        <ele>732.2</ele>
        <time>2023-06-04T08:41:47.000Z</time>
      </trkpt>
      <trkpt lat="45.67035" lon="4.56791">
        <ele>730.8</ele>
        <time>2023-06-04T08:41:49.000Z</time>
      </trkpt>
      <trkpt lat="45.67036" lon="4.56793">
        <ele>729.4</ele>
        <time>2023-06-04T08:41:51.000Z</time>
      </trkpt>
      <trkpt lat="45.67036" lon="4.56798">
        <ele>728.2</ele>
        <time>2023-06-04T08:41:53.000Z</time>
      </trkpt>
      <trkpt lat="45.67034" lon="4.56804">
        <ele>727.4</ele>
        <time>2023-06-04T08:41:55.000Z</time>
      </trkpt>
      <trkpt lat="45.67033" lon="4.56806">
        <ele>727.2</ele>
        <time>2023-06-04T08:41:56.000Z</time>
      </trkpt>
      <trkpt lat="45.67031" lon="4.56809">
        <ele>727</ele>
        <time>2023-06-04T08:41:57.000Z</time>
      </trkpt>
      <trkpt lat="45.67018" lon="4.56824">
        <ele>726.6</ele>
        <time>2023-06-04T08:42:02.000Z</time>
      </trkpt>
      <trkpt lat="45.67011" lon="4.56831">
        <ele>726.4</ele>
        <time>2023-06-04T08:42:04.000Z</time>
      </trkpt>
      <trkpt lat="45.67009" lon="4.56833">
        <ele>726.4</ele>
        <time>2023-06-04T08:42:05.000Z</time>
      </trkpt>
      <trkpt lat="45.67004" lon="4.56839">
        <ele>726.2</ele>
        <time>2023-06-04T08:42:07.000Z</time>
      </trkpt>
      <trkpt lat="45.66995" lon="4.56852">
        <ele>726</ele>
        <time>2023-06-04T08:42:10.000Z</time>
      </trkpt>
      <trkpt lat="45.66992" lon="4.56856">
        <ele>726</ele>
        <time>2023-06-04T08:42:11.000Z</time>
      </trkpt>
      <trkpt lat="45.66974" lon="4.56895">
        <ele>725.8</ele>
        <time>2023-06-04T08:42:18.000Z</time>
      </trkpt>
      <trkpt lat="45.66964" lon="4.56922">
        <ele>725.2</ele>
        <time>2023-06-04T08:42:23.000Z</time>
      </trkpt>
      <trkpt lat="45.6696" lon="4.56933">
        <ele>725</ele>
        <time>2023-06-04T08:42:25.000Z</time>
      </trkpt>
      <trkpt lat="45.66955" lon="4.56945">
        <ele>725</ele>
        <time>2023-06-04T08:42:27.000Z</time>
      </trkpt>
      <trkpt lat="45.66953" lon="4.56951">
        <ele>725</ele>
        <time>2023-06-04T08:42:28.000Z</time>
      </trkpt>
      <trkpt lat="45.66944" lon="4.56984">
        <ele>724.6</ele>
        <time>2023-06-04T08:42:32.000Z</time>
      </trkpt>
      <trkpt lat="45.66941" lon="4.57003">
        <ele>724</ele>
        <time>2023-06-04T08:42:34.000Z</time>
      </trkpt>
      <trkpt lat="45.66936" lon="4.57032">
        <ele>723.4</ele>
        <time>2023-06-04T08:42:37.000Z</time>
      </trkpt>
      <trkpt lat="45.66933" lon="4.57054">
        <ele>722.2</ele>
        <time>2023-06-04T08:42:39.000Z</time>
      </trkpt>
      <trkpt lat="45.6693" lon="4.57076">
        <ele>721</ele>
        <time>2023-06-04T08:42:41.000Z</time>
      </trkpt>
      <trkpt lat="45.66929" lon="4.57086">
        <ele>720.2</ele>
        <time>2023-06-04T08:42:42.000Z</time>
      </trkpt>
      <trkpt lat="45.66928" lon="4.57095">
        <ele>719.4</ele>
        <time>2023-06-04T08:42:43.000Z</time>
      </trkpt>
      <trkpt lat="45.66927" lon="4.57114">
        <ele>718.2</ele>
        <time>2023-06-04T08:42:45.000Z</time>
      </trkpt>
      <trkpt lat="45.66924" lon="4.57139">
        <ele>717</ele>
        <time>2023-06-04T08:42:48.000Z</time>
      </trkpt>
      <trkpt lat="45.66923" lon="4.57145">
        <ele>716.8</ele>
        <time>2023-06-04T08:42:49.000Z</time>
      </trkpt>
      <trkpt lat="45.66921" lon="4.57155">
        <ele>716.6</ele>
        <time>2023-06-04T08:42:52.000Z</time>
      </trkpt>
      <trkpt lat="45.66919" lon="4.57181">
        <ele>716.6</ele>
        <time>2023-06-04T08:42:57.000Z</time>
      </trkpt>
      <trkpt lat="45.66915" lon="4.57189">
        <ele>716.6</ele>
        <time>2023-06-04T08:42:59.000Z</time>
      </trkpt>
      <trkpt lat="45.66912" lon="4.5719">
        <ele>716.6</ele>
        <time>2023-06-04T08:43:00.000Z</time>
      </trkpt>
      <trkpt lat="45.6691" lon="4.57188">
        <ele>716.6</ele>
        <time>2023-06-04T08:43:01.000Z</time>
      </trkpt>
      <trkpt lat="45.66906" lon="4.57183">
        <ele>716.6</ele>
        <time>2023-06-04T08:43:03.000Z</time>
      </trkpt>
      <trkpt lat="45.66898" lon="4.57164">
        <ele>716.8</ele>
        <time>2023-06-04T08:43:10.000Z</time>
      </trkpt>
      <trkpt lat="45.66892" lon="4.57152">
        <ele>718.4</ele>
        <time>2023-06-04T08:43:16.000Z</time>
      </trkpt>
      <trkpt lat="45.66889" lon="4.57146">
        <ele>719.6</ele>
        <time>2023-06-04T08:43:19.000Z</time>
      </trkpt>
      <trkpt lat="45.66885" lon="4.57142">
        <ele>721</ele>
        <time>2023-06-04T08:43:22.000Z</time>
      </trkpt>
      <trkpt lat="45.66883" lon="4.57142">
        <ele>721.4</ele>
        <time>2023-06-04T08:43:23.000Z</time>
      </trkpt>
      <trkpt lat="45.6688" lon="4.57142">
        <ele>722.2</ele>
        <time>2023-06-04T08:43:25.000Z</time>
      </trkpt>
      <trkpt lat="45.66875" lon="4.57144">
        <ele>723.4</ele>
        <time>2023-06-04T08:43:28.000Z</time>
      </trkpt>
      <trkpt lat="45.66874" lon="4.57144">
        <ele>723.6</ele>
        <time>2023-06-04T08:43:29.000Z</time>
      </trkpt>
      <trkpt lat="45.6687" lon="4.57147">
        <ele>724.4</ele>
        <time>2023-06-04T08:43:32.000Z</time>
      </trkpt>
      <trkpt lat="45.66868" lon="4.5715">
        <ele>724.8</ele>
        <time>2023-06-04T08:43:34.000Z</time>
      </trkpt>
      <trkpt lat="45.66864" lon="4.57153">
        <ele>725.6</ele>
        <time>2023-06-04T08:43:37.000Z</time>
      </trkpt>
      <trkpt lat="45.66859" lon="4.57159">
        <ele>726.8</ele>
        <time>2023-06-04T08:43:41.000Z</time>
      </trkpt>
      <trkpt lat="45.66859" lon="4.57161">
        <ele>727</ele>
        <time>2023-06-04T08:43:42.000Z</time>
      </trkpt>
      <trkpt lat="45.66858" lon="4.57163">
        <ele>727.2</ele>
        <time>2023-06-04T08:43:43.000Z</time>
      </trkpt>
      <trkpt lat="45.66858" lon="4.57167">
        <ele>727.6</ele>
        <time>2023-06-04T08:43:45.000Z</time>
      </trkpt>
      <trkpt lat="45.66858" lon="4.57168">
        <ele>727.8</ele>
        <time>2023-06-04T08:43:46.000Z</time>
      </trkpt>
      <trkpt lat="45.66858" lon="4.57168">
        <ele>728.2</ele>
        <time>2023-06-04T08:43:47.000Z</time>
      </trkpt>
      <trkpt lat="45.66858" lon="4.57169">
        <ele>728.2</ele>
        <time>2023-06-04T08:43:48.000Z</time>
      </trkpt>
      <trkpt lat="45.66858" lon="4.57171">
        <ele>728.6</ele>
        <time>2023-06-04T08:43:50.000Z</time>
      </trkpt>
      <trkpt lat="45.66859" lon="4.57172">
        <ele>728.8</ele>
        <time>2023-06-04T08:43:51.000Z</time>
      </trkpt>
      <trkpt lat="45.66858" lon="4.57175">
        <ele>729.4</ele>
        <time>2023-06-04T08:43:54.000Z</time>
      </trkpt>
      <trkpt lat="45.6686" lon="4.5718">
        <ele>729.6</ele>
        <time>2023-06-04T08:43:57.000Z</time>
      </trkpt>
      <trkpt lat="45.66862" lon="4.57185">
        <ele>729.6</ele>
        <time>2023-06-04T08:43:59.000Z</time>
      </trkpt>
      <trkpt lat="45.66864" lon="4.57189">
        <ele>729.6</ele>
        <time>2023-06-04T08:44:00.000Z</time>
      </trkpt>
      <trkpt lat="45.66868" lon="4.57195">
        <ele>729.6</ele>
        <time>2023-06-04T08:44:02.000Z</time>
      </trkpt>
      <trkpt lat="45.66874" lon="4.572">
        <ele>729.6</ele>
        <time>2023-06-04T08:44:04.000Z</time>
      </trkpt>
      <trkpt lat="45.6688" lon="4.57207">
        <ele>729.4</ele>
        <time>2023-06-04T08:44:06.000Z</time>
      </trkpt>
      <trkpt lat="45.66881" lon="4.57212">
        <ele>729</ele>
        <time>2023-06-04T08:44:07.000Z</time>
      </trkpt>
      <trkpt lat="45.6688" lon="4.57216">
        <ele>729</ele>
        <time>2023-06-04T08:44:08.000Z</time>
      </trkpt>
      <trkpt lat="45.66875" lon="4.57222">
        <ele>728</ele>
        <time>2023-06-04T08:44:10.000Z</time>
      </trkpt>
      <trkpt lat="45.66872" lon="4.57224">
        <ele>727.4</ele>
        <time>2023-06-04T08:44:11.000Z</time>
      </trkpt>
      <trkpt lat="45.66867" lon="4.57228">
        <ele>727</ele>
        <time>2023-06-04T08:44:13.000Z</time>
      </trkpt>
      <trkpt lat="45.66865" lon="4.5723">
        <ele>726.4</ele>
        <time>2023-06-04T08:44:14.000Z</time>
      </trkpt>
      <trkpt lat="45.6686" lon="4.57236">
        <ele>725.6</ele>
        <time>2023-06-04T08:44:16.000Z</time>
      </trkpt>
      <trkpt lat="45.66857" lon="4.5724">
        <ele>725.2</ele>
        <time>2023-06-04T08:44:17.000Z</time>
      </trkpt>
      <trkpt lat="45.66848" lon="4.57254">
        <ele>724</ele>
        <time>2023-06-04T08:44:20.000Z</time>
      </trkpt>
      <trkpt lat="45.66845" lon="4.57259">
        <ele>723.8</ele>
        <time>2023-06-04T08:44:21.000Z</time>
      </trkpt>
      <trkpt lat="45.6684" lon="4.5727">
        <ele>723.2</ele>
        <time>2023-06-04T08:44:23.000Z</time>
      </trkpt>
      <trkpt lat="45.66837" lon="4.57276">
        <ele>723</ele>
        <time>2023-06-04T08:44:24.000Z</time>
      </trkpt>
      <trkpt lat="45.66833" lon="4.5728">
        <ele>722.4</ele>
        <time>2023-06-04T08:44:25.000Z</time>
      </trkpt>
      <trkpt lat="45.66829" lon="4.57283">
        <ele>721.4</ele>
        <time>2023-06-04T08:44:26.000Z</time>
      </trkpt>
      <trkpt lat="45.66822" lon="4.57287">
        <ele>719.6</ele>
        <time>2023-06-04T08:44:28.000Z</time>
      </trkpt>
      <trkpt lat="45.66819" lon="4.57288">
        <ele>718.2</ele>
        <time>2023-06-04T08:44:29.000Z</time>
      </trkpt>
      <trkpt lat="45.66816" lon="4.5729">
        <ele>717</ele>
        <time>2023-06-04T08:44:30.000Z</time>
      </trkpt>
      <trkpt lat="45.66813" lon="4.57291">
        <ele>716.2</ele>
        <time>2023-06-04T08:44:31.000Z</time>
      </trkpt>
      <trkpt lat="45.6681" lon="4.57292">
        <ele>715.4</ele>
        <time>2023-06-04T08:44:32.000Z</time>
      </trkpt>
      <trkpt lat="45.66803" lon="4.57293">
        <ele>714.8</ele>
        <time>2023-06-04T08:44:34.000Z</time>
      </trkpt>
      <trkpt lat="45.66793" lon="4.57297">
        <ele>714.8</ele>
        <time>2023-06-04T08:44:38.000Z</time>
      </trkpt>
      <trkpt lat="45.66778" lon="4.57307">
        <ele>714.6</ele>
        <time>2023-06-04T08:44:43.000Z</time>
      </trkpt>
      <trkpt lat="45.66769" lon="4.57311">
        <ele>714.6</ele>
        <time>2023-06-04T08:44:45.000Z</time>
      </trkpt>
      <trkpt lat="45.66759" lon="4.57311">
        <ele>714.6</ele>
        <time>2023-06-04T08:44:47.000Z</time>
      </trkpt>
      <trkpt lat="45.66754" lon="4.5731">
        <ele>714.6</ele>
        <time>2023-06-04T08:44:48.000Z</time>
      </trkpt>
      <trkpt lat="45.66731" lon="4.57307">
        <ele>714.2</ele>
        <time>2023-06-04T08:44:53.000Z</time>
      </trkpt>
      <trkpt lat="45.66724" lon="4.57305">
        <ele>714.2</ele>
        <time>2023-06-04T08:44:55.000Z</time>
      </trkpt>
      <trkpt lat="45.66696" lon="4.57302">
        <ele>714.4</ele>
        <time>2023-06-04T08:45:02.000Z</time>
      </trkpt>
      <trkpt lat="45.6666" lon="4.573">
        <ele>714.4</ele>
        <time>2023-06-04T08:45:09.000Z</time>
      </trkpt>
      <trkpt lat="45.66629" lon="4.57298">
        <ele>714.4</ele>
        <time>2023-06-04T08:45:13.000Z</time>
      </trkpt>
      <trkpt lat="45.66621" lon="4.57299">
        <ele>714.4</ele>
        <time>2023-06-04T08:45:14.000Z</time>
      </trkpt>
      <trkpt lat="45.66609" lon="4.57304">
        <ele>713.2</ele>
        <time>2023-06-04T08:45:16.000Z</time>
      </trkpt>
      <trkpt lat="45.66606" lon="4.57307">
        <ele>712.8</ele>
        <time>2023-06-04T08:45:17.000Z</time>
      </trkpt>
      <trkpt lat="45.66606" lon="4.57309">
        <ele>712</ele>
        <time>2023-06-04T08:45:18.000Z</time>
      </trkpt>
      <trkpt lat="45.66608" lon="4.5731">
        <ele>711</ele>
        <time>2023-06-04T08:45:19.000Z</time>
      </trkpt>
      <trkpt lat="45.6661" lon="4.5731">
        <ele>709.8</ele>
        <time>2023-06-04T08:45:20.000Z</time>
      </trkpt>
      <trkpt lat="45.66613" lon="4.5731">
        <ele>709.2</ele>
        <time>2023-06-04T08:45:21.000Z</time>
      </trkpt>
      <trkpt lat="45.66618" lon="4.5731">
        <ele>708</ele>
        <time>2023-06-04T08:45:22.000Z</time>
      </trkpt>
      <trkpt lat="45.66624" lon="4.57313">
        <ele>707.6</ele>
        <time>2023-06-04T08:45:23.000Z</time>
      </trkpt>
      <trkpt lat="45.6663" lon="4.57316">
        <ele>707</ele>
        <time>2023-06-04T08:45:24.000Z</time>
      </trkpt>
      <trkpt lat="45.66653" lon="4.57332">
        <ele>706.4</ele>
        <time>2023-06-04T08:45:27.000Z</time>
      </trkpt>
      <trkpt lat="45.66662" lon="4.57335">
        <ele>706.4</ele>
        <time>2023-06-04T08:45:28.000Z</time>
      </trkpt>
      <trkpt lat="45.6668" lon="4.5734">
        <ele>705.4</ele>
        <time>2023-06-04T08:45:30.000Z</time>
      </trkpt>
      <trkpt lat="45.66698" lon="4.57345">
        <ele>703.2</ele>
        <time>2023-06-04T08:45:32.000Z</time>
      </trkpt>
      <trkpt lat="45.66714" lon="4.5735">
        <ele>700.8</ele>
        <time>2023-06-04T08:45:34.000Z</time>
      </trkpt>
      <trkpt lat="45.66721" lon="4.57353">
        <ele>699.4</ele>
        <time>2023-06-04T08:45:35.000Z</time>
      </trkpt>
      <trkpt lat="45.66729" lon="4.57356">
        <ele>697.8</ele>
        <time>2023-06-04T08:45:36.000Z</time>
      </trkpt>
      <trkpt lat="45.66736" lon="4.57359">
        <ele>697</ele>
        <time>2023-06-04T08:45:37.000Z</time>
      </trkpt>
      <trkpt lat="45.66744" lon="4.57363">
        <ele>696.2</ele>
        <time>2023-06-04T08:45:38.000Z</time>
      </trkpt>
      <trkpt lat="45.66767" lon="4.57376">
        <ele>695.4</ele>
        <time>2023-06-04T08:45:41.000Z</time>
      </trkpt>
      <trkpt lat="45.66774" lon="4.57381">
        <ele>695</ele>
        <time>2023-06-04T08:45:42.000Z</time>
      </trkpt>
      <trkpt lat="45.66781" lon="4.57387">
        <ele>694.8</ele>
        <time>2023-06-04T08:45:43.000Z</time>
      </trkpt>
      <trkpt lat="45.66793" lon="4.57398">
        <ele>693.4</ele>
        <time>2023-06-04T08:45:45.000Z</time>
      </trkpt>
      <trkpt lat="45.66806" lon="4.57402">
        <ele>692</ele>
        <time>2023-06-04T08:45:47.000Z</time>
      </trkpt>
      <trkpt lat="45.6682" lon="4.574">
        <ele>691.2</ele>
        <time>2023-06-04T08:45:49.000Z</time>
      </trkpt>
      <trkpt lat="45.66826" lon="4.57397">
        <ele>690.8</ele>
        <time>2023-06-04T08:45:50.000Z</time>
      </trkpt>
      <trkpt lat="45.66836" lon="4.57393">
        <ele>690.2</ele>
        <time>2023-06-04T08:45:52.000Z</time>
      </trkpt>
      <trkpt lat="45.66841" lon="4.57393">
        <ele>689.6</ele>
        <time>2023-06-04T08:45:53.000Z</time>
      </trkpt>
      <trkpt lat="45.66852" lon="4.5739">
        <ele>689</ele>
        <time>2023-06-04T08:45:57.000Z</time>
      </trkpt>
      <trkpt lat="45.66855" lon="4.57391">
        <ele>689</ele>
        <time>2023-06-04T08:45:59.000Z</time>
      </trkpt>
      <trkpt lat="45.66865" lon="4.57394">
        <ele>689</ele>
        <time>2023-06-04T08:46:03.000Z</time>
      </trkpt>
      <trkpt lat="45.66871" lon="4.57398">
        <ele>689</ele>
        <time>2023-06-04T08:46:05.000Z</time>
      </trkpt>
      <trkpt lat="45.66875" lon="4.57403">
        <ele>689</ele>
        <time>2023-06-04T08:46:06.000Z</time>
      </trkpt>
      <trkpt lat="45.66885" lon="4.57413">
        <ele>689</ele>
        <time>2023-06-04T08:46:10.000Z</time>
      </trkpt>
      <trkpt lat="45.6689" lon="4.57423">
        <ele>687.8</ele>
        <time>2023-06-04T08:46:13.000Z</time>
      </trkpt>
      <trkpt lat="45.66891" lon="4.57426">
        <ele>687.8</ele>
        <time>2023-06-04T08:46:14.000Z</time>
      </trkpt>
      <trkpt lat="45.66888" lon="4.57429">
        <ele>685.8</ele>
        <time>2023-06-04T08:46:16.000Z</time>
      </trkpt>
      <trkpt lat="45.66884" lon="4.57431">
        <ele>684.8</ele>
        <time>2023-06-04T08:46:17.000Z</time>
      </trkpt>
      <trkpt lat="45.66881" lon="4.57432">
        <ele>684.2</ele>
        <time>2023-06-04T08:46:18.000Z</time>
      </trkpt>
      <trkpt lat="45.66874" lon="4.57435">
        <ele>682.6</ele>
        <time>2023-06-04T08:46:20.000Z</time>
      </trkpt>
      <trkpt lat="45.66868" lon="4.5744">
        <ele>680.8</ele>
        <time>2023-06-04T08:46:22.000Z</time>
      </trkpt>
      <trkpt lat="45.66863" lon="4.57446">
        <ele>680</ele>
        <time>2023-06-04T08:46:24.000Z</time>
      </trkpt>
      <trkpt lat="45.66861" lon="4.57449">
        <ele>679.4</ele>
        <time>2023-06-04T08:46:25.000Z</time>
      </trkpt>
      <trkpt lat="45.66861" lon="4.57457">
        <ele>677.2</ele>
        <time>2023-06-04T08:46:27.000Z</time>
      </trkpt>
      <trkpt lat="45.66862" lon="4.57462">
        <ele>676.2</ele>
        <time>2023-06-04T08:46:28.000Z</time>
      </trkpt>
      <trkpt lat="45.66865" lon="4.57465">
        <ele>675.6</ele>
        <time>2023-06-04T08:46:29.000Z</time>
      </trkpt>
      <trkpt lat="45.66869" lon="4.57469">
        <ele>674.6</ele>
        <time>2023-06-04T08:46:30.000Z</time>
      </trkpt>
      <trkpt lat="45.66874" lon="4.57472">
        <ele>674.2</ele>
        <time>2023-06-04T08:46:31.000Z</time>
      </trkpt>
      <trkpt lat="45.6688" lon="4.57474">
        <ele>673</ele>
        <time>2023-06-04T08:46:32.000Z</time>
      </trkpt>
      <trkpt lat="45.66892" lon="4.57475">
        <ele>671.6</ele>
        <time>2023-06-04T08:46:34.000Z</time>
      </trkpt>
      <trkpt lat="45.669" lon="4.57472">
        <ele>670.4</ele>
        <time>2023-06-04T08:46:35.000Z</time>
      </trkpt>
      <trkpt lat="45.66906" lon="4.57472">
        <ele>669.6</ele>
        <time>2023-06-04T08:46:36.000Z</time>
      </trkpt>
      <trkpt lat="45.6692" lon="4.57475">
        <ele>668.6</ele>
        <time>2023-06-04T08:46:38.000Z</time>
      </trkpt>
      <trkpt lat="45.66934" lon="4.57485">
        <ele>667.6</ele>
        <time>2023-06-04T08:46:40.000Z</time>
      </trkpt>
      <trkpt lat="45.66973" lon="4.57508">
        <ele>666</ele>
        <time>2023-06-04T08:46:44.000Z</time>
      </trkpt>
      <trkpt lat="45.67" lon="4.57525">
        <ele>664.6</ele>
        <time>2023-06-04T08:46:47.000Z</time>
      </trkpt>
      <trkpt lat="45.67008" lon="4.57529">
        <ele>663.2</ele>
        <time>2023-06-04T08:46:48.000Z</time>
      </trkpt>
      <trkpt lat="45.67014" lon="4.57533">
        <ele>661</ele>
        <time>2023-06-04T08:46:49.000Z</time>
      </trkpt>
      <trkpt lat="45.67019" lon="4.57536">
        <ele>659.6</ele>
        <time>2023-06-04T08:46:50.000Z</time>
      </trkpt>
      <trkpt lat="45.67024" lon="4.57537">
        <ele>657.8</ele>
        <time>2023-06-04T08:46:51.000Z</time>
      </trkpt>
      <trkpt lat="45.6703" lon="4.57535">
        <ele>656.4</ele>
        <time>2023-06-04T08:46:52.000Z</time>
      </trkpt>
      <trkpt lat="45.67037" lon="4.57532">
        <ele>655</ele>
        <time>2023-06-04T08:46:53.000Z</time>
      </trkpt>
      <trkpt lat="45.67044" lon="4.57529">
        <ele>654</ele>
        <time>2023-06-04T08:46:54.000Z</time>
      </trkpt>
      <trkpt lat="45.67051" lon="4.57528">
        <ele>653.4</ele>
        <time>2023-06-04T08:46:55.000Z</time>
      </trkpt>
      <trkpt lat="45.67058" lon="4.57531">
        <ele>652.6</ele>
        <time>2023-06-04T08:46:57.000Z</time>
      </trkpt>
      <trkpt lat="45.67063" lon="4.57547">
        <ele>651.8</ele>
        <time>2023-06-04T08:47:00.000Z</time>
      </trkpt>
      <trkpt lat="45.67066" lon="4.57553">
        <ele>650.6</ele>
        <time>2023-06-04T08:47:01.000Z</time>
      </trkpt>
      <trkpt lat="45.67069" lon="4.5756">
        <ele>649.2</ele>
        <time>2023-06-04T08:47:02.000Z</time>
      </trkpt>
      <trkpt lat="45.6707" lon="4.57568">
        <ele>648</ele>
        <time>2023-06-04T08:47:03.000Z</time>
      </trkpt>
      <trkpt lat="45.6707" lon="4.57577">
        <ele>647.2</ele>
        <time>2023-06-04T08:47:04.000Z</time>
      </trkpt>
      <trkpt lat="45.67067" lon="4.57584">
        <ele>646.8</ele>
        <time>2023-06-04T08:47:05.000Z</time>
      </trkpt>
      <trkpt lat="45.67055" lon="4.5761">
        <ele>646.4</ele>
        <time>2023-06-04T08:47:08.000Z</time>
      </trkpt>
      <trkpt lat="45.67051" lon="4.5762">
        <ele>645.6</ele>
        <time>2023-06-04T08:47:09.000Z</time>
      </trkpt>
      <trkpt lat="45.67037" lon="4.57644">
        <ele>644.6</ele>
        <time>2023-06-04T08:47:12.000Z</time>
      </trkpt>
      <trkpt lat="45.67025" lon="4.57655">
        <ele>643.8</ele>
        <time>2023-06-04T08:47:14.000Z</time>
      </trkpt>
      <trkpt lat="45.67018" lon="4.5766">
        <ele>642.6</ele>
        <time>2023-06-04T08:47:15.000Z</time>
      </trkpt>
      <trkpt lat="45.67012" lon="4.57664">
        <ele>641.8</ele>
        <time>2023-06-04T08:47:16.000Z</time>
      </trkpt>
      <trkpt lat="45.67006" lon="4.57669">
        <ele>641</ele>
        <time>2023-06-04T08:47:17.000Z</time>
      </trkpt>
      <trkpt lat="45.66997" lon="4.57684">
        <ele>640.2</ele>
        <time>2023-06-04T08:47:19.000Z</time>
      </trkpt>
      <trkpt lat="45.66994" lon="4.57694">
        <ele>639.8</ele>
        <time>2023-06-04T08:47:20.000Z</time>
      </trkpt>
      <trkpt lat="45.66989" lon="4.57717">
        <ele>639.8</ele>
        <time>2023-06-04T08:47:22.000Z</time>
      </trkpt>
      <trkpt lat="45.66984" lon="4.57742">
        <ele>639.4</ele>
        <time>2023-06-04T08:47:24.000Z</time>
      </trkpt>
      <trkpt lat="45.6698" lon="4.57757">
        <ele>639.4</ele>
        <time>2023-06-04T08:47:25.000Z</time>
      </trkpt>
      <trkpt lat="45.66977" lon="4.57767">
        <ele>639.2</ele>
        <time>2023-06-04T08:47:26.000Z</time>
      </trkpt>
      <trkpt lat="45.66972" lon="4.57789">
        <ele>638.4</ele>
        <time>2023-06-04T08:47:28.000Z</time>
      </trkpt>
      <trkpt lat="45.66969" lon="4.57802">
        <ele>637.8</ele>
        <time>2023-06-04T08:47:29.000Z</time>
      </trkpt>
      <trkpt lat="45.66968" lon="4.5781">
        <ele>637</ele>
        <time>2023-06-04T08:47:30.000Z</time>
      </trkpt>
      <trkpt lat="45.66965" lon="4.5782">
        <ele>636</ele>
        <time>2023-06-04T08:47:31.000Z</time>
      </trkpt>
      <trkpt lat="45.66963" lon="4.57829">
        <ele>635.4</ele>
        <time>2023-06-04T08:47:32.000Z</time>
      </trkpt>
      <trkpt lat="45.6696" lon="4.57846">
        <ele>634.2</ele>
        <time>2023-06-04T08:47:34.000Z</time>
      </trkpt>
      <trkpt lat="45.66959" lon="4.57854">
        <ele>634</ele>
        <time>2023-06-04T08:47:35.000Z</time>
      </trkpt>
      <trkpt lat="45.66959" lon="4.57872">
        <ele>633.8</ele>
        <time>2023-06-04T08:47:38.000Z</time>
      </trkpt>
      <trkpt lat="45.66959" lon="4.57888">
        <ele>633.8</ele>
        <time>2023-06-04T08:47:42.000Z</time>
      </trkpt>
      <trkpt lat="45.6696" lon="4.57905">
        <ele>635.4</ele>
        <time>2023-06-04T08:47:47.000Z</time>
      </trkpt>
      <trkpt lat="45.6696" lon="4.57912">
        <ele>636.2</ele>
        <time>2023-06-04T08:47:49.000Z</time>
      </trkpt>
      <trkpt lat="45.6696" lon="4.57915">
        <ele>636.8</ele>
        <time>2023-06-04T08:47:50.000Z</time>
      </trkpt>
      <trkpt lat="45.66959" lon="4.57924">
        <ele>638.2</ele>
        <time>2023-06-04T08:47:53.000Z</time>
      </trkpt>
      <trkpt lat="45.66958" lon="4.57931">
        <ele>639</ele>
        <time>2023-06-04T08:47:56.000Z</time>
      </trkpt>
      <trkpt lat="45.66958" lon="4.57934">
        <ele>639.4</ele>
        <time>2023-06-04T08:47:57.000Z</time>
      </trkpt>
      <trkpt lat="45.66956" lon="4.57944">
        <ele>640.4</ele>
        <time>2023-06-04T08:48:00.000Z</time>
      </trkpt>
      <trkpt lat="45.66955" lon="4.57947">
        <ele>640.6</ele>
        <time>2023-06-04T08:48:01.000Z</time>
      </trkpt>
      <trkpt lat="45.66951" lon="4.57968">
        <ele>641.6</ele>
        <time>2023-06-04T08:48:06.000Z</time>
      </trkpt>
      <trkpt lat="45.66951" lon="4.57978">
        <ele>641.8</ele>
        <time>2023-06-04T08:48:08.000Z</time>
      </trkpt>
      <trkpt lat="45.66951" lon="4.5799">
        <ele>642.2</ele>
        <time>2023-06-04T08:48:11.000Z</time>
      </trkpt>
      <trkpt lat="45.66953" lon="4.58006">
        <ele>642.4</ele>
        <time>2023-06-04T08:48:15.000Z</time>
      </trkpt>
      <trkpt lat="45.66955" lon="4.58016">
        <ele>642.8</ele>
        <time>2023-06-04T08:48:18.000Z</time>
      </trkpt>
      <trkpt lat="45.66957" lon="4.58023">
        <ele>643.2</ele>
        <time>2023-06-04T08:48:21.000Z</time>
      </trkpt>
      <trkpt lat="45.66958" lon="4.58032">
        <ele>643.8</ele>
        <time>2023-06-04T08:48:24.000Z</time>
      </trkpt>
      <trkpt lat="45.6696" lon="4.58043">
        <ele>644.6</ele>
        <time>2023-06-04T08:48:28.000Z</time>
      </trkpt>
      <trkpt lat="45.66961" lon="4.58046">
        <ele>644.8</ele>
        <time>2023-06-04T08:48:29.000Z</time>
      </trkpt>
      <trkpt lat="45.66964" lon="4.58067">
        <ele>646</ele>
        <time>2023-06-04T08:48:36.000Z</time>
      </trkpt>
      <trkpt lat="45.66966" lon="4.58075">
        <ele>646.6</ele>
        <time>2023-06-04T08:48:39.000Z</time>
      </trkpt>
      <trkpt lat="45.66967" lon="4.58081">
        <ele>647</ele>
        <time>2023-06-04T08:48:41.000Z</time>
      </trkpt>
      <trkpt lat="45.66967" lon="4.5809">
        <ele>647.6</ele>
        <time>2023-06-04T08:48:44.000Z</time>
      </trkpt>
      <trkpt lat="45.66968" lon="4.581">
        <ele>648</ele>
        <time>2023-06-04T08:48:47.000Z</time>
      </trkpt>
      <trkpt lat="45.66972" lon="4.58118">
        <ele>649.2</ele>
        <time>2023-06-04T08:48:53.000Z</time>
      </trkpt>
      <trkpt lat="45.66972" lon="4.58123">
        <ele>649.4</ele>
        <time>2023-06-04T08:48:55.000Z</time>
      </trkpt>
      <trkpt lat="45.66974" lon="4.58138">
        <ele>650.2</ele>
        <time>2023-06-04T08:49:00.000Z</time>
      </trkpt>
      <trkpt lat="45.66975" lon="4.58147">
        <ele>651</ele>
        <time>2023-06-04T08:49:03.000Z</time>
      </trkpt>
      <trkpt lat="45.66975" lon="4.5815">
        <ele>651.2</ele>
        <time>2023-06-04T08:49:04.000Z</time>
      </trkpt>
      <trkpt lat="45.66979" lon="4.58169">
        <ele>652.4</ele>
        <time>2023-06-04T08:49:10.000Z</time>
      </trkpt>
      <trkpt lat="45.66981" lon="4.58177">
        <ele>652.8</ele>
        <time>2023-06-04T08:49:13.000Z</time>
      </trkpt>
      <trkpt lat="45.66986" lon="4.58192">
        <ele>653.6</ele>
        <time>2023-06-04T08:49:18.000Z</time>
      </trkpt>
      <trkpt lat="45.6699" lon="4.58202">
        <ele>654</ele>
        <time>2023-06-04T08:49:22.000Z</time>
      </trkpt>
      <trkpt lat="45.66995" lon="4.58214">
        <ele>654.6</ele>
        <time>2023-06-04T08:49:26.000Z</time>
      </trkpt>
      <trkpt lat="45.66996" lon="4.58218">
        <ele>654.6</ele>
        <time>2023-06-04T08:49:27.000Z</time>
      </trkpt>
      <trkpt lat="45.67" lon="4.58229">
        <ele>654.8</ele>
        <time>2023-06-04T08:49:30.000Z</time>
      </trkpt>
      <trkpt lat="45.67005" lon="4.58239">
        <ele>654.8</ele>
        <time>2023-06-04T08:49:33.000Z</time>
      </trkpt>
      <trkpt lat="45.67013" lon="4.5825">
        <ele>655</ele>
        <time>2023-06-04T08:49:37.000Z</time>
      </trkpt>
      <trkpt lat="45.67023" lon="4.58262">
        <ele>655</ele>
        <time>2023-06-04T08:49:42.000Z</time>
      </trkpt>
      <trkpt lat="45.67041" lon="4.58282">
        <ele>655</ele>
        <time>2023-06-04T08:49:48.000Z</time>
      </trkpt>
      <trkpt lat="45.67051" lon="4.58295">
        <ele>655</ele>
        <time>2023-06-04T08:49:51.000Z</time>
      </trkpt>
      <trkpt lat="45.6706" lon="4.58301">
        <ele>654.4</ele>
        <time>2023-06-04T08:49:54.000Z</time>
      </trkpt>
      <trkpt lat="45.67075" lon="4.58292">
        <ele>654</ele>
        <time>2023-06-04T08:49:57.000Z</time>
      </trkpt>
      <trkpt lat="45.67098" lon="4.58275">
        <ele>653.6</ele>
        <time>2023-06-04T08:50:00.000Z</time>
      </trkpt>
      <trkpt lat="45.67105" lon="4.58271">
        <ele>653.4</ele>
        <time>2023-06-04T08:50:01.000Z</time>
      </trkpt>
      <trkpt lat="45.67112" lon="4.58269">
        <ele>652.6</ele>
        <time>2023-06-04T08:50:02.000Z</time>
      </trkpt>
      <trkpt lat="45.67118" lon="4.5827">
        <ele>652</ele>
        <time>2023-06-04T08:50:03.000Z</time>
      </trkpt>
      <trkpt lat="45.67127" lon="4.58282">
        <ele>651</ele>
        <time>2023-06-04T08:50:05.000Z</time>
      </trkpt>
      <trkpt lat="45.6713" lon="4.5829">
        <ele>650</ele>
        <time>2023-06-04T08:50:06.000Z</time>
      </trkpt>
      <trkpt lat="45.67132" lon="4.58299">
        <ele>649</ele>
        <time>2023-06-04T08:50:07.000Z</time>
      </trkpt>
      <trkpt lat="45.67134" lon="4.58308">
        <ele>647.4</ele>
        <time>2023-06-04T08:50:08.000Z</time>
      </trkpt>
      <trkpt lat="45.67137" lon="4.58328">
        <ele>646</ele>
        <time>2023-06-04T08:50:10.000Z</time>
      </trkpt>
      <trkpt lat="45.67139" lon="4.58338">
        <ele>645.8</ele>
        <time>2023-06-04T08:50:11.000Z</time>
      </trkpt>
      <trkpt lat="45.67146" lon="4.58355">
        <ele>645.4</ele>
        <time>2023-06-04T08:50:13.000Z</time>
      </trkpt>
      <trkpt lat="45.6715" lon="4.58363">
        <ele>645</ele>
        <time>2023-06-04T08:50:14.000Z</time>
      </trkpt>
      <trkpt lat="45.6716" lon="4.58382">
        <ele>643.8</ele>
        <time>2023-06-04T08:50:16.000Z</time>
      </trkpt>
      <trkpt lat="45.67164" lon="4.58393">
        <ele>643.6</ele>
        <time>2023-06-04T08:50:17.000Z</time>
      </trkpt>
      <trkpt lat="45.67172" lon="4.58405">
        <ele>642.8</ele>
        <time>2023-06-04T08:50:18.000Z</time>
      </trkpt>
      <trkpt lat="45.67185" lon="4.58424">
        <ele>641</ele>
        <time>2023-06-04T08:50:20.000Z</time>
      </trkpt>
      <trkpt lat="45.67192" lon="4.58433">
        <ele>640.2</ele>
        <time>2023-06-04T08:50:21.000Z</time>
      </trkpt>
      <trkpt lat="45.67197" lon="4.58443">
        <ele>639.2</ele>
        <time>2023-06-04T08:50:22.000Z</time>
      </trkpt>
      <trkpt lat="45.672" lon="4.58456">
        <ele>638</ele>
        <time>2023-06-04T08:50:23.000Z</time>
      </trkpt>
      <trkpt lat="45.672" lon="4.58468">
        <ele>636.6</ele>
        <time>2023-06-04T08:50:24.000Z</time>
      </trkpt>
      <trkpt lat="45.67199" lon="4.5848">
        <ele>635</ele>
        <time>2023-06-04T08:50:25.000Z</time>
      </trkpt>
      <trkpt lat="45.67199" lon="4.58488">
        <ele>634</ele>
        <time>2023-06-04T08:50:26.000Z</time>
      </trkpt>
      <trkpt lat="45.67199" lon="4.5851">
        <ele>632.8</ele>
        <time>2023-06-04T08:50:28.000Z</time>
      </trkpt>
      <trkpt lat="45.67201" lon="4.58528">
        <ele>631.6</ele>
        <time>2023-06-04T08:50:30.000Z</time>
      </trkpt>
      <trkpt lat="45.67203" lon="4.58537">
        <ele>631.4</ele>
        <time>2023-06-04T08:50:31.000Z</time>
      </trkpt>
      <trkpt lat="45.67211" lon="4.58551">
        <ele>631.2</ele>
        <time>2023-06-04T08:50:34.000Z</time>
      </trkpt>
      <trkpt lat="45.67232" lon="4.58568">
        <ele>631.6</ele>
        <time>2023-06-04T08:50:40.000Z</time>
      </trkpt>
      <trkpt lat="45.67251" lon="4.58581">
        <ele>632.8</ele>
        <time>2023-06-04T08:50:46.000Z</time>
      </trkpt>
      <trkpt lat="45.67254" lon="4.58583">
        <ele>632.8</ele>
        <time>2023-06-04T08:50:47.000Z</time>
      </trkpt>
      <trkpt lat="45.67269" lon="4.58587">
        <ele>633</ele>
        <time>2023-06-04T08:50:52.000Z</time>
      </trkpt>
      <trkpt lat="45.67286" lon="4.58587">
        <ele>633.2</ele>
        <time>2023-06-04T08:50:57.000Z</time>
      </trkpt>
      <trkpt lat="45.67288" lon="4.58586">
        <ele>633.2</ele>
        <time>2023-06-04T08:50:58.000Z</time>
      </trkpt>
      <trkpt lat="45.67304" lon="4.58581">
        <ele>633.2</ele>
        <time>2023-06-04T08:51:03.000Z</time>
      </trkpt>
      <trkpt lat="45.67311" lon="4.5858">
        <ele>633.4</ele>
        <time>2023-06-04T08:51:05.000Z</time>
      </trkpt>
      <trkpt lat="45.67318" lon="4.5858">
        <ele>633.8</ele>
        <time>2023-06-04T08:51:08.000Z</time>
      </trkpt>
      <trkpt lat="45.6732" lon="4.58579">
        <ele>634.2</ele>
        <time>2023-06-04T08:51:09.000Z</time>
      </trkpt>
      <trkpt lat="45.67336" lon="4.58572">
        <ele>634.8</ele>
        <time>2023-06-04T08:51:13.000Z</time>
      </trkpt>
      <trkpt lat="45.6734" lon="4.58573">
        <ele>634.8</ele>
        <time>2023-06-04T08:51:14.000Z</time>
      </trkpt>
      <trkpt lat="45.67364" lon="4.5857">
        <ele>635</ele>
        <time>2023-06-04T08:51:19.000Z</time>
      </trkpt>
      <trkpt lat="45.67391" lon="4.58569">
        <ele>635</ele>
        <time>2023-06-04T08:51:25.000Z</time>
      </trkpt>
      <trkpt lat="45.67403" lon="4.58575">
        <ele>634.4</ele>
        <time>2023-06-04T08:51:28.000Z</time>
      </trkpt>
      <trkpt lat="45.67412" lon="4.58583">
        <ele>634.4</ele>
        <time>2023-06-04T08:51:30.000Z</time>
      </trkpt>
      <trkpt lat="45.67434" lon="4.58589">
        <ele>634.4</ele>
        <time>2023-06-04T08:51:36.000Z</time>
      </trkpt>
      <trkpt lat="45.67456" lon="4.5861">
        <ele>635</ele>
        <time>2023-06-04T08:51:41.000Z</time>
      </trkpt>
      <trkpt lat="45.67474" lon="4.58626">
        <ele>635.2</ele>
        <time>2023-06-04T08:51:46.000Z</time>
      </trkpt>
      <trkpt lat="45.67495" lon="4.58634">
        <ele>635.4</ele>
        <time>2023-06-04T08:51:52.000Z</time>
      </trkpt>
      <trkpt lat="45.67514" lon="4.58625">
        <ele>635.6</ele>
        <time>2023-06-04T08:51:57.000Z</time>
      </trkpt>
      <trkpt lat="45.67522" lon="4.58619">
        <ele>635.6</ele>
        <time>2023-06-04T08:51:59.000Z</time>
      </trkpt>
      <trkpt lat="45.67527" lon="4.58614">
        <ele>635.6</ele>
        <time>2023-06-04T08:52:00.000Z</time>
      </trkpt>
      <trkpt lat="45.67537" lon="4.586">
        <ele>635.6</ele>
        <time>2023-06-04T08:52:02.000Z</time>
      </trkpt>
      <trkpt lat="45.67544" lon="4.58586">
        <ele>635.6</ele>
        <time>2023-06-04T08:52:05.000Z</time>
      </trkpt>
      <trkpt lat="45.67551" lon="4.58576">
        <ele>635.2</ele>
        <time>2023-06-04T08:52:09.000Z</time>
      </trkpt>
      <trkpt lat="45.67565" lon="4.58553">
        <ele>635</ele>
        <time>2023-06-04T08:52:16.000Z</time>
      </trkpt>
      <trkpt lat="45.67568" lon="4.58546">
        <ele>635.4</ele>
        <time>2023-06-04T08:52:19.000Z</time>
      </trkpt>
      <trkpt lat="45.6757" lon="4.58541">
        <ele>635.4</ele>
        <time>2023-06-04T08:52:21.000Z</time>
      </trkpt>
      <trkpt lat="45.67575" lon="4.58533">
        <ele>636.8</ele>
        <time>2023-06-04T08:52:26.000Z</time>
      </trkpt>
      <trkpt lat="45.67577" lon="4.58529">
        <ele>637.6</ele>
        <time>2023-06-04T08:52:28.000Z</time>
      </trkpt>
      <trkpt lat="45.67582" lon="4.58519">
        <ele>638</ele>
        <time>2023-06-04T08:52:31.000Z</time>
      </trkpt>
      <trkpt lat="45.67587" lon="4.58499">
        <ele>638.8</ele>
        <time>2023-06-04T08:52:37.000Z</time>
      </trkpt>
      <trkpt lat="45.67588" lon="4.58497">
        <ele>639.2</ele>
        <time>2023-06-04T08:52:38.000Z</time>
      </trkpt>
      <trkpt lat="45.67602" lon="4.58473">
        <ele>640</ele>
        <time>2023-06-04T08:52:45.000Z</time>
      </trkpt>
      <trkpt lat="45.67605" lon="4.58469">
        <ele>640.2</ele>
        <time>2023-06-04T08:52:46.000Z</time>
      </trkpt>
      <trkpt lat="45.67605" lon="4.58466">
        <ele>640.2</ele>
        <time>2023-06-04T08:52:47.000Z</time>
      </trkpt>
      <trkpt lat="45.67608" lon="4.58457">
        <ele>640.4</ele>
        <time>2023-06-04T08:52:50.000Z</time>
      </trkpt>
      <trkpt lat="45.67609" lon="4.58453">
        <ele>640.6</ele>
        <time>2023-06-04T08:52:51.000Z</time>
      </trkpt>
      <trkpt lat="45.67616" lon="4.58438">
        <ele>640.6</ele>
        <time>2023-06-04T08:52:55.000Z</time>
      </trkpt>
      <trkpt lat="45.6762" lon="4.58428">
        <ele>641</ele>
        <time>2023-06-04T08:52:58.000Z</time>
      </trkpt>
      <trkpt lat="45.67623" lon="4.58421">
        <ele>641.4</ele>
        <time>2023-06-04T08:53:01.000Z</time>
      </trkpt>
      <trkpt lat="45.67629" lon="4.58399">
        <ele>641.8</ele>
        <time>2023-06-04T08:53:07.000Z</time>
      </trkpt>
      <trkpt lat="45.67629" lon="4.58394">
        <ele>642.2</ele>
        <time>2023-06-04T08:53:09.000Z</time>
      </trkpt>
      <trkpt lat="45.67631" lon="4.5836">
        <ele>642.8</ele>
        <time>2023-06-04T08:53:15.000Z</time>
      </trkpt>
      <trkpt lat="45.67634" lon="4.58344">
        <ele>642.8</ele>
        <time>2023-06-04T08:53:19.000Z</time>
      </trkpt>
      <trkpt lat="45.67635" lon="4.58334">
        <ele>642.8</ele>
        <time>2023-06-04T08:53:21.000Z</time>
      </trkpt>
      <trkpt lat="45.67634" lon="4.58329">
        <ele>642.8</ele>
        <time>2023-06-04T08:53:22.000Z</time>
      </trkpt>
      <trkpt lat="45.67637" lon="4.58319">
        <ele>642.6</ele>
        <time>2023-06-04T08:53:24.000Z</time>
      </trkpt>
      <trkpt lat="45.6764" lon="4.58309">
        <ele>642.6</ele>
        <time>2023-06-04T08:53:26.000Z</time>
      </trkpt>
      <trkpt lat="45.67644" lon="4.58299">
        <ele>642.6</ele>
        <time>2023-06-04T08:53:28.000Z</time>
      </trkpt>
      <trkpt lat="45.67648" lon="4.58293">
        <ele>642.6</ele>
        <time>2023-06-04T08:53:30.000Z</time>
      </trkpt>
      <trkpt lat="45.6765" lon="4.58292">
        <ele>642.4</ele>
        <time>2023-06-04T08:53:31.000Z</time>
      </trkpt>
      <trkpt lat="45.67652" lon="4.58292">
        <ele>641.8</ele>
        <time>2023-06-04T08:53:33.000Z</time>
      </trkpt>
      <trkpt lat="45.67656" lon="4.58297">
        <ele>641.4</ele>
        <time>2023-06-04T08:53:35.000Z</time>
      </trkpt>
      <trkpt lat="45.6766" lon="4.58305">
        <ele>641.2</ele>
        <time>2023-06-04T08:53:40.000Z</time>
      </trkpt>
      <trkpt lat="45.67663" lon="4.58306">
        <ele>641.2</ele>
        <time>2023-06-04T08:53:43.000Z</time>
      </trkpt>
      <trkpt lat="45.67664" lon="4.58306">
        <ele>641.4</ele>
        <time>2023-06-04T08:53:44.000Z</time>
      </trkpt>
      <trkpt lat="45.67666" lon="4.58307">
        <ele>641.4</ele>
        <time>2023-06-04T08:53:46.000Z</time>
      </trkpt>
      <trkpt lat="45.67668" lon="4.58308">
        <ele>642</ele>
        <time>2023-06-04T08:53:48.000Z</time>
      </trkpt>
      <trkpt lat="45.67671" lon="4.5831">
        <ele>642.6</ele>
        <time>2023-06-04T08:53:51.000Z</time>
      </trkpt>
      <trkpt lat="45.67674" lon="4.58311">
        <ele>642.8</ele>
        <time>2023-06-04T08:53:54.000Z</time>
      </trkpt>
      <trkpt lat="45.67677" lon="4.58312">
        <ele>643.8</ele>
        <time>2023-06-04T08:53:57.000Z</time>
      </trkpt>
      <trkpt lat="45.67678" lon="4.58312">
        <ele>644.2</ele>
        <time>2023-06-04T08:53:58.000Z</time>
      </trkpt>
      <trkpt lat="45.67681" lon="4.58312">
        <ele>644.8</ele>
        <time>2023-06-04T08:54:01.000Z</time>
      </trkpt>
      <trkpt lat="45.67693" lon="4.58314">
        <ele>646</ele>
        <time>2023-06-04T08:54:07.000Z</time>
      </trkpt>
      <trkpt lat="45.67699" lon="4.58315">
        <ele>646.6</ele>
        <time>2023-06-04T08:54:10.000Z</time>
      </trkpt>
      <trkpt lat="45.67705" lon="4.58318">
        <ele>647</ele>
        <time>2023-06-04T08:54:13.000Z</time>
      </trkpt>
      <trkpt lat="45.6771" lon="4.58317">
        <ele>647.2</ele>
        <time>2023-06-04T08:54:15.000Z</time>
      </trkpt>
      <trkpt lat="45.6772" lon="4.58315">
        <ele>647.8</ele>
        <time>2023-06-04T08:54:19.000Z</time>
      </trkpt>
      <trkpt lat="45.67721" lon="4.58318">
        <ele>648</ele>
        <time>2023-06-04T08:54:21.000Z</time>
      </trkpt>
      <trkpt lat="45.67727" lon="4.58316">
        <ele>649.2</ele>
        <time>2023-06-04T08:54:26.000Z</time>
      </trkpt>
      <trkpt lat="45.67729" lon="4.58316">
        <ele>650.6</ele>
        <time>2023-06-04T08:54:30.000Z</time>
      </trkpt>
      <trkpt lat="45.67731" lon="4.58316">
        <ele>651</ele>
        <time>2023-06-04T08:54:32.000Z</time>
      </trkpt>
      <trkpt lat="45.67734" lon="4.58315">
        <ele>651.6</ele>
        <time>2023-06-04T08:54:34.000Z</time>
      </trkpt>
      <trkpt lat="45.67736" lon="4.58313">
        <ele>652</ele>
        <time>2023-06-04T08:54:36.000Z</time>
      </trkpt>
      <trkpt lat="45.67737" lon="4.58312">
        <ele>652.4</ele>
        <time>2023-06-04T08:54:39.000Z</time>
      </trkpt>
      <trkpt lat="45.6774" lon="4.58311">
        <ele>652.6</ele>
        <time>2023-06-04T08:54:41.000Z</time>
      </trkpt>
      <trkpt lat="45.67746" lon="4.5831">
        <ele>653.8</ele>
        <time>2023-06-04T08:54:46.000Z</time>
      </trkpt>
      <trkpt lat="45.67757" lon="4.58305">
        <ele>655</ele>
        <time>2023-06-04T08:54:52.000Z</time>
      </trkpt>
      <trkpt lat="45.67758" lon="4.583">
        <ele>655.6</ele>
        <time>2023-06-04T08:54:55.000Z</time>
      </trkpt>
      <trkpt lat="45.67761" lon="4.58297">
        <ele>656</ele>
        <time>2023-06-04T08:54:58.000Z</time>
      </trkpt>
      <trkpt lat="45.67763" lon="4.58293">
        <ele>656.2</ele>
        <time>2023-06-04T08:55:00.000Z</time>
      </trkpt>
      <trkpt lat="45.67763" lon="4.58292">
        <ele>656.6</ele>
        <time>2023-06-04T08:55:02.000Z</time>
      </trkpt>
      <trkpt lat="45.67767" lon="4.58287">
        <ele>657.2</ele>
        <time>2023-06-04T08:55:06.000Z</time>
      </trkpt>
      <trkpt lat="45.67768" lon="4.58284">
        <ele>657.6</ele>
        <time>2023-06-04T08:55:09.000Z</time>
      </trkpt>
      <trkpt lat="45.6777" lon="4.58279">
        <ele>658.4</ele>
        <time>2023-06-04T08:55:13.000Z</time>
      </trkpt>
      <trkpt lat="45.67772" lon="4.58275">
        <ele>659</ele>
        <time>2023-06-04T08:55:17.000Z</time>
      </trkpt>
      <trkpt lat="45.67773" lon="4.58273">
        <ele>659.6</ele>
        <time>2023-06-04T08:55:19.000Z</time>
      </trkpt>
      <trkpt lat="45.67776" lon="4.58268">
        <ele>660.2</ele>
        <time>2023-06-04T08:55:24.000Z</time>
      </trkpt>
      <trkpt lat="45.67777" lon="4.58265">
        <ele>660.6</ele>
        <time>2023-06-04T08:55:26.000Z</time>
      </trkpt>
      <trkpt lat="45.67777" lon="4.58263">
        <ele>661</ele>
        <time>2023-06-04T08:55:28.000Z</time>
      </trkpt>
      <trkpt lat="45.6778" lon="4.58257">
        <ele>661.8</ele>
        <time>2023-06-04T08:55:32.000Z</time>
      </trkpt>
      <trkpt lat="45.67782" lon="4.5825">
        <ele>662.8</ele>
        <time>2023-06-04T08:55:37.000Z</time>
      </trkpt>
      <trkpt lat="45.67783" lon="4.58245">
        <ele>664.2</ele>
        <time>2023-06-04T08:55:42.000Z</time>
      </trkpt>
      <trkpt lat="45.67784" lon="4.58243">
        <ele>664.2</ele>
        <time>2023-06-04T08:55:43.000Z</time>
      </trkpt>
      <trkpt lat="45.67788" lon="4.58238">
        <ele>665.2</ele>
        <time>2023-06-04T08:55:48.000Z</time>
      </trkpt>
      <trkpt lat="45.6779" lon="4.58233">
        <ele>666.4</ele>
        <time>2023-06-04T08:55:52.000Z</time>
      </trkpt>
      <trkpt lat="45.67792" lon="4.58232">
        <ele>666.6</ele>
        <time>2023-06-04T08:55:53.000Z</time>
      </trkpt>
      <trkpt lat="45.67793" lon="4.58231">
        <ele>667.2</ele>
        <time>2023-06-04T08:55:55.000Z</time>
      </trkpt>
      <trkpt lat="45.67795" lon="4.58229">
        <ele>667.4</ele>
        <time>2023-06-04T08:55:56.000Z</time>
      </trkpt>
      <trkpt lat="45.67797" lon="4.58227">
        <ele>668</ele>
        <time>2023-06-04T08:55:59.000Z</time>
      </trkpt>
      <trkpt lat="45.67798" lon="4.58226">
        <ele>668.2</ele>
        <time>2023-06-04T08:56:01.000Z</time>
      </trkpt>
      <trkpt lat="45.67799" lon="4.58225">
        <ele>668.4</ele>
        <time>2023-06-04T08:56:02.000Z</time>
      </trkpt>
      <trkpt lat="45.678" lon="4.58223">
        <ele>668.6</ele>
        <time>2023-06-04T08:56:05.000Z</time>
      </trkpt>
      <trkpt lat="45.67807" lon="4.58216">
        <ele>668.8</ele>
        <time>2023-06-04T08:56:10.000Z</time>
      </trkpt>
      <trkpt lat="45.67811" lon="4.58213">
        <ele>669</ele>
        <time>2023-06-04T08:56:12.000Z</time>
      </trkpt>
      <trkpt lat="45.67813" lon="4.5821">
        <ele>669</ele>
        <time>2023-06-04T08:56:14.000Z</time>
      </trkpt>
      <trkpt lat="45.67816" lon="4.58207">
        <ele>669</ele>
        <time>2023-06-04T08:56:16.000Z</time>
      </trkpt>
      <trkpt lat="45.67824" lon="4.58201">
        <ele>669.2</ele>
        <time>2023-06-04T08:56:21.000Z</time>
      </trkpt>
      <trkpt lat="45.67824" lon="4.582">
        <ele>669.4</ele>
        <time>2023-06-04T08:56:22.000Z</time>
      </trkpt>
      <trkpt lat="45.67832" lon="4.58183">
        <ele>670</ele>
        <time>2023-06-04T08:56:29.000Z</time>
      </trkpt>
      <trkpt lat="45.67837" lon="4.58177">
        <ele>670.4</ele>
        <time>2023-06-04T08:56:33.000Z</time>
      </trkpt>
      <trkpt lat="45.6784" lon="4.58173">
        <ele>670.6</ele>
        <time>2023-06-04T08:56:35.000Z</time>
      </trkpt>
      <trkpt lat="45.67843" lon="4.58168">
        <ele>671.2</ele>
        <time>2023-06-04T08:56:38.000Z</time>
      </trkpt>
      <trkpt lat="45.67845" lon="4.58166">
        <ele>671.6</ele>
        <time>2023-06-04T08:56:40.000Z</time>
      </trkpt>
      <trkpt lat="45.67848" lon="4.58165">
        <ele>672.2</ele>
        <time>2023-06-04T08:56:43.000Z</time>
      </trkpt>
      <trkpt lat="45.6785" lon="4.58166">
        <ele>672.8</ele>
        <time>2023-06-04T08:56:45.000Z</time>
      </trkpt>
      <trkpt lat="45.67855" lon="4.58165">
        <ele>673.8</ele>
        <time>2023-06-04T08:56:49.000Z</time>
      </trkpt>
      <trkpt lat="45.6786" lon="4.58165">
        <ele>674.8</ele>
        <time>2023-06-04T08:56:53.000Z</time>
      </trkpt>
      <trkpt lat="45.67861" lon="4.58165">
        <ele>675</ele>
        <time>2023-06-04T08:56:54.000Z</time>
      </trkpt>
      <trkpt lat="45.67866" lon="4.58164">
        <ele>676.2</ele>
        <time>2023-06-04T08:56:58.000Z</time>
      </trkpt>
      <trkpt lat="45.6787" lon="4.58162">
        <ele>677.2</ele>
        <time>2023-06-04T08:57:01.000Z</time>
      </trkpt>
      <trkpt lat="45.6787" lon="4.58161">
        <ele>677.4</ele>
        <time>2023-06-04T08:57:02.000Z</time>
      </trkpt>
      <trkpt lat="45.67877" lon="4.5816">
        <ele>678.8</ele>
        <time>2023-06-04T08:57:07.000Z</time>
      </trkpt>
      <trkpt lat="45.67886" lon="4.58158">
        <ele>679.8</ele>
        <time>2023-06-04T08:57:13.000Z</time>
      </trkpt>
      <trkpt lat="45.67898" lon="4.58157">
        <ele>680.6</ele>
        <time>2023-06-04T08:57:21.000Z</time>
      </trkpt>
      <trkpt lat="45.67913" lon="4.58156">
        <ele>680.8</ele>
        <time>2023-06-04T08:57:30.000Z</time>
      </trkpt>
      <trkpt lat="45.67926" lon="4.58155">
        <ele>680.8</ele>
        <time>2023-06-04T08:57:38.000Z</time>
      </trkpt>
      <trkpt lat="45.67931" lon="4.58153">
        <ele>681</ele>
        <time>2023-06-04T08:57:41.000Z</time>
      </trkpt>
      <trkpt lat="45.67939" lon="4.58149">
        <ele>682.2</ele>
        <time>2023-06-04T08:57:46.000Z</time>
      </trkpt>
      <trkpt lat="45.6794" lon="4.58148">
        <ele>682.4</ele>
        <time>2023-06-04T08:57:47.000Z</time>
      </trkpt>
      <trkpt lat="45.67945" lon="4.58145">
        <ele>683.4</ele>
        <time>2023-06-04T08:57:51.000Z</time>
      </trkpt>
      <trkpt lat="45.67951" lon="4.58141">
        <ele>684.6</ele>
        <time>2023-06-04T08:57:56.000Z</time>
      </trkpt>
      <trkpt lat="45.67955" lon="4.58139">
        <ele>685.6</ele>
        <time>2023-06-04T08:57:59.000Z</time>
      </trkpt>
      <trkpt lat="45.67964" lon="4.58135">
        <ele>686.8</ele>
        <time>2023-06-04T08:58:05.000Z</time>
      </trkpt>
      <trkpt lat="45.6797" lon="4.58134">
        <ele>687.6</ele>
        <time>2023-06-04T08:58:09.000Z</time>
      </trkpt>
      <trkpt lat="45.67972" lon="4.58135">
        <ele>687.8</ele>
        <time>2023-06-04T08:58:10.000Z</time>
      </trkpt>
      <trkpt lat="45.67981" lon="4.58134">
        <ele>688.8</ele>
        <time>2023-06-04T08:58:16.000Z</time>
      </trkpt>
      <trkpt lat="45.67984" lon="4.58135">
        <ele>689.2</ele>
        <time>2023-06-04T08:58:18.000Z</time>
      </trkpt>
      <trkpt lat="45.6799" lon="4.5814">
        <ele>690</ele>
        <time>2023-06-04T08:58:22.000Z</time>
      </trkpt>
      <trkpt lat="45.67998" lon="4.58148">
        <ele>690.6</ele>
        <time>2023-06-04T08:58:27.000Z</time>
      </trkpt>
      <trkpt lat="45.68003" lon="4.58153">
        <ele>691</ele>
        <time>2023-06-04T08:58:30.000Z</time>
      </trkpt>
      <trkpt lat="45.68015" lon="4.58171">
        <ele>691.6</ele>
        <time>2023-06-04T08:58:39.000Z</time>
      </trkpt>
      <trkpt lat="45.68019" lon="4.58179">
        <ele>692</ele>
        <time>2023-06-04T08:58:42.000Z</time>
      </trkpt>
      <trkpt lat="45.6802" lon="4.58185">
        <ele>692</ele>
        <time>2023-06-04T08:58:44.000Z</time>
      </trkpt>
      <trkpt lat="45.68022" lon="4.58189">
        <ele>692.2</ele>
        <time>2023-06-04T08:58:46.000Z</time>
      </trkpt>
      <trkpt lat="45.68025" lon="4.58192">
        <ele>692.2</ele>
        <time>2023-06-04T08:58:48.000Z</time>
      </trkpt>
      <trkpt lat="45.68031" lon="4.58198">
        <ele>693</ele>
        <time>2023-06-04T08:58:53.000Z</time>
      </trkpt>
      <trkpt lat="45.68032" lon="4.58198">
        <ele>693</ele>
        <time>2023-06-04T08:58:54.000Z</time>
      </trkpt>
      <trkpt lat="45.68035" lon="4.58199">
        <ele>693.4</ele>
        <time>2023-06-04T08:58:56.000Z</time>
      </trkpt>
      <trkpt lat="45.68038" lon="4.58196">
        <ele>694</ele>
        <time>2023-06-04T08:58:59.000Z</time>
      </trkpt>
      <trkpt lat="45.68041" lon="4.58195">
        <ele>694.6</ele>
        <time>2023-06-04T08:59:01.000Z</time>
      </trkpt>
      <trkpt lat="45.68043" lon="4.58192">
        <ele>695.2</ele>
        <time>2023-06-04T08:59:03.000Z</time>
      </trkpt>
      <trkpt lat="45.68046" lon="4.58186">
        <ele>696.4</ele>
        <time>2023-06-04T08:59:07.000Z</time>
      </trkpt>
      <trkpt lat="45.68046" lon="4.58185">
        <ele>696.8</ele>
        <time>2023-06-04T08:59:08.000Z</time>
      </trkpt>
      <trkpt lat="45.68048" lon="4.58179">
        <ele>697.6</ele>
        <time>2023-06-04T08:59:12.000Z</time>
      </trkpt>
      <trkpt lat="45.6805" lon="4.58172">
        <ele>698.8</ele>
        <time>2023-06-04T08:59:16.000Z</time>
      </trkpt>
      <trkpt lat="45.6805" lon="4.58169">
        <ele>699.2</ele>
        <time>2023-06-04T08:59:18.000Z</time>
      </trkpt>
      <trkpt lat="45.6805" lon="4.58163">
        <ele>700</ele>
        <time>2023-06-04T08:59:21.000Z</time>
      </trkpt>
      <trkpt lat="45.68051" lon="4.58156">
        <ele>701</ele>
        <time>2023-06-04T08:59:25.000Z</time>
      </trkpt>
      <trkpt lat="45.68052" lon="4.58151">
        <ele>702</ele>
        <time>2023-06-04T08:59:28.000Z</time>
      </trkpt>
      <trkpt lat="45.68052" lon="4.5815">
        <ele>702.4</ele>
        <time>2023-06-04T08:59:29.000Z</time>
      </trkpt>
      <trkpt lat="45.68052" lon="4.58142">
        <ele>703.2</ele>
        <time>2023-06-04T08:59:33.000Z</time>
      </trkpt>
      <trkpt lat="45.68051" lon="4.58134">
        <ele>704</ele>
        <time>2023-06-04T08:59:38.000Z</time>
      </trkpt>
      <trkpt lat="45.68051" lon="4.58132">
        <ele>704.2</ele>
        <time>2023-06-04T08:59:39.000Z</time>
      </trkpt>
      <trkpt lat="45.68051" lon="4.58129">
        <ele>704.6</ele>
        <time>2023-06-04T08:59:41.000Z</time>
      </trkpt>
      <trkpt lat="45.6805" lon="4.58127">
        <ele>704.8</ele>
        <time>2023-06-04T08:59:42.000Z</time>
      </trkpt>
      <trkpt lat="45.6805" lon="4.58124">
        <ele>705.4</ele>
        <time>2023-06-04T08:59:44.000Z</time>
      </trkpt>
      <trkpt lat="45.68049" lon="4.58117">
        <ele>706.4</ele>
        <time>2023-06-04T08:59:48.000Z</time>
      </trkpt>
      <trkpt lat="45.68048" lon="4.58108">
        <ele>707.6</ele>
        <time>2023-06-04T08:59:53.000Z</time>
      </trkpt>
      <trkpt lat="45.68045" lon="4.58098">
        <ele>708.6</ele>
        <time>2023-06-04T08:59:59.000Z</time>
      </trkpt>
      <trkpt lat="45.68045" lon="4.58096">
        <ele>708.8</ele>
        <time>2023-06-04T09:00:00.000Z</time>
      </trkpt>
      <trkpt lat="45.68042" lon="4.5809">
        <ele>710</ele>
        <time>2023-06-04T09:00:04.000Z</time>
      </trkpt>
      <trkpt lat="45.68039" lon="4.58086">
        <ele>710.6</ele>
        <time>2023-06-04T09:00:07.000Z</time>
      </trkpt>
      <trkpt lat="45.68038" lon="4.58083">
        <ele>711</ele>
        <time>2023-06-04T09:00:09.000Z</time>
      </trkpt>
      <trkpt lat="45.68032" lon="4.58072">
        <ele>712.2</ele>
        <time>2023-06-04T09:00:15.000Z</time>
      </trkpt>
      <trkpt lat="45.6803" lon="4.58069">
        <ele>712.4</ele>
        <time>2023-06-04T09:00:17.000Z</time>
      </trkpt>
      <trkpt lat="45.68025" lon="4.5806">
        <ele>713.2</ele>
        <time>2023-06-04T09:00:23.000Z</time>
      </trkpt>
      <trkpt lat="45.68024" lon="4.58058">
        <ele>713.4</ele>
        <time>2023-06-04T09:00:24.000Z</time>
      </trkpt>
      <trkpt lat="45.68023" lon="4.58057">
        <ele>713.4</ele>
        <time>2023-06-04T09:00:25.000Z</time>
      </trkpt>
      <trkpt lat="45.68019" lon="4.58049">
        <ele>714.2</ele>
        <time>2023-06-04T09:00:30.000Z</time>
      </trkpt>
      <trkpt lat="45.68015" lon="4.58042">
        <ele>715.2</ele>
        <time>2023-06-04T09:00:34.000Z</time>
      </trkpt>
      <trkpt lat="45.68015" lon="4.58041">
        <ele>715.4</ele>
        <time>2023-06-04T09:00:35.000Z</time>
      </trkpt>
      <trkpt lat="45.68014" lon="4.58036">
        <ele>716.4</ele>
        <time>2023-06-04T09:00:38.000Z</time>
      </trkpt>
      <trkpt lat="45.68014" lon="4.58034">
        <ele>716.6</ele>
        <time>2023-06-04T09:00:39.000Z</time>
      </trkpt>
      <trkpt lat="45.68016" lon="4.58033">
        <ele>716.8</ele>
        <time>2023-06-04T09:00:40.000Z</time>
      </trkpt>
      <trkpt lat="45.68023" lon="4.58032">
        <ele>717.8</ele>
        <time>2023-06-04T09:00:44.000Z</time>
      </trkpt>
      <trkpt lat="45.68024" lon="4.58033">
        <ele>718</ele>
        <time>2023-06-04T09:00:45.000Z</time>
      </trkpt>
      <trkpt lat="45.68028" lon="4.58036">
        <ele>718.6</ele>
        <time>2023-06-04T09:00:48.000Z</time>
      </trkpt>
      <trkpt lat="45.6803" lon="4.58038">
        <ele>718.8</ele>
        <time>2023-06-04T09:00:49.000Z</time>
      </trkpt>
      <trkpt lat="45.68031" lon="4.5804">
        <ele>719</ele>
        <time>2023-06-04T09:00:50.000Z</time>
      </trkpt>
      <trkpt lat="45.68039" lon="4.58045">
        <ele>720.2</ele>
        <time>2023-06-04T09:00:54.000Z</time>
      </trkpt>
      <trkpt lat="45.68045" lon="4.58051">
        <ele>721</ele>
        <time>2023-06-04T09:00:57.000Z</time>
      </trkpt>
      <trkpt lat="45.6805" lon="4.58055">
        <ele>721.2</ele>
        <time>2023-06-04T09:00:59.000Z</time>
      </trkpt>
      <trkpt lat="45.68061" lon="4.58064">
        <ele>721.8</ele>
        <time>2023-06-04T09:01:04.000Z</time>
      </trkpt>
      <trkpt lat="45.68078" lon="4.58082">
        <ele>722</ele>
        <time>2023-06-04T09:01:11.000Z</time>
      </trkpt>
      <trkpt lat="45.68084" lon="4.58087">
        <ele>722</ele>
        <time>2023-06-04T09:01:13.000Z</time>
      </trkpt>
      <trkpt lat="45.68093" lon="4.58097">
        <ele>721.8</ele>
        <time>2023-06-04T09:01:17.000Z</time>
      </trkpt>
      <trkpt lat="45.68101" lon="4.58105">
        <ele>721.8</ele>
        <time>2023-06-04T09:01:20.000Z</time>
      </trkpt>
      <trkpt lat="45.68114" lon="4.58121">
        <ele>721.6</ele>
        <time>2023-06-04T09:01:24.000Z</time>
      </trkpt>
      <trkpt lat="45.68133" lon="4.58148">
        <ele>721.4</ele>
        <time>2023-06-04T09:01:30.000Z</time>
      </trkpt>
      <trkpt lat="45.68145" lon="4.5817">
        <ele>721</ele>
        <time>2023-06-04T09:01:34.000Z</time>
      </trkpt>
      <trkpt lat="45.68163" lon="4.582">
        <ele>721</ele>
        <time>2023-06-04T09:01:41.000Z</time>
      </trkpt>
      <trkpt lat="45.68166" lon="4.58205">
        <ele>721.2</ele>
        <time>2023-06-04T09:01:42.000Z</time>
      </trkpt>
      <trkpt lat="45.68185" lon="4.58235">
        <ele>722.2</ele>
        <time>2023-06-04T09:01:50.000Z</time>
      </trkpt>
      <trkpt lat="45.68187" lon="4.58239">
        <ele>722.4</ele>
        <time>2023-06-04T09:01:51.000Z</time>
      </trkpt>
      <trkpt lat="45.68194" lon="4.58251">
        <ele>722.8</ele>
        <time>2023-06-04T09:01:54.000Z</time>
      </trkpt>
      <trkpt lat="45.68196" lon="4.58253">
        <ele>722.8</ele>
        <time>2023-06-04T09:01:55.000Z</time>
      </trkpt>
      <trkpt lat="45.68203" lon="4.58265">
        <ele>723.2</ele>
        <time>2023-06-04T09:01:58.000Z</time>
      </trkpt>
      <trkpt lat="45.68205" lon="4.58268">
        <ele>723.6</ele>
        <time>2023-06-04T09:01:59.000Z</time>
      </trkpt>
      <trkpt lat="45.6821" lon="4.58275">
        <ele>724</ele>
        <time>2023-06-04T09:02:01.000Z</time>
      </trkpt>
      <trkpt lat="45.68215" lon="4.58283">
        <ele>724.4</ele>
        <time>2023-06-04T09:02:03.000Z</time>
      </trkpt>
      <trkpt lat="45.68219" lon="4.58296">
        <ele>724.8</ele>
        <time>2023-06-04T09:02:06.000Z</time>
      </trkpt>
      <trkpt lat="45.68222" lon="4.58306">
        <ele>725</ele>
        <time>2023-06-04T09:02:10.000Z</time>
      </trkpt>
      <trkpt lat="45.68226" lon="4.58319">
        <ele>725.2</ele>
        <time>2023-06-04T09:02:14.000Z</time>
      </trkpt>
      <trkpt lat="45.68229" lon="4.58324">
        <ele>725.4</ele>
        <time>2023-06-04T09:02:16.000Z</time>
      </trkpt>
      <trkpt lat="45.68233" lon="4.58329">
        <ele>725.4</ele>
        <time>2023-06-04T09:02:18.000Z</time>
      </trkpt>
      <trkpt lat="45.68239" lon="4.58333">
        <ele>725.6</ele>
        <time>2023-06-04T09:02:21.000Z</time>
      </trkpt>
      <trkpt lat="45.68246" lon="4.58334">
        <ele>726</ele>
        <time>2023-06-04T09:02:25.000Z</time>
      </trkpt>
      <trkpt lat="45.68253" lon="4.58336">
        <ele>726.8</ele>
        <time>2023-06-04T09:02:29.000Z</time>
      </trkpt>
      <trkpt lat="45.68259" lon="4.58337">
        <ele>727.8</ele>
        <time>2023-06-04T09:02:33.000Z</time>
      </trkpt>
      <trkpt lat="45.68264" lon="4.58339">
        <ele>728.6</ele>
        <time>2023-06-04T09:02:36.000Z</time>
      </trkpt>
      <trkpt lat="45.68267" lon="4.5834">
        <ele>729</ele>
        <time>2023-06-04T09:02:38.000Z</time>
      </trkpt>
      <trkpt lat="45.68269" lon="4.58341">
        <ele>729.2</ele>
        <time>2023-06-04T09:02:39.000Z</time>
      </trkpt>
      <trkpt lat="45.68274" lon="4.58343">
        <ele>730</ele>
        <time>2023-06-04T09:02:43.000Z</time>
      </trkpt>
      <trkpt lat="45.68275" lon="4.58344">
        <ele>730.4</ele>
        <time>2023-06-04T09:02:44.000Z</time>
      </trkpt>
      <trkpt lat="45.68277" lon="4.58348">
        <ele>730.6</ele>
        <time>2023-06-04T09:02:46.000Z</time>
      </trkpt>
      <trkpt lat="45.68277" lon="4.58353">
        <ele>731</ele>
        <time>2023-06-04T09:02:48.000Z</time>
      </trkpt>
      <trkpt lat="45.68275" lon="4.58362">
        <ele>731.6</ele>
        <time>2023-06-04T09:02:51.000Z</time>
      </trkpt>
      <trkpt lat="45.68275" lon="4.58365">
        <ele>731.6</ele>
        <time>2023-06-04T09:02:52.000Z</time>
      </trkpt>
      <trkpt lat="45.68274" lon="4.58371">
        <ele>732</ele>
        <time>2023-06-04T09:02:54.000Z</time>
      </trkpt>
      <trkpt lat="45.68273" lon="4.58374">
        <ele>732</ele>
        <time>2023-06-04T09:02:55.000Z</time>
      </trkpt>
      <trkpt lat="45.68271" lon="4.58385">
        <ele>732.2</ele>
        <time>2023-06-04T09:02:59.000Z</time>
      </trkpt>
      <trkpt lat="45.68268" lon="4.58396">
        <ele>732.4</ele>
        <time>2023-06-04T09:03:03.000Z</time>
      </trkpt>
      <trkpt lat="45.68266" lon="4.58405">
        <ele>732.8</ele>
        <time>2023-06-04T09:03:07.000Z</time>
      </trkpt>
      <trkpt lat="45.68265" lon="4.5841">
        <ele>733.2</ele>
        <time>2023-06-04T09:03:09.000Z</time>
      </trkpt>
      <trkpt lat="45.68263" lon="4.5842">
        <ele>733.8</ele>
        <time>2023-06-04T09:03:13.000Z</time>
      </trkpt>
      <trkpt lat="45.68262" lon="4.58425">
        <ele>734.2</ele>
        <time>2023-06-04T09:03:15.000Z</time>
      </trkpt>
      <trkpt lat="45.68259" lon="4.58437">
        <ele>735.4</ele>
        <time>2023-06-04T09:03:20.000Z</time>
      </trkpt>
      <trkpt lat="45.68257" lon="4.58445">
        <ele>736.2</ele>
        <time>2023-06-04T09:03:23.000Z</time>
      </trkpt>
      <trkpt lat="45.68256" lon="4.5845">
        <ele>736.4</ele>
        <time>2023-06-04T09:03:25.000Z</time>
      </trkpt>
      <trkpt lat="45.68256" lon="4.58453">
        <ele>736.8</ele>
        <time>2023-06-04T09:03:26.000Z</time>
      </trkpt>
      <trkpt lat="45.68254" lon="4.58461">
        <ele>737.6</ele>
        <time>2023-06-04T09:03:30.000Z</time>
      </trkpt>
      <trkpt lat="45.68253" lon="4.58466">
        <ele>737.8</ele>
        <time>2023-06-04T09:03:32.000Z</time>
      </trkpt>
      <trkpt lat="45.68251" lon="4.58476">
        <ele>738.6</ele>
        <time>2023-06-04T09:03:36.000Z</time>
      </trkpt>
      <trkpt lat="45.68249" lon="4.58483">
        <ele>739.2</ele>
        <time>2023-06-04T09:03:39.000Z</time>
      </trkpt>
      <trkpt lat="45.68245" lon="4.58488">
        <ele>739.6</ele>
        <time>2023-06-04T09:03:41.000Z</time>
      </trkpt>
      <trkpt lat="45.68243" lon="4.5849">
        <ele>739.8</ele>
        <time>2023-06-04T09:03:42.000Z</time>
      </trkpt>
      <trkpt lat="45.68229" lon="4.58509">
        <ele>740</ele>
        <time>2023-06-04T09:03:49.000Z</time>
      </trkpt>
      <trkpt lat="45.68213" lon="4.58526">
        <ele>740</ele>
        <time>2023-06-04T09:03:54.000Z</time>
      </trkpt>
      <trkpt lat="45.68191" lon="4.58554">
        <ele>739.4</ele>
        <time>2023-06-04T09:04:00.000Z</time>
      </trkpt>
      <trkpt lat="45.68171" lon="4.5857">
        <ele>739</ele>
        <time>2023-06-04T09:04:03.000Z</time>
      </trkpt>
      <trkpt lat="45.68163" lon="4.58575">
        <ele>738.8</ele>
        <time>2023-06-04T09:04:04.000Z</time>
      </trkpt>
      <trkpt lat="45.68136" lon="4.58593">
        <ele>738</ele>
        <time>2023-06-04T09:04:07.000Z</time>
      </trkpt>
      <trkpt lat="45.68128" lon="4.58602">
        <ele>737.4</ele>
        <time>2023-06-04T09:04:08.000Z</time>
      </trkpt>
      <trkpt lat="45.6812" lon="4.58612">
        <ele>736.6</ele>
        <time>2023-06-04T09:04:09.000Z</time>
      </trkpt>
      <trkpt lat="45.68113" lon="4.58622">
        <ele>736.6</ele>
        <time>2023-06-04T09:04:10.000Z</time>
      </trkpt>
      <trkpt lat="45.68107" lon="4.58633">
        <ele>735.8</ele>
        <time>2023-06-04T09:04:11.000Z</time>
      </trkpt>
      <trkpt lat="45.68101" lon="4.58644">
        <ele>734.8</ele>
        <time>2023-06-04T09:04:12.000Z</time>
      </trkpt>
      <trkpt lat="45.68095" lon="4.58656">
        <ele>733.6</ele>
        <time>2023-06-04T09:04:13.000Z</time>
      </trkpt>
      <trkpt lat="45.68091" lon="4.58668">
        <ele>732.4</ele>
        <time>2023-06-04T09:04:14.000Z</time>
      </trkpt>
      <trkpt lat="45.68089" lon="4.58681">
        <ele>731</ele>
        <time>2023-06-04T09:04:15.000Z</time>
      </trkpt>
      <trkpt lat="45.68089" lon="4.58694">
        <ele>729.6</ele>
        <time>2023-06-04T09:04:16.000Z</time>
      </trkpt>
      <trkpt lat="45.68091" lon="4.58706">
        <ele>728.6</ele>
        <time>2023-06-04T09:04:17.000Z</time>
      </trkpt>
      <trkpt lat="45.68098" lon="4.58729">
        <ele>727.2</ele>
        <time>2023-06-04T09:04:19.000Z</time>
      </trkpt>
      <trkpt lat="45.6811" lon="4.58746">
        <ele>726.8</ele>
        <time>2023-06-04T09:04:21.000Z</time>
      </trkpt>
      <trkpt lat="45.68118" lon="4.58752">
        <ele>726.6</ele>
        <time>2023-06-04T09:04:22.000Z</time>
      </trkpt>
      <trkpt lat="45.6815" lon="4.58772">
        <ele>726.2</ele>
        <time>2023-06-04T09:04:25.000Z</time>
      </trkpt>
      <trkpt lat="45.68161" lon="4.58779">
        <ele>726</ele>
        <time>2023-06-04T09:04:26.000Z</time>
      </trkpt>
      <trkpt lat="45.68172" lon="4.58786">
        <ele>725.4</ele>
        <time>2023-06-04T09:04:27.000Z</time>
      </trkpt>
      <trkpt lat="45.68184" lon="4.5879">
        <ele>724.4</ele>
        <time>2023-06-04T09:04:28.000Z</time>
      </trkpt>
      <trkpt lat="45.68196" lon="4.58795">
        <ele>723.4</ele>
        <time>2023-06-04T09:04:29.000Z</time>
      </trkpt>
      <trkpt lat="45.68206" lon="4.58802">
        <ele>722.4</ele>
        <time>2023-06-04T09:04:30.000Z</time>
      </trkpt>
      <trkpt lat="45.68215" lon="4.58812">
        <ele>720.8</ele>
        <time>2023-06-04T09:04:31.000Z</time>
      </trkpt>
      <trkpt lat="45.68222" lon="4.58823">
        <ele>719.4</ele>
        <time>2023-06-04T09:04:32.000Z</time>
      </trkpt>
      <trkpt lat="45.68228" lon="4.58834">
        <ele>717.6</ele>
        <time>2023-06-04T09:04:33.000Z</time>
      </trkpt>
      <trkpt lat="45.68233" lon="4.5886">
        <ele>715.4</ele>
        <time>2023-06-04T09:04:35.000Z</time>
      </trkpt>
      <trkpt lat="45.68233" lon="4.58876">
        <ele>714.2</ele>
        <time>2023-06-04T09:04:36.000Z</time>
      </trkpt>
      <trkpt lat="45.68235" lon="4.58891">
        <ele>714.2</ele>
        <time>2023-06-04T09:04:37.000Z</time>
      </trkpt>
      <trkpt lat="45.68239" lon="4.58905">
        <ele>713.2</ele>
        <time>2023-06-04T09:04:38.000Z</time>
      </trkpt>
      <trkpt lat="45.68246" lon="4.58918">
        <ele>712.6</ele>
        <time>2023-06-04T09:04:39.000Z</time>
      </trkpt>
      <trkpt lat="45.68254" lon="4.58932">
        <ele>711.6</ele>
        <time>2023-06-04T09:04:40.000Z</time>
      </trkpt>
      <trkpt lat="45.68262" lon="4.58945">
        <ele>710.6</ele>
        <time>2023-06-04T09:04:41.000Z</time>
      </trkpt>
      <trkpt lat="45.6827" lon="4.5896">
        <ele>709.8</ele>
        <time>2023-06-04T09:04:42.000Z</time>
      </trkpt>
      <trkpt lat="45.68277" lon="4.58976">
        <ele>707.4</ele>
        <time>2023-06-04T09:04:43.000Z</time>
      </trkpt>
      <trkpt lat="45.68283" lon="4.58992">
        <ele>706.2</ele>
        <time>2023-06-04T09:04:44.000Z</time>
      </trkpt>
      <trkpt lat="45.68289" lon="4.59007">
        <ele>704.4</ele>
        <time>2023-06-04T09:04:45.000Z</time>
      </trkpt>
      <trkpt lat="45.68294" lon="4.59023">
        <ele>702.6</ele>
        <time>2023-06-04T09:04:46.000Z</time>
      </trkpt>
      <trkpt lat="45.68298" lon="4.59038">
        <ele>700.4</ele>
        <time>2023-06-04T09:04:47.000Z</time>
      </trkpt>
      <trkpt lat="45.68301" lon="4.59054">
        <ele>698.4</ele>
        <time>2023-06-04T09:04:48.000Z</time>
      </trkpt>
      <trkpt lat="45.68303" lon="4.59071">
        <ele>697</ele>
        <time>2023-06-04T09:04:49.000Z</time>
      </trkpt>
      <trkpt lat="45.68303" lon="4.59087">
        <ele>695.6</ele>
        <time>2023-06-04T09:04:50.000Z</time>
      </trkpt>
      <trkpt lat="45.68302" lon="4.59104">
        <ele>694.2</ele>
        <time>2023-06-04T09:04:51.000Z</time>
      </trkpt>
      <trkpt lat="45.683" lon="4.59121">
        <ele>693.2</ele>
        <time>2023-06-04T09:04:52.000Z</time>
      </trkpt>
      <trkpt lat="45.68297" lon="4.59136">
        <ele>692.4</ele>
        <time>2023-06-04T09:04:53.000Z</time>
      </trkpt>
      <trkpt lat="45.68293" lon="4.59151">
        <ele>691.8</ele>
        <time>2023-06-04T09:04:54.000Z</time>
      </trkpt>
      <trkpt lat="45.68287" lon="4.59163">
        <ele>691.2</ele>
        <time>2023-06-04T09:04:55.000Z</time>
      </trkpt>
      <trkpt lat="45.68276" lon="4.59187">
        <ele>690</ele>
        <time>2023-06-04T09:04:57.000Z</time>
      </trkpt>
      <trkpt lat="45.68268" lon="4.59208">
        <ele>688.8</ele>
        <time>2023-06-04T09:04:59.000Z</time>
      </trkpt>
      <trkpt lat="45.68262" lon="4.59226">
        <ele>688.4</ele>
        <time>2023-06-04T09:05:01.000Z</time>
      </trkpt>
      <trkpt lat="45.68265" lon="4.59238">
        <ele>688.4</ele>
        <time>2023-06-04T09:05:03.000Z</time>
      </trkpt>
      <trkpt lat="45.68274" lon="4.59242">
        <ele>688.4</ele>
        <time>2023-06-04T09:05:06.000Z</time>
      </trkpt>
      <trkpt lat="45.68279" lon="4.59244">
        <ele>688.4</ele>
        <time>2023-06-04T09:05:08.000Z</time>
      </trkpt>
      <trkpt lat="45.68285" lon="4.59247">
        <ele>689.6</ele>
        <time>2023-06-04T09:05:11.000Z</time>
      </trkpt>
      <trkpt lat="45.68287" lon="4.59248">
        <ele>690.2</ele>
        <time>2023-06-04T09:05:12.000Z</time>
      </trkpt>
      <trkpt lat="45.68291" lon="4.59249">
        <ele>691.2</ele>
        <time>2023-06-04T09:05:14.000Z</time>
      </trkpt>
      <trkpt lat="45.68295" lon="4.5925">
        <ele>692</ele>
        <time>2023-06-04T09:05:16.000Z</time>
      </trkpt>
      <trkpt lat="45.68297" lon="4.59251">
        <ele>692.6</ele>
        <time>2023-06-04T09:05:17.000Z</time>
      </trkpt>
      <trkpt lat="45.68304" lon="4.59254">
        <ele>693.6</ele>
        <time>2023-06-04T09:05:21.000Z</time>
      </trkpt>
      <trkpt lat="45.6831" lon="4.59244">
        <ele>694.4</ele>
        <time>2023-06-04T09:05:25.000Z</time>
      </trkpt>
      <trkpt lat="45.68312" lon="4.59238">
        <ele>694.8</ele>
        <time>2023-06-04T09:05:27.000Z</time>
      </trkpt>
      <trkpt lat="45.68315" lon="4.59231">
        <ele>695.2</ele>
        <time>2023-06-04T09:05:29.000Z</time>
      </trkpt>
      <trkpt lat="45.6832" lon="4.59216">
        <ele>695.4</ele>
        <time>2023-06-04T09:05:33.000Z</time>
      </trkpt>
      <trkpt lat="45.68325" lon="4.59204">
        <ele>695.8</ele>
        <time>2023-06-04T09:05:36.000Z</time>
      </trkpt>
      <trkpt lat="45.68329" lon="4.59196">
        <ele>695.8</ele>
        <time>2023-06-04T09:05:38.000Z</time>
      </trkpt>
      <trkpt lat="45.68335" lon="4.59183">
        <ele>695.8</ele>
        <time>2023-06-04T09:05:41.000Z</time>
      </trkpt>
      <trkpt lat="45.68336" lon="4.59179">
        <ele>696</ele>
        <time>2023-06-04T09:05:42.000Z</time>
      </trkpt>
      <trkpt lat="45.68338" lon="4.59175">
        <ele>696</ele>
        <time>2023-06-04T09:05:43.000Z</time>
      </trkpt>
      <trkpt lat="45.68341" lon="4.59169">
        <ele>696</ele>
        <time>2023-06-04T09:05:45.000Z</time>
      </trkpt>
      <trkpt lat="45.68343" lon="4.59164">
        <ele>696.2</ele>
        <time>2023-06-04T09:05:48.000Z</time>
      </trkpt>
      <trkpt lat="45.68343" lon="4.59164">
        <ele>697</ele>
        <time>2023-06-04T09:05:52.000Z</time>
      </trkpt>
      <trkpt lat="45.68345" lon="4.59163">
        <ele>697.8</ele>
        <time>2023-06-04T09:05:58.000Z</time>
      </trkpt>
      <trkpt lat="45.68345" lon="4.59163">
        <ele>697.8</ele>
        <time>2023-06-04T09:06:07.000Z</time>
      </trkpt>
      <trkpt lat="45.68345" lon="4.59163">
        <ele>697.8</ele>
        <time>2023-06-04T09:06:08.000Z</time>
      </trkpt>
      <trkpt lat="45.68345" lon="4.59163">
        <ele>697.8</ele>
        <time>2023-06-04T09:06:16.000Z</time>
      </trkpt>
      <trkpt lat="45.68345" lon="4.59163">
        <ele>697.6</ele>
        <time>2023-06-04T09:06:24.000Z</time>
      </trkpt>
      <trkpt lat="45.68345" lon="4.59163">
        <ele>697.6</ele>
        <time>2023-06-04T09:06:34.000Z</time>
      </trkpt>
      <trkpt lat="45.68345" lon="4.59163">
        <ele>697.6</ele>
        <time>2023-06-04T09:06:58.000Z</time>
      </trkpt>
      <trkpt lat="45.68345" lon="4.59163">
        <ele>697.6</ele>
        <time>2023-06-04T09:07:04.000Z</time>
      </trkpt>
      <trkpt lat="45.68345" lon="4.59163">
        <ele>697.4</ele>
        <time>2023-06-04T09:07:13.000Z</time>
      </trkpt>
      <trkpt lat="45.68345" lon="4.59163">
        <ele>697.4</ele>
        <time>2023-06-04T09:07:20.000Z</time>
      </trkpt>
      <trkpt lat="45.68345" lon="4.59163">
        <ele>697.4</ele>
        <time>2023-06-04T09:07:24.000Z</time>
      </trkpt>
      <trkpt lat="45.68345" lon="4.59163">
        <ele>697.4</ele>
        <time>2023-06-04T09:07:25.000Z</time>
      </trkpt>
      <trkpt lat="45.68345" lon="4.59163">
        <ele>697.4</ele>
        <time>2023-06-04T09:07:43.000Z</time>
      </trkpt>
      <trkpt lat="45.68345" lon="4.59163">
        <ele>697.4</ele>
        <time>2023-06-04T09:07:51.000Z</time>
      </trkpt>
      <trkpt lat="45.68345" lon="4.59163">
        <ele>697.4</ele>
        <time>2023-06-04T09:07:53.000Z</time>
      </trkpt>
      <trkpt lat="45.68345" lon="4.59163">
        <ele>697.6</ele>
        <time>2023-06-04T09:08:09.000Z</time>
      </trkpt>
      <trkpt lat="45.68344" lon="4.59164">
        <ele>698</ele>
        <time>2023-06-04T09:08:17.000Z</time>
      </trkpt>
      <trkpt lat="45.68344" lon="4.59165">
        <ele>698</ele>
        <time>2023-06-04T09:08:22.000Z</time>
      </trkpt>
      <trkpt lat="45.68339" lon="4.59172">
        <ele>698</ele>
        <time>2023-06-04T09:08:24.000Z</time>
      </trkpt>
      <trkpt lat="45.68326" lon="4.592">
        <ele>698</ele>
        <time>2023-06-04T09:08:29.000Z</time>
      </trkpt>
      <trkpt lat="45.68315" lon="4.59228">
        <ele>697</ele>
        <time>2023-06-04T09:08:34.000Z</time>
      </trkpt>
      <trkpt lat="45.68312" lon="4.59238">
        <ele>696.6</ele>
        <time>2023-06-04T09:08:36.000Z</time>
      </trkpt>
      <trkpt lat="45.68307" lon="4.59253">
        <ele>696</ele>
        <time>2023-06-04T09:08:39.000Z</time>
      </trkpt>
      <trkpt lat="45.68305" lon="4.59258">
        <ele>696</ele>
        <time>2023-06-04T09:08:40.000Z</time>
      </trkpt>
      <trkpt lat="45.68303" lon="4.59262">
        <ele>695.8</ele>
        <time>2023-06-04T09:08:41.000Z</time>
      </trkpt>
      <trkpt lat="45.68305" lon="4.59274">
        <ele>695.8</ele>
        <time>2023-06-04T09:08:45.000Z</time>
      </trkpt>
      <trkpt lat="45.68318" lon="4.59279">
        <ele>695.8</ele>
        <time>2023-06-04T09:08:50.000Z</time>
      </trkpt>
      <trkpt lat="45.68327" lon="4.59283">
        <ele>696.8</ele>
        <time>2023-06-04T09:08:53.000Z</time>
      </trkpt>
      <trkpt lat="45.6833" lon="4.59284">
        <ele>697.2</ele>
        <time>2023-06-04T09:08:54.000Z</time>
      </trkpt>
      <trkpt lat="45.68339" lon="4.59288">
        <ele>698.2</ele>
        <time>2023-06-04T09:08:57.000Z</time>
      </trkpt>
      <trkpt lat="45.68342" lon="4.59289">
        <ele>698.2</ele>
        <time>2023-06-04T09:08:58.000Z</time>
      </trkpt>
      <trkpt lat="45.68365" lon="4.59295">
        <ele>698.6</ele>
        <time>2023-06-04T09:09:06.000Z</time>
      </trkpt>
      <trkpt lat="45.68381" lon="4.59309">
        <ele>698.6</ele>
        <time>2023-06-04T09:09:11.000Z</time>
      </trkpt>
      <trkpt lat="45.68414" lon="4.59336">
        <ele>697.8</ele>
        <time>2023-06-04T09:09:18.000Z</time>
      </trkpt>
      <trkpt lat="45.68425" lon="4.59344">
        <ele>697</ele>
        <time>2023-06-04T09:09:20.000Z</time>
      </trkpt>
      <trkpt lat="45.68439" lon="4.59354">
        <ele>696</ele>
        <time>2023-06-04T09:09:23.000Z</time>
      </trkpt>
      <trkpt lat="45.68463" lon="4.59371">
        <ele>695.4</ele>
        <time>2023-06-04T09:09:28.000Z</time>
      </trkpt>
      <trkpt lat="45.68483" lon="4.59386">
        <ele>695.2</ele>
        <time>2023-06-04T09:09:32.000Z</time>
      </trkpt>
      <trkpt lat="45.68495" lon="4.594">
        <ele>695.2</ele>
        <time>2023-06-04T09:09:35.000Z</time>
      </trkpt>
      <trkpt lat="45.68498" lon="4.59405">
        <ele>695</ele>
        <time>2023-06-04T09:09:36.000Z</time>
      </trkpt>
      <trkpt lat="45.68504" lon="4.59414">
        <ele>694.8</ele>
        <time>2023-06-04T09:09:38.000Z</time>
      </trkpt>
      <trkpt lat="45.6851" lon="4.59422">
        <ele>694.6</ele>
        <time>2023-06-04T09:09:40.000Z</time>
      </trkpt>
      <trkpt lat="45.68531" lon="4.59447">
        <ele>694</ele>
        <time>2023-06-04T09:09:46.000Z</time>
      </trkpt>
      <trkpt lat="45.68534" lon="4.5946">
        <ele>693.8</ele>
        <time>2023-06-04T09:09:48.000Z</time>
      </trkpt>
      <trkpt lat="45.68534" lon="4.59467">
        <ele>693.8</ele>
        <time>2023-06-04T09:09:49.000Z</time>
      </trkpt>
      <trkpt lat="45.68533" lon="4.59474">
        <ele>693.8</ele>
        <time>2023-06-04T09:09:50.000Z</time>
      </trkpt>
      <trkpt lat="45.68531" lon="4.5948">
        <ele>693.8</ele>
        <time>2023-06-04T09:09:51.000Z</time>
      </trkpt>
      <trkpt lat="45.68526" lon="4.59497">
        <ele>692.4</ele>
        <time>2023-06-04T09:09:54.000Z</time>
      </trkpt>
      <trkpt lat="45.68514" lon="4.59535">
        <ele>691.6</ele>
        <time>2023-06-04T09:10:01.000Z</time>
      </trkpt>
      <trkpt lat="45.68506" lon="4.59566">
        <ele>691.6</ele>
        <time>2023-06-04T09:10:07.000Z</time>
      </trkpt>
      <trkpt lat="45.68492" lon="4.59595">
        <ele>691.4</ele>
        <time>2023-06-04T09:10:12.000Z</time>
      </trkpt>
      <trkpt lat="45.68478" lon="4.59618">
        <ele>691.2</ele>
        <time>2023-06-04T09:10:16.000Z</time>
      </trkpt>
      <trkpt lat="45.68463" lon="4.59641">
        <ele>690.8</ele>
        <time>2023-06-04T09:10:20.000Z</time>
      </trkpt>
      <trkpt lat="45.68455" lon="4.59652">
        <ele>690.4</ele>
        <time>2023-06-04T09:10:22.000Z</time>
      </trkpt>
      <trkpt lat="45.68436" lon="4.59679">
        <ele>689.4</ele>
        <time>2023-06-04T09:10:27.000Z</time>
      </trkpt>
      <trkpt lat="45.68412" lon="4.59707">
        <ele>688.2</ele>
        <time>2023-06-04T09:10:33.000Z</time>
      </trkpt>
      <trkpt lat="45.68408" lon="4.59711">
        <ele>688.2</ele>
        <time>2023-06-04T09:10:34.000Z</time>
      </trkpt>
      <trkpt lat="45.6839" lon="4.59731">
        <ele>687.6</ele>
        <time>2023-06-04T09:10:39.000Z</time>
      </trkpt>
      <trkpt lat="45.68383" lon="4.5974">
        <ele>687.6</ele>
        <time>2023-06-04T09:10:41.000Z</time>
      </trkpt>
      <trkpt lat="45.68376" lon="4.59751">
        <ele>687.2</ele>
        <time>2023-06-04T09:10:43.000Z</time>
      </trkpt>
      <trkpt lat="45.68373" lon="4.59757">
        <ele>686.8</ele>
        <time>2023-06-04T09:10:44.000Z</time>
      </trkpt>
      <trkpt lat="45.68367" lon="4.59773">
        <ele>685.8</ele>
        <time>2023-06-04T09:10:46.000Z</time>
      </trkpt>
      <trkpt lat="45.68365" lon="4.5978">
        <ele>685.4</ele>
        <time>2023-06-04T09:10:47.000Z</time>
      </trkpt>
      <trkpt lat="45.68362" lon="4.59785">
        <ele>685.2</ele>
        <time>2023-06-04T09:10:48.000Z</time>
      </trkpt>
      <trkpt lat="45.6836" lon="4.59789">
        <ele>684.4</ele>
        <time>2023-06-04T09:10:49.000Z</time>
      </trkpt>
      <trkpt lat="45.68357" lon="4.59794">
        <ele>683.4</ele>
        <time>2023-06-04T09:10:50.000Z</time>
      </trkpt>
      <trkpt lat="45.68355" lon="4.598">
        <ele>682.6</ele>
        <time>2023-06-04T09:10:51.000Z</time>
      </trkpt>
      <trkpt lat="45.68353" lon="4.59806">
        <ele>681</ele>
        <time>2023-06-04T09:10:52.000Z</time>
      </trkpt>
      <trkpt lat="45.68351" lon="4.59813">
        <ele>679.6</ele>
        <time>2023-06-04T09:10:53.000Z</time>
      </trkpt>
      <trkpt lat="45.68349" lon="4.5982">
        <ele>678.4</ele>
        <time>2023-06-04T09:10:54.000Z</time>
      </trkpt>
      <trkpt lat="45.68347" lon="4.59836">
        <ele>676</ele>
        <time>2023-06-04T09:10:56.000Z</time>
      </trkpt>
      <trkpt lat="45.68347" lon="4.59844">
        <ele>674.4</ele>
        <time>2023-06-04T09:10:57.000Z</time>
      </trkpt>
      <trkpt lat="45.68345" lon="4.5985">
        <ele>673.4</ele>
        <time>2023-06-04T09:10:58.000Z</time>
      </trkpt>
      <trkpt lat="45.6834" lon="4.59857">
        <ele>673.4</ele>
        <time>2023-06-04T09:10:59.000Z</time>
      </trkpt>
      <trkpt lat="45.68337" lon="4.59863">
        <ele>672.2</ele>
        <time>2023-06-04T09:11:00.000Z</time>
      </trkpt>
      <trkpt lat="45.68334" lon="4.59871">
        <ele>671.2</ele>
        <time>2023-06-04T09:11:01.000Z</time>
      </trkpt>
      <trkpt lat="45.68329" lon="4.59883">
        <ele>669.6</ele>
        <time>2023-06-04T09:11:02.000Z</time>
      </trkpt>
      <trkpt lat="45.68324" lon="4.59895">
        <ele>668</ele>
        <time>2023-06-04T09:11:03.000Z</time>
      </trkpt>
      <trkpt lat="45.68319" lon="4.59906">
        <ele>666.6</ele>
        <time>2023-06-04T09:11:04.000Z</time>
      </trkpt>
      <trkpt lat="45.68315" lon="4.59916">
        <ele>665.6</ele>
        <time>2023-06-04T09:11:05.000Z</time>
      </trkpt>
      <trkpt lat="45.68309" lon="4.5993">
        <ele>664.4</ele>
        <time>2023-06-04T09:11:06.000Z</time>
      </trkpt>
      <trkpt lat="45.68304" lon="4.5994">
        <ele>663.2</ele>
        <time>2023-06-04T09:11:07.000Z</time>
      </trkpt>
      <trkpt lat="45.68298" lon="4.59952">
        <ele>662.2</ele>
        <time>2023-06-04T09:11:08.000Z</time>
      </trkpt>
      <trkpt lat="45.68294" lon="4.59962">
        <ele>660.8</ele>
        <time>2023-06-04T09:11:09.000Z</time>
      </trkpt>
      <trkpt lat="45.68289" lon="4.59973">
        <ele>659.6</ele>
        <time>2023-06-04T09:11:10.000Z</time>
      </trkpt>
      <trkpt lat="45.68284" lon="4.59983">
        <ele>658.2</ele>
        <time>2023-06-04T09:11:11.000Z</time>
      </trkpt>
      <trkpt lat="45.68279" lon="4.59993">
        <ele>657</ele>
        <time>2023-06-04T09:11:12.000Z</time>
      </trkpt>
      <trkpt lat="45.68274" lon="4.60004">
        <ele>655.8</ele>
        <time>2023-06-04T09:11:13.000Z</time>
      </trkpt>
      <trkpt lat="45.68268" lon="4.60013">
        <ele>654.4</ele>
        <time>2023-06-04T09:11:14.000Z</time>
      </trkpt>
      <trkpt lat="45.68263" lon="4.60022">
        <ele>653.8</ele>
        <time>2023-06-04T09:11:15.000Z</time>
      </trkpt>
      <trkpt lat="45.68257" lon="4.60031">
        <ele>653.2</ele>
        <time>2023-06-04T09:11:16.000Z</time>
      </trkpt>
      <trkpt lat="45.68244" lon="4.60053">
        <ele>651.8</ele>
        <time>2023-06-04T09:11:18.000Z</time>
      </trkpt>
      <trkpt lat="45.6824" lon="4.6006">
        <ele>651</ele>
        <time>2023-06-04T09:11:19.000Z</time>
      </trkpt>
      <trkpt lat="45.68236" lon="4.60068">
        <ele>650.6</ele>
        <time>2023-06-04T09:11:20.000Z</time>
      </trkpt>
      <trkpt lat="45.68228" lon="4.60085">
        <ele>649.2</ele>
        <time>2023-06-04T09:11:22.000Z</time>
      </trkpt>
      <trkpt lat="45.68219" lon="4.601">
        <ele>647.8</ele>
        <time>2023-06-04T09:11:24.000Z</time>
      </trkpt>
      <trkpt lat="45.68213" lon="4.60109">
        <ele>647.2</ele>
        <time>2023-06-04T09:11:25.000Z</time>
      </trkpt>
      <trkpt lat="45.68205" lon="4.60123">
        <ele>646.8</ele>
        <time>2023-06-04T09:11:27.000Z</time>
      </trkpt>
      <trkpt lat="45.68201" lon="4.60128">
        <ele>646.2</ele>
        <time>2023-06-04T09:11:28.000Z</time>
      </trkpt>
      <trkpt lat="45.68198" lon="4.60132">
        <ele>646</ele>
        <time>2023-06-04T09:11:29.000Z</time>
      </trkpt>
      <trkpt lat="45.68195" lon="4.60152">
        <ele>644.8</ele>
        <time>2023-06-04T09:11:32.000Z</time>
      </trkpt>
      <trkpt lat="45.68193" lon="4.60161">
        <ele>643.8</ele>
        <time>2023-06-04T09:11:34.000Z</time>
      </trkpt>
      <trkpt lat="45.6819" lon="4.60169">
        <ele>642.4</ele>
        <time>2023-06-04T09:11:36.000Z</time>
      </trkpt>
      <trkpt lat="45.68182" lon="4.60189">
        <ele>640.4</ele>
        <time>2023-06-04T09:11:39.000Z</time>
      </trkpt>
      <trkpt lat="45.6818" lon="4.60197">
        <ele>638.8</ele>
        <time>2023-06-04T09:11:40.000Z</time>
      </trkpt>
      <trkpt lat="45.68178" lon="4.60204">
        <ele>637</ele>
        <time>2023-06-04T09:11:41.000Z</time>
      </trkpt>
      <trkpt lat="45.68175" lon="4.60215">
        <ele>634.4</ele>
        <time>2023-06-04T09:11:43.000Z</time>
      </trkpt>
      <trkpt lat="45.68173" lon="4.60221">
        <ele>633</ele>
        <time>2023-06-04T09:11:44.000Z</time>
      </trkpt>
      <trkpt lat="45.68172" lon="4.60225">
        <ele>631.4</ele>
        <time>2023-06-04T09:11:45.000Z</time>
      </trkpt>
      <trkpt lat="45.68172" lon="4.60228">
        <ele>629.8</ele>
        <time>2023-06-04T09:11:46.000Z</time>
      </trkpt>
      <trkpt lat="45.68173" lon="4.6023">
        <ele>629</ele>
        <time>2023-06-04T09:11:47.000Z</time>
      </trkpt>
      <trkpt lat="45.68174" lon="4.60232">
        <ele>627.4</ele>
        <time>2023-06-04T09:11:48.000Z</time>
      </trkpt>
      <trkpt lat="45.68176" lon="4.60234">
        <ele>625.8</ele>
        <time>2023-06-04T09:11:49.000Z</time>
      </trkpt>
      <trkpt lat="45.68178" lon="4.60236">
        <ele>624.4</ele>
        <time>2023-06-04T09:11:50.000Z</time>
      </trkpt>
      <trkpt lat="45.68181" lon="4.60239">
        <ele>623</ele>
        <time>2023-06-04T09:11:51.000Z</time>
      </trkpt>
      <trkpt lat="45.68184" lon="4.60241">
        <ele>622.2</ele>
        <time>2023-06-04T09:11:52.000Z</time>
      </trkpt>
      <trkpt lat="45.68187" lon="4.60243">
        <ele>621.4</ele>
        <time>2023-06-04T09:11:53.000Z</time>
      </trkpt>
      <trkpt lat="45.682" lon="4.60251">
        <ele>620.2</ele>
        <time>2023-06-04T09:11:56.000Z</time>
      </trkpt>
      <trkpt lat="45.68205" lon="4.60251">
        <ele>619.6</ele>
        <time>2023-06-04T09:11:57.000Z</time>
      </trkpt>
      <trkpt lat="45.68209" lon="4.6025">
        <ele>619.2</ele>
        <time>2023-06-04T09:11:58.000Z</time>
      </trkpt>
      <trkpt lat="45.68219" lon="4.60252">
        <ele>618</ele>
        <time>2023-06-04T09:12:00.000Z</time>
      </trkpt>
      <trkpt lat="45.68225" lon="4.60257">
        <ele>617</ele>
        <time>2023-06-04T09:12:01.000Z</time>
      </trkpt>
      <trkpt lat="45.68229" lon="4.60265">
        <ele>616.2</ele>
        <time>2023-06-04T09:12:02.000Z</time>
      </trkpt>
      <trkpt lat="45.68231" lon="4.60272">
        <ele>615.6</ele>
        <time>2023-06-04T09:12:03.000Z</time>
      </trkpt>
      <trkpt lat="45.68233" lon="4.60279">
        <ele>615</ele>
        <time>2023-06-04T09:12:04.000Z</time>
      </trkpt>
      <trkpt lat="45.68236" lon="4.60289">
        <ele>614.2</ele>
        <time>2023-06-04T09:12:05.000Z</time>
      </trkpt>
      <trkpt lat="45.68238" lon="4.60307">
        <ele>612.2</ele>
        <time>2023-06-04T09:12:07.000Z</time>
      </trkpt>
      <trkpt lat="45.68237" lon="4.60322">
        <ele>611</ele>
        <time>2023-06-04T09:12:09.000Z</time>
      </trkpt>
      <trkpt lat="45.68236" lon="4.6034">
        <ele>609</ele>
        <time>2023-06-04T09:12:11.000Z</time>
      </trkpt>
      <trkpt lat="45.68236" lon="4.60346">
        <ele>607.8</ele>
        <time>2023-06-04T09:12:12.000Z</time>
      </trkpt>
      <trkpt lat="45.68235" lon="4.60353">
        <ele>606.6</ele>
        <time>2023-06-04T09:12:13.000Z</time>
      </trkpt>
      <trkpt lat="45.68234" lon="4.60368">
        <ele>605.2</ele>
        <time>2023-06-04T09:12:15.000Z</time>
      </trkpt>
      <trkpt lat="45.68232" lon="4.60377">
        <ele>604</ele>
        <time>2023-06-04T09:12:16.000Z</time>
      </trkpt>
      <trkpt lat="45.68229" lon="4.60385">
        <ele>603</ele>
        <time>2023-06-04T09:12:17.000Z</time>
      </trkpt>
      <trkpt lat="45.68226" lon="4.60395">
        <ele>601.6</ele>
        <time>2023-06-04T09:12:18.000Z</time>
      </trkpt>
      <trkpt lat="45.68224" lon="4.60405">
        <ele>600.2</ele>
        <time>2023-06-04T09:12:19.000Z</time>
      </trkpt>
      <trkpt lat="45.68222" lon="4.60413">
        <ele>598.8</ele>
        <time>2023-06-04T09:12:20.000Z</time>
      </trkpt>
      <trkpt lat="45.68221" lon="4.60422">
        <ele>598</ele>
        <time>2023-06-04T09:12:21.000Z</time>
      </trkpt>
      <trkpt lat="45.6822" lon="4.60429">
        <ele>597.2</ele>
        <time>2023-06-04T09:12:22.000Z</time>
      </trkpt>
      <trkpt lat="45.68218" lon="4.60449">
        <ele>596.4</ele>
        <time>2023-06-04T09:12:24.000Z</time>
      </trkpt>
      <trkpt lat="45.68216" lon="4.60456">
        <ele>595.6</ele>
        <time>2023-06-04T09:12:25.000Z</time>
      </trkpt>
      <trkpt lat="45.68208" lon="4.60469">
        <ele>594.2</ele>
        <time>2023-06-04T09:12:27.000Z</time>
      </trkpt>
      <trkpt lat="45.68198" lon="4.60479">
        <ele>592.6</ele>
        <time>2023-06-04T09:12:29.000Z</time>
      </trkpt>
      <trkpt lat="45.68189" lon="4.60491">
        <ele>591.4</ele>
        <time>2023-06-04T09:12:31.000Z</time>
      </trkpt>
      <trkpt lat="45.68186" lon="4.60497">
        <ele>590.4</ele>
        <time>2023-06-04T09:12:32.000Z</time>
      </trkpt>
      <trkpt lat="45.68185" lon="4.60505">
        <ele>589.2</ele>
        <time>2023-06-04T09:12:33.000Z</time>
      </trkpt>
      <trkpt lat="45.68184" lon="4.60515">
        <ele>587.8</ele>
        <time>2023-06-04T09:12:34.000Z</time>
      </trkpt>
      <trkpt lat="45.68186" lon="4.60536">
        <ele>586.6</ele>
        <time>2023-06-04T09:12:36.000Z</time>
      </trkpt>
      <trkpt lat="45.68186" lon="4.60559">
        <ele>585.6</ele>
        <time>2023-06-04T09:12:38.000Z</time>
      </trkpt>
      <trkpt lat="45.68183" lon="4.6058">
        <ele>584.6</ele>
        <time>2023-06-04T09:12:40.000Z</time>
      </trkpt>
      <trkpt lat="45.68182" lon="4.6059">
        <ele>583.8</ele>
        <time>2023-06-04T09:12:41.000Z</time>
      </trkpt>
      <trkpt lat="45.68182" lon="4.60602">
        <ele>583.2</ele>
        <time>2023-06-04T09:12:42.000Z</time>
      </trkpt>
      <trkpt lat="45.68183" lon="4.60625">
        <ele>582.2</ele>
        <time>2023-06-04T09:12:44.000Z</time>
      </trkpt>
      <trkpt lat="45.68181" lon="4.60634">
        <ele>581.8</ele>
        <time>2023-06-04T09:12:45.000Z</time>
      </trkpt>
      <trkpt lat="45.68178" lon="4.60646">
        <ele>581.4</ele>
        <time>2023-06-04T09:12:46.000Z</time>
      </trkpt>
      <trkpt lat="45.68176" lon="4.60653">
        <ele>580.6</ele>
        <time>2023-06-04T09:12:47.000Z</time>
      </trkpt>
      <trkpt lat="45.68173" lon="4.60661">
        <ele>580</ele>
        <time>2023-06-04T09:12:48.000Z</time>
      </trkpt>
      <trkpt lat="45.68169" lon="4.6067">
        <ele>579.4</ele>
        <time>2023-06-04T09:12:49.000Z</time>
      </trkpt>
      <trkpt lat="45.68164" lon="4.60679">
        <ele>579.4</ele>
        <time>2023-06-04T09:12:50.000Z</time>
      </trkpt>
      <trkpt lat="45.68157" lon="4.60697">
        <ele>578</ele>
        <time>2023-06-04T09:12:52.000Z</time>
      </trkpt>
      <trkpt lat="45.6815" lon="4.60716">
        <ele>576.6</ele>
        <time>2023-06-04T09:12:54.000Z</time>
      </trkpt>
      <trkpt lat="45.68141" lon="4.60734">
        <ele>575</ele>
        <time>2023-06-04T09:12:56.000Z</time>
      </trkpt>
      <trkpt lat="45.68138" lon="4.6074">
        <ele>574.4</ele>
        <time>2023-06-04T09:12:57.000Z</time>
      </trkpt>
      <trkpt lat="45.68134" lon="4.60745">
        <ele>573.6</ele>
        <time>2023-06-04T09:12:58.000Z</time>
      </trkpt>
      <trkpt lat="45.6813" lon="4.6075">
        <ele>572.4</ele>
        <time>2023-06-04T09:12:59.000Z</time>
      </trkpt>
      <trkpt lat="45.68125" lon="4.60756">
        <ele>571.2</ele>
        <time>2023-06-04T09:13:00.000Z</time>
      </trkpt>
      <trkpt lat="45.68121" lon="4.60762">
        <ele>570</ele>
        <time>2023-06-04T09:13:01.000Z</time>
      </trkpt>
      <trkpt lat="45.68112" lon="4.60779">
        <ele>567.8</ele>
        <time>2023-06-04T09:13:03.000Z</time>
      </trkpt>
      <trkpt lat="45.68104" lon="4.60799">
        <ele>565.8</ele>
        <time>2023-06-04T09:13:05.000Z</time>
      </trkpt>
      <trkpt lat="45.68095" lon="4.6082">
        <ele>564.2</ele>
        <time>2023-06-04T09:13:07.000Z</time>
      </trkpt>
      <trkpt lat="45.68091" lon="4.6083">
        <ele>563</ele>
        <time>2023-06-04T09:13:08.000Z</time>
      </trkpt>
      <trkpt lat="45.68088" lon="4.60838">
        <ele>561.6</ele>
        <time>2023-06-04T09:13:09.000Z</time>
      </trkpt>
      <trkpt lat="45.68086" lon="4.60847">
        <ele>560.6</ele>
        <time>2023-06-04T09:13:10.000Z</time>
      </trkpt>
      <trkpt lat="45.68084" lon="4.60858">
        <ele>559</ele>
        <time>2023-06-04T09:13:11.000Z</time>
      </trkpt>
      <trkpt lat="45.68082" lon="4.60866">
        <ele>557.6</ele>
        <time>2023-06-04T09:13:12.000Z</time>
      </trkpt>
      <trkpt lat="45.68081" lon="4.60876">
        <ele>556.2</ele>
        <time>2023-06-04T09:13:13.000Z</time>
      </trkpt>
      <trkpt lat="45.6808" lon="4.60886">
        <ele>554.6</ele>
        <time>2023-06-04T09:13:14.000Z</time>
      </trkpt>
      <trkpt lat="45.68078" lon="4.60897">
        <ele>553.4</ele>
        <time>2023-06-04T09:13:15.000Z</time>
      </trkpt>
      <trkpt lat="45.68068" lon="4.60934">
        <ele>552.2</ele>
        <time>2023-06-04T09:13:18.000Z</time>
      </trkpt>
      <trkpt lat="45.68066" lon="4.60946">
        <ele>551.2</ele>
        <time>2023-06-04T09:13:19.000Z</time>
      </trkpt>
      <trkpt lat="45.68065" lon="4.60958">
        <ele>549.8</ele>
        <time>2023-06-04T09:13:20.000Z</time>
      </trkpt>
      <trkpt lat="45.68065" lon="4.6097">
        <ele>548.6</ele>
        <time>2023-06-04T09:13:21.000Z</time>
      </trkpt>
      <trkpt lat="45.68064" lon="4.60981">
        <ele>547</ele>
        <time>2023-06-04T09:13:22.000Z</time>
      </trkpt>
      <trkpt lat="45.68064" lon="4.60991">
        <ele>545.6</ele>
        <time>2023-06-04T09:13:23.000Z</time>
      </trkpt>
      <trkpt lat="45.68065" lon="4.61">
        <ele>544.2</ele>
        <time>2023-06-04T09:13:24.000Z</time>
      </trkpt>
      <trkpt lat="45.68066" lon="4.61022">
        <ele>542.8</ele>
        <time>2023-06-04T09:13:26.000Z</time>
      </trkpt>
      <trkpt lat="45.68067" lon="4.61033">
        <ele>541.6</ele>
        <time>2023-06-04T09:13:27.000Z</time>
      </trkpt>
      <trkpt lat="45.68069" lon="4.61043">
        <ele>540.8</ele>
        <time>2023-06-04T09:13:28.000Z</time>
      </trkpt>
      <trkpt lat="45.68071" lon="4.61054">
        <ele>540.4</ele>
        <time>2023-06-04T09:13:29.000Z</time>
      </trkpt>
      <trkpt lat="45.68073" lon="4.61062">
        <ele>540</ele>
        <time>2023-06-04T09:13:30.000Z</time>
      </trkpt>
      <trkpt lat="45.6808" lon="4.61074">
        <ele>538.8</ele>
        <time>2023-06-04T09:13:32.000Z</time>
      </trkpt>
      <trkpt lat="45.68086" lon="4.61079">
        <ele>537.2</ele>
        <time>2023-06-04T09:13:33.000Z</time>
      </trkpt>
      <trkpt lat="45.68098" lon="4.61089">
        <ele>535.2</ele>
        <time>2023-06-04T09:13:35.000Z</time>
      </trkpt>
      <trkpt lat="45.68105" lon="4.61094">
        <ele>533.8</ele>
        <time>2023-06-04T09:13:36.000Z</time>
      </trkpt>
      <trkpt lat="45.68112" lon="4.611">
        <ele>532.6</ele>
        <time>2023-06-04T09:13:37.000Z</time>
      </trkpt>
      <trkpt lat="45.68119" lon="4.61105">
        <ele>531.4</ele>
        <time>2023-06-04T09:13:38.000Z</time>
      </trkpt>
      <trkpt lat="45.68134" lon="4.61115">
        <ele>529.8</ele>
        <time>2023-06-04T09:13:40.000Z</time>
      </trkpt>
      <trkpt lat="45.68148" lon="4.61122">
        <ele>529.2</ele>
        <time>2023-06-04T09:13:42.000Z</time>
      </trkpt>
      <trkpt lat="45.68155" lon="4.61126">
        <ele>527.8</ele>
        <time>2023-06-04T09:13:43.000Z</time>
      </trkpt>
      <trkpt lat="45.68162" lon="4.61132">
        <ele>526.8</ele>
        <time>2023-06-04T09:13:44.000Z</time>
      </trkpt>
      <trkpt lat="45.68177" lon="4.61143">
        <ele>524.4</ele>
        <time>2023-06-04T09:13:46.000Z</time>
      </trkpt>
      <trkpt lat="45.68185" lon="4.61149">
        <ele>523.2</ele>
        <time>2023-06-04T09:13:47.000Z</time>
      </trkpt>
      <trkpt lat="45.68193" lon="4.61155">
        <ele>521.4</ele>
        <time>2023-06-04T09:13:48.000Z</time>
      </trkpt>
      <trkpt lat="45.682" lon="4.61161">
        <ele>519.8</ele>
        <time>2023-06-04T09:13:49.000Z</time>
      </trkpt>
      <trkpt lat="45.68207" lon="4.61167">
        <ele>518.6</ele>
        <time>2023-06-04T09:13:50.000Z</time>
      </trkpt>
      <trkpt lat="45.68218" lon="4.61183">
        <ele>516.6</ele>
        <time>2023-06-04T09:13:52.000Z</time>
      </trkpt>
      <trkpt lat="45.68223" lon="4.61191">
        <ele>515</ele>
        <time>2023-06-04T09:13:53.000Z</time>
      </trkpt>
      <trkpt lat="45.68227" lon="4.61201">
        <ele>513.2</ele>
        <time>2023-06-04T09:13:54.000Z</time>
      </trkpt>
      <trkpt lat="45.6823" lon="4.61209">
        <ele>511.2</ele>
        <time>2023-06-04T09:13:55.000Z</time>
      </trkpt>
      <trkpt lat="45.68232" lon="4.61218">
        <ele>509.4</ele>
        <time>2023-06-04T09:13:56.000Z</time>
      </trkpt>
      <trkpt lat="45.68234" lon="4.61228">
        <ele>508.2</ele>
        <time>2023-06-04T09:13:57.000Z</time>
      </trkpt>
      <trkpt lat="45.68235" lon="4.6124">
        <ele>507.2</ele>
        <time>2023-06-04T09:13:58.000Z</time>
      </trkpt>
      <trkpt lat="45.68234" lon="4.61252">
        <ele>506</ele>
        <time>2023-06-04T09:13:59.000Z</time>
      </trkpt>
      <trkpt lat="45.68233" lon="4.61265">
        <ele>505.2</ele>
        <time>2023-06-04T09:14:00.000Z</time>
      </trkpt>
      <trkpt lat="45.68231" lon="4.61278">
        <ele>504.2</ele>
        <time>2023-06-04T09:14:01.000Z</time>
      </trkpt>
      <trkpt lat="45.68228" lon="4.61291">
        <ele>503</ele>
        <time>2023-06-04T09:14:02.000Z</time>
      </trkpt>
      <trkpt lat="45.68224" lon="4.61304">
        <ele>502.4</ele>
        <time>2023-06-04T09:14:03.000Z</time>
      </trkpt>
      <trkpt lat="45.68218" lon="4.61317">
        <ele>501.6</ele>
        <time>2023-06-04T09:14:04.000Z</time>
      </trkpt>
      <trkpt lat="45.68209" lon="4.61345">
        <ele>499</ele>
        <time>2023-06-04T09:14:06.000Z</time>
      </trkpt>
      <trkpt lat="45.68204" lon="4.61358">
        <ele>497.2</ele>
        <time>2023-06-04T09:14:07.000Z</time>
      </trkpt>
      <trkpt lat="45.68194" lon="4.61386">
        <ele>495.8</ele>
        <time>2023-06-04T09:14:09.000Z</time>
      </trkpt>
      <trkpt lat="45.68188" lon="4.61396">
        <ele>494.8</ele>
        <time>2023-06-04T09:14:10.000Z</time>
      </trkpt>
      <trkpt lat="45.68183" lon="4.6141">
        <ele>493</ele>
        <time>2023-06-04T09:14:11.000Z</time>
      </trkpt>
      <trkpt lat="45.68179" lon="4.61424">
        <ele>491.8</ele>
        <time>2023-06-04T09:14:12.000Z</time>
      </trkpt>
      <trkpt lat="45.68176" lon="4.61437">
        <ele>491</ele>
        <time>2023-06-04T09:14:13.000Z</time>
      </trkpt>
      <trkpt lat="45.68172" lon="4.61451">
        <ele>490</ele>
        <time>2023-06-04T09:14:14.000Z</time>
      </trkpt>
      <trkpt lat="45.68167" lon="4.61475">
        <ele>488.6</ele>
        <time>2023-06-04T09:14:16.000Z</time>
      </trkpt>
      <trkpt lat="45.68164" lon="4.61487">
        <ele>487.6</ele>
        <time>2023-06-04T09:14:17.000Z</time>
      </trkpt>
      <trkpt lat="45.68161" lon="4.61498">
        <ele>486.4</ele>
        <time>2023-06-04T09:14:18.000Z</time>
      </trkpt>
      <trkpt lat="45.68155" lon="4.61519">
        <ele>484.6</ele>
        <time>2023-06-04T09:14:20.000Z</time>
      </trkpt>
      <trkpt lat="45.68148" lon="4.61537">
        <ele>483.6</ele>
        <time>2023-06-04T09:14:22.000Z</time>
      </trkpt>
      <trkpt lat="45.68145" lon="4.61545">
        <ele>483.4</ele>
        <time>2023-06-04T09:14:23.000Z</time>
      </trkpt>
      <trkpt lat="45.68132" lon="4.6158">
        <ele>483.4</ele>
        <time>2023-06-04T09:14:28.000Z</time>
      </trkpt>
      <trkpt lat="45.68127" lon="4.61594">
        <ele>483.4</ele>
        <time>2023-06-04T09:14:30.000Z</time>
      </trkpt>
      <trkpt lat="45.68114" lon="4.61629">
        <ele>483.8</ele>
        <time>2023-06-04T09:14:35.000Z</time>
      </trkpt>
      <trkpt lat="45.68103" lon="4.6166">
        <ele>484.2</ele>
        <time>2023-06-04T09:14:40.000Z</time>
      </trkpt>
      <trkpt lat="45.681" lon="4.61669">
        <ele>484.4</ele>
        <time>2023-06-04T09:14:42.000Z</time>
      </trkpt>
      <trkpt lat="45.68086" lon="4.61721">
        <ele>484.4</ele>
        <time>2023-06-04T09:14:51.000Z</time>
      </trkpt>
      <trkpt lat="45.68085" lon="4.61728">
        <ele>484.4</ele>
        <time>2023-06-04T09:14:52.000Z</time>
      </trkpt>
      <trkpt lat="45.68085" lon="4.61742">
        <ele>484.4</ele>
        <time>2023-06-04T09:14:54.000Z</time>
      </trkpt>
      <trkpt lat="45.68086" lon="4.61748">
        <ele>484.4</ele>
        <time>2023-06-04T09:14:55.000Z</time>
      </trkpt>
      <trkpt lat="45.68087" lon="4.61755">
        <ele>484.4</ele>
        <time>2023-06-04T09:14:56.000Z</time>
      </trkpt>
      <trkpt lat="45.68092" lon="4.61767">
        <ele>484</ele>
        <time>2023-06-04T09:14:58.000Z</time>
      </trkpt>
      <trkpt lat="45.68096" lon="4.61772">
        <ele>483.8</ele>
        <time>2023-06-04T09:14:59.000Z</time>
      </trkpt>
      <trkpt lat="45.68099" lon="4.61774">
        <ele>483.8</ele>
        <time>2023-06-04T09:15:00.000Z</time>
      </trkpt>
      <trkpt lat="45.68116" lon="4.61781">
        <ele>483.2</ele>
        <time>2023-06-04T09:15:03.000Z</time>
      </trkpt>
      <trkpt lat="45.68123" lon="4.61781">
        <ele>483</ele>
        <time>2023-06-04T09:15:04.000Z</time>
      </trkpt>
      <trkpt lat="45.68131" lon="4.61782">
        <ele>482.4</ele>
        <time>2023-06-04T09:15:05.000Z</time>
      </trkpt>
      <trkpt lat="45.68155" lon="4.61784">
        <ele>481</ele>
        <time>2023-06-04T09:15:08.000Z</time>
      </trkpt>
      <trkpt lat="45.68162" lon="4.61787">
        <ele>479.8</ele>
        <time>2023-06-04T09:15:09.000Z</time>
      </trkpt>
      <trkpt lat="45.68168" lon="4.6179">
        <ele>478.4</ele>
        <time>2023-06-04T09:15:10.000Z</time>
      </trkpt>
      <trkpt lat="45.68173" lon="4.61795">
        <ele>477.2</ele>
        <time>2023-06-04T09:15:11.000Z</time>
      </trkpt>
      <trkpt lat="45.68178" lon="4.618">
        <ele>474.6</ele>
        <time>2023-06-04T09:15:12.000Z</time>
      </trkpt>
      <trkpt lat="45.68182" lon="4.61805">
        <ele>472</ele>
        <time>2023-06-04T09:15:13.000Z</time>
      </trkpt>
      <trkpt lat="45.68186" lon="4.6181">
        <ele>470.6</ele>
        <time>2023-06-04T09:15:14.000Z</time>
      </trkpt>
      <trkpt lat="45.68191" lon="4.61815">
        <ele>469.2</ele>
        <time>2023-06-04T09:15:15.000Z</time>
      </trkpt>
      <trkpt lat="45.68194" lon="4.61819">
        <ele>468.4</ele>
        <time>2023-06-04T09:15:16.000Z</time>
      </trkpt>
      <trkpt lat="45.68198" lon="4.61824">
        <ele>467.8</ele>
        <time>2023-06-04T09:15:17.000Z</time>
      </trkpt>
      <trkpt lat="45.68201" lon="4.61828">
        <ele>466.6</ele>
        <time>2023-06-04T09:15:18.000Z</time>
      </trkpt>
      <trkpt lat="45.68207" lon="4.61836">
        <ele>464.4</ele>
        <time>2023-06-04T09:15:20.000Z</time>
      </trkpt>
      <trkpt lat="45.6821" lon="4.61838">
        <ele>462.6</ele>
        <time>2023-06-04T09:15:21.000Z</time>
      </trkpt>
      <trkpt lat="45.68213" lon="4.6184">
        <ele>461.2</ele>
        <time>2023-06-04T09:15:22.000Z</time>
      </trkpt>
      <trkpt lat="45.68215" lon="4.61842">
        <ele>459.6</ele>
        <time>2023-06-04T09:15:23.000Z</time>
      </trkpt>
      <trkpt lat="45.68217" lon="4.61844">
        <ele>458.4</ele>
        <time>2023-06-04T09:15:24.000Z</time>
      </trkpt>
      <trkpt lat="45.68218" lon="4.61847">
        <ele>457</ele>
        <time>2023-06-04T09:15:25.000Z</time>
      </trkpt>
      <trkpt lat="45.68218" lon="4.61852">
        <ele>455.6</ele>
        <time>2023-06-04T09:15:27.000Z</time>
      </trkpt>
      <trkpt lat="45.68217" lon="4.61855">
        <ele>454.2</ele>
        <time>2023-06-04T09:15:28.000Z</time>
      </trkpt>
      <trkpt lat="45.68216" lon="4.6186">
        <ele>452.8</ele>
        <time>2023-06-04T09:15:29.000Z</time>
      </trkpt>
      <trkpt lat="45.68214" lon="4.61864">
        <ele>451.6</ele>
        <time>2023-06-04T09:15:30.000Z</time>
      </trkpt>
      <trkpt lat="45.68211" lon="4.6187">
        <ele>449.6</ele>
        <time>2023-06-04T09:15:32.000Z</time>
      </trkpt>
      <trkpt lat="45.68206" lon="4.61873">
        <ele>448.2</ele>
        <time>2023-06-04T09:15:34.000Z</time>
      </trkpt>
      <trkpt lat="45.68204" lon="4.61874">
        <ele>447.8</ele>
        <time>2023-06-04T09:15:35.000Z</time>
      </trkpt>
      <trkpt lat="45.68203" lon="4.61879">
        <ele>446.4</ele>
        <time>2023-06-04T09:15:37.000Z</time>
      </trkpt>
      <trkpt lat="45.68203" lon="4.61881">
        <ele>445.4</ele>
        <time>2023-06-04T09:15:38.000Z</time>
      </trkpt>
      <trkpt lat="45.68204" lon="4.61883">
        <ele>444.4</ele>
        <time>2023-06-04T09:15:39.000Z</time>
      </trkpt>
      <trkpt lat="45.68206" lon="4.61886">
        <ele>443.4</ele>
        <time>2023-06-04T09:15:40.000Z</time>
      </trkpt>
      <trkpt lat="45.68209" lon="4.6189">
        <ele>442.4</ele>
        <time>2023-06-04T09:15:41.000Z</time>
      </trkpt>
      <trkpt lat="45.68211" lon="4.61894">
        <ele>441.4</ele>
        <time>2023-06-04T09:15:42.000Z</time>
      </trkpt>
      <trkpt lat="45.68215" lon="4.619">
        <ele>440.2</ele>
        <time>2023-06-04T09:15:44.000Z</time>
      </trkpt>
      <trkpt lat="45.68216" lon="4.61904">
        <ele>439.6</ele>
        <time>2023-06-04T09:15:45.000Z</time>
      </trkpt>
      <trkpt lat="45.68222" lon="4.6191">
        <ele>438.8</ele>
        <time>2023-06-04T09:15:47.000Z</time>
      </trkpt>
      <trkpt lat="45.68228" lon="4.6192">
        <ele>437.6</ele>
        <time>2023-06-04T09:15:49.000Z</time>
      </trkpt>
      <trkpt lat="45.68229" lon="4.61926">
        <ele>436.6</ele>
        <time>2023-06-04T09:15:50.000Z</time>
      </trkpt>
      <trkpt lat="45.68231" lon="4.6193">
        <ele>436</ele>
        <time>2023-06-04T09:15:51.000Z</time>
      </trkpt>
      <trkpt lat="45.68236" lon="4.61943">
        <ele>434.6</ele>
        <time>2023-06-04T09:15:54.000Z</time>
      </trkpt>
      <trkpt lat="45.68239" lon="4.61948">
        <ele>433.8</ele>
        <time>2023-06-04T09:15:55.000Z</time>
      </trkpt>
      <trkpt lat="45.68241" lon="4.61952">
        <ele>433</ele>
        <time>2023-06-04T09:15:56.000Z</time>
      </trkpt>
      <trkpt lat="45.68243" lon="4.61957">
        <ele>432</ele>
        <time>2023-06-04T09:15:57.000Z</time>
      </trkpt>
      <trkpt lat="45.68249" lon="4.61963">
        <ele>430.4</ele>
        <time>2023-06-04T09:15:59.000Z</time>
      </trkpt>
      <trkpt lat="45.68255" lon="4.61969">
        <ele>429.4</ele>
        <time>2023-06-04T09:16:01.000Z</time>
      </trkpt>
      <trkpt lat="45.68259" lon="4.61976">
        <ele>427.8</ele>
        <time>2023-06-04T09:16:03.000Z</time>
      </trkpt>
      <trkpt lat="45.68263" lon="4.61983">
        <ele>426</ele>
        <time>2023-06-04T09:16:05.000Z</time>
      </trkpt>
      <trkpt lat="45.68266" lon="4.61986">
        <ele>424.8</ele>
        <time>2023-06-04T09:16:06.000Z</time>
      </trkpt>
      <trkpt lat="45.6827" lon="4.6199">
        <ele>423.6</ele>
        <time>2023-06-04T09:16:07.000Z</time>
      </trkpt>
      <trkpt lat="45.68277" lon="4.61998">
        <ele>422.2</ele>
        <time>2023-06-04T09:16:09.000Z</time>
      </trkpt>
      <trkpt lat="45.6828" lon="4.62003">
        <ele>421.6</ele>
        <time>2023-06-04T09:16:10.000Z</time>
      </trkpt>
      <trkpt lat="45.68284" lon="4.6201">
        <ele>421</ele>
        <time>2023-06-04T09:16:11.000Z</time>
      </trkpt>
      <trkpt lat="45.68289" lon="4.62024">
        <ele>419.6</ele>
        <time>2023-06-04T09:16:13.000Z</time>
      </trkpt>
      <trkpt lat="45.68291" lon="4.62029">
        <ele>418.6</ele>
        <time>2023-06-04T09:16:14.000Z</time>
      </trkpt>
      <trkpt lat="45.68294" lon="4.62033">
        <ele>418</ele>
        <time>2023-06-04T09:16:15.000Z</time>
      </trkpt>
      <trkpt lat="45.68298" lon="4.62036">
        <ele>417.2</ele>
        <time>2023-06-04T09:16:16.000Z</time>
      </trkpt>
      <trkpt lat="45.68303" lon="4.62036">
        <ele>416</ele>
        <time>2023-06-04T09:16:17.000Z</time>
      </trkpt>
      <trkpt lat="45.68307" lon="4.62036">
        <ele>415</ele>
        <time>2023-06-04T09:16:18.000Z</time>
      </trkpt>
      <trkpt lat="45.68318" lon="4.62038">
        <ele>414</ele>
        <time>2023-06-04T09:16:20.000Z</time>
      </trkpt>
      <trkpt lat="45.68325" lon="4.62038">
        <ele>412.6</ele>
        <time>2023-06-04T09:16:21.000Z</time>
      </trkpt>
      <trkpt lat="45.68334" lon="4.6204">
        <ele>411.8</ele>
        <time>2023-06-04T09:16:22.000Z</time>
      </trkpt>
      <trkpt lat="45.68343" lon="4.62042">
        <ele>411</ele>
        <time>2023-06-04T09:16:23.000Z</time>
      </trkpt>
      <trkpt lat="45.68359" lon="4.6204">
        <ele>409.8</ele>
        <time>2023-06-04T09:16:25.000Z</time>
      </trkpt>
      <trkpt lat="45.68376" lon="4.62038">
        <ele>408.4</ele>
        <time>2023-06-04T09:16:27.000Z</time>
      </trkpt>
      <trkpt lat="45.68383" lon="4.62038">
        <ele>408</ele>
        <time>2023-06-04T09:16:28.000Z</time>
      </trkpt>
      <trkpt lat="45.68392" lon="4.62037">
        <ele>407.2</ele>
        <time>2023-06-04T09:16:29.000Z</time>
      </trkpt>
      <trkpt lat="45.68402" lon="4.62038">
        <ele>406.4</ele>
        <time>2023-06-04T09:16:30.000Z</time>
      </trkpt>
      <trkpt lat="45.68411" lon="4.62039">
        <ele>405.4</ele>
        <time>2023-06-04T09:16:31.000Z</time>
      </trkpt>
      <trkpt lat="45.6842" lon="4.62041">
        <ele>404.2</ele>
        <time>2023-06-04T09:16:32.000Z</time>
      </trkpt>
      <trkpt lat="45.68428" lon="4.62043">
        <ele>403</ele>
        <time>2023-06-04T09:16:33.000Z</time>
      </trkpt>
      <trkpt lat="45.68436" lon="4.62046">
        <ele>401.6</ele>
        <time>2023-06-04T09:16:34.000Z</time>
      </trkpt>
      <trkpt lat="45.68444" lon="4.62051">
        <ele>400.4</ele>
        <time>2023-06-04T09:16:35.000Z</time>
      </trkpt>
      <trkpt lat="45.68451" lon="4.62059">
        <ele>399.2</ele>
        <time>2023-06-04T09:16:36.000Z</time>
      </trkpt>
      <trkpt lat="45.68457" lon="4.62068">
        <ele>397.2</ele>
        <time>2023-06-04T09:16:37.000Z</time>
      </trkpt>
      <trkpt lat="45.68465" lon="4.62077">
        <ele>395.6</ele>
        <time>2023-06-04T09:16:38.000Z</time>
      </trkpt>
      <trkpt lat="45.68471" lon="4.62083">
        <ele>393.8</ele>
        <time>2023-06-04T09:16:39.000Z</time>
      </trkpt>
      <trkpt lat="45.68479" lon="4.62091">
        <ele>392.6</ele>
        <time>2023-06-04T09:16:40.000Z</time>
      </trkpt>
      <trkpt lat="45.68491" lon="4.62102">
        <ele>391.2</ele>
        <time>2023-06-04T09:16:41.000Z</time>
      </trkpt>
      <trkpt lat="45.68498" lon="4.6211">
        <ele>389.6</ele>
        <time>2023-06-04T09:16:42.000Z</time>
      </trkpt>
      <trkpt lat="45.68506" lon="4.62121">
        <ele>388.2</ele>
        <time>2023-06-04T09:16:43.000Z</time>
      </trkpt>
      <trkpt lat="45.68511" lon="4.62133">
        <ele>387</ele>
        <time>2023-06-04T09:16:44.000Z</time>
      </trkpt>
      <trkpt lat="45.68516" lon="4.62143">
        <ele>387</ele>
        <time>2023-06-04T09:16:45.000Z</time>
      </trkpt>
      <trkpt lat="45.68521" lon="4.62153">
        <ele>385.2</ele>
        <time>2023-06-04T09:16:46.000Z</time>
      </trkpt>
      <trkpt lat="45.68525" lon="4.62159">
        <ele>384</ele>
        <time>2023-06-04T09:16:47.000Z</time>
      </trkpt>
      <trkpt lat="45.6853" lon="4.62159">
        <ele>383</ele>
        <time>2023-06-04T09:16:49.000Z</time>
      </trkpt>
      <trkpt lat="45.68532" lon="4.62157">
        <ele>382.8</ele>
        <time>2023-06-04T09:16:50.000Z</time>
      </trkpt>
      <trkpt lat="45.68534" lon="4.62149">
        <ele>382.8</ele>
        <time>2023-06-04T09:16:52.000Z</time>
      </trkpt>
      <trkpt lat="45.68535" lon="4.62121">
        <ele>383</ele>
        <time>2023-06-04T09:16:58.000Z</time>
      </trkpt>
      <trkpt lat="45.68535" lon="4.62099">
        <ele>383.8</ele>
        <time>2023-06-04T09:17:03.000Z</time>
      </trkpt>
      <trkpt lat="45.68535" lon="4.62091">
        <ele>384.4</ele>
        <time>2023-06-04T09:17:05.000Z</time>
      </trkpt>
      <trkpt lat="45.68534" lon="4.62079">
        <ele>385.2</ele>
        <time>2023-06-04T09:17:08.000Z</time>
      </trkpt>
      <trkpt lat="45.68534" lon="4.62067">
        <ele>385.8</ele>
        <time>2023-06-04T09:17:12.000Z</time>
      </trkpt>
      <trkpt lat="45.68534" lon="4.62061">
        <ele>386.2</ele>
        <time>2023-06-04T09:17:14.000Z</time>
      </trkpt>
      <trkpt lat="45.68537" lon="4.62052">
        <ele>387</ele>
        <time>2023-06-04T09:17:17.000Z</time>
      </trkpt>
      <trkpt lat="45.68538" lon="4.62047">
        <ele>387.4</ele>
        <time>2023-06-04T09:17:19.000Z</time>
      </trkpt>
      <trkpt lat="45.68543" lon="4.62034">
        <ele>388.6</ele>
        <time>2023-06-04T09:17:24.000Z</time>
      </trkpt>
      <trkpt lat="45.68543" lon="4.62031">
        <ele>388.8</ele>
        <time>2023-06-04T09:17:25.000Z</time>
      </trkpt>
      <trkpt lat="45.68546" lon="4.62027">
        <ele>389.4</ele>
        <time>2023-06-04T09:17:27.000Z</time>
      </trkpt>
      <trkpt lat="45.68547" lon="4.62021">
        <ele>389.8</ele>
        <time>2023-06-04T09:17:29.000Z</time>
      </trkpt>
      <trkpt lat="45.68553" lon="4.6201">
        <ele>390.8</ele>
        <time>2023-06-04T09:17:34.000Z</time>
      </trkpt>
      <trkpt lat="45.68554" lon="4.62007">
        <ele>391</ele>
        <time>2023-06-04T09:17:35.000Z</time>
      </trkpt>
      <trkpt lat="45.68555" lon="4.62005">
        <ele>391</ele>
        <time>2023-06-04T09:17:36.000Z</time>
      </trkpt>
      <trkpt lat="45.68558" lon="4.62001">
        <ele>391.4</ele>
        <time>2023-06-04T09:17:38.000Z</time>
      </trkpt>
      <trkpt lat="45.68563" lon="4.61995">
        <ele>391.8</ele>
        <time>2023-06-04T09:17:41.000Z</time>
      </trkpt>
      <trkpt lat="45.68565" lon="4.61993">
        <ele>392</ele>
        <time>2023-06-04T09:17:42.000Z</time>
      </trkpt>
      <trkpt lat="45.68568" lon="4.61988">
        <ele>392.2</ele>
        <time>2023-06-04T09:17:44.000Z</time>
      </trkpt>
      <trkpt lat="45.68583" lon="4.61972">
        <ele>392.6</ele>
        <time>2023-06-04T09:17:52.000Z</time>
      </trkpt>
      <trkpt lat="45.68592" lon="4.61954">
        <ele>392.8</ele>
        <time>2023-06-04T09:17:59.000Z</time>
      </trkpt>
      <trkpt lat="45.68593" lon="4.61949">
        <ele>393.2</ele>
        <time>2023-06-04T09:18:01.000Z</time>
      </trkpt>
      <trkpt lat="45.68597" lon="4.61945">
        <ele>393.2</ele>
        <time>2023-06-04T09:18:04.000Z</time>
      </trkpt>
      <trkpt lat="45.68601" lon="4.61943">
        <ele>393.2</ele>
        <time>2023-06-04T09:18:07.000Z</time>
      </trkpt>
      <trkpt lat="45.68608" lon="4.61942">
        <ele>393.8</ele>
        <time>2023-06-04T09:18:13.000Z</time>
      </trkpt>
      <trkpt lat="45.6861" lon="4.61943">
        <ele>394.2</ele>
        <time>2023-06-04T09:18:15.000Z</time>
      </trkpt>
      <trkpt lat="45.68614" lon="4.61947">
        <ele>395.4</ele>
        <time>2023-06-04T09:18:19.000Z</time>
      </trkpt>
      <trkpt lat="45.68615" lon="4.61947">
        <ele>395.6</ele>
        <time>2023-06-04T09:18:20.000Z</time>
      </trkpt>
      <trkpt lat="45.68615" lon="4.61948">
        <ele>395.8</ele>
        <time>2023-06-04T09:18:21.000Z</time>
      </trkpt>
      <trkpt lat="45.68619" lon="4.61951">
        <ele>396.4</ele>
        <time>2023-06-04T09:18:27.000Z</time>
      </trkpt>
      <trkpt lat="45.6862" lon="4.61951">
        <ele>396.4</ele>
        <time>2023-06-04T09:18:28.000Z</time>
      </trkpt>
      <trkpt lat="45.68627" lon="4.61955">
        <ele>397.6</ele>
        <time>2023-06-04T09:18:34.000Z</time>
      </trkpt>
      <trkpt lat="45.68627" lon="4.61956">
        <ele>398</ele>
        <time>2023-06-04T09:18:35.000Z</time>
      </trkpt>
      <trkpt lat="45.68629" lon="4.61956">
        <ele>398.6</ele>
        <time>2023-06-04T09:18:38.000Z</time>
      </trkpt>
      <trkpt lat="45.6863" lon="4.61957">
        <ele>399</ele>
        <time>2023-06-04T09:18:39.000Z</time>
      </trkpt>
      <trkpt lat="45.68636" lon="4.6196">
        <ele>400</ele>
        <time>2023-06-04T09:18:43.000Z</time>
      </trkpt>
      <trkpt lat="45.68637" lon="4.61961">
        <ele>400.6</ele>
        <time>2023-06-04T09:18:44.000Z</time>
      </trkpt>
      <trkpt lat="45.68643" lon="4.61962">
        <ele>401.4</ele>
        <time>2023-06-04T09:18:47.000Z</time>
      </trkpt>
      <trkpt lat="45.68652" lon="4.61963">
        <ele>402.2</ele>
        <time>2023-06-04T09:18:52.000Z</time>
      </trkpt>
      <trkpt lat="45.68654" lon="4.61963">
        <ele>402.4</ele>
        <time>2023-06-04T09:18:53.000Z</time>
      </trkpt>
      <trkpt lat="45.68661" lon="4.61965">
        <ele>403.4</ele>
        <time>2023-06-04T09:18:58.000Z</time>
      </trkpt>
      <trkpt lat="45.68666" lon="4.61965">
        <ele>404.2</ele>
        <time>2023-06-04T09:19:01.000Z</time>
      </trkpt>
      <trkpt lat="45.68668" lon="4.61965">
        <ele>404.6</ele>
        <time>2023-06-04T09:19:02.000Z</time>
      </trkpt>
      <trkpt lat="45.68674" lon="4.61966">
        <ele>405.6</ele>
        <time>2023-06-04T09:19:06.000Z</time>
      </trkpt>
      <trkpt lat="45.68677" lon="4.61966">
        <ele>406.4</ele>
        <time>2023-06-04T09:19:09.000Z</time>
      </trkpt>
      <trkpt lat="45.68682" lon="4.61966">
        <ele>406.8</ele>
        <time>2023-06-04T09:19:11.000Z</time>
      </trkpt>
      <trkpt lat="45.68688" lon="4.61967">
        <ele>408</ele>
        <time>2023-06-04T09:19:17.000Z</time>
      </trkpt>
      <trkpt lat="45.68691" lon="4.61967">
        <ele>408.6</ele>
        <time>2023-06-04T09:19:20.000Z</time>
      </trkpt>
      <trkpt lat="45.68693" lon="4.61966">
        <ele>409</ele>
        <time>2023-06-04T09:19:22.000Z</time>
      </trkpt>
      <trkpt lat="45.68699" lon="4.61965">
        <ele>410.2</ele>
        <time>2023-06-04T09:19:27.000Z</time>
      </trkpt>
      <trkpt lat="45.68701" lon="4.61964">
        <ele>410.8</ele>
        <time>2023-06-04T09:19:29.000Z</time>
      </trkpt>
      <trkpt lat="45.68703" lon="4.61963">
        <ele>411</ele>
        <time>2023-06-04T09:19:30.000Z</time>
      </trkpt>
      <trkpt lat="45.68704" lon="4.61962">
        <ele>411.6</ele>
        <time>2023-06-04T09:19:31.000Z</time>
      </trkpt>
      <trkpt lat="45.68714" lon="4.61961">
        <ele>412.6</ele>
        <time>2023-06-04T09:19:39.000Z</time>
      </trkpt>
      <trkpt lat="45.68725" lon="4.61963">
        <ele>413.8</ele>
        <time>2023-06-04T09:19:48.000Z</time>
      </trkpt>
      <trkpt lat="45.68727" lon="4.61962">
        <ele>413.8</ele>
        <time>2023-06-04T09:19:49.000Z</time>
      </trkpt>
      <trkpt lat="45.68733" lon="4.61963">
        <ele>414.8</ele>
        <time>2023-06-04T09:19:55.000Z</time>
      </trkpt>
      <trkpt lat="45.6874" lon="4.61963">
        <ele>415.8</ele>
        <time>2023-06-04T09:20:01.000Z</time>
      </trkpt>
      <trkpt lat="45.68741" lon="4.61963">
        <ele>416</ele>
        <time>2023-06-04T09:20:02.000Z</time>
      </trkpt>
      <trkpt lat="45.68744" lon="4.61963">
        <ele>416.4</ele>
        <time>2023-06-04T09:20:04.000Z</time>
      </trkpt>
      <trkpt lat="45.68745" lon="4.61963">
        <ele>416.4</ele>
        <time>2023-06-04T09:20:05.000Z</time>
      </trkpt>
      <trkpt lat="45.68749" lon="4.61963">
        <ele>417.4</ele>
        <time>2023-06-04T09:20:08.000Z</time>
      </trkpt>
      <trkpt lat="45.68754" lon="4.61961">
        <ele>418.6</ele>
        <time>2023-06-04T09:20:13.000Z</time>
      </trkpt>
      <trkpt lat="45.68764" lon="4.61959">
        <ele>419.6</ele>
        <time>2023-06-04T09:20:21.000Z</time>
      </trkpt>
      <trkpt lat="45.68766" lon="4.61959">
        <ele>419.8</ele>
        <time>2023-06-04T09:20:22.000Z</time>
      </trkpt>
      <trkpt lat="45.68772" lon="4.61958">
        <ele>420.6</ele>
        <time>2023-06-04T09:20:27.000Z</time>
      </trkpt>
      <trkpt lat="45.68773" lon="4.61958">
        <ele>420.8</ele>
        <time>2023-06-04T09:20:28.000Z</time>
      </trkpt>
      <trkpt lat="45.68781" lon="4.61957">
        <ele>422</ele>
        <time>2023-06-04T09:20:35.000Z</time>
      </trkpt>
      <trkpt lat="45.68782" lon="4.61957">
        <ele>422</ele>
        <time>2023-06-04T09:20:36.000Z</time>
      </trkpt>
      <trkpt lat="45.68788" lon="4.61957">
        <ele>423</ele>
        <time>2023-06-04T09:20:41.000Z</time>
      </trkpt>
      <trkpt lat="45.68792" lon="4.61955">
        <ele>423.8</ele>
        <time>2023-06-04T09:20:44.000Z</time>
      </trkpt>
      <trkpt lat="45.68793" lon="4.61955">
        <ele>424.2</ele>
        <time>2023-06-04T09:20:45.000Z</time>
      </trkpt>
      <trkpt lat="45.68798" lon="4.61954">
        <ele>425.4</ele>
        <time>2023-06-04T09:20:50.000Z</time>
      </trkpt>
      <trkpt lat="45.68802" lon="4.61954">
        <ele>426</ele>
        <time>2023-06-04T09:20:53.000Z</time>
      </trkpt>
      <trkpt lat="45.68804" lon="4.61954">
        <ele>426.6</ele>
        <time>2023-06-04T09:20:55.000Z</time>
      </trkpt>
      <trkpt lat="45.68807" lon="4.61954">
        <ele>427.6</ele>
        <time>2023-06-04T09:20:59.000Z</time>
      </trkpt>
      <trkpt lat="45.6881" lon="4.61953">
        <ele>428.6</ele>
        <time>2023-06-04T09:21:02.000Z</time>
      </trkpt>
      <trkpt lat="45.68811" lon="4.61952">
        <ele>429.2</ele>
        <time>2023-06-04T09:21:04.000Z</time>
      </trkpt>
      <trkpt lat="45.68816" lon="4.61949">
        <ele>430.2</ele>
        <time>2023-06-04T09:21:10.000Z</time>
      </trkpt>
      <trkpt lat="45.68821" lon="4.61945">
        <ele>431.4</ele>
        <time>2023-06-04T09:21:15.000Z</time>
      </trkpt>
      <trkpt lat="45.68825" lon="4.61942">
        <ele>432.4</ele>
        <time>2023-06-04T09:21:19.000Z</time>
      </trkpt>
      <trkpt lat="45.68825" lon="4.61941">
        <ele>432.8</ele>
        <time>2023-06-04T09:21:20.000Z</time>
      </trkpt>
      <trkpt lat="45.68827" lon="4.61938">
        <ele>433.2</ele>
        <time>2023-06-04T09:21:23.000Z</time>
      </trkpt>
      <trkpt lat="45.68829" lon="4.61938">
        <ele>433.4</ele>
        <time>2023-06-04T09:21:24.000Z</time>
      </trkpt>
      <trkpt lat="45.6883" lon="4.61937">
        <ele>433.8</ele>
        <time>2023-06-04T09:21:25.000Z</time>
      </trkpt>
      <trkpt lat="45.68833" lon="4.61936">
        <ele>434.6</ele>
        <time>2023-06-04T09:21:28.000Z</time>
      </trkpt>
      <trkpt lat="45.68836" lon="4.61933">
        <ele>435.4</ele>
        <time>2023-06-04T09:21:31.000Z</time>
      </trkpt>
      <trkpt lat="45.68837" lon="4.61932">
        <ele>435.6</ele>
        <time>2023-06-04T09:21:32.000Z</time>
      </trkpt>
      <trkpt lat="45.68838" lon="4.6193">
        <ele>436</ele>
        <time>2023-06-04T09:21:33.000Z</time>
      </trkpt>
      <trkpt lat="45.6884" lon="4.61926">
        <ele>436.8</ele>
        <time>2023-06-04T09:21:36.000Z</time>
      </trkpt>
      <trkpt lat="45.68842" lon="4.61923">
        <ele>437.2</ele>
        <time>2023-06-04T09:21:38.000Z</time>
      </trkpt>
      <trkpt lat="45.68844" lon="4.61921">
        <ele>437.4</ele>
        <time>2023-06-04T09:21:41.000Z</time>
      </trkpt>
      <trkpt lat="45.68845" lon="4.61918">
        <ele>437.6</ele>
        <time>2023-06-04T09:21:43.000Z</time>
      </trkpt>
      <trkpt lat="45.68847" lon="4.61913">
        <ele>438</ele>
        <time>2023-06-04T09:21:45.000Z</time>
      </trkpt>
      <trkpt lat="45.6885" lon="4.61902">
        <ele>438.8</ele>
        <time>2023-06-04T09:21:51.000Z</time>
      </trkpt>
      <trkpt lat="45.6885" lon="4.61897">
        <ele>439.2</ele>
        <time>2023-06-04T09:21:53.000Z</time>
      </trkpt>
      <trkpt lat="45.68851" lon="4.61886">
        <ele>439.8</ele>
        <time>2023-06-04T09:21:58.000Z</time>
      </trkpt>
      <trkpt lat="45.68852" lon="4.61882">
        <ele>440.2</ele>
        <time>2023-06-04T09:22:00.000Z</time>
      </trkpt>
      <trkpt lat="45.68854" lon="4.61872">
        <ele>441</ele>
        <time>2023-06-04T09:22:06.000Z</time>
      </trkpt>
      <trkpt lat="45.68856" lon="4.61868">
        <ele>441.2</ele>
        <time>2023-06-04T09:22:08.000Z</time>
      </trkpt>
      <trkpt lat="45.68858" lon="4.61858">
        <ele>442</ele>
        <time>2023-06-04T09:22:14.000Z</time>
      </trkpt>
      <trkpt lat="45.68859" lon="4.61853">
        <ele>442.4</ele>
        <time>2023-06-04T09:22:17.000Z</time>
      </trkpt>
      <trkpt lat="45.68861" lon="4.61841">
        <ele>443.4</ele>
        <time>2023-06-04T09:22:22.000Z</time>
      </trkpt>
      <trkpt lat="45.68861" lon="4.61839">
        <ele>443.6</ele>
        <time>2023-06-04T09:22:23.000Z</time>
      </trkpt>
      <trkpt lat="45.68862" lon="4.61834">
        <ele>444</ele>
        <time>2023-06-04T09:22:25.000Z</time>
      </trkpt>
      <trkpt lat="45.68862" lon="4.61828">
        <ele>444.2</ele>
        <time>2023-06-04T09:22:27.000Z</time>
      </trkpt>
      <trkpt lat="45.68861" lon="4.61823">
        <ele>444.4</ele>
        <time>2023-06-04T09:22:29.000Z</time>
      </trkpt>
      <trkpt lat="45.68862" lon="4.61817">
        <ele>444.6</ele>
        <time>2023-06-04T09:22:31.000Z</time>
      </trkpt>
      <trkpt lat="45.68861" lon="4.61809">
        <ele>444.8</ele>
        <time>2023-06-04T09:22:33.000Z</time>
      </trkpt>
      <trkpt lat="45.68863" lon="4.61791">
        <ele>444.8</ele>
        <time>2023-06-04T09:22:38.000Z</time>
      </trkpt>
      <trkpt lat="45.68872" lon="4.61767">
        <ele>444.8</ele>
        <time>2023-06-04T09:22:45.000Z</time>
      </trkpt>
      <trkpt lat="45.68884" lon="4.61739">
        <ele>445.2</ele>
        <time>2023-06-04T09:22:53.000Z</time>
      </trkpt>
      <trkpt lat="45.68893" lon="4.61717">
        <ele>445.4</ele>
        <time>2023-06-04T09:22:57.000Z</time>
      </trkpt>
      <trkpt lat="45.68907" lon="4.61682">
        <ele>445.4</ele>
        <time>2023-06-04T09:23:02.000Z</time>
      </trkpt>
      <trkpt lat="45.68911" lon="4.61676">
        <ele>445.4</ele>
        <time>2023-06-04T09:23:03.000Z</time>
      </trkpt>
      <trkpt lat="45.68918" lon="4.61666">
        <ele>445</ele>
        <time>2023-06-04T09:23:05.000Z</time>
      </trkpt>
      <trkpt lat="45.68929" lon="4.61653">
        <ele>444.2</ele>
        <time>2023-06-04T09:23:08.000Z</time>
      </trkpt>
      <trkpt lat="45.68931" lon="4.6165">
        <ele>444.2</ele>
        <time>2023-06-04T09:23:09.000Z</time>
      </trkpt>
      <trkpt lat="45.68939" lon="4.61641">
        <ele>444.2</ele>
        <time>2023-06-04T09:23:12.000Z</time>
      </trkpt>
      <trkpt lat="45.68948" lon="4.61629">
        <ele>444.2</ele>
        <time>2023-06-04T09:23:16.000Z</time>
      </trkpt>
      <trkpt lat="45.68954" lon="4.61617">
        <ele>444.6</ele>
        <time>2023-06-04T09:23:19.000Z</time>
      </trkpt>
      <trkpt lat="45.68963" lon="4.61587">
        <ele>445.6</ele>
        <time>2023-06-04T09:23:26.000Z</time>
      </trkpt>
      <trkpt lat="45.68966" lon="4.61573">
        <ele>445.6</ele>
        <time>2023-06-04T09:23:28.000Z</time>
      </trkpt>
      <trkpt lat="45.68967" lon="4.61566">
        <ele>445.8</ele>
        <time>2023-06-04T09:23:29.000Z</time>
      </trkpt>
      <trkpt lat="45.68966" lon="4.61558">
        <ele>445.8</ele>
        <time>2023-06-04T09:23:30.000Z</time>
      </trkpt>
      <trkpt lat="45.68963" lon="4.61547">
        <ele>445.8</ele>
        <time>2023-06-04T09:23:32.000Z</time>
      </trkpt>
      <trkpt lat="45.68961" lon="4.61543">
        <ele>445.8</ele>
        <time>2023-06-04T09:23:33.000Z</time>
      </trkpt>
      <trkpt lat="45.68955" lon="4.61534">
        <ele>446</ele>
        <time>2023-06-04T09:23:36.000Z</time>
      </trkpt>
      <trkpt lat="45.68953" lon="4.61532">
        <ele>446.2</ele>
        <time>2023-06-04T09:23:38.000Z</time>
      </trkpt>
      <trkpt lat="45.68944" lon="4.61528">
        <ele>446.4</ele>
        <time>2023-06-04T09:23:44.000Z</time>
      </trkpt>
      <trkpt lat="45.68939" lon="4.61524">
        <ele>447</ele>
        <time>2023-06-04T09:23:47.000Z</time>
      </trkpt>
      <trkpt lat="45.68931" lon="4.61517">
        <ele>448</ele>
        <time>2023-06-04T09:23:51.000Z</time>
      </trkpt>
      <trkpt lat="45.68929" lon="4.61516">
        <ele>448.2</ele>
        <time>2023-06-04T09:23:52.000Z</time>
      </trkpt>
      <trkpt lat="45.68923" lon="4.61513">
        <ele>449</ele>
        <time>2023-06-04T09:23:55.000Z</time>
      </trkpt>
      <trkpt lat="45.68916" lon="4.6151">
        <ele>449.8</ele>
        <time>2023-06-04T09:23:59.000Z</time>
      </trkpt>
      <trkpt lat="45.68914" lon="4.61509">
        <ele>450.2</ele>
        <time>2023-06-04T09:24:00.000Z</time>
      </trkpt>
      <trkpt lat="45.68906" lon="4.61505">
        <ele>451.4</ele>
        <time>2023-06-04T09:24:05.000Z</time>
      </trkpt>
      <trkpt lat="45.68901" lon="4.61499">
        <ele>452.2</ele>
        <time>2023-06-04T09:24:08.000Z</time>
      </trkpt>
      <trkpt lat="45.68899" lon="4.61494">
        <ele>452.6</ele>
        <time>2023-06-04T09:24:10.000Z</time>
      </trkpt>
      <trkpt lat="45.68895" lon="4.61483">
        <ele>453.6</ele>
        <time>2023-06-04T09:24:14.000Z</time>
      </trkpt>
      <trkpt lat="45.68895" lon="4.61481">
        <ele>453.8</ele>
        <time>2023-06-04T09:24:15.000Z</time>
      </trkpt>
      <trkpt lat="45.68896" lon="4.61469">
        <ele>455</ele>
        <time>2023-06-04T09:24:20.000Z</time>
      </trkpt>
      <trkpt lat="45.68896" lon="4.61464">
        <ele>455.4</ele>
        <time>2023-06-04T09:24:22.000Z</time>
      </trkpt>
      <trkpt lat="45.68895" lon="4.61457">
        <ele>455.6</ele>
        <time>2023-06-04T09:24:25.000Z</time>
      </trkpt>
      <trkpt lat="45.68895" lon="4.6145">
        <ele>456.2</ele>
        <time>2023-06-04T09:24:28.000Z</time>
      </trkpt>
      <trkpt lat="45.68894" lon="4.61445">
        <ele>456.6</ele>
        <time>2023-06-04T09:24:30.000Z</time>
      </trkpt>
      <trkpt lat="45.68893" lon="4.61436">
        <ele>457.2</ele>
        <time>2023-06-04T09:24:34.000Z</time>
      </trkpt>
      <trkpt lat="45.68894" lon="4.61431">
        <ele>457.4</ele>
        <time>2023-06-04T09:24:36.000Z</time>
      </trkpt>
      <trkpt lat="45.68894" lon="4.61429">
        <ele>457.4</ele>
        <time>2023-06-04T09:24:37.000Z</time>
      </trkpt>
      <trkpt lat="45.68894" lon="4.61422">
        <ele>457.8</ele>
        <time>2023-06-04T09:24:40.000Z</time>
      </trkpt>
      <trkpt lat="45.68894" lon="4.61416">
        <ele>458.4</ele>
        <time>2023-06-04T09:24:43.000Z</time>
      </trkpt>
      <trkpt lat="45.68894" lon="4.61409">
        <ele>458.8</ele>
        <time>2023-06-04T09:24:46.000Z</time>
      </trkpt>
      <trkpt lat="45.68897" lon="4.61397">
        <ele>459.4</ele>
        <time>2023-06-04T09:24:52.000Z</time>
      </trkpt>
      <trkpt lat="45.68897" lon="4.61393">
        <ele>459.8</ele>
        <time>2023-06-04T09:24:54.000Z</time>
      </trkpt>
      <trkpt lat="45.68898" lon="4.61388">
        <ele>460.2</ele>
        <time>2023-06-04T09:24:57.000Z</time>
      </trkpt>
      <trkpt lat="45.68898" lon="4.61386">
        <ele>460.4</ele>
        <time>2023-06-04T09:24:58.000Z</time>
      </trkpt>
      <trkpt lat="45.68899" lon="4.6138">
        <ele>461</ele>
        <time>2023-06-04T09:25:01.000Z</time>
      </trkpt>
      <trkpt lat="45.68899" lon="4.61378">
        <ele>461</ele>
        <time>2023-06-04T09:25:02.000Z</time>
      </trkpt>
      <trkpt lat="45.68899" lon="4.61374">
        <ele>461.6</ele>
        <time>2023-06-04T09:25:04.000Z</time>
      </trkpt>
      <trkpt lat="45.68901" lon="4.61364">
        <ele>462.8</ele>
        <time>2023-06-04T09:25:09.000Z</time>
      </trkpt>
      <trkpt lat="45.68902" lon="4.61353">
        <ele>463.6</ele>
        <time>2023-06-04T09:25:15.000Z</time>
      </trkpt>
      <trkpt lat="45.68902" lon="4.61352">
        <ele>463.8</ele>
        <time>2023-06-04T09:25:16.000Z</time>
      </trkpt>
      <trkpt lat="45.68902" lon="4.61348">
        <ele>464.2</ele>
        <time>2023-06-04T09:25:18.000Z</time>
      </trkpt>
      <trkpt lat="45.68904" lon="4.6134">
        <ele>465</ele>
        <time>2023-06-04T09:25:22.000Z</time>
      </trkpt>
      <trkpt lat="45.68904" lon="4.61338">
        <ele>465</ele>
        <time>2023-06-04T09:25:23.000Z</time>
      </trkpt>
      <trkpt lat="45.68908" lon="4.61325">
        <ele>466.2</ele>
        <time>2023-06-04T09:25:29.000Z</time>
      </trkpt>
      <trkpt lat="45.68915" lon="4.61311">
        <ele>467.4</ele>
        <time>2023-06-04T09:25:36.000Z</time>
      </trkpt>
      <trkpt lat="45.68923" lon="4.61297">
        <ele>468.2</ele>
        <time>2023-06-04T09:25:42.000Z</time>
      </trkpt>
      <trkpt lat="45.68927" lon="4.61291">
        <ele>468.4</ele>
        <time>2023-06-04T09:25:45.000Z</time>
      </trkpt>
      <trkpt lat="45.68936" lon="4.6128">
        <ele>468.8</ele>
        <time>2023-06-04T09:25:50.000Z</time>
      </trkpt>
      <trkpt lat="45.68951" lon="4.61268">
        <ele>469.2</ele>
        <time>2023-06-04T09:25:57.000Z</time>
      </trkpt>
      <trkpt lat="45.68976" lon="4.61248">
        <ele>469.6</ele>
        <time>2023-06-04T09:26:07.000Z</time>
      </trkpt>
      <trkpt lat="45.68984" lon="4.61242">
        <ele>469.6</ele>
        <time>2023-06-04T09:26:10.000Z</time>
      </trkpt>
      <trkpt lat="45.68993" lon="4.61239">
        <ele>469.8</ele>
        <time>2023-06-04T09:26:14.000Z</time>
      </trkpt>
      <trkpt lat="45.69" lon="4.61239">
        <ele>470</ele>
        <time>2023-06-04T09:26:19.000Z</time>
      </trkpt>
      <trkpt lat="45.69002" lon="4.61238">
        <ele>470</ele>
        <time>2023-06-04T09:26:20.000Z</time>
      </trkpt>
      <trkpt lat="45.69008" lon="4.61237">
        <ele>470.8</ele>
        <time>2023-06-04T09:26:24.000Z</time>
      </trkpt>
      <trkpt lat="45.69018" lon="4.61237">
        <ele>472</ele>
        <time>2023-06-04T09:26:30.000Z</time>
      </trkpt>
      <trkpt lat="45.69027" lon="4.61236">
        <ele>473.2</ele>
        <time>2023-06-04T09:26:36.000Z</time>
      </trkpt>
      <trkpt lat="45.69029" lon="4.61236">
        <ele>473.4</ele>
        <time>2023-06-04T09:26:38.000Z</time>
      </trkpt>
      <trkpt lat="45.69035" lon="4.61236">
        <ele>474.2</ele>
        <time>2023-06-04T09:26:43.000Z</time>
      </trkpt>
      <trkpt lat="45.69038" lon="4.61235">
        <ele>474.8</ele>
        <time>2023-06-04T09:26:45.000Z</time>
      </trkpt>
      <trkpt lat="45.6904" lon="4.61232">
        <ele>475.2</ele>
        <time>2023-06-04T09:26:47.000Z</time>
      </trkpt>
      <trkpt lat="45.69046" lon="4.6123">
        <ele>476.4</ele>
        <time>2023-06-04T09:26:52.000Z</time>
      </trkpt>
      <trkpt lat="45.69053" lon="4.61228">
        <ele>477.6</ele>
        <time>2023-06-04T09:26:57.000Z</time>
      </trkpt>
      <trkpt lat="45.69056" lon="4.61228">
        <ele>478</ele>
        <time>2023-06-04T09:26:59.000Z</time>
      </trkpt>
      <trkpt lat="45.69062" lon="4.61228">
        <ele>478.6</ele>
        <time>2023-06-04T09:27:02.000Z</time>
      </trkpt>
      <trkpt lat="45.69064" lon="4.61228">
        <ele>478.8</ele>
        <time>2023-06-04T09:27:03.000Z</time>
      </trkpt>
      <trkpt lat="45.6907" lon="4.61226">
        <ele>479.6</ele>
        <time>2023-06-04T09:27:07.000Z</time>
      </trkpt>
      <trkpt lat="45.69072" lon="4.61226">
        <ele>480</ele>
        <time>2023-06-04T09:27:08.000Z</time>
      </trkpt>
      <trkpt lat="45.69075" lon="4.61224">
        <ele>480.8</ele>
        <time>2023-06-04T09:27:12.000Z</time>
      </trkpt>
      <trkpt lat="45.69076" lon="4.61223">
        <ele>481</ele>
        <time>2023-06-04T09:27:13.000Z</time>
      </trkpt>
      <trkpt lat="45.69076" lon="4.61223">
        <ele>481.2</ele>
        <time>2023-06-04T09:27:14.000Z</time>
      </trkpt>
      <trkpt lat="45.6908" lon="4.61223">
        <ele>481.6</ele>
        <time>2023-06-04T09:27:17.000Z</time>
      </trkpt>
      <trkpt lat="45.69084" lon="4.61222">
        <ele>482.2</ele>
        <time>2023-06-04T09:27:20.000Z</time>
      </trkpt>
      <trkpt lat="45.69085" lon="4.61222">
        <ele>482.4</ele>
        <time>2023-06-04T09:27:21.000Z</time>
      </trkpt>
      <trkpt lat="45.6909" lon="4.61221">
        <ele>483.4</ele>
        <time>2023-06-04T09:27:25.000Z</time>
      </trkpt>
      <trkpt lat="45.69097" lon="4.61219">
        <ele>484.2</ele>
        <time>2023-06-04T09:27:29.000Z</time>
      </trkpt>
      <trkpt lat="45.69098" lon="4.61219">
        <ele>484.4</ele>
        <time>2023-06-04T09:27:30.000Z</time>
      </trkpt>
      <trkpt lat="45.69102" lon="4.61219">
        <ele>485.2</ele>
        <time>2023-06-04T09:27:33.000Z</time>
      </trkpt>
      <trkpt lat="45.69105" lon="4.61218">
        <ele>485.6</ele>
        <time>2023-06-04T09:27:35.000Z</time>
      </trkpt>
      <trkpt lat="45.69106" lon="4.61219">
        <ele>485.8</ele>
        <time>2023-06-04T09:27:36.000Z</time>
      </trkpt>
      <trkpt lat="45.6911" lon="4.61218">
        <ele>486.8</ele>
        <time>2023-06-04T09:27:40.000Z</time>
      </trkpt>
      <trkpt lat="45.69116" lon="4.61218">
        <ele>488</ele>
        <time>2023-06-04T09:27:45.000Z</time>
      </trkpt>
      <trkpt lat="45.69118" lon="4.61218">
        <ele>488.4</ele>
        <time>2023-06-04T09:27:47.000Z</time>
      </trkpt>
      <trkpt lat="45.69122" lon="4.61218">
        <ele>489</ele>
        <time>2023-06-04T09:27:51.000Z</time>
      </trkpt>
      <trkpt lat="45.69123" lon="4.61218">
        <ele>489.2</ele>
        <time>2023-06-04T09:27:52.000Z</time>
      </trkpt>
      <trkpt lat="45.69126" lon="4.61219">
        <ele>489.8</ele>
        <time>2023-06-04T09:27:55.000Z</time>
      </trkpt>
      <trkpt lat="45.69128" lon="4.61219">
        <ele>490.2</ele>
        <time>2023-06-04T09:27:57.000Z</time>
      </trkpt>
      <trkpt lat="45.6913" lon="4.61218">
        <ele>490.6</ele>
        <time>2023-06-04T09:27:59.000Z</time>
      </trkpt>
      <trkpt lat="45.69132" lon="4.61218">
        <ele>491</ele>
        <time>2023-06-04T09:28:02.000Z</time>
      </trkpt>
      <trkpt lat="45.69133" lon="4.61218">
        <ele>491.2</ele>
        <time>2023-06-04T09:28:03.000Z</time>
      </trkpt>
      <trkpt lat="45.69136" lon="4.6122">
        <ele>491.8</ele>
        <time>2023-06-04T09:28:06.000Z</time>
      </trkpt>
      <trkpt lat="45.69137" lon="4.61221">
        <ele>492</ele>
        <time>2023-06-04T09:28:08.000Z</time>
      </trkpt>
      <trkpt lat="45.69138" lon="4.61222">
        <ele>492.4</ele>
        <time>2023-06-04T09:28:10.000Z</time>
      </trkpt>
      <trkpt lat="45.69142" lon="4.61223">
        <ele>493.2</ele>
        <time>2023-06-04T09:28:14.000Z</time>
      </trkpt>
      <trkpt lat="45.69145" lon="4.61226">
        <ele>493.8</ele>
        <time>2023-06-04T09:28:17.000Z</time>
      </trkpt>
      <trkpt lat="45.69151" lon="4.61229">
        <ele>494.2</ele>
        <time>2023-06-04T09:28:22.000Z</time>
      </trkpt>
      <trkpt lat="45.69151" lon="4.61229">
        <ele>494.6</ele>
        <time>2023-06-04T09:28:24.000Z</time>
      </trkpt>
      <trkpt lat="45.69152" lon="4.6123">
        <ele>494.8</ele>
        <time>2023-06-04T09:28:25.000Z</time>
      </trkpt>
      <trkpt lat="45.69154" lon="4.61231">
        <ele>495.2</ele>
        <time>2023-06-04T09:28:27.000Z</time>
      </trkpt>
      <trkpt lat="45.69155" lon="4.61232">
        <ele>495.8</ele>
        <time>2023-06-04T09:28:29.000Z</time>
      </trkpt>
      <trkpt lat="45.69156" lon="4.61232">
        <ele>495.8</ele>
        <time>2023-06-04T09:28:30.000Z</time>
      </trkpt>
      <trkpt lat="45.69162" lon="4.61236">
        <ele>496.6</ele>
        <time>2023-06-04T09:28:35.000Z</time>
      </trkpt>
      <trkpt lat="45.69165" lon="4.61237">
        <ele>497</ele>
        <time>2023-06-04T09:28:37.000Z</time>
      </trkpt>
      <trkpt lat="45.69168" lon="4.61239">
        <ele>497.6</ele>
        <time>2023-06-04T09:28:40.000Z</time>
      </trkpt>
      <trkpt lat="45.69171" lon="4.61242">
        <ele>498</ele>
        <time>2023-06-04T09:28:43.000Z</time>
      </trkpt>
      <trkpt lat="45.69173" lon="4.6124">
        <ele>498.2</ele>
        <time>2023-06-04T09:28:44.000Z</time>
      </trkpt>
      <trkpt lat="45.69174" lon="4.61242">
        <ele>498.4</ele>
        <time>2023-06-04T09:28:46.000Z</time>
      </trkpt>
      <trkpt lat="45.69178" lon="4.61247">
        <ele>499.2</ele>
        <time>2023-06-04T09:28:51.000Z</time>
      </trkpt>
      <trkpt lat="45.69179" lon="4.61249">
        <ele>499.4</ele>
        <time>2023-06-04T09:28:53.000Z</time>
      </trkpt>
      <trkpt lat="45.69182" lon="4.61255">
        <ele>500</ele>
        <time>2023-06-04T09:28:57.000Z</time>
      </trkpt>
      <trkpt lat="45.69183" lon="4.61256">
        <ele>500.2</ele>
        <time>2023-06-04T09:28:58.000Z</time>
      </trkpt>
      <trkpt lat="45.69183" lon="4.61258">
        <ele>500.2</ele>
        <time>2023-06-04T09:28:59.000Z</time>
      </trkpt>
      <trkpt lat="45.69184" lon="4.61262">
        <ele>501.2</ele>
        <time>2023-06-04T09:29:04.000Z</time>
      </trkpt>
      <trkpt lat="45.69184" lon="4.61263">
        <ele>501.4</ele>
        <time>2023-06-04T09:29:05.000Z</time>
      </trkpt>
      <trkpt lat="45.69186" lon="4.61267">
        <ele>501.8</ele>
        <time>2023-06-04T09:29:08.000Z</time>
      </trkpt>
      <trkpt lat="45.69188" lon="4.6127">
        <ele>502.2</ele>
        <time>2023-06-04T09:29:10.000Z</time>
      </trkpt>
      <trkpt lat="45.69191" lon="4.61275">
        <ele>502.6</ele>
        <time>2023-06-04T09:29:13.000Z</time>
      </trkpt>
      <trkpt lat="45.69193" lon="4.61278">
        <ele>503.2</ele>
        <time>2023-06-04T09:29:15.000Z</time>
      </trkpt>
      <trkpt lat="45.69194" lon="4.61279">
        <ele>503.2</ele>
        <time>2023-06-04T09:29:16.000Z</time>
      </trkpt>
      <trkpt lat="45.69196" lon="4.61286">
        <ele>504</ele>
        <time>2023-06-04T09:29:20.000Z</time>
      </trkpt>
      <trkpt lat="45.69196" lon="4.61288">
        <ele>504.4</ele>
        <time>2023-06-04T09:29:22.000Z</time>
      </trkpt>
      <trkpt lat="45.692" lon="4.61293">
        <ele>505</ele>
        <time>2023-06-04T09:29:25.000Z</time>
      </trkpt>
      <trkpt lat="45.69201" lon="4.61295">
        <ele>505.4</ele>
        <time>2023-06-04T09:29:26.000Z</time>
      </trkpt>
      <trkpt lat="45.69201" lon="4.61295">
        <ele>505.4</ele>
        <time>2023-06-04T09:29:27.000Z</time>
      </trkpt>
      <trkpt lat="45.69206" lon="4.61301">
        <ele>506.6</ele>
        <time>2023-06-04T09:29:33.000Z</time>
      </trkpt>
      <trkpt lat="45.69207" lon="4.61302">
        <ele>506.8</ele>
        <time>2023-06-04T09:29:34.000Z</time>
      </trkpt>
      <trkpt lat="45.69217" lon="4.61315">
        <ele>507.8</ele>
        <time>2023-06-04T09:29:40.000Z</time>
      </trkpt>
      <trkpt lat="45.69217" lon="4.61317">
        <ele>508.2</ele>
        <time>2023-06-04T09:29:42.000Z</time>
      </trkpt>
      <trkpt lat="45.69221" lon="4.61321">
        <ele>508.8</ele>
        <time>2023-06-04T09:29:45.000Z</time>
      </trkpt>
      <trkpt lat="45.69221" lon="4.61323">
        <ele>509</ele>
        <time>2023-06-04T09:29:46.000Z</time>
      </trkpt>
      <trkpt lat="45.69221" lon="4.61327">
        <ele>509.4</ele>
        <time>2023-06-04T09:29:48.000Z</time>
      </trkpt>
      <trkpt lat="45.69225" lon="4.61331">
        <ele>510</ele>
        <time>2023-06-04T09:29:50.000Z</time>
      </trkpt>
      <trkpt lat="45.69227" lon="4.61333">
        <ele>510.2</ele>
        <time>2023-06-04T09:29:51.000Z</time>
      </trkpt>
      <trkpt lat="45.69226" lon="4.61338">
        <ele>510.6</ele>
        <time>2023-06-04T09:29:54.000Z</time>
      </trkpt>
      <trkpt lat="45.69221" lon="4.61338">
        <ele>511.4</ele>
        <time>2023-06-04T09:29:58.000Z</time>
      </trkpt>
      <trkpt lat="45.6922" lon="4.61338">
        <ele>511.4</ele>
        <time>2023-06-04T09:29:59.000Z</time>
      </trkpt>
      <trkpt lat="45.69217" lon="4.61336">
        <ele>512</ele>
        <time>2023-06-04T09:30:01.000Z</time>
      </trkpt>
      <trkpt lat="45.69214" lon="4.61334">
        <ele>512.2</ele>
        <time>2023-06-04T09:30:03.000Z</time>
      </trkpt>
      <trkpt lat="45.69213" lon="4.61332">
        <ele>512.6</ele>
        <time>2023-06-04T09:30:04.000Z</time>
      </trkpt>
      <trkpt lat="45.69212" lon="4.61331">
        <ele>512.6</ele>
        <time>2023-06-04T09:30:05.000Z</time>
      </trkpt>
      <trkpt lat="45.69209" lon="4.6133">
        <ele>512.8</ele>
        <time>2023-06-04T09:30:07.000Z</time>
      </trkpt>
      <trkpt lat="45.69206" lon="4.61329">
        <ele>513.2</ele>
        <time>2023-06-04T09:30:09.000Z</time>
      </trkpt>
      <trkpt lat="45.69202" lon="4.61326">
        <ele>513.6</ele>
        <time>2023-06-04T09:30:13.000Z</time>
      </trkpt>
      <trkpt lat="45.692" lon="4.61326">
        <ele>513.8</ele>
        <time>2023-06-04T09:30:15.000Z</time>
      </trkpt>
      <trkpt lat="45.69198" lon="4.61326">
        <ele>514</ele>
        <time>2023-06-04T09:30:16.000Z</time>
      </trkpt>
      <trkpt lat="45.69192" lon="4.61325">
        <ele>514.6</ele>
        <time>2023-06-04T09:30:20.000Z</time>
      </trkpt>
      <trkpt lat="45.6919" lon="4.61327">
        <ele>514.8</ele>
        <time>2023-06-04T09:30:22.000Z</time>
      </trkpt>
      <trkpt lat="45.69186" lon="4.6133">
        <ele>515</ele>
        <time>2023-06-04T09:30:25.000Z</time>
      </trkpt>
      <trkpt lat="45.69183" lon="4.61332">
        <ele>515.4</ele>
        <time>2023-06-04T09:30:28.000Z</time>
      </trkpt>
      <trkpt lat="45.69182" lon="4.61333">
        <ele>515.4</ele>
        <time>2023-06-04T09:30:29.000Z</time>
      </trkpt>
      <trkpt lat="45.69179" lon="4.61334">
        <ele>515.8</ele>
        <time>2023-06-04T09:30:31.000Z</time>
      </trkpt>
      <trkpt lat="45.69176" lon="4.61335">
        <ele>515.8</ele>
        <time>2023-06-04T09:30:33.000Z</time>
      </trkpt>
      <trkpt lat="45.69175" lon="4.61336">
        <ele>516</ele>
        <time>2023-06-04T09:30:34.000Z</time>
      </trkpt>
      <trkpt lat="45.69173" lon="4.61336">
        <ele>516.2</ele>
        <time>2023-06-04T09:30:35.000Z</time>
      </trkpt>
      <trkpt lat="45.69171" lon="4.61337">
        <ele>516.2</ele>
        <time>2023-06-04T09:30:36.000Z</time>
      </trkpt>
      <trkpt lat="45.69167" lon="4.61342">
        <ele>516.8</ele>
        <time>2023-06-04T09:30:39.000Z</time>
      </trkpt>
      <trkpt lat="45.69163" lon="4.61346">
        <ele>517.2</ele>
        <time>2023-06-04T09:30:41.000Z</time>
      </trkpt>
      <trkpt lat="45.69158" lon="4.61352">
        <ele>517.6</ele>
        <time>2023-06-04T09:30:44.000Z</time>
      </trkpt>
      <trkpt lat="45.69155" lon="4.61356">
        <ele>518</ele>
        <time>2023-06-04T09:30:46.000Z</time>
      </trkpt>
      <trkpt lat="45.69154" lon="4.61361">
        <ele>518.2</ele>
        <time>2023-06-04T09:30:48.000Z</time>
      </trkpt>
      <trkpt lat="45.69153" lon="4.61376">
        <ele>518.4</ele>
        <time>2023-06-04T09:30:53.000Z</time>
      </trkpt>
      <trkpt lat="45.69152" lon="4.61378">
        <ele>518.6</ele>
        <time>2023-06-04T09:30:54.000Z</time>
      </trkpt>
      <trkpt lat="45.69152" lon="4.61381">
        <ele>518.6</ele>
        <time>2023-06-04T09:30:55.000Z</time>
      </trkpt>
      <trkpt lat="45.69153" lon="4.61391">
        <ele>519</ele>
        <time>2023-06-04T09:30:59.000Z</time>
      </trkpt>
      <trkpt lat="45.69153" lon="4.61394">
        <ele>519.2</ele>
        <time>2023-06-04T09:31:01.000Z</time>
      </trkpt>
      <trkpt lat="45.69153" lon="4.61395">
        <ele>519.2</ele>
        <time>2023-06-04T09:31:02.000Z</time>
      </trkpt>
      <trkpt lat="45.6916" lon="4.61412">
        <ele>519.8</ele>
        <time>2023-06-04T09:31:11.000Z</time>
      </trkpt>
      <trkpt lat="45.69162" lon="4.6142">
        <ele>520.2</ele>
        <time>2023-06-04T09:31:15.000Z</time>
      </trkpt>
      <trkpt lat="45.69163" lon="4.61421">
        <ele>520.2</ele>
        <time>2023-06-04T09:31:16.000Z</time>
      </trkpt>
      <trkpt lat="45.69163" lon="4.61422">
        <ele>520.4</ele>
        <time>2023-06-04T09:31:17.000Z</time>
      </trkpt>
      <trkpt lat="45.69166" lon="4.61431">
        <ele>521</ele>
        <time>2023-06-04T09:31:22.000Z</time>
      </trkpt>
      <trkpt lat="45.69166" lon="4.61432">
        <ele>521.4</ele>
        <time>2023-06-04T09:31:23.000Z</time>
      </trkpt>
      <trkpt lat="45.69168" lon="4.61439">
        <ele>521.6</ele>
        <time>2023-06-04T09:31:26.000Z</time>
      </trkpt>
      <trkpt lat="45.69168" lon="4.61441">
        <ele>521.8</ele>
        <time>2023-06-04T09:31:27.000Z</time>
      </trkpt>
      <trkpt lat="45.69169" lon="4.61445">
        <ele>522</ele>
        <time>2023-06-04T09:31:29.000Z</time>
      </trkpt>
      <trkpt lat="45.69171" lon="4.61448">
        <ele>522.4</ele>
        <time>2023-06-04T09:31:31.000Z</time>
      </trkpt>
      <trkpt lat="45.69175" lon="4.61459">
        <ele>523</ele>
        <time>2023-06-04T09:31:36.000Z</time>
      </trkpt>
      <trkpt lat="45.69176" lon="4.6146">
        <ele>523.2</ele>
        <time>2023-06-04T09:31:37.000Z</time>
      </trkpt>
      <trkpt lat="45.69176" lon="4.61461">
        <ele>523.2</ele>
        <time>2023-06-04T09:31:38.000Z</time>
      </trkpt>
      <trkpt lat="45.69176" lon="4.61462">
        <ele>523.4</ele>
        <time>2023-06-04T09:31:39.000Z</time>
      </trkpt>
      <trkpt lat="45.69181" lon="4.61472">
        <ele>524.4</ele>
        <time>2023-06-04T09:31:44.000Z</time>
      </trkpt>
      <trkpt lat="45.69186" lon="4.61484">
        <ele>525.6</ele>
        <time>2023-06-04T09:31:50.000Z</time>
      </trkpt>
      <trkpt lat="45.69187" lon="4.61485">
        <ele>525.8</ele>
        <time>2023-06-04T09:31:51.000Z</time>
      </trkpt>
      <trkpt lat="45.69188" lon="4.61491">
        <ele>526.4</ele>
        <time>2023-06-04T09:31:54.000Z</time>
      </trkpt>
      <trkpt lat="45.69189" lon="4.61495">
        <ele>526.8</ele>
        <time>2023-06-04T09:31:56.000Z</time>
      </trkpt>
      <trkpt lat="45.69189" lon="4.61497">
        <ele>527.2</ele>
        <time>2023-06-04T09:31:57.000Z</time>
      </trkpt>
      <trkpt lat="45.69189" lon="4.61498">
        <ele>527.4</ele>
        <time>2023-06-04T09:31:58.000Z</time>
      </trkpt>
      <trkpt lat="45.69192" lon="4.61504">
        <ele>528</ele>
        <time>2023-06-04T09:32:01.000Z</time>
      </trkpt>
      <trkpt lat="45.69195" lon="4.61509">
        <ele>528.4</ele>
        <time>2023-06-04T09:32:04.000Z</time>
      </trkpt>
      <trkpt lat="45.69196" lon="4.6151">
        <ele>528.4</ele>
        <time>2023-06-04T09:32:05.000Z</time>
      </trkpt>
      <trkpt lat="45.69197" lon="4.61516">
        <ele>529</ele>
        <time>2023-06-04T09:32:08.000Z</time>
      </trkpt>
      <trkpt lat="45.692" lon="4.61523">
        <ele>529.6</ele>
        <time>2023-06-04T09:32:11.000Z</time>
      </trkpt>
      <trkpt lat="45.69202" lon="4.61526">
        <ele>530.2</ele>
        <time>2023-06-04T09:32:13.000Z</time>
      </trkpt>
      <trkpt lat="45.69207" lon="4.61533">
        <ele>530.6</ele>
        <time>2023-06-04T09:32:16.000Z</time>
      </trkpt>
      <trkpt lat="45.69207" lon="4.61534">
        <ele>530.6</ele>
        <time>2023-06-04T09:32:17.000Z</time>
      </trkpt>
      <trkpt lat="45.69207" lon="4.61535">
        <ele>531</ele>
        <time>2023-06-04T09:32:18.000Z</time>
      </trkpt>
      <trkpt lat="45.69209" lon="4.61538">
        <ele>531.4</ele>
        <time>2023-06-04T09:32:20.000Z</time>
      </trkpt>
      <trkpt lat="45.6921" lon="4.61543">
        <ele>532</ele>
        <time>2023-06-04T09:32:23.000Z</time>
      </trkpt>
      <trkpt lat="45.69212" lon="4.61545">
        <ele>532.4</ele>
        <time>2023-06-04T09:32:25.000Z</time>
      </trkpt>
      <trkpt lat="45.69214" lon="4.61552">
        <ele>533.2</ele>
        <time>2023-06-04T09:32:29.000Z</time>
      </trkpt>
      <trkpt lat="45.69214" lon="4.61552">
        <ele>533.4</ele>
        <time>2023-06-04T09:32:30.000Z</time>
      </trkpt>
      <trkpt lat="45.69218" lon="4.6156">
        <ele>534.4</ele>
        <time>2023-06-04T09:32:35.000Z</time>
      </trkpt>
      <trkpt lat="45.69219" lon="4.6156">
        <ele>534.6</ele>
        <time>2023-06-04T09:32:36.000Z</time>
      </trkpt>
      <trkpt lat="45.69225" lon="4.61572">
        <ele>535.8</ele>
        <time>2023-06-04T09:32:43.000Z</time>
      </trkpt>
      <trkpt lat="45.6923" lon="4.61584">
        <ele>536.8</ele>
        <time>2023-06-04T09:32:50.000Z</time>
      </trkpt>
      <trkpt lat="45.69231" lon="4.61586">
        <ele>537</ele>
        <time>2023-06-04T09:32:51.000Z</time>
      </trkpt>
      <trkpt lat="45.69237" lon="4.61598">
        <ele>537.8</ele>
        <time>2023-06-04T09:32:58.000Z</time>
      </trkpt>
      <trkpt lat="45.69237" lon="4.616">
        <ele>538</ele>
        <time>2023-06-04T09:32:59.000Z</time>
      </trkpt>
      <trkpt lat="45.69244" lon="4.61615">
        <ele>538.8</ele>
        <time>2023-06-04T09:33:05.000Z</time>
      </trkpt>
      <trkpt lat="45.69246" lon="4.61618">
        <ele>539</ele>
        <time>2023-06-04T09:33:06.000Z</time>
      </trkpt>
      <trkpt lat="45.69246" lon="4.61619">
        <ele>539.2</ele>
        <time>2023-06-04T09:33:07.000Z</time>
      </trkpt>
      <trkpt lat="45.6925" lon="4.61629">
        <ele>540</ele>
        <time>2023-06-04T09:33:14.000Z</time>
      </trkpt>
      <trkpt lat="45.69251" lon="4.61633">
        <ele>540.6</ele>
        <time>2023-06-04T09:33:17.000Z</time>
      </trkpt>
      <trkpt lat="45.69253" lon="4.61637">
        <ele>541.2</ele>
        <time>2023-06-04T09:33:20.000Z</time>
      </trkpt>
      <trkpt lat="45.69254" lon="4.61641">
        <ele>541.4</ele>
        <time>2023-06-04T09:33:22.000Z</time>
      </trkpt>
      <trkpt lat="45.69257" lon="4.61647">
        <ele>542.2</ele>
        <time>2023-06-04T09:33:26.000Z</time>
      </trkpt>
      <trkpt lat="45.69258" lon="4.61649">
        <ele>542.4</ele>
        <time>2023-06-04T09:33:27.000Z</time>
      </trkpt>
      <trkpt lat="45.6926" lon="4.61652">
        <ele>542.8</ele>
        <time>2023-06-04T09:33:29.000Z</time>
      </trkpt>
      <trkpt lat="45.69264" lon="4.6166">
        <ele>543.2</ele>
        <time>2023-06-04T09:33:33.000Z</time>
      </trkpt>
      <trkpt lat="45.69266" lon="4.61663">
        <ele>543.4</ele>
        <time>2023-06-04T09:33:35.000Z</time>
      </trkpt>
      <trkpt lat="45.69267" lon="4.61664">
        <ele>543.6</ele>
        <time>2023-06-04T09:33:36.000Z</time>
      </trkpt>
      <trkpt lat="45.69269" lon="4.61666">
        <ele>543.6</ele>
        <time>2023-06-04T09:33:37.000Z</time>
      </trkpt>
      <trkpt lat="45.69275" lon="4.61677">
        <ele>544.4</ele>
        <time>2023-06-04T09:33:41.000Z</time>
      </trkpt>
      <trkpt lat="45.69286" lon="4.61693">
        <ele>545.6</ele>
        <time>2023-06-04T09:33:49.000Z</time>
      </trkpt>
      <trkpt lat="45.69288" lon="4.61699">
        <ele>546</ele>
        <time>2023-06-04T09:33:52.000Z</time>
      </trkpt>
      <trkpt lat="45.6929" lon="4.61702">
        <ele>546.4</ele>
        <time>2023-06-04T09:33:54.000Z</time>
      </trkpt>
      <trkpt lat="45.69291" lon="4.61706">
        <ele>546.6</ele>
        <time>2023-06-04T09:33:56.000Z</time>
      </trkpt>
      <trkpt lat="45.69296" lon="4.61716">
        <ele>547.2</ele>
        <time>2023-06-04T09:34:01.000Z</time>
      </trkpt>
      <trkpt lat="45.69299" lon="4.61721">
        <ele>547.6</ele>
        <time>2023-06-04T09:34:04.000Z</time>
      </trkpt>
      <trkpt lat="45.69303" lon="4.61727">
        <ele>548</ele>
        <time>2023-06-04T09:34:08.000Z</time>
      </trkpt>
      <trkpt lat="45.69306" lon="4.61733">
        <ele>548.8</ele>
        <time>2023-06-04T09:34:12.000Z</time>
      </trkpt>
      <trkpt lat="45.69313" lon="4.6174">
        <ele>550</ele>
        <time>2023-06-04T09:34:17.000Z</time>
      </trkpt>
      <trkpt lat="45.69314" lon="4.61742">
        <ele>550</ele>
        <time>2023-06-04T09:34:18.000Z</time>
      </trkpt>
      <trkpt lat="45.69317" lon="4.61746">
        <ele>550.6</ele>
        <time>2023-06-04T09:34:21.000Z</time>
      </trkpt>
      <trkpt lat="45.6932" lon="4.61748">
        <ele>551</ele>
        <time>2023-06-04T09:34:23.000Z</time>
      </trkpt>
      <trkpt lat="45.69324" lon="4.61752">
        <ele>551.4</ele>
        <time>2023-06-04T09:34:26.000Z</time>
      </trkpt>
      <trkpt lat="45.6933" lon="4.61759">
        <ele>552</ele>
        <time>2023-06-04T09:34:31.000Z</time>
      </trkpt>
      <trkpt lat="45.69331" lon="4.61761">
        <ele>552.2</ele>
        <time>2023-06-04T09:34:32.000Z</time>
      </trkpt>
      <trkpt lat="45.6934" lon="4.61766">
        <ele>552.8</ele>
        <time>2023-06-04T09:34:38.000Z</time>
      </trkpt>
      <trkpt lat="45.69343" lon="4.61762">
        <ele>553</ele>
        <time>2023-06-04T09:34:40.000Z</time>
      </trkpt>
      <trkpt lat="45.69344" lon="4.61753">
        <ele>553.8</ele>
        <time>2023-06-04T09:34:43.000Z</time>
      </trkpt>
      <trkpt lat="45.69344" lon="4.61749">
        <ele>554.2</ele>
        <time>2023-06-04T09:34:44.000Z</time>
      </trkpt>
      <trkpt lat="45.69346" lon="4.6174">
        <ele>554.8</ele>
        <time>2023-06-04T09:34:47.000Z</time>
      </trkpt>
      <trkpt lat="45.69349" lon="4.61733">
        <ele>555.2</ele>
        <time>2023-06-04T09:34:50.000Z</time>
      </trkpt>
      <trkpt lat="45.69357" lon="4.61722">
        <ele>556.2</ele>
        <time>2023-06-04T09:34:56.000Z</time>
      </trkpt>
      <trkpt lat="45.69361" lon="4.61719">
        <ele>556.6</ele>
        <time>2023-06-04T09:34:58.000Z</time>
      </trkpt>
      <trkpt lat="45.69362" lon="4.61718">
        <ele>556.8</ele>
        <time>2023-06-04T09:34:59.000Z</time>
      </trkpt>
      <trkpt lat="45.69365" lon="4.61715">
        <ele>557.2</ele>
        <time>2023-06-04T09:35:01.000Z</time>
      </trkpt>
      <trkpt lat="45.6937" lon="4.61714">
        <ele>557.8</ele>
        <time>2023-06-04T09:35:04.000Z</time>
      </trkpt>
      <trkpt lat="45.69375" lon="4.61713">
        <ele>558.4</ele>
        <time>2023-06-04T09:35:07.000Z</time>
      </trkpt>
      <trkpt lat="45.69382" lon="4.6171">
        <ele>559.2</ele>
        <time>2023-06-04T09:35:11.000Z</time>
      </trkpt>
      <trkpt lat="45.69385" lon="4.61709">
        <ele>559.4</ele>
        <time>2023-06-04T09:35:13.000Z</time>
      </trkpt>
      <trkpt lat="45.69392" lon="4.61707">
        <ele>560.2</ele>
        <time>2023-06-04T09:35:18.000Z</time>
      </trkpt>
      <trkpt lat="45.69393" lon="4.61707">
        <ele>560.4</ele>
        <time>2023-06-04T09:35:19.000Z</time>
      </trkpt>
      <trkpt lat="45.69395" lon="4.61706">
        <ele>560.6</ele>
        <time>2023-06-04T09:35:20.000Z</time>
      </trkpt>
      <trkpt lat="45.69398" lon="4.61705">
        <ele>560.8</ele>
        <time>2023-06-04T09:35:22.000Z</time>
      </trkpt>
      <trkpt lat="45.69404" lon="4.61703">
        <ele>561.4</ele>
        <time>2023-06-04T09:35:26.000Z</time>
      </trkpt>
      <trkpt lat="45.69405" lon="4.61702">
        <ele>561.6</ele>
        <time>2023-06-04T09:35:27.000Z</time>
      </trkpt>
      <trkpt lat="45.69406" lon="4.61701">
        <ele>561.8</ele>
        <time>2023-06-04T09:35:28.000Z</time>
      </trkpt>
      <trkpt lat="45.69412" lon="4.61698">
        <ele>562.4</ele>
        <time>2023-06-04T09:35:32.000Z</time>
      </trkpt>
      <trkpt lat="45.69413" lon="4.61698">
        <ele>562.6</ele>
        <time>2023-06-04T09:35:33.000Z</time>
      </trkpt>
      <trkpt lat="45.69416" lon="4.61699">
        <ele>563</ele>
        <time>2023-06-04T09:35:35.000Z</time>
      </trkpt>
      <trkpt lat="45.69419" lon="4.6171">
        <ele>563.6</ele>
        <time>2023-06-04T09:35:40.000Z</time>
      </trkpt>
      <trkpt lat="45.69416" lon="4.61722">
        <ele>564</ele>
        <time>2023-06-04T09:35:45.000Z</time>
      </trkpt>
      <trkpt lat="45.69416" lon="4.61724">
        <ele>564</ele>
        <time>2023-06-04T09:35:46.000Z</time>
      </trkpt>
      <trkpt lat="45.69415" lon="4.61731">
        <ele>564.6</ele>
        <time>2023-06-04T09:35:49.000Z</time>
      </trkpt>
      <trkpt lat="45.69414" lon="4.61736">
        <ele>565</ele>
        <time>2023-06-04T09:35:51.000Z</time>
      </trkpt>
      <trkpt lat="45.69412" lon="4.61759">
        <ele>566</ele>
        <time>2023-06-04T09:35:58.000Z</time>
      </trkpt>
      <trkpt lat="45.69414" lon="4.6177">
        <ele>566</ele>
        <time>2023-06-04T09:36:01.000Z</time>
      </trkpt>
      <trkpt lat="45.69418" lon="4.61787">
        <ele>566</ele>
        <time>2023-06-04T09:36:06.000Z</time>
      </trkpt>
      <trkpt lat="45.69422" lon="4.61802">
        <ele>566</ele>
        <time>2023-06-04T09:36:11.000Z</time>
      </trkpt>
      <trkpt lat="45.69424" lon="4.61804">
        <ele>566</ele>
        <time>2023-06-04T09:36:12.000Z</time>
      </trkpt>
      <trkpt lat="45.69443" lon="4.61824">
        <ele>566.2</ele>
        <time>2023-06-04T09:36:21.000Z</time>
      </trkpt>
      <trkpt lat="45.69451" lon="4.61832">
        <ele>566.2</ele>
        <time>2023-06-04T09:36:25.000Z</time>
      </trkpt>
      <trkpt lat="45.69454" lon="4.61836">
        <ele>566.4</ele>
        <time>2023-06-04T09:36:27.000Z</time>
      </trkpt>
      <trkpt lat="45.69463" lon="4.61846">
        <ele>567</ele>
        <time>2023-06-04T09:36:32.000Z</time>
      </trkpt>
      <trkpt lat="45.69464" lon="4.61849">
        <ele>567.2</ele>
        <time>2023-06-04T09:36:34.000Z</time>
      </trkpt>
      <trkpt lat="45.69465" lon="4.61852">
        <ele>567.6</ele>
        <time>2023-06-04T09:36:37.000Z</time>
      </trkpt>
      <trkpt lat="45.69464" lon="4.61863">
        <ele>568</ele>
        <time>2023-06-04T09:36:40.000Z</time>
      </trkpt>
      <trkpt lat="45.69463" lon="4.61876">
        <ele>568.2</ele>
        <time>2023-06-04T09:36:42.000Z</time>
      </trkpt>
      <trkpt lat="45.69464" lon="4.61883">
        <ele>568.2</ele>
        <time>2023-06-04T09:36:43.000Z</time>
      </trkpt>
      <trkpt lat="45.69466" lon="4.6189">
        <ele>568.2</ele>
        <time>2023-06-04T09:36:44.000Z</time>
      </trkpt>
      <trkpt lat="45.69469" lon="4.61898">
        <ele>568.2</ele>
        <time>2023-06-04T09:36:45.000Z</time>
      </trkpt>
      <trkpt lat="45.69472" lon="4.61905">
        <ele>568.2</ele>
        <time>2023-06-04T09:36:46.000Z</time>
      </trkpt>
      <trkpt lat="45.69476" lon="4.61911">
        <ele>568.2</ele>
        <time>2023-06-04T09:36:47.000Z</time>
      </trkpt>
      <trkpt lat="45.69492" lon="4.61928">
        <ele>566.2</ele>
        <time>2023-06-04T09:36:50.000Z</time>
      </trkpt>
      <trkpt lat="45.69497" lon="4.61934">
        <ele>565</ele>
        <time>2023-06-04T09:36:51.000Z</time>
      </trkpt>
      <trkpt lat="45.69502" lon="4.6194">
        <ele>564</ele>
        <time>2023-06-04T09:36:52.000Z</time>
      </trkpt>
      <trkpt lat="45.69508" lon="4.61946">
        <ele>563</ele>
        <time>2023-06-04T09:36:53.000Z</time>
      </trkpt>
      <trkpt lat="45.69513" lon="4.61952">
        <ele>562.4</ele>
        <time>2023-06-04T09:36:54.000Z</time>
      </trkpt>
      <trkpt lat="45.69525" lon="4.61963">
        <ele>561</ele>
        <time>2023-06-04T09:36:56.000Z</time>
      </trkpt>
      <trkpt lat="45.69531" lon="4.61968">
        <ele>560</ele>
        <time>2023-06-04T09:36:57.000Z</time>
      </trkpt>
      <trkpt lat="45.69536" lon="4.6197">
        <ele>558.6</ele>
        <time>2023-06-04T09:36:58.000Z</time>
      </trkpt>
      <trkpt lat="45.69546" lon="4.61973">
        <ele>557.2</ele>
        <time>2023-06-04T09:37:00.000Z</time>
      </trkpt>
      <trkpt lat="45.69558" lon="4.61975">
        <ele>556.4</ele>
        <time>2023-06-04T09:37:02.000Z</time>
      </trkpt>
      <trkpt lat="45.69564" lon="4.61977">
        <ele>555.6</ele>
        <time>2023-06-04T09:37:03.000Z</time>
      </trkpt>
      <trkpt lat="45.69574" lon="4.61981">
        <ele>554.2</ele>
        <time>2023-06-04T09:37:05.000Z</time>
      </trkpt>
      <trkpt lat="45.69581" lon="4.61988">
        <ele>553.4</ele>
        <time>2023-06-04T09:37:07.000Z</time>
      </trkpt>
      <trkpt lat="45.69583" lon="4.61993">
        <ele>552.8</ele>
        <time>2023-06-04T09:37:08.000Z</time>
      </trkpt>
      <trkpt lat="45.69584" lon="4.61999">
        <ele>552.4</ele>
        <time>2023-06-04T09:37:09.000Z</time>
      </trkpt>
      <trkpt lat="45.69583" lon="4.62006">
        <ele>552</ele>
        <time>2023-06-04T09:37:10.000Z</time>
      </trkpt>
      <trkpt lat="45.69582" lon="4.62015">
        <ele>551.6</ele>
        <time>2023-06-04T09:37:11.000Z</time>
      </trkpt>
      <trkpt lat="45.6958" lon="4.62033">
        <ele>551.2</ele>
        <time>2023-06-04T09:37:13.000Z</time>
      </trkpt>
      <trkpt lat="45.6958" lon="4.62058">
        <ele>550.8</ele>
        <time>2023-06-04T09:37:16.000Z</time>
      </trkpt>
      <trkpt lat="45.69579" lon="4.62066">
        <ele>550.6</ele>
        <time>2023-06-04T09:37:17.000Z</time>
      </trkpt>
      <trkpt lat="45.6958" lon="4.62074">
        <ele>550.4</ele>
        <time>2023-06-04T09:37:18.000Z</time>
      </trkpt>
      <trkpt lat="45.69584" lon="4.62087">
        <ele>549.8</ele>
        <time>2023-06-04T09:37:20.000Z</time>
      </trkpt>
      <trkpt lat="45.69587" lon="4.62092">
        <ele>549.6</ele>
        <time>2023-06-04T09:37:21.000Z</time>
      </trkpt>
      <trkpt lat="45.6959" lon="4.62097">
        <ele>549.4</ele>
        <time>2023-06-04T09:37:22.000Z</time>
      </trkpt>
      <trkpt lat="45.69596" lon="4.62108">
        <ele>549</ele>
        <time>2023-06-04T09:37:24.000Z</time>
      </trkpt>
      <trkpt lat="45.69598" lon="4.62115">
        <ele>548.4</ele>
        <time>2023-06-04T09:37:25.000Z</time>
      </trkpt>
      <trkpt lat="45.69599" lon="4.62122">
        <ele>547.6</ele>
        <time>2023-06-04T09:37:26.000Z</time>
      </trkpt>
      <trkpt lat="45.69595" lon="4.62137">
        <ele>546.6</ele>
        <time>2023-06-04T09:37:28.000Z</time>
      </trkpt>
      <trkpt lat="45.69591" lon="4.62144">
        <ele>546.6</ele>
        <time>2023-06-04T09:37:29.000Z</time>
      </trkpt>
      <trkpt lat="45.69588" lon="4.62151">
        <ele>546.4</ele>
        <time>2023-06-04T09:37:30.000Z</time>
      </trkpt>
      <trkpt lat="45.69583" lon="4.62165">
        <ele>545</ele>
        <time>2023-06-04T09:37:32.000Z</time>
      </trkpt>
      <trkpt lat="45.69579" lon="4.62184">
        <ele>543.6</ele>
        <time>2023-06-04T09:37:34.000Z</time>
      </trkpt>
      <trkpt lat="45.69578" lon="4.62193">
        <ele>543.2</ele>
        <time>2023-06-04T09:37:35.000Z</time>
      </trkpt>
      <trkpt lat="45.69579" lon="4.62203">
        <ele>542.4</ele>
        <time>2023-06-04T09:37:36.000Z</time>
      </trkpt>
      <trkpt lat="45.6958" lon="4.6222">
        <ele>541</ele>
        <time>2023-06-04T09:37:38.000Z</time>
      </trkpt>
      <trkpt lat="45.69582" lon="4.62236">
        <ele>539.6</ele>
        <time>2023-06-04T09:37:40.000Z</time>
      </trkpt>
      <trkpt lat="45.69583" lon="4.62244">
        <ele>539</ele>
        <time>2023-06-04T09:37:41.000Z</time>
      </trkpt>
      <trkpt lat="45.69585" lon="4.62253">
        <ele>538.4</ele>
        <time>2023-06-04T09:37:42.000Z</time>
      </trkpt>
      <trkpt lat="45.69587" lon="4.6226">
        <ele>538.2</ele>
        <time>2023-06-04T09:37:43.000Z</time>
      </trkpt>
      <trkpt lat="45.69594" lon="4.62279">
        <ele>537.4</ele>
        <time>2023-06-04T09:37:46.000Z</time>
      </trkpt>
      <trkpt lat="45.69596" lon="4.62285">
        <ele>537.2</ele>
        <time>2023-06-04T09:37:47.000Z</time>
      </trkpt>
      <trkpt lat="45.69598" lon="4.62291">
        <ele>537</ele>
        <time>2023-06-04T09:37:48.000Z</time>
      </trkpt>
      <trkpt lat="45.69598" lon="4.62319">
        <ele>536.6</ele>
        <time>2023-06-04T09:37:53.000Z</time>
      </trkpt>
      <trkpt lat="45.69596" lon="4.62325">
        <ele>536.6</ele>
        <time>2023-06-04T09:37:54.000Z</time>
      </trkpt>
      <trkpt lat="45.69592" lon="4.62345">
        <ele>536.4</ele>
        <time>2023-06-04T09:37:57.000Z</time>
      </trkpt>
      <trkpt lat="45.69591" lon="4.62357">
        <ele>536.2</ele>
        <time>2023-06-04T09:37:59.000Z</time>
      </trkpt>
      <trkpt lat="45.69591" lon="4.62379">
        <ele>536.2</ele>
        <time>2023-06-04T09:38:02.000Z</time>
      </trkpt>
      <trkpt lat="45.6959" lon="4.62385">
        <ele>536.2</ele>
        <time>2023-06-04T09:38:03.000Z</time>
      </trkpt>
      <trkpt lat="45.6959" lon="4.62391">
        <ele>536</ele>
        <time>2023-06-04T09:38:04.000Z</time>
      </trkpt>
      <trkpt lat="45.69586" lon="4.62419">
        <ele>535.2</ele>
        <time>2023-06-04T09:38:08.000Z</time>
      </trkpt>
      <trkpt lat="45.69582" lon="4.62449">
        <ele>535</ele>
        <time>2023-06-04T09:38:13.000Z</time>
      </trkpt>
      <trkpt lat="45.69582" lon="4.62457">
        <ele>535</ele>
        <time>2023-06-04T09:38:14.000Z</time>
      </trkpt>
      <trkpt lat="45.69581" lon="4.62478">
        <ele>534.8</ele>
        <time>2023-06-04T09:38:17.000Z</time>
      </trkpt>
      <trkpt lat="45.69583" lon="4.6249">
        <ele>534.6</ele>
        <time>2023-06-04T09:38:19.000Z</time>
      </trkpt>
      <trkpt lat="45.69589" lon="4.62505">
        <ele>534.6</ele>
        <time>2023-06-04T09:38:22.000Z</time>
      </trkpt>
      <trkpt lat="45.69593" lon="4.62515">
        <ele>534.6</ele>
        <time>2023-06-04T09:38:24.000Z</time>
      </trkpt>
      <trkpt lat="45.69597" lon="4.62527">
        <ele>534.2</ele>
        <time>2023-06-04T09:38:26.000Z</time>
      </trkpt>
      <trkpt lat="45.69598" lon="4.6254">
        <ele>534</ele>
        <time>2023-06-04T09:38:28.000Z</time>
      </trkpt>
      <trkpt lat="45.69598" lon="4.62547">
        <ele>533.8</ele>
        <time>2023-06-04T09:38:29.000Z</time>
      </trkpt>
      <trkpt lat="45.69598" lon="4.62555">
        <ele>533.8</ele>
        <time>2023-06-04T09:38:30.000Z</time>
      </trkpt>
      <trkpt lat="45.69599" lon="4.6257">
        <ele>533.6</ele>
        <time>2023-06-04T09:38:32.000Z</time>
      </trkpt>
      <trkpt lat="45.69601" lon="4.62589">
        <ele>533.4</ele>
        <time>2023-06-04T09:38:34.000Z</time>
      </trkpt>
      <trkpt lat="45.69602" lon="4.62598">
        <ele>533.2</ele>
        <time>2023-06-04T09:38:35.000Z</time>
      </trkpt>
      <trkpt lat="45.69606" lon="4.62625">
        <ele>531.8</ele>
        <time>2023-06-04T09:38:38.000Z</time>
      </trkpt>
      <trkpt lat="45.69607" lon="4.62631">
        <ele>531.2</ele>
        <time>2023-06-04T09:38:39.000Z</time>
      </trkpt>
      <trkpt lat="45.69607" lon="4.62637">
        <ele>530.2</ele>
        <time>2023-06-04T09:38:40.000Z</time>
      </trkpt>
      <trkpt lat="45.69604" lon="4.62643">
        <ele>529.4</ele>
        <time>2023-06-04T09:38:41.000Z</time>
      </trkpt>
      <trkpt lat="45.696" lon="4.62649">
        <ele>528.2</ele>
        <time>2023-06-04T09:38:42.000Z</time>
      </trkpt>
      <trkpt lat="45.69595" lon="4.62653">
        <ele>527.4</ele>
        <time>2023-06-04T09:38:43.000Z</time>
      </trkpt>
      <trkpt lat="45.69588" lon="4.62656">
        <ele>526.4</ele>
        <time>2023-06-04T09:38:44.000Z</time>
      </trkpt>
      <trkpt lat="45.69573" lon="4.62663">
        <ele>524.6</ele>
        <time>2023-06-04T09:38:46.000Z</time>
      </trkpt>
      <trkpt lat="45.69567" lon="4.62666">
        <ele>523.8</ele>
        <time>2023-06-04T09:38:47.000Z</time>
      </trkpt>
      <trkpt lat="45.69563" lon="4.6267">
        <ele>523</ele>
        <time>2023-06-04T09:38:48.000Z</time>
      </trkpt>
      <trkpt lat="45.6956" lon="4.62675">
        <ele>523</ele>
        <time>2023-06-04T09:38:49.000Z</time>
      </trkpt>
      <trkpt lat="45.6956" lon="4.62679">
        <ele>522.2</ele>
        <time>2023-06-04T09:38:50.000Z</time>
      </trkpt>
      <trkpt lat="45.69562" lon="4.62683">
        <ele>521.2</ele>
        <time>2023-06-04T09:38:51.000Z</time>
      </trkpt>
      <trkpt lat="45.69565" lon="4.62685">
        <ele>520</ele>
        <time>2023-06-04T09:38:52.000Z</time>
      </trkpt>
      <trkpt lat="45.69568" lon="4.62686">
        <ele>518.8</ele>
        <time>2023-06-04T09:38:53.000Z</time>
      </trkpt>
      <trkpt lat="45.69571" lon="4.62687">
        <ele>517.4</ele>
        <time>2023-06-04T09:38:54.000Z</time>
      </trkpt>
      <trkpt lat="45.69574" lon="4.62688">
        <ele>516.4</ele>
        <time>2023-06-04T09:38:55.000Z</time>
      </trkpt>
      <trkpt lat="45.69579" lon="4.6269">
        <ele>515.4</ele>
        <time>2023-06-04T09:38:57.000Z</time>
      </trkpt>
      <trkpt lat="45.69585" lon="4.62691">
        <ele>515.2</ele>
        <time>2023-06-04T09:38:59.000Z</time>
      </trkpt>
      <trkpt lat="45.69588" lon="4.62691">
        <ele>515.2</ele>
        <time>2023-06-04T09:39:00.000Z</time>
      </trkpt>
      <trkpt lat="45.69604" lon="4.62689">
        <ele>515</ele>
        <time>2023-06-04T09:39:05.000Z</time>
      </trkpt>
      <trkpt lat="45.6962" lon="4.62685">
        <ele>515.4</ele>
        <time>2023-06-04T09:39:09.000Z</time>
      </trkpt>
      <trkpt lat="45.6964" lon="4.62675">
        <ele>515.6</ele>
        <time>2023-06-04T09:39:14.000Z</time>
      </trkpt>
      <trkpt lat="45.69654" lon="4.62669">
        <ele>515.6</ele>
        <time>2023-06-04T09:39:17.000Z</time>
      </trkpt>
      <trkpt lat="45.69667" lon="4.62661">
        <ele>515.6</ele>
        <time>2023-06-04T09:39:20.000Z</time>
      </trkpt>
      <trkpt lat="45.69692" lon="4.62646">
        <ele>515.2</ele>
        <time>2023-06-04T09:39:26.000Z</time>
      </trkpt>
      <trkpt lat="45.69714" lon="4.6264">
        <ele>515.2</ele>
        <time>2023-06-04T09:39:32.000Z</time>
      </trkpt>
      <trkpt lat="45.69737" lon="4.62645">
        <ele>515.8</ele>
        <time>2023-06-04T09:39:40.000Z</time>
      </trkpt>
      <trkpt lat="45.69742" lon="4.62647">
        <ele>516</ele>
        <time>2023-06-04T09:39:42.000Z</time>
      </trkpt>
      <trkpt lat="45.6975" lon="4.6265">
        <ele>516.8</ele>
        <time>2023-06-04T09:39:45.000Z</time>
      </trkpt>
      <trkpt lat="45.69754" lon="4.62651">
        <ele>517.2</ele>
        <time>2023-06-04T09:39:47.000Z</time>
      </trkpt>
      <trkpt lat="45.6976" lon="4.62653">
        <ele>517.6</ele>
        <time>2023-06-04T09:39:50.000Z</time>
      </trkpt>
      <trkpt lat="45.69766" lon="4.62653">
        <ele>518.4</ele>
        <time>2023-06-04T09:39:53.000Z</time>
      </trkpt>
      <trkpt lat="45.6977" lon="4.62653">
        <ele>518.8</ele>
        <time>2023-06-04T09:39:55.000Z</time>
      </trkpt>
      <trkpt lat="45.69773" lon="4.62652">
        <ele>519.2</ele>
        <time>2023-06-04T09:39:57.000Z</time>
      </trkpt>
      <trkpt lat="45.69779" lon="4.62651">
        <ele>520</ele>
        <time>2023-06-04T09:40:01.000Z</time>
      </trkpt>
      <trkpt lat="45.6978" lon="4.62651">
        <ele>520.2</ele>
        <time>2023-06-04T09:40:02.000Z</time>
      </trkpt>
      <trkpt lat="45.69786" lon="4.62649">
        <ele>521</ele>
        <time>2023-06-04T09:40:06.000Z</time>
      </trkpt>
      <trkpt lat="45.69797" lon="4.62649">
        <ele>522.2</ele>
        <time>2023-06-04T09:40:12.000Z</time>
      </trkpt>
      <trkpt lat="45.69805" lon="4.62648">
        <ele>523</ele>
        <time>2023-06-04T09:40:16.000Z</time>
      </trkpt>
      <trkpt lat="45.69807" lon="4.62648">
        <ele>523.2</ele>
        <time>2023-06-04T09:40:17.000Z</time>
      </trkpt>
      <trkpt lat="45.6982" lon="4.62653">
        <ele>524.4</ele>
        <time>2023-06-04T09:40:23.000Z</time>
      </trkpt>
      <trkpt lat="45.69826" lon="4.62655">
        <ele>524.8</ele>
        <time>2023-06-04T09:40:25.000Z</time>
      </trkpt>
      <trkpt lat="45.6984" lon="4.62662">
        <ele>525.4</ele>
        <time>2023-06-04T09:40:30.000Z</time>
      </trkpt>
      <trkpt lat="45.69848" lon="4.62664">
        <ele>525.4</ele>
        <time>2023-06-04T09:40:33.000Z</time>
      </trkpt>
      <trkpt lat="45.6985" lon="4.62665">
        <ele>525.6</ele>
        <time>2023-06-04T09:40:34.000Z</time>
      </trkpt>
      <trkpt lat="45.69871" lon="4.62674">
        <ele>525.8</ele>
        <time>2023-06-04T09:40:42.000Z</time>
      </trkpt>
      <trkpt lat="45.69874" lon="4.62675">
        <ele>525.8</ele>
        <time>2023-06-04T09:40:43.000Z</time>
      </trkpt>
      <trkpt lat="45.69876" lon="4.62676">
        <ele>525.8</ele>
        <time>2023-06-04T09:40:44.000Z</time>
      </trkpt>
      <trkpt lat="45.69882" lon="4.62678">
        <ele>525.8</ele>
        <time>2023-06-04T09:40:46.000Z</time>
      </trkpt>
      <trkpt lat="45.69889" lon="4.62684">
        <ele>526.2</ele>
        <time>2023-06-04T09:40:49.000Z</time>
      </trkpt>
      <trkpt lat="45.69893" lon="4.6269">
        <ele>526.2</ele>
        <time>2023-06-04T09:40:51.000Z</time>
      </trkpt>
      <trkpt lat="45.69894" lon="4.62695">
        <ele>526.4</ele>
        <time>2023-06-04T09:40:53.000Z</time>
      </trkpt>
      <trkpt lat="45.69894" lon="4.62697">
        <ele>526.4</ele>
        <time>2023-06-04T09:40:54.000Z</time>
      </trkpt>
      <trkpt lat="45.69899" lon="4.62709">
        <ele>527</ele>
        <time>2023-06-04T09:41:00.000Z</time>
      </trkpt>
      <trkpt lat="45.69901" lon="4.62714">
        <ele>527.6</ele>
        <time>2023-06-04T09:41:03.000Z</time>
      </trkpt>
      <trkpt lat="45.69903" lon="4.6272">
        <ele>528.4</ele>
        <time>2023-06-04T09:41:06.000Z</time>
      </trkpt>
      <trkpt lat="45.69904" lon="4.62721">
        <ele>528.6</ele>
        <time>2023-06-04T09:41:07.000Z</time>
      </trkpt>
      <trkpt lat="45.69905" lon="4.62722">
        <ele>528.8</ele>
        <time>2023-06-04T09:41:08.000Z</time>
      </trkpt>
      <trkpt lat="45.69908" lon="4.62726">
        <ele>529.8</ele>
        <time>2023-06-04T09:41:11.000Z</time>
      </trkpt>
      <trkpt lat="45.6991" lon="4.62731">
        <ele>530.8</ele>
        <time>2023-06-04T09:41:15.000Z</time>
      </trkpt>
      <trkpt lat="45.69911" lon="4.62734">
        <ele>531.4</ele>
        <time>2023-06-04T09:41:18.000Z</time>
      </trkpt>
      <trkpt lat="45.69911" lon="4.62735">
        <ele>531.8</ele>
        <time>2023-06-04T09:41:19.000Z</time>
      </trkpt>
      <trkpt lat="45.69906" lon="4.62739">
        <ele>533</ele>
        <time>2023-06-04T09:41:23.000Z</time>
      </trkpt>
      <trkpt lat="45.69901" lon="4.62743">
        <ele>534</ele>
        <time>2023-06-04T09:41:26.000Z</time>
      </trkpt>
      <trkpt lat="45.69897" lon="4.62745">
        <ele>534.2</ele>
        <time>2023-06-04T09:41:28.000Z</time>
      </trkpt>
      <trkpt lat="45.69893" lon="4.62748">
        <ele>534.4</ele>
        <time>2023-06-04T09:41:30.000Z</time>
      </trkpt>
      <trkpt lat="45.69888" lon="4.62753">
        <ele>534.6</ele>
        <time>2023-06-04T09:41:32.000Z</time>
      </trkpt>
      <trkpt lat="45.69879" lon="4.62764">
        <ele>534.8</ele>
        <time>2023-06-04T09:41:37.000Z</time>
      </trkpt>
      <trkpt lat="45.69875" lon="4.62768">
        <ele>535</ele>
        <time>2023-06-04T09:41:39.000Z</time>
      </trkpt>
      <trkpt lat="45.6987" lon="4.62777">
        <ele>535.2</ele>
        <time>2023-06-04T09:41:43.000Z</time>
      </trkpt>
      <trkpt lat="45.69868" lon="4.62781">
        <ele>535.4</ele>
        <time>2023-06-04T09:41:45.000Z</time>
      </trkpt>
      <trkpt lat="45.69864" lon="4.62797">
        <ele>536</ele>
        <time>2023-06-04T09:41:51.000Z</time>
      </trkpt>
      <trkpt lat="45.69861" lon="4.62804">
        <ele>536.4</ele>
        <time>2023-06-04T09:41:54.000Z</time>
      </trkpt>
      <trkpt lat="45.69857" lon="4.62812">
        <ele>537</ele>
        <time>2023-06-04T09:41:58.000Z</time>
      </trkpt>
      <trkpt lat="45.69854" lon="4.62816">
        <ele>537.4</ele>
        <time>2023-06-04T09:42:00.000Z</time>
      </trkpt>
      <trkpt lat="45.69853" lon="4.62818">
        <ele>537.6</ele>
        <time>2023-06-04T09:42:01.000Z</time>
      </trkpt>
      <trkpt lat="45.69847" lon="4.62826">
        <ele>538.6</ele>
        <time>2023-06-04T09:42:06.000Z</time>
      </trkpt>
      <trkpt lat="45.69844" lon="4.6283">
        <ele>539.2</ele>
        <time>2023-06-04T09:42:08.000Z</time>
      </trkpt>
      <trkpt lat="45.6984" lon="4.62834">
        <ele>539.8</ele>
        <time>2023-06-04T09:42:11.000Z</time>
      </trkpt>
      <trkpt lat="45.69836" lon="4.62838">
        <ele>540</ele>
        <time>2023-06-04T09:42:13.000Z</time>
      </trkpt>
      <trkpt lat="45.69825" lon="4.6285">
        <ele>540.8</ele>
        <time>2023-06-04T09:42:20.000Z</time>
      </trkpt>
      <trkpt lat="45.69824" lon="4.62852">
        <ele>541.2</ele>
        <time>2023-06-04T09:42:22.000Z</time>
      </trkpt>
      <trkpt lat="45.69822" lon="4.62858">
        <ele>541.4</ele>
        <time>2023-06-04T09:42:24.000Z</time>
      </trkpt>
      <trkpt lat="45.6982" lon="4.62863">
        <ele>542</ele>
        <time>2023-06-04T09:42:27.000Z</time>
      </trkpt>
      <trkpt lat="45.69818" lon="4.62869">
        <ele>542.6</ele>
        <time>2023-06-04T09:42:31.000Z</time>
      </trkpt>
      <trkpt lat="45.69817" lon="4.62871">
        <ele>542.8</ele>
        <time>2023-06-04T09:42:33.000Z</time>
      </trkpt>
      <trkpt lat="45.69817" lon="4.62873">
        <ele>543</ele>
        <time>2023-06-04T09:42:34.000Z</time>
      </trkpt>
      <trkpt lat="45.69817" lon="4.62875">
        <ele>543.6</ele>
        <time>2023-06-04T09:42:36.000Z</time>
      </trkpt>
      <trkpt lat="45.69818" lon="4.62878">
        <ele>544</ele>
        <time>2023-06-04T09:42:38.000Z</time>
      </trkpt>
      <trkpt lat="45.69819" lon="4.6288">
        <ele>544.2</ele>
        <time>2023-06-04T09:42:39.000Z</time>
      </trkpt>
      <trkpt lat="45.69819" lon="4.62882">
        <ele>544.6</ele>
        <time>2023-06-04T09:42:40.000Z</time>
      </trkpt>
      <trkpt lat="45.69818" lon="4.62883">
        <ele>545.2</ele>
        <time>2023-06-04T09:42:44.000Z</time>
      </trkpt>
      <trkpt lat="45.69818" lon="4.62883">
        <ele>545.4</ele>
        <time>2023-06-04T09:42:46.000Z</time>
      </trkpt>
      <trkpt lat="45.69818" lon="4.62884">
        <ele>546.4</ele>
        <time>2023-06-04T09:42:50.000Z</time>
      </trkpt>
      <trkpt lat="45.69818" lon="4.62884">
        <ele>546.8</ele>
        <time>2023-06-04T09:42:53.000Z</time>
      </trkpt>
      <trkpt lat="45.69817" lon="4.62887">
        <ele>547.4</ele>
        <time>2023-06-04T09:43:02.000Z</time>
      </trkpt>
      <trkpt lat="45.69816" lon="4.62889">
        <ele>547.8</ele>
        <time>2023-06-04T09:43:05.000Z</time>
      </trkpt>
      <trkpt lat="45.69816" lon="4.62889">
        <ele>548.2</ele>
        <time>2023-06-04T09:43:09.000Z</time>
      </trkpt>
      <trkpt lat="45.69816" lon="4.62889">
        <ele>548.6</ele>
        <time>2023-06-04T09:43:15.000Z</time>
      </trkpt>
      <trkpt lat="45.69816" lon="4.6289">
        <ele>549.4</ele>
        <time>2023-06-04T09:43:21.000Z</time>
      </trkpt>
      <trkpt lat="45.69816" lon="4.62891">
        <ele>549.6</ele>
        <time>2023-06-04T09:43:23.000Z</time>
      </trkpt>
      <trkpt lat="45.69815" lon="4.62901">
        <ele>550.8</ele>
        <time>2023-06-04T09:43:33.000Z</time>
      </trkpt>
      <trkpt lat="45.69815" lon="4.62902">
        <ele>551</ele>
        <time>2023-06-04T09:43:34.000Z</time>
      </trkpt>
      <trkpt lat="45.69816" lon="4.62913">
        <ele>551.6</ele>
        <time>2023-06-04T09:43:41.000Z</time>
      </trkpt>
      <trkpt lat="45.69817" lon="4.62918">
        <ele>552</ele>
        <time>2023-06-04T09:43:44.000Z</time>
      </trkpt>
      <trkpt lat="45.69817" lon="4.62924">
        <ele>552.4</ele>
        <time>2023-06-04T09:43:48.000Z</time>
      </trkpt>
      <trkpt lat="45.69817" lon="4.62926">
        <ele>553</ele>
        <time>2023-06-04T09:43:52.000Z</time>
      </trkpt>
      <trkpt lat="45.69817" lon="4.62934">
        <ele>553.4</ele>
        <time>2023-06-04T09:43:56.000Z</time>
      </trkpt>
      <trkpt lat="45.69817" lon="4.62943">
        <ele>553.6</ele>
        <time>2023-06-04T09:43:59.000Z</time>
      </trkpt>
      <trkpt lat="45.69817" lon="4.62949">
        <ele>553.6</ele>
        <time>2023-06-04T09:44:03.000Z</time>
      </trkpt>
      <trkpt lat="45.69818" lon="4.62962">
        <ele>554</ele>
        <time>2023-06-04T09:44:10.000Z</time>
      </trkpt>
      <trkpt lat="45.69818" lon="4.62964">
        <ele>554.2</ele>
        <time>2023-06-04T09:44:11.000Z</time>
      </trkpt>
      <trkpt lat="45.69819" lon="4.62966">
        <ele>554.4</ele>
        <time>2023-06-04T09:44:13.000Z</time>
      </trkpt>
      <trkpt lat="45.69819" lon="4.62971">
        <ele>554.8</ele>
        <time>2023-06-04T09:44:16.000Z</time>
      </trkpt>
      <trkpt lat="45.6982" lon="4.62978">
        <ele>555.4</ele>
        <time>2023-06-04T09:44:19.000Z</time>
      </trkpt>
      <trkpt lat="45.6982" lon="4.62982">
        <ele>555.6</ele>
        <time>2023-06-04T09:44:21.000Z</time>
      </trkpt>
      <trkpt lat="45.69821" lon="4.62987">
        <ele>556.6</ele>
        <time>2023-06-04T09:44:24.000Z</time>
      </trkpt>
      <trkpt lat="45.69824" lon="4.62997">
        <ele>557.6</ele>
        <time>2023-06-04T09:44:29.000Z</time>
      </trkpt>
      <trkpt lat="45.69825" lon="4.63005">
        <ele>558</ele>
        <time>2023-06-04T09:44:33.000Z</time>
      </trkpt>
      <trkpt lat="45.69826" lon="4.6301">
        <ele>558.2</ele>
        <time>2023-06-04T09:44:35.000Z</time>
      </trkpt>
      <trkpt lat="45.69827" lon="4.63019">
        <ele>558.8</ele>
        <time>2023-06-04T09:44:38.000Z</time>
      </trkpt>
      <trkpt lat="45.69828" lon="4.63035">
        <ele>559.6</ele>
        <time>2023-06-04T09:44:43.000Z</time>
      </trkpt>
      <trkpt lat="45.69827" lon="4.63043">
        <ele>559.8</ele>
        <time>2023-06-04T09:44:45.000Z</time>
      </trkpt>
      <trkpt lat="45.69828" lon="4.63045">
        <ele>559.8</ele>
        <time>2023-06-04T09:44:46.000Z</time>
      </trkpt>
      <trkpt lat="45.69828" lon="4.63048">
        <ele>559.8</ele>
        <time>2023-06-04T09:44:47.000Z</time>
      </trkpt>
      <trkpt lat="45.6982" lon="4.6307">
        <ele>560</ele>
        <time>2023-06-04T09:44:53.000Z</time>
      </trkpt>
      <trkpt lat="45.69814" lon="4.63094">
        <ele>559.8</ele>
        <time>2023-06-04T09:44:59.000Z</time>
      </trkpt>
      <trkpt lat="45.69812" lon="4.63101">
        <ele>560</ele>
        <time>2023-06-04T09:45:01.000Z</time>
      </trkpt>
      <trkpt lat="45.69813" lon="4.63113">
        <ele>560</ele>
        <time>2023-06-04T09:45:04.000Z</time>
      </trkpt>
      <trkpt lat="45.69813" lon="4.6312">
        <ele>560</ele>
        <time>2023-06-04T09:45:06.000Z</time>
      </trkpt>
      <trkpt lat="45.69808" lon="4.63146">
        <ele>560.2</ele>
        <time>2023-06-04T09:45:12.000Z</time>
      </trkpt>
      <trkpt lat="45.69809" lon="4.63157">
        <ele>560.6</ele>
        <time>2023-06-04T09:45:14.000Z</time>
      </trkpt>
      <trkpt lat="45.69809" lon="4.63162">
        <ele>560.8</ele>
        <time>2023-06-04T09:45:15.000Z</time>
      </trkpt>
      <trkpt lat="45.69808" lon="4.63167">
        <ele>561</ele>
        <time>2023-06-04T09:45:16.000Z</time>
      </trkpt>
      <trkpt lat="45.69809" lon="4.63182">
        <ele>561.4</ele>
        <time>2023-06-04T09:45:20.000Z</time>
      </trkpt>
      <trkpt lat="45.6981" lon="4.63185">
        <ele>561.6</ele>
        <time>2023-06-04T09:45:21.000Z</time>
      </trkpt>
      <trkpt lat="45.69811" lon="4.6319">
        <ele>561.8</ele>
        <time>2023-06-04T09:45:23.000Z</time>
      </trkpt>
      <trkpt lat="45.6981" lon="4.63191">
        <ele>562.2</ele>
        <time>2023-06-04T09:45:24.000Z</time>
      </trkpt>
      <trkpt lat="45.69807" lon="4.63207">
        <ele>562.8</ele>
        <time>2023-06-04T09:45:27.000Z</time>
      </trkpt>
      <trkpt lat="45.69803" lon="4.63221">
        <ele>562.8</ele>
        <time>2023-06-04T09:45:29.000Z</time>
      </trkpt>
      <trkpt lat="45.69798" lon="4.63244">
        <ele>562.8</ele>
        <time>2023-06-04T09:45:32.000Z</time>
      </trkpt>
      <trkpt lat="45.69799" lon="4.63253">
        <ele>562.8</ele>
        <time>2023-06-04T09:45:33.000Z</time>
      </trkpt>
      <trkpt lat="45.69798" lon="4.63261">
        <ele>562.8</ele>
        <time>2023-06-04T09:45:34.000Z</time>
      </trkpt>
      <trkpt lat="45.69797" lon="4.6327">
        <ele>562.8</ele>
        <time>2023-06-04T09:45:35.000Z</time>
      </trkpt>
      <trkpt lat="45.69795" lon="4.63297">
        <ele>561.6</ele>
        <time>2023-06-04T09:45:38.000Z</time>
      </trkpt>
      <trkpt lat="45.69795" lon="4.63305">
        <ele>561.2</ele>
        <time>2023-06-04T09:45:39.000Z</time>
      </trkpt>
      <trkpt lat="45.69795" lon="4.63313">
        <ele>560.2</ele>
        <time>2023-06-04T09:45:40.000Z</time>
      </trkpt>
      <trkpt lat="45.69795" lon="4.63328">
        <ele>558.8</ele>
        <time>2023-06-04T09:45:42.000Z</time>
      </trkpt>
      <trkpt lat="45.69796" lon="4.63335">
        <ele>557.6</ele>
        <time>2023-06-04T09:45:43.000Z</time>
      </trkpt>
      <trkpt lat="45.698" lon="4.63348">
        <ele>556.4</ele>
        <time>2023-06-04T09:45:45.000Z</time>
      </trkpt>
      <trkpt lat="45.69803" lon="4.63353">
        <ele>555.4</ele>
        <time>2023-06-04T09:45:46.000Z</time>
      </trkpt>
      <trkpt lat="45.69807" lon="4.63359">
        <ele>554.2</ele>
        <time>2023-06-04T09:45:47.000Z</time>
      </trkpt>
      <trkpt lat="45.69811" lon="4.63365">
        <ele>553</ele>
        <time>2023-06-04T09:45:48.000Z</time>
      </trkpt>
      <trkpt lat="45.69821" lon="4.63375">
        <ele>551.4</ele>
        <time>2023-06-04T09:45:50.000Z</time>
      </trkpt>
      <trkpt lat="45.6983" lon="4.63386">
        <ele>550.6</ele>
        <time>2023-06-04T09:45:52.000Z</time>
      </trkpt>
      <trkpt lat="45.69835" lon="4.63391">
        <ele>549.8</ele>
        <time>2023-06-04T09:45:53.000Z</time>
      </trkpt>
      <trkpt lat="45.69839" lon="4.63396">
        <ele>548.8</ele>
        <time>2023-06-04T09:45:54.000Z</time>
      </trkpt>
      <trkpt lat="45.69844" lon="4.634">
        <ele>548.2</ele>
        <time>2023-06-04T09:45:55.000Z</time>
      </trkpt>
      <trkpt lat="45.69849" lon="4.63404">
        <ele>547.6</ele>
        <time>2023-06-04T09:45:56.000Z</time>
      </trkpt>
      <trkpt lat="45.69854" lon="4.63409">
        <ele>547.2</ele>
        <time>2023-06-04T09:45:57.000Z</time>
      </trkpt>
      <trkpt lat="45.69861" lon="4.63423">
        <ele>546.4</ele>
        <time>2023-06-04T09:45:59.000Z</time>
      </trkpt>
      <trkpt lat="45.69866" lon="4.63438">
        <ele>545.8</ele>
        <time>2023-06-04T09:46:01.000Z</time>
      </trkpt>
      <trkpt lat="45.69868" lon="4.63447">
        <ele>545.6</ele>
        <time>2023-06-04T09:46:02.000Z</time>
      </trkpt>
      <trkpt lat="45.69869" lon="4.63455">
        <ele>545.4</ele>
        <time>2023-06-04T09:46:03.000Z</time>
      </trkpt>
      <trkpt lat="45.69868" lon="4.63475">
        <ele>543.2</ele>
        <time>2023-06-04T09:46:06.000Z</time>
      </trkpt>
      <trkpt lat="45.69866" lon="4.63482">
        <ele>542.4</ele>
        <time>2023-06-04T09:46:07.000Z</time>
      </trkpt>
      <trkpt lat="45.69865" lon="4.6349">
        <ele>541.4</ele>
        <time>2023-06-04T09:46:08.000Z</time>
      </trkpt>
      <trkpt lat="45.69867" lon="4.63506">
        <ele>540.4</ele>
        <time>2023-06-04T09:46:10.000Z</time>
      </trkpt>
      <trkpt lat="45.69869" lon="4.63514">
        <ele>539.8</ele>
        <time>2023-06-04T09:46:11.000Z</time>
      </trkpt>
      <trkpt lat="45.69871" lon="4.63524">
        <ele>538.8</ele>
        <time>2023-06-04T09:46:12.000Z</time>
      </trkpt>
      <trkpt lat="45.6987" lon="4.63532">
        <ele>538</ele>
        <time>2023-06-04T09:46:13.000Z</time>
      </trkpt>
      <trkpt lat="45.69869" lon="4.63539">
        <ele>536.8</ele>
        <time>2023-06-04T09:46:14.000Z</time>
      </trkpt>
      <trkpt lat="45.69867" lon="4.63546">
        <ele>536.2</ele>
        <time>2023-06-04T09:46:15.000Z</time>
      </trkpt>
      <trkpt lat="45.69866" lon="4.63552">
        <ele>535.4</ele>
        <time>2023-06-04T09:46:16.000Z</time>
      </trkpt>
      <trkpt lat="45.6986" lon="4.63565">
        <ele>534.2</ele>
        <time>2023-06-04T09:46:18.000Z</time>
      </trkpt>
      <trkpt lat="45.69855" lon="4.63578">
        <ele>533.2</ele>
        <time>2023-06-04T09:46:20.000Z</time>
      </trkpt>
      <trkpt lat="45.69851" lon="4.63593">
        <ele>531.4</ele>
        <time>2023-06-04T09:46:22.000Z</time>
      </trkpt>
      <trkpt lat="45.69847" lon="4.63609">
        <ele>530.6</ele>
        <time>2023-06-04T09:46:24.000Z</time>
      </trkpt>
      <trkpt lat="45.69845" lon="4.63617">
        <ele>530.2</ele>
        <time>2023-06-04T09:46:25.000Z</time>
      </trkpt>
      <trkpt lat="45.69843" lon="4.63623">
        <ele>529.6</ele>
        <time>2023-06-04T09:46:26.000Z</time>
      </trkpt>
      <trkpt lat="45.69842" lon="4.6363">
        <ele>528</ele>
        <time>2023-06-04T09:46:27.000Z</time>
      </trkpt>
      <trkpt lat="45.69841" lon="4.63637">
        <ele>527</ele>
        <time>2023-06-04T09:46:28.000Z</time>
      </trkpt>
      <trkpt lat="45.69841" lon="4.63642">
        <ele>526.6</ele>
        <time>2023-06-04T09:46:29.000Z</time>
      </trkpt>
      <trkpt lat="45.69838" lon="4.63659">
        <ele>525.2</ele>
        <time>2023-06-04T09:46:32.000Z</time>
      </trkpt>
      <trkpt lat="45.69833" lon="4.63682">
        <ele>523.6</ele>
        <time>2023-06-04T09:46:35.000Z</time>
      </trkpt>
      <trkpt lat="45.69831" lon="4.6369">
        <ele>522.8</ele>
        <time>2023-06-04T09:46:36.000Z</time>
      </trkpt>
      <trkpt lat="45.69828" lon="4.63698">
        <ele>522.4</ele>
        <time>2023-06-04T09:46:37.000Z</time>
      </trkpt>
      <trkpt lat="45.69825" lon="4.63705">
        <ele>522</ele>
        <time>2023-06-04T09:46:38.000Z</time>
      </trkpt>
      <trkpt lat="45.69816" lon="4.63717">
        <ele>521</ele>
        <time>2023-06-04T09:46:40.000Z</time>
      </trkpt>
      <trkpt lat="45.69812" lon="4.63723">
        <ele>520.2</ele>
        <time>2023-06-04T09:46:41.000Z</time>
      </trkpt>
      <trkpt lat="45.69807" lon="4.63729">
        <ele>519.4</ele>
        <time>2023-06-04T09:46:42.000Z</time>
      </trkpt>
      <trkpt lat="45.69803" lon="4.63736">
        <ele>519</ele>
        <time>2023-06-04T09:46:43.000Z</time>
      </trkpt>
      <trkpt lat="45.698" lon="4.63742">
        <ele>518.4</ele>
        <time>2023-06-04T09:46:44.000Z</time>
      </trkpt>
      <trkpt lat="45.6979" lon="4.63763">
        <ele>517</ele>
        <time>2023-06-04T09:46:47.000Z</time>
      </trkpt>
      <trkpt lat="45.69787" lon="4.6377">
        <ele>516.2</ele>
        <time>2023-06-04T09:46:48.000Z</time>
      </trkpt>
      <trkpt lat="45.69784" lon="4.63776">
        <ele>515.8</ele>
        <time>2023-06-04T09:46:49.000Z</time>
      </trkpt>
      <trkpt lat="45.69781" lon="4.63781">
        <ele>515.6</ele>
        <time>2023-06-04T09:46:50.000Z</time>
      </trkpt>
      <trkpt lat="45.69775" lon="4.63789">
        <ele>515</ele>
        <time>2023-06-04T09:46:52.000Z</time>
      </trkpt>
      <trkpt lat="45.69772" lon="4.63792">
        <ele>514.8</ele>
        <time>2023-06-04T09:46:53.000Z</time>
      </trkpt>
      <trkpt lat="45.69765" lon="4.63799">
        <ele>513.6</ele>
        <time>2023-06-04T09:46:55.000Z</time>
      </trkpt>
      <trkpt lat="45.69762" lon="4.63803">
        <ele>513.2</ele>
        <time>2023-06-04T09:46:56.000Z</time>
      </trkpt>
      <trkpt lat="45.69761" lon="4.63809">
        <ele>512.4</ele>
        <time>2023-06-04T09:46:57.000Z</time>
      </trkpt>
      <trkpt lat="45.6976" lon="4.63814">
        <ele>511.6</ele>
        <time>2023-06-04T09:46:58.000Z</time>
      </trkpt>
      <trkpt lat="45.69761" lon="4.63822">
        <ele>511.2</ele>
        <time>2023-06-04T09:46:59.000Z</time>
      </trkpt>
      <trkpt lat="45.69762" lon="4.63829">
        <ele>510.8</ele>
        <time>2023-06-04T09:47:00.000Z</time>
      </trkpt>
      <trkpt lat="45.69765" lon="4.63843">
        <ele>510</ele>
        <time>2023-06-04T09:47:02.000Z</time>
      </trkpt>
      <trkpt lat="45.69767" lon="4.63849">
        <ele>509.6</ele>
        <time>2023-06-04T09:47:03.000Z</time>
      </trkpt>
      <trkpt lat="45.6977" lon="4.63856">
        <ele>508.8</ele>
        <time>2023-06-04T09:47:05.000Z</time>
      </trkpt>
      <trkpt lat="45.6977" lon="4.63859">
        <ele>507.8</ele>
        <time>2023-06-04T09:47:06.000Z</time>
      </trkpt>
      <trkpt lat="45.69772" lon="4.63865">
        <ele>506.4</ele>
        <time>2023-06-04T09:47:08.000Z</time>
      </trkpt>
      <trkpt lat="45.69771" lon="4.63872">
        <ele>505.8</ele>
        <time>2023-06-04T09:47:10.000Z</time>
      </trkpt>
      <trkpt lat="45.6977" lon="4.63875">
        <ele>505.8</ele>
        <time>2023-06-04T09:47:11.000Z</time>
      </trkpt>
      <trkpt lat="45.69765" lon="4.63884">
        <ele>505.6</ele>
        <time>2023-06-04T09:47:13.000Z</time>
      </trkpt>
      <trkpt lat="45.69761" lon="4.63887">
        <ele>505</ele>
        <time>2023-06-04T09:47:14.000Z</time>
      </trkpt>
      <trkpt lat="45.69756" lon="4.63889">
        <ele>504.6</ele>
        <time>2023-06-04T09:47:15.000Z</time>
      </trkpt>
      <trkpt lat="45.69752" lon="4.6389">
        <ele>504.2</ele>
        <time>2023-06-04T09:47:16.000Z</time>
      </trkpt>
      <trkpt lat="45.69747" lon="4.6389">
        <ele>503.8</ele>
        <time>2023-06-04T09:47:17.000Z</time>
      </trkpt>
      <trkpt lat="45.69743" lon="4.63891">
        <ele>503.4</ele>
        <time>2023-06-04T09:47:18.000Z</time>
      </trkpt>
      <trkpt lat="45.69741" lon="4.63894">
        <ele>503</ele>
        <time>2023-06-04T09:47:19.000Z</time>
      </trkpt>
      <trkpt lat="45.69742" lon="4.63896">
        <ele>502.8</ele>
        <time>2023-06-04T09:47:20.000Z</time>
      </trkpt>
      <trkpt lat="45.69746" lon="4.639">
        <ele>501</ele>
        <time>2023-06-04T09:47:22.000Z</time>
      </trkpt>
      <trkpt lat="45.69754" lon="4.63902">
        <ele>499.2</ele>
        <time>2023-06-04T09:47:24.000Z</time>
      </trkpt>
      <trkpt lat="45.69759" lon="4.63904">
        <ele>497.8</ele>
        <time>2023-06-04T09:47:25.000Z</time>
      </trkpt>
      <trkpt lat="45.69771" lon="4.63908">
        <ele>496.6</ele>
        <time>2023-06-04T09:47:27.000Z</time>
      </trkpt>
      <trkpt lat="45.69782" lon="4.63914">
        <ele>495.4</ele>
        <time>2023-06-04T09:47:29.000Z</time>
      </trkpt>
      <trkpt lat="45.69792" lon="4.63925">
        <ele>494.6</ele>
        <time>2023-06-04T09:47:31.000Z</time>
      </trkpt>
      <trkpt lat="45.69793" lon="4.63931">
        <ele>494.2</ele>
        <time>2023-06-04T09:47:32.000Z</time>
      </trkpt>
      <trkpt lat="45.69792" lon="4.63938">
        <ele>493.6</ele>
        <time>2023-06-04T09:47:33.000Z</time>
      </trkpt>
      <trkpt lat="45.6979" lon="4.63944">
        <ele>493</ele>
        <time>2023-06-04T09:47:34.000Z</time>
      </trkpt>
      <trkpt lat="45.69773" lon="4.63981">
        <ele>492</ele>
        <time>2023-06-04T09:47:41.000Z</time>
      </trkpt>
      <trkpt lat="45.69772" lon="4.63985">
        <ele>492</ele>
        <time>2023-06-04T09:47:42.000Z</time>
      </trkpt>
      <trkpt lat="45.69766" lon="4.64009">
        <ele>492</ele>
        <time>2023-06-04T09:47:47.000Z</time>
      </trkpt>
      <trkpt lat="45.69763" lon="4.64032">
        <ele>492.8</ele>
        <time>2023-06-04T09:47:52.000Z</time>
      </trkpt>
      <trkpt lat="45.69765" lon="4.6404">
        <ele>493</ele>
        <time>2023-06-04T09:47:54.000Z</time>
      </trkpt>
      <trkpt lat="45.69766" lon="4.64043">
        <ele>493.2</ele>
        <time>2023-06-04T09:47:55.000Z</time>
      </trkpt>
      <trkpt lat="45.69769" lon="4.64053">
        <ele>493.8</ele>
        <time>2023-06-04T09:47:58.000Z</time>
      </trkpt>
      <trkpt lat="45.69772" lon="4.64062">
        <ele>494.2</ele>
        <time>2023-06-04T09:48:01.000Z</time>
      </trkpt>
      <trkpt lat="45.6978" lon="4.64076">
        <ele>494.8</ele>
        <time>2023-06-04T09:48:06.000Z</time>
      </trkpt>
      <trkpt lat="45.69788" lon="4.64087">
        <ele>495.4</ele>
        <time>2023-06-04T09:48:11.000Z</time>
      </trkpt>
      <trkpt lat="45.69797" lon="4.64101">
        <ele>496.2</ele>
        <time>2023-06-04T09:48:17.000Z</time>
      </trkpt>
      <trkpt lat="45.69799" lon="4.64103">
        <ele>496.4</ele>
        <time>2023-06-04T09:48:18.000Z</time>
      </trkpt>
      <trkpt lat="45.69809" lon="4.64117">
        <ele>497.4</ele>
        <time>2023-06-04T09:48:24.000Z</time>
      </trkpt>
      <trkpt lat="45.69811" lon="4.6412">
        <ele>497.4</ele>
        <time>2023-06-04T09:48:25.000Z</time>
      </trkpt>
      <trkpt lat="45.69815" lon="4.64129">
        <ele>497.4</ele>
        <time>2023-06-04T09:48:27.000Z</time>
      </trkpt>
      <trkpt lat="45.69816" lon="4.64135">
        <ele>497.4</ele>
        <time>2023-06-04T09:48:28.000Z</time>
      </trkpt>
      <trkpt lat="45.69816" lon="4.64142">
        <ele>497.4</ele>
        <time>2023-06-04T09:48:29.000Z</time>
      </trkpt>
      <trkpt lat="45.69809" lon="4.64155">
        <ele>497.4</ele>
        <time>2023-06-04T09:48:31.000Z</time>
      </trkpt>
      <trkpt lat="45.69801" lon="4.64165">
        <ele>497.4</ele>
        <time>2023-06-04T09:48:33.000Z</time>
      </trkpt>
      <trkpt lat="45.69797" lon="4.64171">
        <ele>497.4</ele>
        <time>2023-06-04T09:48:35.000Z</time>
      </trkpt>
      <trkpt lat="45.69789" lon="4.64179">
        <ele>497.4</ele>
        <time>2023-06-04T09:48:40.000Z</time>
      </trkpt>
      <trkpt lat="45.69785" lon="4.64186">
        <ele>497.4</ele>
        <time>2023-06-04T09:48:43.000Z</time>
      </trkpt>
      <trkpt lat="45.69775" lon="4.64201">
        <ele>498</ele>
        <time>2023-06-04T09:48:48.000Z</time>
      </trkpt>
      <trkpt lat="45.69774" lon="4.64203">
        <ele>498.4</ele>
        <time>2023-06-04T09:48:49.000Z</time>
      </trkpt>
      <trkpt lat="45.69772" lon="4.64206">
        <ele>498.6</ele>
        <time>2023-06-04T09:48:50.000Z</time>
      </trkpt>
      <trkpt lat="45.69757" lon="4.64225">
        <ele>499.6</ele>
        <time>2023-06-04T09:48:57.000Z</time>
      </trkpt>
      <trkpt lat="45.69748" lon="4.64236">
        <ele>499.6</ele>
        <time>2023-06-04T09:49:00.000Z</time>
      </trkpt>
      <trkpt lat="45.69739" lon="4.64244">
        <ele>499.6</ele>
        <time>2023-06-04T09:49:02.000Z</time>
      </trkpt>
      <trkpt lat="45.69734" lon="4.64249">
        <ele>499.6</ele>
        <time>2023-06-04T09:49:03.000Z</time>
      </trkpt>
      <trkpt lat="45.69728" lon="4.6426">
        <ele>499.4</ele>
        <time>2023-06-04T09:49:05.000Z</time>
      </trkpt>
      <trkpt lat="45.69724" lon="4.64274">
        <ele>499</ele>
        <time>2023-06-04T09:49:08.000Z</time>
      </trkpt>
      <trkpt lat="45.69724" lon="4.64279">
        <ele>499</ele>
        <time>2023-06-04T09:49:09.000Z</time>
      </trkpt>
      <trkpt lat="45.69718" lon="4.64299">
        <ele>499</ele>
        <time>2023-06-04T09:49:14.000Z</time>
      </trkpt>
      <trkpt lat="45.69715" lon="4.64308">
        <ele>499</ele>
        <time>2023-06-04T09:49:16.000Z</time>
      </trkpt>
      <trkpt lat="45.69712" lon="4.64319">
        <ele>499.2</ele>
        <time>2023-06-04T09:49:19.000Z</time>
      </trkpt>
      <trkpt lat="45.69711" lon="4.64326">
        <ele>499.6</ele>
        <time>2023-06-04T09:49:21.000Z</time>
      </trkpt>
      <trkpt lat="45.6971" lon="4.64329">
        <ele>499.8</ele>
        <time>2023-06-04T09:49:22.000Z</time>
      </trkpt>
      <trkpt lat="45.69707" lon="4.6434">
        <ele>500.4</ele>
        <time>2023-06-04T09:49:25.000Z</time>
      </trkpt>
      <trkpt lat="45.69707" lon="4.64347">
        <ele>501</ele>
        <time>2023-06-04T09:49:27.000Z</time>
      </trkpt>
      <trkpt lat="45.69707" lon="4.64354">
        <ele>501.2</ele>
        <time>2023-06-04T09:49:29.000Z</time>
      </trkpt>
      <trkpt lat="45.69711" lon="4.64377">
        <ele>501.8</ele>
        <time>2023-06-04T09:49:34.000Z</time>
      </trkpt>
      <trkpt lat="45.69716" lon="4.64405">
        <ele>501.8</ele>
        <time>2023-06-04T09:49:39.000Z</time>
      </trkpt>
      <trkpt lat="45.69718" lon="4.64411">
        <ele>501.8</ele>
        <time>2023-06-04T09:49:40.000Z</time>
      </trkpt>
      <trkpt lat="45.69722" lon="4.64425">
        <ele>501.8</ele>
        <time>2023-06-04T09:49:42.000Z</time>
      </trkpt>
      <trkpt lat="45.69727" lon="4.64434">
        <ele>501.6</ele>
        <time>2023-06-04T09:49:43.000Z</time>
      </trkpt>
      <trkpt lat="45.69733" lon="4.6444">
        <ele>501.8</ele>
        <time>2023-06-04T09:49:44.000Z</time>
      </trkpt>
      <trkpt lat="45.69745" lon="4.64449">
        <ele>501.2</ele>
        <time>2023-06-04T09:49:46.000Z</time>
      </trkpt>
      <trkpt lat="45.69755" lon="4.64452">
        <ele>501.2</ele>
        <time>2023-06-04T09:49:47.000Z</time>
      </trkpt>
      <trkpt lat="45.69763" lon="4.64453">
        <ele>501.2</ele>
        <time>2023-06-04T09:49:48.000Z</time>
      </trkpt>
      <trkpt lat="45.69778" lon="4.64454">
        <ele>500.2</ele>
        <time>2023-06-04T09:49:50.000Z</time>
      </trkpt>
      <trkpt lat="45.69787" lon="4.64455">
        <ele>499.4</ele>
        <time>2023-06-04T09:49:51.000Z</time>
      </trkpt>
      <trkpt lat="45.69794" lon="4.64458">
        <ele>498.4</ele>
        <time>2023-06-04T09:49:52.000Z</time>
      </trkpt>
      <trkpt lat="45.69799" lon="4.64463">
        <ele>497.4</ele>
        <time>2023-06-04T09:49:53.000Z</time>
      </trkpt>
      <trkpt lat="45.69803" lon="4.64469">
        <ele>496.8</ele>
        <time>2023-06-04T09:49:54.000Z</time>
      </trkpt>
      <trkpt lat="45.69805" lon="4.64476">
        <ele>496.4</ele>
        <time>2023-06-04T09:49:55.000Z</time>
      </trkpt>
      <trkpt lat="45.69807" lon="4.64489">
        <ele>496</ele>
        <time>2023-06-04T09:49:57.000Z</time>
      </trkpt>
      <trkpt lat="45.69806" lon="4.64494">
        <ele>496</ele>
        <time>2023-06-04T09:49:58.000Z</time>
      </trkpt>
      <trkpt lat="45.698" lon="4.64505">
        <ele>496</ele>
        <time>2023-06-04T09:50:01.000Z</time>
      </trkpt>
      <trkpt lat="45.69787" lon="4.64525">
        <ele>496.2</ele>
        <time>2023-06-04T09:50:06.000Z</time>
      </trkpt>
      <trkpt lat="45.69768" lon="4.64546">
        <ele>497.2</ele>
        <time>2023-06-04T09:50:11.000Z</time>
      </trkpt>
      <trkpt lat="45.69763" lon="4.6455">
        <ele>497.2</ele>
        <time>2023-06-04T09:50:12.000Z</time>
      </trkpt>
      <trkpt lat="45.69754" lon="4.64562">
        <ele>497.4</ele>
        <time>2023-06-04T09:50:15.000Z</time>
      </trkpt>
      <trkpt lat="45.69747" lon="4.6457">
        <ele>497.4</ele>
        <time>2023-06-04T09:50:17.000Z</time>
      </trkpt>
      <trkpt lat="45.69745" lon="4.64574">
        <ele>497.6</ele>
        <time>2023-06-04T09:50:18.000Z</time>
      </trkpt>
      <trkpt lat="45.69742" lon="4.64577">
        <ele>497.6</ele>
        <time>2023-06-04T09:50:19.000Z</time>
      </trkpt>
      <trkpt lat="45.69737" lon="4.64586">
        <ele>497.8</ele>
        <time>2023-06-04T09:50:21.000Z</time>
      </trkpt>
      <trkpt lat="45.69729" lon="4.64603">
        <ele>498.2</ele>
        <time>2023-06-04T09:50:25.000Z</time>
      </trkpt>
      <trkpt lat="45.69727" lon="4.64606">
        <ele>498.4</ele>
        <time>2023-06-04T09:50:26.000Z</time>
      </trkpt>
      <trkpt lat="45.69726" lon="4.64609">
        <ele>498.4</ele>
        <time>2023-06-04T09:50:27.000Z</time>
      </trkpt>
      <trkpt lat="45.69725" lon="4.64612">
        <ele>498.6</ele>
        <time>2023-06-04T09:50:28.000Z</time>
      </trkpt>
      <trkpt lat="45.69722" lon="4.64619">
        <ele>498.8</ele>
        <time>2023-06-04T09:50:30.000Z</time>
      </trkpt>
      <trkpt lat="45.69718" lon="4.64629">
        <ele>500</ele>
        <time>2023-06-04T09:50:34.000Z</time>
      </trkpt>
      <trkpt lat="45.69717" lon="4.64632">
        <ele>500.4</ele>
        <time>2023-06-04T09:50:35.000Z</time>
      </trkpt>
      <trkpt lat="45.69716" lon="4.64634">
        <ele>500.6</ele>
        <time>2023-06-04T09:50:36.000Z</time>
      </trkpt>
      <trkpt lat="45.69713" lon="4.64642">
        <ele>501.2</ele>
        <time>2023-06-04T09:50:39.000Z</time>
      </trkpt>
      <trkpt lat="45.69711" lon="4.64647">
        <ele>501.8</ele>
        <time>2023-06-04T09:50:41.000Z</time>
      </trkpt>
      <trkpt lat="45.69709" lon="4.64652">
        <ele>502.2</ele>
        <time>2023-06-04T09:50:43.000Z</time>
      </trkpt>
      <trkpt lat="45.69708" lon="4.64656">
        <ele>502.6</ele>
        <time>2023-06-04T09:50:45.000Z</time>
      </trkpt>
      <trkpt lat="45.69707" lon="4.64659">
        <ele>502.8</ele>
        <time>2023-06-04T09:50:46.000Z</time>
      </trkpt>
      <trkpt lat="45.69704" lon="4.64666">
        <ele>503.4</ele>
        <time>2023-06-04T09:50:49.000Z</time>
      </trkpt>
      <trkpt lat="45.69701" lon="4.6467">
        <ele>503.6</ele>
        <time>2023-06-04T09:50:51.000Z</time>
      </trkpt>
      <trkpt lat="45.69701" lon="4.64672">
        <ele>503.8</ele>
        <time>2023-06-04T09:50:52.000Z</time>
      </trkpt>
      <trkpt lat="45.69698" lon="4.64683">
        <ele>504.4</ele>
        <time>2023-06-04T09:50:56.000Z</time>
      </trkpt>
      <trkpt lat="45.69697" lon="4.64691">
        <ele>505</ele>
        <time>2023-06-04T09:50:59.000Z</time>
      </trkpt>
      <trkpt lat="45.69697" lon="4.64698">
        <ele>505.4</ele>
        <time>2023-06-04T09:51:02.000Z</time>
      </trkpt>
      <trkpt lat="45.69697" lon="4.647">
        <ele>505.6</ele>
        <time>2023-06-04T09:51:03.000Z</time>
      </trkpt>
      <trkpt lat="45.69696" lon="4.64703">
        <ele>505.6</ele>
        <time>2023-06-04T09:51:04.000Z</time>
      </trkpt>
      <trkpt lat="45.69694" lon="4.6472">
        <ele>506.6</ele>
        <time>2023-06-04T09:51:10.000Z</time>
      </trkpt>
      <trkpt lat="45.69693" lon="4.64727">
        <ele>507</ele>
        <time>2023-06-04T09:51:12.000Z</time>
      </trkpt>
      <trkpt lat="45.69693" lon="4.64732">
        <ele>507</ele>
        <time>2023-06-04T09:51:14.000Z</time>
      </trkpt>
      <trkpt lat="45.69692" lon="4.64746">
        <ele>507.6</ele>
        <time>2023-06-04T09:51:19.000Z</time>
      </trkpt>
      <trkpt lat="45.69692" lon="4.64757">
        <ele>508</ele>
        <time>2023-06-04T09:51:22.000Z</time>
      </trkpt>
      <trkpt lat="45.69692" lon="4.64776">
        <ele>508.4</ele>
        <time>2023-06-04T09:51:27.000Z</time>
      </trkpt>
      <trkpt lat="45.69695" lon="4.64809">
        <ele>508.4</ele>
        <time>2023-06-04T09:51:34.000Z</time>
      </trkpt>
      <trkpt lat="45.69702" lon="4.64856">
        <ele>508</ele>
        <time>2023-06-04T09:51:42.000Z</time>
      </trkpt>
      <trkpt lat="45.69712" lon="4.64902">
        <ele>508</ele>
        <time>2023-06-04T09:51:50.000Z</time>
      </trkpt>
      <trkpt lat="45.69719" lon="4.64938">
        <ele>508</ele>
        <time>2023-06-04T09:51:55.000Z</time>
      </trkpt>
      <trkpt lat="45.69726" lon="4.64961">
        <ele>507.8</ele>
        <time>2023-06-04T09:51:59.000Z</time>
      </trkpt>
      <trkpt lat="45.69728" lon="4.6497">
        <ele>507.6</ele>
        <time>2023-06-04T09:52:01.000Z</time>
      </trkpt>
      <trkpt lat="45.69733" lon="4.64993">
        <ele>507.6</ele>
        <time>2023-06-04T09:52:07.000Z</time>
      </trkpt>
      <trkpt lat="45.69735" lon="4.65017">
        <ele>508.6</ele>
        <time>2023-06-04T09:52:14.000Z</time>
      </trkpt>
      <trkpt lat="45.69735" lon="4.6502">
        <ele>508.8</ele>
        <time>2023-06-04T09:52:15.000Z</time>
      </trkpt>
      <trkpt lat="45.69735" lon="4.65026">
        <ele>509.4</ele>
        <time>2023-06-04T09:52:17.000Z</time>
      </trkpt>
      <trkpt lat="45.69736" lon="4.6503">
        <ele>509.6</ele>
        <time>2023-06-04T09:52:19.000Z</time>
      </trkpt>
      <trkpt lat="45.69736" lon="4.65032">
        <ele>509.6</ele>
        <time>2023-06-04T09:52:20.000Z</time>
      </trkpt>
      <trkpt lat="45.6974" lon="4.65042">
        <ele>509.8</ele>
        <time>2023-06-04T09:52:24.000Z</time>
      </trkpt>
      <trkpt lat="45.69742" lon="4.65044">
        <ele>510</ele>
        <time>2023-06-04T09:52:25.000Z</time>
      </trkpt>
      <trkpt lat="45.69752" lon="4.65053">
        <ele>511</ele>
        <time>2023-06-04T09:52:31.000Z</time>
      </trkpt>
      <trkpt lat="45.69754" lon="4.65054">
        <ele>511.2</ele>
        <time>2023-06-04T09:52:32.000Z</time>
      </trkpt>
      <trkpt lat="45.69763" lon="4.6506">
        <ele>511.6</ele>
        <time>2023-06-04T09:52:36.000Z</time>
      </trkpt>
      <trkpt lat="45.69764" lon="4.65064">
        <ele>511.8</ele>
        <time>2023-06-04T09:52:38.000Z</time>
      </trkpt>
      <trkpt lat="45.69762" lon="4.65073">
        <ele>512</ele>
        <time>2023-06-04T09:52:41.000Z</time>
      </trkpt>
      <trkpt lat="45.6976" lon="4.65081">
        <ele>512</ele>
        <time>2023-06-04T09:52:43.000Z</time>
      </trkpt>
      <trkpt lat="45.69755" lon="4.65106">
        <ele>512</ele>
        <time>2023-06-04T09:52:48.000Z</time>
      </trkpt>
      <trkpt lat="45.69744" lon="4.65136">
        <ele>511.4</ele>
        <time>2023-06-04T09:52:53.000Z</time>
      </trkpt>
      <trkpt lat="45.69734" lon="4.65151">
        <ele>509.8</ele>
        <time>2023-06-04T09:52:57.000Z</time>
      </trkpt>
      <trkpt lat="45.69732" lon="4.65153">
        <ele>509.4</ele>
        <time>2023-06-04T09:52:58.000Z</time>
      </trkpt>
      <trkpt lat="45.69726" lon="4.65163">
        <ele>508.8</ele>
        <time>2023-06-04T09:53:00.000Z</time>
      </trkpt>
      <trkpt lat="45.69722" lon="4.65175">
        <ele>507.8</ele>
        <time>2023-06-04T09:53:03.000Z</time>
      </trkpt>
      <trkpt lat="45.69719" lon="4.65179">
        <ele>507.2</ele>
        <time>2023-06-04T09:53:04.000Z</time>
      </trkpt>
      <trkpt lat="45.69713" lon="4.65193">
        <ele>506.2</ele>
        <time>2023-06-04T09:53:07.000Z</time>
      </trkpt>
      <trkpt lat="45.69713" lon="4.65198">
        <ele>505.8</ele>
        <time>2023-06-04T09:53:08.000Z</time>
      </trkpt>
      <trkpt lat="45.69712" lon="4.65207">
        <ele>504.6</ele>
        <time>2023-06-04T09:53:10.000Z</time>
      </trkpt>
      <trkpt lat="45.69709" lon="4.65211">
        <ele>504</ele>
        <time>2023-06-04T09:53:11.000Z</time>
      </trkpt>
      <trkpt lat="45.69704" lon="4.6522">
        <ele>503.4</ele>
        <time>2023-06-04T09:53:13.000Z</time>
      </trkpt>
      <trkpt lat="45.69704" lon="4.65226">
        <ele>502.8</ele>
        <time>2023-06-04T09:53:14.000Z</time>
      </trkpt>
      <trkpt lat="45.69707" lon="4.65235">
        <ele>502</ele>
        <time>2023-06-04T09:53:16.000Z</time>
      </trkpt>
      <trkpt lat="45.69714" lon="4.65241">
        <ele>500.8</ele>
        <time>2023-06-04T09:53:19.000Z</time>
      </trkpt>
      <trkpt lat="45.69717" lon="4.65244">
        <ele>500</ele>
        <time>2023-06-04T09:53:20.000Z</time>
      </trkpt>
      <trkpt lat="45.6972" lon="4.65248">
        <ele>499.6</ele>
        <time>2023-06-04T09:53:21.000Z</time>
      </trkpt>
      <trkpt lat="45.69728" lon="4.65257">
        <ele>498.4</ele>
        <time>2023-06-04T09:53:23.000Z</time>
      </trkpt>
      <trkpt lat="45.69733" lon="4.65274">
        <ele>496.8</ele>
        <time>2023-06-04T09:53:26.000Z</time>
      </trkpt>
      <trkpt lat="45.69735" lon="4.65284">
        <ele>495.6</ele>
        <time>2023-06-04T09:53:29.000Z</time>
      </trkpt>
      <trkpt lat="45.69737" lon="4.65286">
        <ele>495</ele>
        <time>2023-06-04T09:53:30.000Z</time>
      </trkpt>
      <trkpt lat="45.69737" lon="4.65289">
        <ele>494.8</ele>
        <time>2023-06-04T09:53:31.000Z</time>
      </trkpt>
      <trkpt lat="45.69739" lon="4.65292">
        <ele>493.8</ele>
        <time>2023-06-04T09:53:32.000Z</time>
      </trkpt>
      <trkpt lat="45.69743" lon="4.65297">
        <ele>492.4</ele>
        <time>2023-06-04T09:53:34.000Z</time>
      </trkpt>
      <trkpt lat="45.69748" lon="4.65302">
        <ele>491.2</ele>
        <time>2023-06-04T09:53:36.000Z</time>
      </trkpt>
      <trkpt lat="45.6975" lon="4.65304">
        <ele>491.2</ele>
        <time>2023-06-04T09:53:37.000Z</time>
      </trkpt>
      <trkpt lat="45.69754" lon="4.65312">
        <ele>490.2</ele>
        <time>2023-06-04T09:53:39.000Z</time>
      </trkpt>
      <trkpt lat="45.69755" lon="4.65319">
        <ele>489.8</ele>
        <time>2023-06-04T09:53:40.000Z</time>
      </trkpt>
      <trkpt lat="45.69752" lon="4.65338">
        <ele>488.2</ele>
        <time>2023-06-04T09:53:43.000Z</time>
      </trkpt>
      <trkpt lat="45.6975" lon="4.65345">
        <ele>487.4</ele>
        <time>2023-06-04T09:53:44.000Z</time>
      </trkpt>
      <trkpt lat="45.6975" lon="4.6535">
        <ele>486.8</ele>
        <time>2023-06-04T09:53:45.000Z</time>
      </trkpt>
      <trkpt lat="45.69751" lon="4.65364">
        <ele>485.6</ele>
        <time>2023-06-04T09:53:48.000Z</time>
      </trkpt>
      <trkpt lat="45.69752" lon="4.6537">
        <ele>484.6</ele>
        <time>2023-06-04T09:53:49.000Z</time>
      </trkpt>
      <trkpt lat="45.69752" lon="4.65376">
        <ele>484.2</ele>
        <time>2023-06-04T09:53:50.000Z</time>
      </trkpt>
      <trkpt lat="45.69753" lon="4.65385">
        <ele>483.6</ele>
        <time>2023-06-04T09:53:51.000Z</time>
      </trkpt>
      <trkpt lat="45.69754" lon="4.65392">
        <ele>482.8</ele>
        <time>2023-06-04T09:53:52.000Z</time>
      </trkpt>
      <trkpt lat="45.69756" lon="4.65408">
        <ele>481.4</ele>
        <time>2023-06-04T09:53:54.000Z</time>
      </trkpt>
      <trkpt lat="45.69762" lon="4.65431">
        <ele>479.8</ele>
        <time>2023-06-04T09:53:57.000Z</time>
      </trkpt>
      <trkpt lat="45.69763" lon="4.65436">
        <ele>478.6</ele>
        <time>2023-06-04T09:53:58.000Z</time>
      </trkpt>
      <trkpt lat="45.69765" lon="4.65443">
        <ele>477.8</ele>
        <time>2023-06-04T09:53:59.000Z</time>
      </trkpt>
      <trkpt lat="45.69766" lon="4.65451">
        <ele>477.4</ele>
        <time>2023-06-04T09:54:00.000Z</time>
      </trkpt>
      <trkpt lat="45.69769" lon="4.65461">
        <ele>476.8</ele>
        <time>2023-06-04T09:54:01.000Z</time>
      </trkpt>
      <trkpt lat="45.69771" lon="4.65466">
        <ele>475.4</ele>
        <time>2023-06-04T09:54:02.000Z</time>
      </trkpt>
      <trkpt lat="45.69778" lon="4.65487">
        <ele>473.6</ele>
        <time>2023-06-04T09:54:05.000Z</time>
      </trkpt>
      <trkpt lat="45.69785" lon="4.65503">
        <ele>472</ele>
        <time>2023-06-04T09:54:07.000Z</time>
      </trkpt>
      <trkpt lat="45.69791" lon="4.6552">
        <ele>469.6</ele>
        <time>2023-06-04T09:54:09.000Z</time>
      </trkpt>
      <trkpt lat="45.69794" lon="4.6553">
        <ele>468.6</ele>
        <time>2023-06-04T09:54:10.000Z</time>
      </trkpt>
      <trkpt lat="45.69798" lon="4.6555">
        <ele>466.6</ele>
        <time>2023-06-04T09:54:12.000Z</time>
      </trkpt>
      <trkpt lat="45.69801" lon="4.65562">
        <ele>465.2</ele>
        <time>2023-06-04T09:54:13.000Z</time>
      </trkpt>
      <trkpt lat="45.69802" lon="4.6557">
        <ele>464.2</ele>
        <time>2023-06-04T09:54:14.000Z</time>
      </trkpt>
      <trkpt lat="45.69804" lon="4.65581">
        <ele>463</ele>
        <time>2023-06-04T09:54:15.000Z</time>
      </trkpt>
      <trkpt lat="45.69806" lon="4.6559">
        <ele>462</ele>
        <time>2023-06-04T09:54:16.000Z</time>
      </trkpt>
      <trkpt lat="45.69809" lon="4.65609">
        <ele>459.8</ele>
        <time>2023-06-04T09:54:18.000Z</time>
      </trkpt>
      <trkpt lat="45.6981" lon="4.65619">
        <ele>459</ele>
        <time>2023-06-04T09:54:19.000Z</time>
      </trkpt>
      <trkpt lat="45.6981" lon="4.65626">
        <ele>458.4</ele>
        <time>2023-06-04T09:54:20.000Z</time>
      </trkpt>
      <trkpt lat="45.69812" lon="4.65634">
        <ele>457.4</ele>
        <time>2023-06-04T09:54:21.000Z</time>
      </trkpt>
      <trkpt lat="45.69815" lon="4.65642">
        <ele>456.4</ele>
        <time>2023-06-04T09:54:22.000Z</time>
      </trkpt>
      <trkpt lat="45.69819" lon="4.65648">
        <ele>455.2</ele>
        <time>2023-06-04T09:54:23.000Z</time>
      </trkpt>
      <trkpt lat="45.69825" lon="4.65654">
        <ele>453.6</ele>
        <time>2023-06-04T09:54:24.000Z</time>
      </trkpt>
      <trkpt lat="45.69831" lon="4.65659">
        <ele>452.6</ele>
        <time>2023-06-04T09:54:25.000Z</time>
      </trkpt>
      <trkpt lat="45.69837" lon="4.65664">
        <ele>451</ele>
        <time>2023-06-04T09:54:26.000Z</time>
      </trkpt>
      <trkpt lat="45.69851" lon="4.65676">
        <ele>449.2</ele>
        <time>2023-06-04T09:54:28.000Z</time>
      </trkpt>
      <trkpt lat="45.69857" lon="4.6568">
        <ele>449.2</ele>
        <time>2023-06-04T09:54:29.000Z</time>
      </trkpt>
      <trkpt lat="45.69866" lon="4.65681">
        <ele>448.2</ele>
        <time>2023-06-04T09:54:30.000Z</time>
      </trkpt>
      <trkpt lat="45.69872" lon="4.6568">
        <ele>447.2</ele>
        <time>2023-06-04T09:54:31.000Z</time>
      </trkpt>
      <trkpt lat="45.69878" lon="4.65679">
        <ele>445.8</ele>
        <time>2023-06-04T09:54:32.000Z</time>
      </trkpt>
      <trkpt lat="45.69882" lon="4.65679">
        <ele>445</ele>
        <time>2023-06-04T09:54:33.000Z</time>
      </trkpt>
      <trkpt lat="45.69886" lon="4.65681">
        <ele>443.8</ele>
        <time>2023-06-04T09:54:34.000Z</time>
      </trkpt>
      <trkpt lat="45.6989" lon="4.65687">
        <ele>443</ele>
        <time>2023-06-04T09:54:35.000Z</time>
      </trkpt>
      <trkpt lat="45.6989" lon="4.65693">
        <ele>442.2</ele>
        <time>2023-06-04T09:54:36.000Z</time>
      </trkpt>
      <trkpt lat="45.6989" lon="4.657">
        <ele>441.4</ele>
        <time>2023-06-04T09:54:37.000Z</time>
      </trkpt>
      <trkpt lat="45.69889" lon="4.65709">
        <ele>440.6</ele>
        <time>2023-06-04T09:54:38.000Z</time>
      </trkpt>
      <trkpt lat="45.69888" lon="4.65719">
        <ele>440.2</ele>
        <time>2023-06-04T09:54:39.000Z</time>
      </trkpt>
      <trkpt lat="45.69887" lon="4.6573">
        <ele>439.6</ele>
        <time>2023-06-04T09:54:40.000Z</time>
      </trkpt>
      <trkpt lat="45.69885" lon="4.65753">
        <ele>439.2</ele>
        <time>2023-06-04T09:54:42.000Z</time>
      </trkpt>
      <trkpt lat="45.69885" lon="4.65776">
        <ele>438</ele>
        <time>2023-06-04T09:54:44.000Z</time>
      </trkpt>
      <trkpt lat="45.69885" lon="4.65787">
        <ele>437.2</ele>
        <time>2023-06-04T09:54:45.000Z</time>
      </trkpt>
      <trkpt lat="45.69885" lon="4.65797">
        <ele>436.4</ele>
        <time>2023-06-04T09:54:46.000Z</time>
      </trkpt>
      <trkpt lat="45.69885" lon="4.65806">
        <ele>435.4</ele>
        <time>2023-06-04T09:54:47.000Z</time>
      </trkpt>
      <trkpt lat="45.69887" lon="4.65825">
        <ele>433.4</ele>
        <time>2023-06-04T09:54:49.000Z</time>
      </trkpt>
      <trkpt lat="45.69887" lon="4.65835">
        <ele>432.4</ele>
        <time>2023-06-04T09:54:50.000Z</time>
      </trkpt>
      <trkpt lat="45.69886" lon="4.65848">
        <ele>431.2</ele>
        <time>2023-06-04T09:54:51.000Z</time>
      </trkpt>
      <trkpt lat="45.69886" lon="4.65857">
        <ele>429.8</ele>
        <time>2023-06-04T09:54:52.000Z</time>
      </trkpt>
      <trkpt lat="45.69884" lon="4.6588">
        <ele>429</ele>
        <time>2023-06-04T09:54:54.000Z</time>
      </trkpt>
      <trkpt lat="45.69883" lon="4.65892">
        <ele>428.4</ele>
        <time>2023-06-04T09:54:55.000Z</time>
      </trkpt>
      <trkpt lat="45.6988" lon="4.65916">
        <ele>427.4</ele>
        <time>2023-06-04T09:54:57.000Z</time>
      </trkpt>
      <trkpt lat="45.69877" lon="4.65943">
        <ele>426</ele>
        <time>2023-06-04T09:54:59.000Z</time>
      </trkpt>
      <trkpt lat="45.69874" lon="4.65968">
        <ele>425</ele>
        <time>2023-06-04T09:55:01.000Z</time>
      </trkpt>
      <trkpt lat="45.69871" lon="4.65991">
        <ele>423.8</ele>
        <time>2023-06-04T09:55:03.000Z</time>
      </trkpt>
      <trkpt lat="45.69868" lon="4.6602">
        <ele>422.2</ele>
        <time>2023-06-04T09:55:05.000Z</time>
      </trkpt>
      <trkpt lat="45.69865" lon="4.66045">
        <ele>421</ele>
        <time>2023-06-04T09:55:07.000Z</time>
      </trkpt>
      <trkpt lat="45.69859" lon="4.66077">
        <ele>420</ele>
        <time>2023-06-04T09:55:09.000Z</time>
      </trkpt>
      <trkpt lat="45.69857" lon="4.66088">
        <ele>419.4</ele>
        <time>2023-06-04T09:55:10.000Z</time>
      </trkpt>
      <trkpt lat="45.69854" lon="4.66104">
        <ele>418.6</ele>
        <time>2023-06-04T09:55:11.000Z</time>
      </trkpt>
      <trkpt lat="45.69851" lon="4.66128">
        <ele>417</ele>
        <time>2023-06-04T09:55:13.000Z</time>
      </trkpt>
      <trkpt lat="45.6985" lon="4.66142">
        <ele>416.2</ele>
        <time>2023-06-04T09:55:14.000Z</time>
      </trkpt>
      <trkpt lat="45.69849" lon="4.66158">
        <ele>415.4</ele>
        <time>2023-06-04T09:55:15.000Z</time>
      </trkpt>
      <trkpt lat="45.69849" lon="4.66168">
        <ele>413.8</ele>
        <time>2023-06-04T09:55:16.000Z</time>
      </trkpt>
      <trkpt lat="45.69849" lon="4.66182">
        <ele>412.6</ele>
        <time>2023-06-04T09:55:17.000Z</time>
      </trkpt>
      <trkpt lat="45.69849" lon="4.66208">
        <ele>411.2</ele>
        <time>2023-06-04T09:55:19.000Z</time>
      </trkpt>
      <trkpt lat="45.69849" lon="4.66216">
        <ele>411.2</ele>
        <time>2023-06-04T09:55:20.000Z</time>
      </trkpt>
      <trkpt lat="45.69851" lon="4.66228">
        <ele>409.4</ele>
        <time>2023-06-04T09:55:22.000Z</time>
      </trkpt>
      <trkpt lat="45.69853" lon="4.6624">
        <ele>407.8</ele>
        <time>2023-06-04T09:55:24.000Z</time>
      </trkpt>
      <trkpt lat="45.69853" lon="4.66244">
        <ele>406.6</ele>
        <time>2023-06-04T09:55:25.000Z</time>
      </trkpt>
      <trkpt lat="45.69853" lon="4.66251">
        <ele>405.6</ele>
        <time>2023-06-04T09:55:26.000Z</time>
      </trkpt>
      <trkpt lat="45.69852" lon="4.66257">
        <ele>404.8</ele>
        <time>2023-06-04T09:55:27.000Z</time>
      </trkpt>
      <trkpt lat="45.6985" lon="4.66265">
        <ele>404.4</ele>
        <time>2023-06-04T09:55:28.000Z</time>
      </trkpt>
      <trkpt lat="45.69846" lon="4.66294">
        <ele>404</ele>
        <time>2023-06-04T09:55:32.000Z</time>
      </trkpt>
      <trkpt lat="45.69845" lon="4.66302">
        <ele>403.8</ele>
        <time>2023-06-04T09:55:33.000Z</time>
      </trkpt>
      <trkpt lat="45.69836" lon="4.66347">
        <ele>402.8</ele>
        <time>2023-06-04T09:55:39.000Z</time>
      </trkpt>
      <trkpt lat="45.69835" lon="4.66354">
        <ele>402.6</ele>
        <time>2023-06-04T09:55:40.000Z</time>
      </trkpt>
      <trkpt lat="45.69826" lon="4.6639">
        <ele>402.4</ele>
        <time>2023-06-04T09:55:45.000Z</time>
      </trkpt>
      <trkpt lat="45.69823" lon="4.66405">
        <ele>402.2</ele>
        <time>2023-06-04T09:55:47.000Z</time>
      </trkpt>
      <trkpt lat="45.69821" lon="4.66412">
        <ele>402.2</ele>
        <time>2023-06-04T09:55:48.000Z</time>
      </trkpt>
      <trkpt lat="45.69819" lon="4.66421">
        <ele>402</ele>
        <time>2023-06-04T09:55:49.000Z</time>
      </trkpt>
      <trkpt lat="45.69818" lon="4.66427">
        <ele>401.8</ele>
        <time>2023-06-04T09:55:50.000Z</time>
      </trkpt>
      <trkpt lat="45.69811" lon="4.66449">
        <ele>401.8</ele>
        <time>2023-06-04T09:55:53.000Z</time>
      </trkpt>
      <trkpt lat="45.69808" lon="4.66461">
        <ele>401.6</ele>
        <time>2023-06-04T09:55:55.000Z</time>
      </trkpt>
      <trkpt lat="45.69802" lon="4.66481">
        <ele>401.6</ele>
        <time>2023-06-04T09:55:58.000Z</time>
      </trkpt>
      <trkpt lat="45.69798" lon="4.66493">
        <ele>401.6</ele>
        <time>2023-06-04T09:56:00.000Z</time>
      </trkpt>
      <trkpt lat="45.69793" lon="4.66511">
        <ele>401.6</ele>
        <time>2023-06-04T09:56:03.000Z</time>
      </trkpt>
      <trkpt lat="45.69775" lon="4.66555">
        <ele>402.2</ele>
        <time>2023-06-04T09:56:10.000Z</time>
      </trkpt>
      <trkpt lat="45.69758" lon="4.666">
        <ele>402.2</ele>
        <time>2023-06-04T09:56:17.000Z</time>
      </trkpt>
      <trkpt lat="45.69757" lon="4.66607">
        <ele>402.2</ele>
        <time>2023-06-04T09:56:18.000Z</time>
      </trkpt>
      <trkpt lat="45.69753" lon="4.66653">
        <ele>401.8</ele>
        <time>2023-06-04T09:56:23.000Z</time>
      </trkpt>
      <trkpt lat="45.69751" lon="4.66715">
        <ele>400.4</ele>
        <time>2023-06-04T09:56:28.000Z</time>
      </trkpt>
      <trkpt lat="45.69751" lon="4.66747">
        <ele>399.4</ele>
        <time>2023-06-04T09:56:30.000Z</time>
      </trkpt>
      <trkpt lat="45.69751" lon="4.6676">
        <ele>398.6</ele>
        <time>2023-06-04T09:56:31.000Z</time>
      </trkpt>
      <trkpt lat="45.69751" lon="4.66791">
        <ele>397</ele>
        <time>2023-06-04T09:56:33.000Z</time>
      </trkpt>
      <trkpt lat="45.69751" lon="4.66807">
        <ele>396</ele>
        <time>2023-06-04T09:56:34.000Z</time>
      </trkpt>
      <trkpt lat="45.69751" lon="4.66826">
        <ele>395</ele>
        <time>2023-06-04T09:56:35.000Z</time>
      </trkpt>
      <trkpt lat="45.69751" lon="4.66855">
        <ele>393.6</ele>
        <time>2023-06-04T09:56:37.000Z</time>
      </trkpt>
      <trkpt lat="45.69752" lon="4.6687">
        <ele>392.4</ele>
        <time>2023-06-04T09:56:38.000Z</time>
      </trkpt>
      <trkpt lat="45.69753" lon="4.66885">
        <ele>391</ele>
        <time>2023-06-04T09:56:39.000Z</time>
      </trkpt>
      <trkpt lat="45.69755" lon="4.66903">
        <ele>389.8</ele>
        <time>2023-06-04T09:56:40.000Z</time>
      </trkpt>
      <trkpt lat="45.69755" lon="4.66916">
        <ele>388.8</ele>
        <time>2023-06-04T09:56:41.000Z</time>
      </trkpt>
      <trkpt lat="45.69755" lon="4.66932">
        <ele>387.8</ele>
        <time>2023-06-04T09:56:42.000Z</time>
      </trkpt>
      <trkpt lat="45.69754" lon="4.66964">
        <ele>386</ele>
        <time>2023-06-04T09:56:44.000Z</time>
      </trkpt>
      <trkpt lat="45.69754" lon="4.66984">
        <ele>384.8</ele>
        <time>2023-06-04T09:56:45.000Z</time>
      </trkpt>
      <trkpt lat="45.69755" lon="4.67014">
        <ele>383.4</ele>
        <time>2023-06-04T09:56:47.000Z</time>
      </trkpt>
      <trkpt lat="45.69756" lon="4.6703">
        <ele>382.4</ele>
        <time>2023-06-04T09:56:48.000Z</time>
      </trkpt>
      <trkpt lat="45.69756" lon="4.67047">
        <ele>381</ele>
        <time>2023-06-04T09:56:49.000Z</time>
      </trkpt>
      <trkpt lat="45.69756" lon="4.67063">
        <ele>379.8</ele>
        <time>2023-06-04T09:56:50.000Z</time>
      </trkpt>
      <trkpt lat="45.69756" lon="4.67079">
        <ele>378.6</ele>
        <time>2023-06-04T09:56:51.000Z</time>
      </trkpt>
      <trkpt lat="45.69757" lon="4.67094">
        <ele>377.2</ele>
        <time>2023-06-04T09:56:52.000Z</time>
      </trkpt>
      <trkpt lat="45.69758" lon="4.67125">
        <ele>375.6</ele>
        <time>2023-06-04T09:56:54.000Z</time>
      </trkpt>
      <trkpt lat="45.69758" lon="4.67139">
        <ele>375</ele>
        <time>2023-06-04T09:56:55.000Z</time>
      </trkpt>
      <trkpt lat="45.69759" lon="4.67154">
        <ele>374.4</ele>
        <time>2023-06-04T09:56:56.000Z</time>
      </trkpt>
      <trkpt lat="45.6976" lon="4.67183">
        <ele>373.4</ele>
        <time>2023-06-04T09:56:58.000Z</time>
      </trkpt>
      <trkpt lat="45.6976" lon="4.67224">
        <ele>372.6</ele>
        <time>2023-06-04T09:57:01.000Z</time>
      </trkpt>
      <trkpt lat="45.69758" lon="4.67237">
        <ele>372.2</ele>
        <time>2023-06-04T09:57:02.000Z</time>
      </trkpt>
      <trkpt lat="45.69756" lon="4.67262">
        <ele>371.4</ele>
        <time>2023-06-04T09:57:04.000Z</time>
      </trkpt>
      <trkpt lat="45.69754" lon="4.67274">
        <ele>370.6</ele>
        <time>2023-06-04T09:57:05.000Z</time>
      </trkpt>
      <trkpt lat="45.6975" lon="4.67301">
        <ele>369.2</ele>
        <time>2023-06-04T09:57:07.000Z</time>
      </trkpt>
      <trkpt lat="45.69745" lon="4.67322">
        <ele>368.2</ele>
        <time>2023-06-04T09:57:09.000Z</time>
      </trkpt>
      <trkpt lat="45.69742" lon="4.67332">
        <ele>367.6</ele>
        <time>2023-06-04T09:57:10.000Z</time>
      </trkpt>
      <trkpt lat="45.69738" lon="4.6734">
        <ele>367</ele>
        <time>2023-06-04T09:57:11.000Z</time>
      </trkpt>
      <trkpt lat="45.69735" lon="4.67347">
        <ele>366.6</ele>
        <time>2023-06-04T09:57:12.000Z</time>
      </trkpt>
      <trkpt lat="45.69733" lon="4.67353">
        <ele>366</ele>
        <time>2023-06-04T09:57:13.000Z</time>
      </trkpt>
      <trkpt lat="45.69728" lon="4.67364">
        <ele>364.8</ele>
        <time>2023-06-04T09:57:15.000Z</time>
      </trkpt>
      <trkpt lat="45.69724" lon="4.67375">
        <ele>364</ele>
        <time>2023-06-04T09:57:17.000Z</time>
      </trkpt>
      <trkpt lat="45.69721" lon="4.67381">
        <ele>363.8</ele>
        <time>2023-06-04T09:57:18.000Z</time>
      </trkpt>
      <trkpt lat="45.69719" lon="4.67387">
        <ele>363.8</ele>
        <time>2023-06-04T09:57:19.000Z</time>
      </trkpt>
      <trkpt lat="45.69707" lon="4.67399">
        <ele>363.4</ele>
        <time>2023-06-04T09:57:21.000Z</time>
      </trkpt>
      <trkpt lat="45.69703" lon="4.67402">
        <ele>363</ele>
        <time>2023-06-04T09:57:22.000Z</time>
      </trkpt>
      <trkpt lat="45.69697" lon="4.67408">
        <ele>362.6</ele>
        <time>2023-06-04T09:57:23.000Z</time>
      </trkpt>
      <trkpt lat="45.69686" lon="4.67415">
        <ele>361.8</ele>
        <time>2023-06-04T09:57:25.000Z</time>
      </trkpt>
      <trkpt lat="45.69679" lon="4.67419">
        <ele>361.4</ele>
        <time>2023-06-04T09:57:26.000Z</time>
      </trkpt>
      <trkpt lat="45.69674" lon="4.67422">
        <ele>361.4</ele>
        <time>2023-06-04T09:57:27.000Z</time>
      </trkpt>
      <trkpt lat="45.69657" lon="4.67429">
        <ele>360.4</ele>
        <time>2023-06-04T09:57:30.000Z</time>
      </trkpt>
      <trkpt lat="45.69645" lon="4.67434">
        <ele>359.8</ele>
        <time>2023-06-04T09:57:32.000Z</time>
      </trkpt>
      <trkpt lat="45.69634" lon="4.67435">
        <ele>359.6</ele>
        <time>2023-06-04T09:57:34.000Z</time>
      </trkpt>
      <trkpt lat="45.69627" lon="4.67433">
        <ele>359.2</ele>
        <time>2023-06-04T09:57:35.000Z</time>
      </trkpt>
      <trkpt lat="45.69613" lon="4.6743">
        <ele>358.8</ele>
        <time>2023-06-04T09:57:37.000Z</time>
      </trkpt>
      <trkpt lat="45.696" lon="4.67427">
        <ele>358.6</ele>
        <time>2023-06-04T09:57:39.000Z</time>
      </trkpt>
      <trkpt lat="45.69586" lon="4.67425">
        <ele>358.2</ele>
        <time>2023-06-04T09:57:41.000Z</time>
      </trkpt>
      <trkpt lat="45.69556" lon="4.67429">
        <ele>357</ele>
        <time>2023-06-04T09:57:45.000Z</time>
      </trkpt>
      <trkpt lat="45.69524" lon="4.67442">
        <ele>355.8</ele>
        <time>2023-06-04T09:57:49.000Z</time>
      </trkpt>
      <trkpt lat="45.69497" lon="4.67456">
        <ele>354.6</ele>
        <time>2023-06-04T09:57:52.000Z</time>
      </trkpt>
      <trkpt lat="45.69477" lon="4.67465">
        <ele>353.8</ele>
        <time>2023-06-04T09:57:54.000Z</time>
      </trkpt>
      <trkpt lat="45.69466" lon="4.67468">
        <ele>353.4</ele>
        <time>2023-06-04T09:57:55.000Z</time>
      </trkpt>
      <trkpt lat="45.69446" lon="4.67476">
        <ele>351.8</ele>
        <time>2023-06-04T09:57:57.000Z</time>
      </trkpt>
      <trkpt lat="45.69424" lon="4.67481">
        <ele>350</ele>
        <time>2023-06-04T09:57:59.000Z</time>
      </trkpt>
      <trkpt lat="45.69413" lon="4.67484">
        <ele>349.2</ele>
        <time>2023-06-04T09:58:00.000Z</time>
      </trkpt>
      <trkpt lat="45.69401" lon="4.67485">
        <ele>348.4</ele>
        <time>2023-06-04T09:58:01.000Z</time>
      </trkpt>
      <trkpt lat="45.69378" lon="4.67489">
        <ele>346.4</ele>
        <time>2023-06-04T09:58:03.000Z</time>
      </trkpt>
      <trkpt lat="45.69351" lon="4.67493">
        <ele>344.4</ele>
        <time>2023-06-04T09:58:05.000Z</time>
      </trkpt>
      <trkpt lat="45.69329" lon="4.67495">
        <ele>342.4</ele>
        <time>2023-06-04T09:58:07.000Z</time>
      </trkpt>
      <trkpt lat="45.69316" lon="4.67495">
        <ele>341.2</ele>
        <time>2023-06-04T09:58:08.000Z</time>
      </trkpt>
      <trkpt lat="45.69304" lon="4.67493">
        <ele>339.8</ele>
        <time>2023-06-04T09:58:09.000Z</time>
      </trkpt>
      <trkpt lat="45.69293" lon="4.67489">
        <ele>338.4</ele>
        <time>2023-06-04T09:58:10.000Z</time>
      </trkpt>
      <trkpt lat="45.69283" lon="4.67483">
        <ele>337.2</ele>
        <time>2023-06-04T09:58:11.000Z</time>
      </trkpt>
      <trkpt lat="45.69273" lon="4.67477">
        <ele>336</ele>
        <time>2023-06-04T09:58:12.000Z</time>
      </trkpt>
      <trkpt lat="45.69263" lon="4.67471">
        <ele>334.8</ele>
        <time>2023-06-04T09:58:13.000Z</time>
      </trkpt>
      <trkpt lat="45.69253" lon="4.67463">
        <ele>333.6</ele>
        <time>2023-06-04T09:58:14.000Z</time>
      </trkpt>
      <trkpt lat="45.69244" lon="4.67457">
        <ele>332.4</ele>
        <time>2023-06-04T09:58:15.000Z</time>
      </trkpt>
      <trkpt lat="45.69228" lon="4.67446">
        <ele>331.2</ele>
        <time>2023-06-04T09:58:17.000Z</time>
      </trkpt>
      <trkpt lat="45.69221" lon="4.67442">
        <ele>331.2</ele>
        <time>2023-06-04T09:58:18.000Z</time>
      </trkpt>
      <trkpt lat="45.69209" lon="4.67444">
        <ele>330.4</ele>
        <time>2023-06-04T09:58:20.000Z</time>
      </trkpt>
      <trkpt lat="45.69204" lon="4.67449">
        <ele>330</ele>
        <time>2023-06-04T09:58:21.000Z</time>
      </trkpt>
      <trkpt lat="45.692" lon="4.67455">
        <ele>329.8</ele>
        <time>2023-06-04T09:58:22.000Z</time>
      </trkpt>
      <trkpt lat="45.69195" lon="4.67459">
        <ele>329.6</ele>
        <time>2023-06-04T09:58:23.000Z</time>
      </trkpt>
      <trkpt lat="45.69189" lon="4.67461">
        <ele>329.6</ele>
        <time>2023-06-04T09:58:24.000Z</time>
      </trkpt>
      <trkpt lat="45.6918" lon="4.67467">
        <ele>329.4</ele>
        <time>2023-06-04T09:58:26.000Z</time>
      </trkpt>
      <trkpt lat="45.6917" lon="4.67482">
        <ele>329.4</ele>
        <time>2023-06-04T09:58:29.000Z</time>
      </trkpt>
      <trkpt lat="45.69167" lon="4.67487">
        <ele>329.2</ele>
        <time>2023-06-04T09:58:30.000Z</time>
      </trkpt>
      <trkpt lat="45.69163" lon="4.67491">
        <ele>329.2</ele>
        <time>2023-06-04T09:58:31.000Z</time>
      </trkpt>
      <trkpt lat="45.69157" lon="4.67495">
        <ele>329</ele>
        <time>2023-06-04T09:58:33.000Z</time>
      </trkpt>
      <trkpt lat="45.69148" lon="4.67492">
        <ele>328.4</ele>
        <time>2023-06-04T09:58:37.000Z</time>
      </trkpt>
      <trkpt lat="45.69144" lon="4.67496">
        <ele>328.2</ele>
        <time>2023-06-04T09:58:39.000Z</time>
      </trkpt>
      <trkpt lat="45.69141" lon="4.67498">
        <ele>328</ele>
        <time>2023-06-04T09:58:40.000Z</time>
      </trkpt>
      <trkpt lat="45.69135" lon="4.67496">
        <ele>327.8</ele>
        <time>2023-06-04T09:58:42.000Z</time>
      </trkpt>
      <trkpt lat="45.69132" lon="4.67493">
        <ele>327.8</ele>
        <time>2023-06-04T09:58:43.000Z</time>
      </trkpt>
    </trkseg>
  </trk>
</gpx>